# Wetter Temperatur Luftdruck Luftfeuchtigkeit Sichtweite Windgeschwindigkeit Windrichtung Zeit
1 Clouds 17 1017 66 10000 0.5 0 23:56 04.08.2020
2 Clouds 18 1017 62 10000 0.5 100 23:35 04.08.2020
3 Clouds 18 1017 62 10000 1.5 60 22:55 04.08.2020
4 Clear 19 1017 58 10000 0.5 120 22:29 04.08.2020
5 Clear 20 1017 48 10000 1.5 50 21:57 04.08.2020
6 Clear 23 1016 33 10000 4.1 310 19:57 04.08.2020
7 Clear 24 1016 33 10000 4.1 310 19:20 04.08.2020
8 Clear 23 1016 33 10000 4.6 310 17:57 04.08.2020
9 Clear 23 1016 33 10000 3.1 340 17:29 04.08.2020
10 Clear 23 1017 35 10000 4.6 290 16:18 04.08.2020
11 Clear 23 1017 35 10000 3.6 260 15:30 04.08.2020
12 Clear 22 1017 43 10000 5.7 290 14:33 04.08.2020
13 Clouds 21 1017 52 10000 3.6 310 13:27 04.08.2020
14 Clouds 19 1017 55 10000 2.6 310 11:34 04.08.2020
15 Clouds 18 1017 68 10000 3.1 310 10:55 04.08.2020
16 Clouds 18 1017 68 10000 3.1 310 10:34 04.08.2020
17 Clouds 16 1017 77 10000 2.1 340 09:35 04.08.2020
18 Clouds 15 1015 87 10000 0.5 0 06:59 04.08.2020
19 Clouds 15 1014 82 10000 2.6 340 04:48 04.08.2020
20 Clouds 20 1012 55 10000 2.6 360 22:54 03.08.2020
21 Clouds 20 1012 59 10000 2.1 10 22:20 03.08.2020
22 Clouds 21 1011 59 10000 2.1 320 21:27 03.08.2020
23 Clouds 21 1011 52 10000 3.1 280 20:53 03.08.2020
24 Rain 22 1011 56 10000 4.1 230 19:47 03.08.2020
25 Rain 23 1011 40 10000 2.1 270 19:25 03.08.2020
26 Rain 23 1011 43 10000 2.1 320 18:34 03.08.2020
27 Clouds 23 1011 40 10000 2.1 340 17:54 03.08.2020
28 Clouds 23 1011 33 10000 2.6 330 16:43 03.08.2020
29 Clouds 24 1012 36 10000 4.6 350 15:47 03.08.2020
30 Clouds 24 1012 38 10000 2.1 0 14:29 03.08.2020
31 Clouds 23 1013 40 10000 1.5 0 13:38 03.08.2020
32 Clouds 22 1013 43 10000 1.5 0 12:39 03.08.2020
33 Clouds 20 1014 52 10000 1 0 11:34 03.08.2020
34 Clouds 19 1014 63 10000 1 0 10:21 03.08.2020
35 Clouds 18 1014 72 10000 1 0 09:26 03.08.2020
36 Clouds 15 1014 93 10000 0.5 0 05:29 03.08.2020
37 Clouds 17 1015 87 10000 0.5 10 02:23 03.08.2020
38 Clouds 17 1015 82 10000 1.5 340 01:51 03.08.2020
39 Clouds 18 1015 82 10000 1.5 340 00:45 03.08.2020
40 Rain 20 1015 72 10000 3.6 360 21:48 02.08.2020
41 Rain 19 1015 72 10000 3.6 360 21:48 02.08.2020
42 Rain 20 1015 64 10000 5.1 330 21:22 02.08.2020
43 Rain 21 1014 60 10000 3.1 360 20:38 02.08.2020
44 Rain 21 1014 60 10000 3.6 360 20:18 02.08.2020
45 Clouds 22 1014 56 10000 4.1 350 19:41 02.08.2020
46 Clouds 23 1014 56 10000 5.1 340 18:55 02.08.2020
47 Clouds 23 1014 56 10000 5.1 340 18:36 02.08.2020
48 Clouds 24 1014 47 10000 4.6 280 16:42 02.08.2020
49 Clouds 23 1015 56 10000 6.2 300 15:19 02.08.2020
50 Clouds 23 1015 50 10000 5.1 300 14:46 02.08.2020
51 Clouds 23 1015 49 10000 4.6 280 13:58 02.08.2020
52 Clouds 23 1015 49 10000 5.7 300 13:27 02.08.2020
53 Clouds 22 1015 56 10000 1.5 0 12:48 02.08.2020
54 Clouds 21 1015 60 10000 4.1 310 11:34 02.08.2020
55 Clouds 20 1015 68 10000 4.1 280 10:50 02.08.2020
56 Clouds 20 1015 68 10000 5.1 280 10:28 02.08.2020
57 Clouds 20 1015 68 10000 2.1 320 09:26 02.08.2020
58 Clouds 19 1014 72 10000 1.5 340 08:29 02.08.2020
59 Clouds 19 1014 72 10000 2.1 340 07:52 02.08.2020
60 Rain 20 1015 77 10000 2.1 300 04:47 02.08.2020
61 Clouds 21 1015 88 10000 1.5 350 02:27 02.08.2020
62 Clouds 22 1014 94 10000 1.5 10 00:23 02.08.2020
63 Thunderstorm 23 1014 73 10000 5.7 330 22:50 01.08.2020
64 Clouds 27 1013 57 10000 6.2 320 20:59 01.08.2020
65 Clouds 28 1013 54 10000 3.1 330 20:25 01.08.2020
66 Clouds 30 1013 45 10000 4.1 310 19:28 01.08.2020
67 Clouds 31 1013 43 10000 2.1 10 18:41 01.08.2020
68 Clouds 31 1013 48 10000 2.1 0 17:48 01.08.2020
69 Clouds 30 1014 51 10000 1.5 40 16:38 01.08.2020
70 Clouds 30 1014 54 10000 1 0 15:53 01.08.2020
71 Clouds 29 1014 57 10000 1.5 0 15:23 01.08.2020
72 Clouds 28 1015 65 10000 1 0 14:54 01.08.2020
73 Rain 23 1015 94 10000 2.1 340 13:22 01.08.2020
74 Rain 22 1015 94 10000 3.1 160 11:48 01.08.2020
75 Rain 23 1015 82 10000 3.1 130 10:56 01.08.2020
76 Rain 23 1014 60 10000 1 270 07:43 01.08.2020
77 Clouds 24 1013 47 10000 2.6 90 03:21 01.08.2020
78 Clouds 25 1013 44 10000 3.6 90 01:54 01.08.2020
79 Clear 26 1013 41 10000 3.1 90 01:33 01.08.2020
80 Clear 26 1013 39 10000 2.1 90 00:37 01.08.2020
81 Clear 28 1013 37 10000 2.6 90 22:49 31.07.2020
82 Clear 33 1013 26 10000 2.1 80 20:51 31.07.2020
83 Clear 33 1013 26 10000 2.1 80 20:29 31.07.2020
84 Clear 35 1013 23 10000 2.6 90 19:58 31.07.2020
85 Clear 35 1013 21 10000 3.1 80 18:39 31.07.2020
86 Clear 35 1014 23 10000 3.1 140 17:28 31.07.2020
87 Clear 35 1014 23 10000 2.6 0 16:41 31.07.2020
88 Clear 35 1015 24 10000 2.1 0 15:23 31.07.2020
89 Clear 31 1016 25 10000 3.6 150 13:42 31.07.2020
90 Clear 31 1016 29 10000 4.1 170 13:22 31.07.2020
91 Clear 30 1017 30 10000 3.1 160 12:19 31.07.2020
92 Clear 28 1017 32 10000 2.6 150 11:38 31.07.2020
93 Clear 26 1017 36 10000 3.1 110 10:47 31.07.2020
94 Clear 23 1018 46 10000 2.1 100 09:53 31.07.2020
95 Clear 21 1018 49 10000 2.1 100 09:25 31.07.2020
96 Clear 20 1018 56 10000 1.5 100 08:49 31.07.2020
97 Clear 16 1018 82 10000 1.5 140 06:46 31.07.2020
98 Clear 18 1018 72 10000 1.5 60 03:34 31.07.2020
99 Clear 19 1018 67 10000 1.5 130 01:52 31.07.2020
100 Clear 21 1018 52 10000 3.1 70 00:36 31.07.2020
101 Clear 22 1018 52 10000 3.6 60 23:48 30.07.2020
102 Clear 23 1018 46 10000 3.1 60 22:47 30.07.2020
103 Clear 23 1018 46 10000 1.5 60 22:21 30.07.2020
104 Clear 27 1018 31 10000 1.5 30 21:19 30.07.2020
105 Clear 27 1018 30 10000 2.6 20 20:55 30.07.2020
106 Clouds 28 1018 28 10000 2.1 30 19:43 30.07.2020
107 Clouds 29 1018 25 10000 2.6 10 18:54 30.07.2020
108 Clouds 29 1019 28 10000 2.6 50 17:51 30.07.2020
109 Clouds 29 1019 28 10000 2.6 0 16:57 30.07.2020
110 Clouds 28 1019 28 10000 2.6 0 16:35 30.07.2020
111 Clouds 28 1020 26 10000 1 0 15:57 30.07.2020
112 Clouds 28 1020 31 10000 2.1 20 15:38 30.07.2020
113 Clouds 27 1020 34 10000 2.6 50 14:57 30.07.2020
114 Clear 27 1020 34 10000 2.6 50 14:38 30.07.2020
115 Clouds 26 1020 34 10000 1.5 0 14:20 30.07.2020
116 Clouds 26 1020 36 10000 1 0 13:43 30.07.2020
117 Clouds 25 1021 38 10000 1.5 0 13:19 30.07.2020
118 Clouds 24 1021 41 10000 2.1 0 12:39 30.07.2020
119 Clouds 23 1021 43 10000 2.1 0 11:37 30.07.2020
120 Clouds 20 1022 52 10000 1.5 0 10:28 30.07.2020
121 Clouds 19 1021 59 10000 1.5 120 09:45 30.07.2020
122 Clouds 17 1021 63 10000 1.5 130 09:18 30.07.2020
123 Clouds 16 1021 72 10000 1.5 100 08:44 30.07.2020
124 Clouds 13 1021 100 10000 2.6 140 07:29 30.07.2020
125 Clouds 16 1021 87 10000 1 0 02:30 30.07.2020
126 Clouds 15 1020 82 10000 1 0 01:25 30.07.2020
127 Clouds 19 1020 67 10000 2.1 60 23:22 29.07.2020
128 Clouds 20 1020 59 10000 2.1 30 22:41 29.07.2020
129 Clouds 20 1019 55 10000 1.5 20 21:51 29.07.2020
130 Clouds 21 1019 55 10000 1.5 20 21:32 29.07.2020
131 Clear 22 1019 46 10000 3.1 330 20:45 29.07.2020
132 Clouds 23 1019 43 10000 4.1 310 20:21 29.07.2020
133 Clouds 23 1019 40 10000 4.1 300 19:41 29.07.2020
134 Clouds 23 1019 40 10000 3.6 300 19:23 29.07.2020
135 Clouds 24 1019 38 10000 4.1 310 18:44 29.07.2020
136 Clouds 24 1019 38 10000 4.1 280 18:23 29.07.2020
137 Clouds 23 1019 40 10000 4.6 300 17:45 29.07.2020
138 Clouds 23 1020 40 10000 4.1 300 16:42 29.07.2020
139 Clear 22 1020 40 10000 4.6 280 15:53 29.07.2020
140 Clear 22 1020 40 10000 4.6 280 15:29 29.07.2020
141 Clear 22 1020 43 10000 4.6 280 14:56 29.07.2020
142 Clouds 21 1020 43 10000 4.6 270 14:19 29.07.2020
143 Clouds 20 1020 45 10000 4.1 290 13:25 29.07.2020
144 Clouds 19 1020 48 10000 5.1 310 12:46 29.07.2020
145 Clouds 20 1020 52 10000 4.6 290 12:20 29.07.2020
146 Clouds 19 1020 52 10000 4.1 280 11:44 29.07.2020
147 Clouds 19 1020 55 10000 3.1 270 10:59 29.07.2020
148 Clouds 18 1020 55 10000 3.1 270 10:34 29.07.2020
149 Clouds 17 1020 63 10000 2.6 270 09:35 29.07.2020
150 Clouds 17 1020 63 10000 2.6 270 09:35 29.07.2020
151 Clouds 16 1020 72 10000 1.5 190 08:23 29.07.2020
152 Clouds 14 1019 81 10000 2.1 170 07:30 29.07.2020
153 Clouds 15 1018 82 10000 2.1 180 05:46 29.07.2020
154 Clouds 17 1018 67 10000 1.5 230 02:27 29.07.2020
155 Clouds 18 1017 52 10000 5.1 310 00:37 29.07.2020
156 Clouds 19 1016 55 10000 5.7 320 22:48 28.07.2020
157 Clear 20 1016 52 10000 6.2 300 22:20 28.07.2020
158 Clouds 20 1015 46 10000 6.2 290 21:38 28.07.2020
159 Clear 21 1015 46 10000 6.2 290 21:19 28.07.2020
160 Clear 21 1015 43 10000 6.2 280 20:40 28.07.2020
161 Clouds 22 1014 40 10000 7.2 270 19:59 28.07.2020
162 Clouds 22 1014 40 10000 7.2 270 19:40 28.07.2020
163 Clouds 22 1014 40 10000 8.2 270 19:19 28.07.2020
164 Clouds 23 1014 38 10000 8.2 290 18:43 28.07.2020
165 Clouds 23 1014 38 10000 9.3 290 17:58 28.07.2020
166 Clouds 23 1013 38 10000 9.3 280 17:22 28.07.2020
167 Clouds 23 1013 41 10000 9.3 280 16:41 28.07.2020
168 Clouds 23 1012 46 10000 7.2 300 15:33 28.07.2020
169 Clouds 23 1012 41 10000 7.7 280 14:56 28.07.2020
170 Clouds 23 1012 43 10000 8.2 260 14:35 28.07.2020
171 Rain 24 1012 44 10000 6.7 260 13:43 28.07.2020
172 Clouds 23 1012 46 10000 9.3 250 12:51 28.07.2020
173 Clouds 22 1012 56 10000 7.7 280 12:25 28.07.2020
174 Clouds 22 1012 56 10000 7.2 260 11:57 28.07.2020
175 Clouds 21 1012 60 10000 6.7 260 11:22 28.07.2020
176 Clouds 21 1011 60 10000 7.2 260 10:44 28.07.2020
177 Clouds 21 1011 60 10000 6.7 250 10:23 28.07.2020
178 Clouds 21 1011 60 10000 7.2 260 09:42 28.07.2020
179 Clouds 21 1011 64 10000 6.7 250 09:24 28.07.2020
180 Clouds 20 1011 68 10000 6.7 260 08:48 28.07.2020
181 Clouds 20 1011 68 10000 5.7 270 08:27 28.07.2020
182 Clouds 20 1011 68 10000 5.1 260 07:49 28.07.2020
183 Clouds 20 1009 63 10000 1 330 03:40 28.07.2020
184 Clouds 22 1008 46 10000 4.1 300 02:20 28.07.2020
185 Clouds 23 1008 43 10000 3.6 260 01:48 28.07.2020
186 Clouds 23 1007 46 10000 3.6 190 00:29 28.07.2020
187 Clouds 25 1007 41 10000 4.1 190 23:27 27.07.2020
188 Clouds 25 1007 41 10000 3.1 170 22:56 27.07.2020
189 Clouds 26 1007 41 10000 3.1 170 22:22 27.07.2020
190 Clouds 27 1007 36 10000 2.1 170 21:50 27.07.2020
191 Clouds 28 1007 44 10000 2.1 160 21:30 27.07.2020
192 Clouds 28 1007 39 10000 2.6 190 20:45 27.07.2020
193 Clouds 29 1007 32 10000 2.1 190 20:21 27.07.2020
194 Clouds 29 1007 32 10000 3.1 190 19:50 27.07.2020
195 Clouds 29 1008 34 10000 3.6 200 19:29 27.07.2020
196 Clouds 29 1009 30 10000 5.7 180 18:40 27.07.2020
197 Clouds 29 1009 32 10000 3.1 190 17:47 27.07.2020
198 Clouds 29 1010 32 10000 3.1 190 17:27 27.07.2020
199 Clouds 29 1010 34 10000 2.6 190 16:39 27.07.2020
200 Clouds 28 1011 34 10000 4.1 180 16:18 27.07.2020
201 Clouds 28 1011 34 10000 3.6 200 15:46 27.07.2020
202 Clouds 28 1012 34 10000 4.1 200 15:28 27.07.2020
203 Clouds 27 1012 36 10000 3.6 140 14:43 27.07.2020
204 Clouds 27 1013 39 10000 4.6 130 14:23 27.07.2020
205 Clouds 25 1013 50 10000 3.1 0 13:31 27.07.2020
206 Clouds 23 1014 56 10000 3.6 140 12:55 27.07.2020
207 Clouds 23 1014 56 10000 3.6 140 12:36 27.07.2020
208 Clouds 21 1015 64 10000 4.1 140 11:58 27.07.2020
209 Clouds 19 1015 72 10000 4.1 130 11:22 27.07.2020
210 Clouds 19 1015 68 10000 3.6 130 10:50 27.07.2020
211 Rain 18 1016 77 10000 1.5 80 09:44 27.07.2020
212 Clouds 17 1016 77 10000 2.1 120 09:21 27.07.2020
213 Clouds 17 1016 77 10000 1 0 08:59 27.07.2020
214 Clouds 17 1016 77 10000 1 0 08:41 27.07.2020
215 Clouds 16 1016 87 10000 1 0 07:53 27.07.2020
216 Clouds 15 1017 87 10000 1.5 120 07:29 27.07.2020
217 Clouds 15 1017 87 10000 2.1 60 06:29 27.07.2020
218 Clouds 17 1017 82 10000 0.5 0 02:20 27.07.2020
219 Clouds 17 1017 77 10000 1 0 01:53 27.07.2020
220 Clouds 18 1016 82 10000 1 0 23:47 26.07.2020
221 Clouds 19 1016 72 10000 1 0 23:25 26.07.2020
222 Clouds 20 1016 77 10000 1.5 140 22:42 26.07.2020
223 Clouds 20 1016 72 10000 2.1 190 22:23 26.07.2020
224 Clouds 21 1015 68 10000 2.6 230 21:51 26.07.2020
225 Clouds 21 1015 68 10000 2.1 220 21:22 26.07.2020
226 Clouds 22 1015 64 10000 2.6 230 20:52 26.07.2020
227 Clouds 22 1015 64 10000 2.6 230 20:30 26.07.2020
228 Rain 23 1014 56 10000 2.6 220 19:46 26.07.2020
229 Rain 22 1014 64 10000 4.6 230 19:24 26.07.2020
230 Rain 22 1014 64 10000 8.7 260 18:56 26.07.2020
231 Rain 22 1013 46 10000 7.7 290 18:37 26.07.2020
232 Rain 22 1013 46 10000 7.7 290 18:18 26.07.2020
233 Rain 24 1013 44 10000 6.7 280 17:40 26.07.2020
234 Rain 24 1013 44 10000 6.7 260 17:19 26.07.2020
235 Rain 23 1013 46 10000 7.2 280 16:42 26.07.2020
236 Rain 23 1013 46 10000 6.7 270 16:23 26.07.2020
237 Rain 24 1012 46 10000 8.2 250 15:42 26.07.2020
238 Clouds 24 1012 49 10000 6.7 270 15:23 26.07.2020
239 Clouds 23 1012 56 10000 7.7 290 14:46 26.07.2020
240 Clouds 23 1012 56 10000 6.2 250 14:23 26.07.2020
241 Clouds 22 1012 56 10000 6.2 270 13:44 26.07.2020
242 Clouds 21 1012 64 10000 6.7 290 12:47 26.07.2020
243 Clouds 21 1012 60 10000 6.2 270 12:29 26.07.2020
244 Rain 20 1011 68 10000 7.2 250 11:58 26.07.2020
245 Rain 20 1011 68 10000 7.2 250 11:38 26.07.2020
246 Rain 19 1011 82 10000 5.1 240 10:55 26.07.2020
247 Rain 19 1011 82 10000 5.1 240 10:35 26.07.2020
248 Clouds 19 1010 77 10000 6.2 250 09:53 26.07.2020
249 Clouds 18 1010 77 10000 5.1 260 09:30 26.07.2020
250 Clouds 18 1009 93 10000 2.6 240 08:53 26.07.2020
251 Rain 18 1008 93 10000 1.5 170 07:43 26.07.2020
252 Rain 17 1008 100 9000 0.5 0 06:26 26.07.2020
253 Rain 18 1008 93 10000 2.1 110 03:49 26.07.2020
254 Rain 22 1008 56 10000 3.6 140 00:57 26.07.2020
255 Rain 23 1008 60 10000 3.6 140 23:56 25.07.2020
256 Rain 23 1008 56 10000 3.6 130 23:30 25.07.2020
257 Rain 23 1009 56 10000 1.5 120 22:39 25.07.2020
258 Rain 23 1009 64 10000 1.5 120 21:47 25.07.2020
259 Rain 24 1009 60 10000 1.5 120 21:20 25.07.2020
260 Rain 24 1009 56 10000 2.6 120 20:43 25.07.2020
261 Rain 25 1010 56 10000 1.5 120 20:20 25.07.2020
262 Rain 24 1010 56 10000 1.5 150 19:37 25.07.2020
263 Rain 25 1010 56 10000 2.1 190 19:19 25.07.2020
264 Rain 25 1011 53 10000 1 0 18:36 25.07.2020
265 Clouds 25 1011 50 10000 2.1 210 17:58 25.07.2020
266 Clouds 25 1011 50 10000 2.1 210 17:40 25.07.2020
267 Rain 25 1011 53 10000 6.7 250 17:21 25.07.2020
268 Rain 25 1011 47 10000 2.6 190 16:51 25.07.2020
269 Clouds 25 1011 47 10000 3.6 210 16:28 25.07.2020
270 Clouds 25 1012 47 10000 2.1 220 15:49 25.07.2020
271 Clouds 25 1012 50 10000 3.6 200 15:21 25.07.2020
272 Clouds 24 1012 53 10000 2.1 160 14:56 25.07.2020
273 Clouds 24 1012 53 10000 2.6 190 14:34 25.07.2020
274 Clouds 24 1012 56 10000 3.6 210 13:43 25.07.2020
275 Clouds 24 1013 53 10000 3.6 190 13:22 25.07.2020
276 Clouds 23 1013 56 10000 2.6 170 12:57 25.07.2020
277 Clouds 23 1013 56 10000 2.6 170 12:57 25.07.2020
278 Clouds 22 1013 60 10000 2.6 190 12:22 25.07.2020
279 Clouds 22 1013 64 10000 3.1 180 11:59 25.07.2020
280 Clouds 22 1013 64 10000 3.1 180 11:39 25.07.2020
281 Clouds 20 1014 88 10000 3.1 160 10:48 25.07.2020
282 Clouds 20 1014 88 10000 3.1 160 10:30 25.07.2020
283 Clouds 19 1014 88 10000 3.1 140 09:59 25.07.2020
284 Rain 19 1014 88 10000 2.6 140 09:37 25.07.2020
285 Clouds 19 1014 88 10000 2.1 130 09:18 25.07.2020
286 Clouds 18 1014 87 10000 2.6 140 08:44 25.07.2020
287 Clouds 18 1014 87 10000 2.1 140 08:21 25.07.2020
288 Clouds 17 1013 87 10000 2.6 140 07:42 25.07.2020
289 Clouds 17 1013 93 10000 2.1 140 06:56 25.07.2020
290 Clouds 16 1013 100 10000 2.1 140 04:55 25.07.2020
291 Clouds 18 1013 93 10000 1.5 150 02:36 25.07.2020
292 Clouds 19 1013 93 10000 1 0 01:47 25.07.2020
293 Clouds 19 1014 93 10000 2.1 190 01:24 25.07.2020
294 Clouds 19 1014 93 10000 1.5 160 00:47 25.07.2020
295 Clouds 19 1014 93 10000 2.1 160 00:28 25.07.2020
296 Rain 20 1013 88 10000 1.5 190 23:58 24.07.2020
297 Rain 20 1013 88 10000 1.5 190 23:40 24.07.2020
298 Rain 20 1014 82 10000 3.6 230 23:21 24.07.2020
299 Rain 20 1013 68 10000 3.6 290 22:43 24.07.2020
300 Clouds 20 1013 68 10000 4.6 320 22:23 24.07.2020
301 Clouds 21 1013 64 10000 4.1 330 21:51 24.07.2020
302 Clouds 21 1013 64 10000 3.1 350 21:31 24.07.2020
303 Clouds 22 1012 64 10000 2.6 340 20:54 24.07.2020
304 Clouds 22 1012 64 10000 2.6 340 20:36 24.07.2020
305 Clouds 23 1012 60 10000 5.1 340 19:54 24.07.2020
306 Clouds 23 1012 56 10000 5.7 300 19:28 24.07.2020
307 Clouds 23 1012 50 10000 5.1 300 18:59 24.07.2020
308 Clouds 24 1012 50 10000 7.2 310 18:29 24.07.2020
309 Rain 24 1012 50 10000 5.7 310 17:50 24.07.2020
310 Rain 25 1012 44 10000 5.7 300 17:19 24.07.2020
311 Rain 25 1012 44 10000 6.2 280 16:46 24.07.2020
312 Clouds 25 1012 41 10000 6.2 300 16:27 24.07.2020
313 Clouds 25 1012 41 10000 5.1 270 15:44 24.07.2020
314 Clouds 24 1012 41 10000 5.7 320 15:26 24.07.2020
315 Clouds 24 1012 44 10000 4.6 290 14:45 24.07.2020
316 Clouds 24 1013 41 10000 4.6 300 14:26 24.07.2020
317 Clouds 23 1013 40 10000 3.6 300 13:44 24.07.2020
318 Clouds 23 1013 38 10000 3.6 260 13:21 24.07.2020
319 Clouds 21 1013 43 10000 5.7 320 12:47 24.07.2020
320 Clouds 21 1013 40 10000 3.6 300 12:27 24.07.2020
321 Clouds 21 1013 43 10000 3.1 270 11:54 24.07.2020
322 Clouds 20 1013 46 10000 3.1 290 11:21 24.07.2020
323 Clouds 20 1013 49 10000 3.1 290 10:47 24.07.2020
324 Clouds 20 1012 49 10000 4.1 300 10:19 24.07.2020
325 Clouds 19 1012 45 10000 5.1 280 09:57 24.07.2020
326 Clouds 20 1012 45 10000 5.1 280 09:38 24.07.2020
327 Clouds 19 1012 45 10000 5.7 280 09:18 24.07.2020
328 Clouds 19 1012 56 10000 3.6 270 08:45 24.07.2020
329 Clouds 19 1012 68 10000 1.5 190 08:26 24.07.2020
330 Clouds 18 1012 77 10000 0.5 0 07:40 24.07.2020
331 Clouds 18 1012 82 10000 1 0 07:21 24.07.2020
332 Clouds 18 1012 77 10000 1 70 06:36 24.07.2020
333 Clouds 18 1012 67 10000 0.5 0 05:53 24.07.2020
334 Clouds 18 1012 67 10000 0.5 0 05:30 24.07.2020
335 Clouds 20 1012 72 10000 1 110 03:32 24.07.2020
336 Clouds 20 1013 72 10000 0.5 0 01:34 24.07.2020
337 Clouds 21 1013 59 10000 0.5 0 00:29 24.07.2020
338 Clouds 21 1013 55 10000 1.5 100 23:59 23.07.2020
339 Clouds 22 1013 59 10000 1 0 23:37 23.07.2020
340 Clouds 22 1013 59 10000 1 0 23:19 23.07.2020
341 Clouds 22 1013 63 10000 0.5 0 22:43 23.07.2020
342 Clouds 23 1013 52 10000 1 0 22:20 23.07.2020
343 Clouds 24 1013 49 10000 1.5 70 21:40 23.07.2020
344 Clouds 25 1013 49 10000 1.5 70 21:22 23.07.2020
345 Clouds 25 1013 44 10000 0.5 0 20:59 23.07.2020
346 Clouds 26 1013 44 10000 0.5 0 20:41 23.07.2020
347 Clouds 26 1013 30 10000 1 0 20:20 23.07.2020
348 Clouds 26 1014 31 10000 2.6 270 19:58 23.07.2020
349 Clouds 27 1014 31 10000 2.6 270 19:37 23.07.2020
350 Clouds 27 1014 31 10000 1.5 0 19:19 23.07.2020
351 Clouds 27 1014 31 10000 1.5 160 18:42 23.07.2020
352 Clouds 27 1014 31 10000 2.6 270 18:22 23.07.2020
353 Clouds 27 1015 30 10000 1 0 17:49 23.07.2020
354 Clouds 26 1015 29 10000 1.5 0 17:26 23.07.2020
355 Clouds 26 1015 29 10000 2.1 0 16:55 23.07.2020
356 Clouds 26 1016 31 10000 3.1 230 16:37 23.07.2020
357 Clouds 26 1016 31 10000 3.1 230 16:18 23.07.2020
358 Clouds 26 1016 31 10000 2.6 310 15:26 23.07.2020
359 Clouds 26 1017 33 10000 1.5 0 14:59 23.07.2020
360 Clouds 25 1017 33 10000 1.5 0 14:39 23.07.2020
361 Clear 25 1017 33 10000 2.1 0 14:19 23.07.2020
362 Clear 24 1017 35 10000 2.1 0 13:58 23.07.2020
363 Clear 24 1017 35 10000 2.1 0 13:39 23.07.2020
364 Clear 24 1018 35 10000 2.1 0 13:21 23.07.2020
365 Clear 22 1018 37 10000 2.1 0 12:42 23.07.2020
366 Clear 22 1018 40 10000 1.5 0 12:22 23.07.2020
367 Clear 22 1018 40 10000 1.5 0 12:22 23.07.2020
368 Clear 20 1018 42 10000 2.1 0 11:42 23.07.2020
369 Clear 20 1019 49 10000 2.1 10 11:24 23.07.2020
370 Clear 19 1019 48 10000 1.5 0 10:57 23.07.2020
371 Clear 19 1019 48 10000 1.5 0 10:38 23.07.2020
372 Clear 20 1019 55 10000 1 0 10:19 23.07.2020
373 Clear 19 1019 55 10000 1 0 09:44 23.07.2020
374 Clear 16 1019 63 10000 1 0 09:26 23.07.2020
375 Clear 15 1019 71 10000 1.5 160 08:51 23.07.2020
376 Clouds 14 1019 82 10000 1 0 08:32 23.07.2020
377 Clouds 13 1019 87 10000 1 170 07:54 23.07.2020
378 Clouds 12 1019 87 10000 1 0 07:28 23.07.2020
379 Clouds 12 1020 93 10000 1 0 06:38 23.07.2020
380 Clouds 12 1020 93 10000 1 0 06:19 23.07.2020
381 Clouds 12 1020 87 10000 0.5 0 05:43 23.07.2020
382 Clouds 13 1020 87 10000 0.57 108 04:38 23.07.2020
383 Clouds 13 1020 87 10000 0.5 140 03:49 23.07.2020
384 Clouds 14 1021 76 10000 0.5 0 02:29 23.07.2020
385 Clouds 16 1020 71 10000 1 30 00:31 23.07.2020
386 Clouds 17 1020 59 10000 2.1 10 23:56 22.07.2020
387 Clouds 17 1020 59 10000 2.1 10 23:37 22.07.2020
388 Clouds 18 1020 59 10000 2.6 360 23:19 22.07.2020
389 Clouds 19 1020 55 10000 3.1 360 22:40 22.07.2020
390 Clouds 19 1020 52 10000 3.1 10 22:21 22.07.2020
391 Clouds 20 1020 48 10000 3.1 360 21:54 22.07.2020
392 Clouds 20 1020 48 10000 3.1 360 21:36 22.07.2020
393 Clear 20 1019 45 10000 3.6 340 21:18 22.07.2020
394 Clear 21 1019 40 10000 2.6 340 20:55 22.07.2020
395 Clouds 22 1019 35 10000 3.1 360 20:36 22.07.2020
396 Clouds 22 1019 35 10000 3.1 360 20:18 22.07.2020
397 Clouds 23 1019 37 10000 2.6 340 19:43 22.07.2020
398 Clouds 23 1019 37 10000 3.1 360 19:25 22.07.2020
399 Clouds 23 1020 38 10000 3.6 330 18:55 22.07.2020
400 Clouds 23 1020 38 10000 3.1 10 18:32 22.07.2020
401 Clouds 23 1020 38 10000 3.1 310 17:56 22.07.2020
402 Clouds 23 1020 38 10000 3.1 310 17:38 22.07.2020
403 Clouds 23 1021 40 10000 3.1 330 17:19 22.07.2020
404 Clouds 23 1021 40 10000 3.6 310 16:54 22.07.2020
405 Clouds 22 1021 40 10000 3.1 310 16:36 22.07.2020
406 Clouds 22 1021 40 10000 3.1 310 16:18 22.07.2020
407 Clouds 22 1021 43 10000 3.6 10 15:42 22.07.2020
408 Clouds 21 1022 40 10000 2.1 0 15:22 22.07.2020
409 Clouds 21 1022 43 10000 3.6 320 14:48 22.07.2020
410 Clouds 22 1022 43 10000 2.6 0 14:20 22.07.2020
411 Clouds 21 1022 40 10000 3.1 0 13:58 22.07.2020
412 Clouds 21 1022 40 10000 3.1 0 13:38 22.07.2020
413 Clouds 21 1023 43 10000 2.1 0 13:19 22.07.2020
414 Clouds 22 1023 43 10000 1 0 12:43 22.07.2020
415 Clouds 20 1023 52 10000 2.6 0 12:25 22.07.2020
416 Clouds 19 1023 55 10000 2.1 0 11:56 22.07.2020
417 Clouds 18 1023 55 10000 2.1 0 11:38 22.07.2020
418 Clouds 18 1023 55 10000 1 0 11:18 22.07.2020
419 Clouds 18 1023 59 10000 1.5 0 10:42 22.07.2020
420 Clouds 17 1024 63 10000 1 0 10:23 22.07.2020
421 Clouds 18 1024 67 10000 1 0 09:58 22.07.2020
422 Clouds 18 1024 67 10000 1 0 09:39 22.07.2020
423 Clear 15 1024 76 10000 1.5 160 09:19 22.07.2020
424 Clear 15 1024 82 10000 1 0 08:39 22.07.2020
425 Clear 14 1024 81 10000 1 0 08:19 22.07.2020
426 Clear 12 1024 93 10000 1.5 160 07:21 22.07.2020
427 Clear 12 1024 100 10000 1 0 06:45 22.07.2020
428 Clear 11 1024 93 10000 1 0 06:18 22.07.2020
429 Clear 12 1024 93 10000 1.5 70 05:51 22.07.2020
430 Clear 12 1024 87 10000 0.5 0 05:19 22.07.2020
431 Clear 13 1024 87 10000 0.5 0 04:24 22.07.2020
432 Clear 14 1024 87 10000 1 30 02:53 22.07.2020
433 Clear 14 1024 81 10000 0.5 0 01:44 22.07.2020
434 Clear 14 1024 81 10000 0.5 0 01:44 22.07.2020
435 Clear 16 1024 71 10000 1.5 60 00:31 22.07.2020
436 Clear 16 1023 71 10000 1.5 50 23:56 21.07.2020
437 Clear 16 1023 67 10000 1.5 60 23:37 21.07.2020
438 Clear 16 1023 67 10000 1.5 60 23:18 21.07.2020
439 Clear 17 1023 62 10000 1.5 60 22:55 21.07.2020
440 Clear 18 1023 62 10000 1.5 60 22:36 21.07.2020
441 Clear 18 1023 51 10000 1.5 20 22:18 21.07.2020
442 Clear 19 1023 48 10000 1.5 20 21:55 21.07.2020
443 Clear 20 1023 48 10000 1.5 20 21:36 21.07.2020
444 Clear 20 1023 45 10000 2.6 350 21:18 21.07.2020
445 Clear 21 1023 42 10000 3.6 350 20:42 21.07.2020
446 Clear 21 1023 40 10000 3.1 350 20:22 21.07.2020
447 Clear 22 1023 40 10000 3.6 360 19:45 21.07.2020
448 Clear 22 1023 37 10000 4.6 350 19:20 21.07.2020
449 Clear 23 1023 37 10000 5.1 350 18:45 21.07.2020
450 Clear 23 1023 35 10000 3.6 350 18:26 21.07.2020
451 Clear 23 1023 35 10000 3.6 350 17:59 21.07.2020
452 Clear 23 1023 35 10000 3.6 350 17:39 21.07.2020
453 Clear 23 1023 35 10000 3.6 0 17:20 21.07.2020
454 Clear 23 1023 35 10000 4.6 300 16:41 21.07.2020
455 Clear 22 1024 37 10000 4.6 310 16:21 21.07.2020
456 Clear 21 1024 40 10000 3.6 0 15:48 21.07.2020
457 Clear 21 1024 40 10000 3.6 0 15:28 21.07.2020
458 Clear 21 1024 43 10000 4.1 340 14:59 21.07.2020
459 Clear 20 1024 43 10000 4.1 340 14:39 21.07.2020
460 Clear 20 1024 43 10000 5.1 300 14:19 21.07.2020
461 Clouds 20 1024 43 10000 4.1 300 13:43 21.07.2020
462 Clouds 19 1024 52 10000 4.1 340 13:25 21.07.2020
463 Clouds 21 1024 48 10000 4.1 320 12:59 21.07.2020
464 Clouds 20 1024 48 10000 4.1 320 12:41 21.07.2020
465 Clouds 18 1024 52 10000 3.6 330 12:20 21.07.2020
466 Clouds 18 1024 55 10000 3.1 280 11:57 21.07.2020
467 Clouds 19 1024 55 10000 3.1 280 11:37 21.07.2020
468 Clouds 18 1024 55 10000 3.1 300 11:18 21.07.2020
469 Clouds 17 1024 63 10000 2.6 290 10:43 21.07.2020
470 Clouds 17 1023 67 10000 2.6 280 10:21 21.07.2020
471 Clear 18 1023 67 10000 1.5 0 09:46 21.07.2020
472 Clear 15 1024 72 10000 2.1 300 09:25 21.07.2020
473 Clear 15 1023 76 10000 2.1 310 08:56 21.07.2020
474 Clear 15 1023 76 10000 2.1 310 08:38 21.07.2020
475 Clear 14 1023 82 10000 1.5 330 08:19 21.07.2020
476 Clear 13 1023 81 10000 0.5 0 07:42 21.07.2020
477 Clear 12 1023 93 10000 1.5 170 07:24 21.07.2020
478 Clear 12 1023 93 10000 1.5 170 07:24 21.07.2020
479 Clear 12 1023 93 10000 1.5 170 07:24 21.07.2020
480 Clear 11 1023 93 10000 1 150 06:48 21.07.2020
481 Clear 13 1022 87 10000 0.5 0 04:33 21.07.2020
482 Clear 13 1023 87 10000 0.5 0 03:45 21.07.2020
483 Clouds 14 1022 81 10000 1 0 02:37 21.07.2020
484 Clouds 15 1022 81 10000 2.1 360 01:32 21.07.2020
485 Clouds 16 1022 76 10000 2.1 350 00:43 21.07.2020
486 Clouds 16 1022 76 10000 2.1 360 00:24 21.07.2020
487 Clouds 16 1021 71 10000 2.6 350 23:56 20.07.2020
488 Clouds 17 1021 71 10000 2.6 350 23:36 20.07.2020
489 Clouds 17 1021 71 10000 2.1 360 23:18 20.07.2020
490 Clouds 18 1021 59 10000 2.1 20 22:40 20.07.2020
491 Clouds 19 1020 67 10000 1 50 22:19 20.07.2020
492 Clouds 20 1020 55 10000 1.5 10 21:57 20.07.2020
493 Clouds 20 1020 55 10000 1.5 10 21:39 20.07.2020
494 Clouds 21 1020 52 10000 2.6 350 21:20 20.07.2020
495 Clouds 21 1019 45 10000 2.6 360 20:42 20.07.2020
496 Clouds 22 1019 43 10000 4.1 360 20:20 20.07.2020
497 Clouds 22 1019 40 10000 3.1 350 19:55 20.07.2020
498 Clouds 22 1019 40 10000 3.1 350 19:36 20.07.2020
499 Clouds 23 1019 40 10000 4.1 350 19:18 20.07.2020
500 Clouds 23 1019 43 10000 3.6 320 18:41 20.07.2020
501 Clouds 23 1019 46 10000 3.6 360 18:21 20.07.2020
502 Clouds 23 1019 40 10000 3.6 320 17:45 20.07.2020
503 Clouds 23 1019 40 10000 3.6 320 17:45 20.07.2020
504 Clouds 23 1019 40 10000 3.6 320 17:45 20.07.2020
505 Clouds 23 1020 46 10000 3.6 330 17:24 20.07.2020
506 Clouds 23 1020 49 10000 3.6 360 16:55 20.07.2020
507 Clouds 23 1020 49 10000 3.6 360 16:37 20.07.2020
508 Clouds 23 1020 52 10000 4.1 330 16:18 20.07.2020
509 Clouds 23 1020 56 10000 2.6 340 15:42 20.07.2020
510 Clouds 20 1020 60 10000 3.1 330 15:18 20.07.2020
511 Clouds 20 1020 60 10000 3.6 330 14:42 20.07.2020
512 Clouds 19 1020 63 10000 3.6 350 14:19 20.07.2020
513 Clouds 21 1020 63 10000 5.1 360 13:58 20.07.2020
514 Clouds 20 1020 63 10000 5.1 360 13:39 20.07.2020
515 Clouds 20 1020 68 10000 5.7 350 13:20 20.07.2020
516 Clouds 19 1020 72 10000 5.7 360 12:56 20.07.2020
517 Clouds 19 1020 72 10000 5.7 360 12:38 20.07.2020
518 Clouds 20 1019 68 10000 3.6 350 12:19 20.07.2020
519 Clouds 19 1019 72 10000 4.6 330 11:57 20.07.2020
520 Clouds 19 1019 72 10000 4.6 330 11:39 20.07.2020
521 Clouds 19 1019 77 10000 4.6 320 11:20 20.07.2020
522 Clouds 18 1019 77 10000 3.1 330 10:42 20.07.2020
523 Clouds 18 1019 82 10000 4.1 330 10:24 20.07.2020
524 Clouds 18 1018 82 10000 4.6 320 09:55 20.07.2020
525 Clouds 18 1018 82 10000 4.6 320 09:37 20.07.2020
526 Clouds 17 1018 82 10000 4.1 330 09:19 20.07.2020
527 Clouds 17 1018 82 10000 3.6 330 08:43 20.07.2020
528 Clouds 17 1018 82 10000 3.6 320 08:24 20.07.2020
529 Clouds 17 1017 88 10000 2.6 320 07:43 20.07.2020
530 Clouds 17 1017 87 10000 3.1 320 07:21 20.07.2020
531 Clouds 17 1017 93 10000 2.6 330 06:43 20.07.2020
532 Clouds 16 1017 93 10000 3.1 340 05:46 20.07.2020
533 Clouds 18 1016 87 10000 0.5 0 02:51 20.07.2020
534 Clouds 20 1016 68 10000 2.6 360 00:58 20.07.2020
535 Clouds 20 1016 59 10000 3.1 340 00:20 20.07.2020
536 Clouds 20 1016 55 10000 1.5 350 23:46 19.07.2020
537 Clouds 21 1015 49 10000 3.1 320 23:27 19.07.2020
538 Clouds 22 1015 46 10000 2.6 340 22:58 19.07.2020
539 Clouds 23 1015 46 10000 2.6 340 22:38 19.07.2020
540 Clouds 23 1015 43 10000 3.1 320 22:18 19.07.2020
541 Clouds 24 1014 40 10000 4.6 320 21:55 19.07.2020
542 Clouds 24 1014 44 10000 3.1 330 21:36 19.07.2020
543 Clear 24 1014 44 10000 3.1 330 21:36 19.07.2020
544 Clear 25 1014 44 10000 3.1 330 21:18 19.07.2020
545 Clear 26 1014 41 10000 4.1 340 20:42 19.07.2020
546 Clouds 27 1014 39 10000 4.6 330 20:21 19.07.2020
547 Clouds 27 1014 36 10000 3.6 310 19:58 19.07.2020
548 Clouds 27 1014 36 10000 3.6 310 19:38 19.07.2020
549 Clouds 28 1014 39 10000 3.1 330 19:19 19.07.2020
550 Clouds 28 1014 37 10000 4.1 320 18:43 19.07.2020
551 Clouds 29 1014 35 10000 3.1 310 18:24 19.07.2020
552 Clouds 28 1014 34 10000 2.6 290 17:57 19.07.2020
553 Clouds 28 1014 34 10000 2.6 290 17:39 19.07.2020
554 Clouds 28 1014 34 10000 3.6 290 17:20 19.07.2020
555 Clouds 28 1014 37 10000 2.6 290 16:41 19.07.2020
556 Clouds 29 1015 34 10000 3.1 300 16:21 19.07.2020
557 Clouds 28 1015 42 10000 2.1 0 15:58 19.07.2020
558 Clouds 28 1015 44 10000 1.5 100 15:37 19.07.2020
559 Clouds 28 1015 44 10000 1.5 100 15:19 19.07.2020
560 Clouds 27 1015 44 10000 2.1 70 14:44 19.07.2020
561 Clouds 27 1015 51 10000 2.1 40 14:25 19.07.2020
562 Rain 27 1015 47 10000 3.1 0 13:44 19.07.2020
563 Rain 27 1015 44 10000 2.6 230 13:23 19.07.2020
564 Clouds 27 1016 47 10000 1.5 0 12:58 19.07.2020
565 Clouds 26 1016 53 10000 1 0 12:38 19.07.2020
566 Clouds 26 1016 53 10000 1 0 12:20 19.07.2020
567 Clouds 25 1016 53 10000 2.1 230 11:41 19.07.2020
568 Clouds 24 1016 53 10000 2.1 150 11:22 19.07.2020
569 Clouds 24 1016 53 10000 1 0 10:44 19.07.2020
570 Clouds 23 1016 56 10000 1 0 10:23 19.07.2020
571 Clouds 24 1016 56 10000 1 0 09:59 19.07.2020
572 Clouds 23 1016 60 10000 1.5 170 09:41 19.07.2020
573 Clouds 20 1016 64 10000 2.6 160 09:20 19.07.2020
574 Clouds 20 1016 68 10000 2.1 140 08:41 19.07.2020
575 Clouds 20 1016 77 10000 1 0 08:23 19.07.2020
576 Clouds 19 1016 72 10000 1 0 07:40 19.07.2020
577 Clouds 19 1016 72 10000 1 0 07:22 19.07.2020
578 Clouds 19 1016 68 10000 0.5 0 06:42 19.07.2020
579 Clouds 19 1016 68 10000 2.6 130 06:19 19.07.2020
580 Clouds 19 1016 72 10000 2.6 140 05:50 19.07.2020
581 Clouds 19 1017 72 10000 2.1 170 03:39 19.07.2020
582 Clouds 20 1017 64 10000 2.1 120 02:44 19.07.2020
583 Clouds 20 1017 68 10000 2.1 110 02:22 19.07.2020
584 Clouds 20 1017 64 10000 2.1 100 01:43 19.07.2020
585 Clouds 20 1017 64 10000 2.1 90 00:53 19.07.2020
586 Clouds 21 1017 64 10000 1.5 90 00:22 19.07.2020
587 Clouds 21 1017 64 10000 0.5 0 23:49 18.07.2020
588 Clouds 21 1017 72 10000 0.5 0 23:28 18.07.2020
589 Clouds 21 1017 60 10000 1.5 90 22:58 18.07.2020
590 Clouds 21 1017 60 10000 1.5 90 22:38 18.07.2020
591 Clouds 22 1017 60 10000 1.5 80 22:18 18.07.2020
592 Clouds 24 1017 60 10000 2.1 80 21:45 18.07.2020
593 Clouds 25 1017 57 10000 1.5 50 21:27 18.07.2020
594 Clouds 25 1017 50 10000 1.5 60 20:56 18.07.2020
595 Clouds 26 1017 50 10000 1.5 60 20:38 18.07.2020
596 Clouds 26 1017 41 10000 2.1 60 20:19 18.07.2020
597 Clouds 27 1017 41 10000 2.1 60 19:41 18.07.2020
598 Clouds 27 1017 41 10000 2.6 60 19:21 18.07.2020
599 Clouds 27 1017 41 10000 2.6 80 18:46 18.07.2020
600 Clouds 27 1017 41 10000 2.6 80 18:21 18.07.2020
601 Clouds 27 1017 41 10000 2.6 80 18:21 18.07.2020
602 Clouds 27 1017 41 10000 2.1 120 17:48 18.07.2020
603 Clouds 27 1018 41 10000 1.5 0 17:23 18.07.2020
604 Clouds 28 1018 41 10000 1.5 0 16:59 18.07.2020
605 Clouds 27 1018 41 10000 1.5 0 16:40 18.07.2020
606 Clouds 27 1018 44 10000 2.1 120 16:21 18.07.2020
607 Clouds 26 1018 44 10000 2.1 170 15:47 18.07.2020
608 Clouds 27 1018 44 10000 1.5 0 15:28 18.07.2020
609 Clouds 26 1018 47 10000 2.6 0 14:58 18.07.2020
610 Clouds 26 1018 47 10000 2.6 0 14:39 18.07.2020
611 Clouds 26 1019 47 10000 1 0 14:21 18.07.2020
612 Clouds 25 1019 50 10000 2.6 0 13:45 18.07.2020
613 Clouds 25 1019 50 10000 2.6 0 13:27 18.07.2020
614 Clouds 24 1019 53 10000 2.1 170 12:58 18.07.2020
615 Clouds 24 1019 53 10000 2.1 170 12:40 18.07.2020
616 Clouds 23 1019 56 10000 1.5 110 12:19 18.07.2020
617 Clouds 23 1020 60 10000 2.1 100 11:58 18.07.2020
618 Clouds 23 1020 60 10000 2.1 100 11:39 18.07.2020
619 Clouds 22 1020 60 10000 1.5 120 11:19 18.07.2020
620 Clouds 21 1020 60 10000 1 0 10:47 18.07.2020
621 Clouds 22 1020 68 10000 1.5 190 10:27 18.07.2020
622 Clouds 20 1020 77 10000 2.6 110 09:56 18.07.2020
623 Clouds 18 1020 77 10000 2.1 150 09:37 18.07.2020
624 Clouds 18 1020 77 10000 2.1 150 09:19 18.07.2020
625 Clouds 17 1020 82 10000 1 0 08:46 18.07.2020
626 Clouds 17 1020 82 10000 1 0 08:24 18.07.2020
627 Clouds 16 1020 87 10000 1 0 07:44 18.07.2020
628 Clouds 15 1020 93 10000 0.5 220 07:24 18.07.2020
629 Clouds 14 1020 100 10000 1 40 06:52 18.07.2020
630 Clouds 15 1020 100 10000 1 0 05:48 18.07.2020
631 Clouds 15 1021 93 10000 2.6 120 04:29 18.07.2020
632 Clouds 16 1021 93 10000 0.5 0 02:41 18.07.2020
633 Clouds 16 1021 100 10000 0.5 0 01:27 18.07.2020
634 Clouds 16 1021 100 10000 1 0 00:46 18.07.2020
635 Clear 17 1021 93 10000 1.5 60 00:27 18.07.2020
636 Clear 17 1021 93 10000 0.5 0 23:54 17.07.2020
637 Clouds 18 1021 87 10000 1 90 23:36 17.07.2020
638 Clouds 18 1021 87 10000 1 90 23:18 17.07.2020
639 Clouds 18 1021 88 10000 1 40 22:39 17.07.2020
640 Clouds 19 1021 88 10000 1 0 22:19 17.07.2020
641 Clouds 19 1021 72 10000 2.1 340 21:57 17.07.2020
642 Clouds 20 1021 72 10000 2.1 340 21:39 17.07.2020
643 Clouds 21 1020 68 10000 1.5 350 21:19 17.07.2020
644 Clouds 21 1020 68 10000 2.1 340 20:43 17.07.2020
645 Clouds 21 1020 60 10000 3.6 320 20:25 17.07.2020
646 Clouds 22 1020 56 10000 3.6 320 19:55 17.07.2020
647 Clouds 22 1020 56 10000 3.6 330 19:37 17.07.2020
648 Clouds 22 1020 56 10000 3.6 330 19:18 17.07.2020
649 Clouds 22 1020 53 10000 4.6 290 18:43 17.07.2020
650 Clouds 22 1020 56 10000 5.1 320 18:24 17.07.2020
651 Clouds 22 1020 56 10000 4.1 330 17:44 17.07.2020
652 Clouds 23 1020 49 10000 4.6 330 17:25 17.07.2020
653 Clouds 23 1020 49 10000 4.6 320 16:45 17.07.2020
654 Clouds 23 1020 53 10000 3.6 300 16:23 17.07.2020
655 Clouds 21 1021 60 10000 3.6 340 15:58 17.07.2020
656 Clouds 21 1021 60 10000 3.6 340 15:37 17.07.2020
657 Clouds 21 1021 60 10000 4.1 320 15:18 17.07.2020
658 Clouds 21 1021 56 10000 3.6 310 14:40 17.07.2020
659 Clouds 21 1021 60 10000 3.1 300 14:21 17.07.2020
660 Clouds 21 1021 60 10000 2.1 0 13:55 17.07.2020
661 Clouds 20 1021 60 10000 2.1 0 13:37 17.07.2020
662 Clouds 20 1021 64 10000 3.1 310 13:18 17.07.2020
663 Clouds 19 1021 68 10000 3.1 0 12:40 17.07.2020
664 Clouds 19 1021 68 10000 3.1 310 12:21 17.07.2020
665 Clouds 18 1021 72 10000 3.6 320 11:55 17.07.2020
666 Clouds 18 1021 72 10000 3.6 320 11:55 17.07.2020
667 Clouds 18 1021 77 10000 3.1 310 11:37 17.07.2020
668 Clouds 17 1021 77 10000 3.1 310 11:19 17.07.2020
669 Clouds 17 1021 82 10000 2.1 330 10:55 17.07.2020
670 Clouds 17 1021 82 10000 2.6 320 10:36 17.07.2020
671 Clouds 17 1021 82 10000 2.6 320 10:18 17.07.2020
672 Clouds 16 1021 87 9000 2.1 320 09:54 17.07.2020
673 Clouds 17 1021 87 9000 2.1 320 09:36 17.07.2020
674 Clouds 16 1021 93 7000 2.1 320 09:18 17.07.2020
675 Clouds 16 1020 93 7000 2.6 320 08:39 17.07.2020
676 Clouds 16 1020 93 7000 2.6 320 08:18 17.07.2020
677 Clouds 16 1020 93 6000 3.6 290 07:39 17.07.2020
678 Clouds 15 1020 93 6000 2.6 310 07:18 17.07.2020
679 Clouds 15 1020 93 6000 2.1 320 06:48 17.07.2020
680 Clouds 15 1020 93 8000 2.1 320 05:49 17.07.2020
681 Clouds 15 1020 93 10000 3.1 320 04:47 17.07.2020
682 Drizzle 16 1019 100 8000 1.5 350 02:24 17.07.2020
683 Drizzle 16 1019 93 5000 1.5 300 01:29 17.07.2020
684 Drizzle 16 1020 93 2800 1.5 340 00:43 17.07.2020
685 Drizzle 16 1019 93 4000 1.5 330 00:21 17.07.2020
686 Rain 16 1019 93 5000 2.6 310 23:44 16.07.2020
687 Rain 16 1019 93 5000 3.1 320 23:20 16.07.2020
688 Rain 16 1019 93 6000 5.1 310 22:55 16.07.2020
689 Rain 15 1019 93 6000 5.1 310 22:36 16.07.2020
690 Rain 16 1019 93 7000 2.6 250 22:18 16.07.2020
691 Rain 16 1018 93 10000 1.5 310 21:55 16.07.2020
692 Clouds 17 1018 93 10000 2.6 320 21:36 16.07.2020
693 Clouds 17 1018 93 10000 2.6 320 21:18 16.07.2020
694 Rain 17 1018 93 10000 3.6 310 20:55 16.07.2020
695 Rain 17 1018 93 10000 3.6 310 20:37 16.07.2020
696 Rain 17 1018 93 10000 2.6 330 20:18 16.07.2020
697 Rain 17 1017 93 7000 3.1 360 19:44 16.07.2020
698 Rain 17 1017 93 10000 2.6 20 19:26 16.07.2020
699 Rain 16 1017 82 10000 5.7 300 18:43 16.07.2020
700 Rain 16 1017 88 10000 2.6 270 18:24 16.07.2020
701 Clouds 18 1017 77 10000 3.6 280 17:58 16.07.2020
702 Rain 18 1017 88 10000 4.6 270 17:37 16.07.2020
703 Rain 18 1017 88 10000 4.6 270 17:19 16.07.2020
704 Rain 17 1017 88 10000 4.1 280 16:56 16.07.2020
705 Rain 17 1017 88 10000 4.1 280 16:37 16.07.2020
706 Rain 17 1017 82 10000 2.6 280 16:19 16.07.2020
707 Drizzle 17 1017 88 10000 1.5 260 15:42 16.07.2020
708 Drizzle 16 1017 93 10000 2.1 240 15:24 16.07.2020
709 Drizzle 16 1017 93 10000 3.1 250 14:55 16.07.2020
710 Drizzle 16 1017 93 10000 3.1 250 14:37 16.07.2020
711 Drizzle 16 1017 88 10000 3.1 230 14:19 16.07.2020
712 Drizzle 16 1017 87 10000 2.6 250 13:41 16.07.2020
713 Drizzle 15 1017 93 4000 2.6 230 13:23 16.07.2020
714 Drizzle 16 1017 93 7000 1 0 12:59 16.07.2020
715 Drizzle 16 1017 93 7000 1 0 12:41 16.07.2020
716 Drizzle 15 1017 93 4000 1.5 200 12:19 16.07.2020
717 Drizzle 15 1017 93 4000 1.5 200 12:19 16.07.2020
718 Drizzle 16 1017 87 7000 2.1 170 11:39 16.07.2020
719 Drizzle 15 1017 93 3500 1.5 170 11:19 16.07.2020
720 Drizzle 15 1017 100 2800 1.5 250 10:59 16.07.2020
721 Drizzle 15 1017 100 2800 1.5 250 10:40 16.07.2020
722 Drizzle 15 1017 100 2800 1.5 250 10:40 16.07.2020
723 Drizzle 15 1017 93 3400 3.1 260 10:20 16.07.2020
724 Drizzle 15 1017 93 4500 2.6 230 09:55 16.07.2020
725 Clouds 15 1017 87 10000 1.5 170 09:37 16.07.2020
726 Clouds 15 1017 87 10000 1.5 170 09:18 16.07.2020
727 Clouds 15 1017 87 10000 1.5 160 08:39 16.07.2020
728 Clouds 15 1017 93 10000 2.1 170 08:21 16.07.2020
729 Clouds 15 1016 93 10000 2.1 200 07:46 16.07.2020
730 Clouds 15 1016 93 8000 2.1 170 07:25 16.07.2020
731 Mist 15 1016 93 4500 2.1 160 06:49 16.07.2020
732 Mist 15 1016 93 4500 2.6 150 06:20 16.07.2020
733 Rain 15 1016 93 5000 1.5 150 05:55 16.07.2020
734 Rain 15 1016 93 6000 1.5 130 05:29 16.07.2020
735 Rain 15 1017 93 8000 0.5 90 04:18 16.07.2020
736 Rain 15 1017 93 8000 0.5 90 04:18 16.07.2020
737 Rain 15 1017 93 10000 2.6 350 03:37 16.07.2020
738 Rain 15 1017 93 10000 2.6 350 03:18 16.07.2020
739 Rain 16 1016 72 10000 3.6 330 02:26 16.07.2020
740 Clouds 17 1016 72 10000 3.1 320 01:49 16.07.2020
741 Clouds 17 1016 67 10000 4.6 270 00:59 16.07.2020
742 Clouds 17 1016 72 10000 0.5 0 00:37 16.07.2020
743 Clouds 18 1016 72 10000 1 0 23:57 15.07.2020
744 Clouds 18 1016 72 10000 1 0 23:39 15.07.2020
745 Clouds 18 1016 77 10000 2.1 60 23:20 15.07.2020
746 Clouds 18 1016 77 10000 0.5 0 22:58 15.07.2020
747 Clouds 18 1016 77 10000 0.5 0 22:38 15.07.2020
748 Clouds 18 1015 72 10000 0.5 60 22:18 15.07.2020
749 Clouds 19 1015 77 10000 0.5 0 21:55 15.07.2020
750 Clouds 19 1015 77 10000 0.5 0 21:37 15.07.2020
751 Clouds 19 1015 67 10000 1 50 21:18 15.07.2020
752 Clouds 20 1015 55 10000 1.5 40 20:55 15.07.2020
753 Clouds 20 1015 55 10000 1.5 40 20:36 15.07.2020
754 Clouds 20 1015 49 10000 1.5 20 20:18 15.07.2020
755 Clouds 21 1015 49 10000 1.5 0 19:54 15.07.2020
756 Clouds 21 1014 49 10000 2.6 10 19:36 15.07.2020
757 Clouds 21 1014 49 10000 2.6 10 19:18 15.07.2020
758 Clouds 21 1014 48 10000 2.6 10 18:41 15.07.2020
759 Clouds 21 1014 48 10000 2.6 10 18:22 15.07.2020
760 Clouds 21 1015 49 10000 2.1 40 17:57 15.07.2020
761 Clouds 21 1015 49 10000 2.1 40 17:39 15.07.2020
762 Clouds 21 1015 49 10000 2.6 350 17:20 15.07.2020
763 Clouds 21 1015 46 10000 2.6 310 16:57 15.07.2020
764 Clouds 21 1015 46 10000 2.6 310 16:39 15.07.2020
765 Clouds 20 1015 52 10000 4.1 340 16:20 15.07.2020
766 Clouds 20 1015 52 10000 3.1 330 15:42 15.07.2020
767 Clouds 20 1015 52 10000 4.1 340 15:23 15.07.2020
768 Clouds 20 1015 52 10000 3.6 330 14:58 15.07.2020
769 Clouds 20 1015 52 10000 4.1 340 14:58 15.07.2020
770 Clouds 20 1015 52 10000 3.6 330 14:39 15.07.2020
771 Clouds 20 1015 52 10000 3.6 330 14:39 15.07.2020
772 Clouds 20 1015 55 10000 4.6 340 14:19 15.07.2020
773 Clouds 19 1015 52 10000 4.1 300 13:45 15.07.2020
774 Clouds 18 1015 52 10000 5.1 290 13:26 15.07.2020
775 Clouds 19 1015 59 10000 5.7 290 12:59 15.07.2020
776 Clouds 19 1015 59 10000 5.7 290 12:39 15.07.2020
777 Clouds 17 1014 59 10000 5.1 310 12:20 15.07.2020
778 Clouds 17 1014 59 10000 4.1 300 11:56 15.07.2020
779 Clouds 17 1014 59 10000 4.1 300 11:38 15.07.2020
780 Clouds 18 1014 63 10000 5.1 320 11:19 15.07.2020
781 Clouds 17 1014 67 10000 4.1 300 10:43 15.07.2020
782 Clouds 16 1014 72 10000 4.6 320 10:24 15.07.2020
783 Clouds 16 1014 72 10000 4.6 310 09:55 15.07.2020
784 Clouds 16 1014 72 10000 4.6 310 09:36 15.07.2020
785 Clouds 15 1014 77 10000 5.1 320 09:18 15.07.2020
786 Clouds 15 1014 87 10000 5.1 310 08:45 15.07.2020
787 Clouds 15 1014 87 10000 4.6 310 08:26 15.07.2020
788 Clouds 14 1013 93 10000 4.1 310 07:47 15.07.2020
789 Clouds 14 1013 93 10000 4.1 300 07:25 15.07.2020
790 Clouds 14 1013 93 10000 5.1 310 06:43 15.07.2020
791 Clouds 14 1013 93 10000 3.1 330 05:55 15.07.2020
792 Clouds 15 1013 93 10000 5.1 320 05:30 15.07.2020
793 Clouds 15 1013 93 10000 3.6 290 04:29 15.07.2020
794 Clouds 15 1013 93 10000 0.5 0 03:37 15.07.2020
795 Clouds 16 1013 93 10000 0.5 0 01:54 15.07.2020
796 Clouds 16 1013 93 10000 0.5 0 01:31 15.07.2020
797 Drizzle 15 1013 93 10000 1 0 00:56 15.07.2020
798 Clouds 15 1013 93 10000 1 0 00:29 15.07.2020
799 Clouds 16 1013 93 10000 1.5 140 23:49 14.07.2020
800 Rain 16 1013 93 10000 1 100 23:28 14.07.2020
801 Drizzle 15 1014 93 3200 1 0 22:56 14.07.2020
802 Drizzle 15 1014 93 3200 1 0 22:37 14.07.2020
803 Rain 15 1014 93 10000 2.1 70 22:18 14.07.2020
804 Rain 16 1014 93 10000 1 0 21:55 14.07.2020
805 Rain 16 1014 93 10000 1 0 21:36 14.07.2020
806 Rain 15 1014 87 10000 2.6 290 21:18 14.07.2020
807 Rain 17 1014 82 9000 1.5 20 20:42 14.07.2020
808 Rain 18 1014 82 10000 2.1 360 20:21 14.07.2020
809 Rain 19 1014 72 10000 4.1 270 19:56 14.07.2020
810 Rain 19 1014 72 10000 4.1 270 19:38 14.07.2020
811 Rain 19 1014 72 10000 2.1 330 19:20 14.07.2020
812 Rain 19 1014 68 10000 2.1 350 18:44 14.07.2020
813 Rain 19 1014 72 10000 4.1 360 18:20 14.07.2020
814 Rain 20 1014 72 10000 2.6 330 17:58 14.07.2020
815 Rain 20 1014 72 10000 2.6 330 17:40 14.07.2020
816 Rain 20 1014 72 10000 5.1 330 17:21 14.07.2020
817 Rain 21 1014 60 10000 9.8 310 16:56 14.07.2020
818 Clouds 22 1013 46 10000 6.2 290 16:37 14.07.2020
819 Clouds 22 1013 46 10000 6.2 290 16:18 14.07.2020
820 Clouds 22 1013 46 10000 6.7 340 15:44 14.07.2020
821 Clouds 24 1013 41 10000 4.6 310 15:23 14.07.2020
822 Clouds 23 1013 41 10000 4.6 310 14:57 14.07.2020
823 Clouds 24 1013 41 10000 4.1 300 14:39 14.07.2020
824 Clouds 23 1014 41 10000 3.1 300 14:19 14.07.2020
825 Clouds 24 1014 41 10000 4.6 290 13:41 14.07.2020
826 Clouds 23 1014 41 10000 1 0 13:23 14.07.2020
827 Clouds 24 1015 38 10000 1.5 0 12:56 14.07.2020
828 Clouds 23 1015 40 10000 1 0 12:37 14.07.2020
829 Clouds 23 1015 40 10000 1 0 12:18 14.07.2020
830 Clouds 23 1015 40 10000 1 0 11:44 14.07.2020
831 Clouds 22 1015 46 10000 1.5 270 11:21 14.07.2020
832 Clouds 22 1016 52 10000 1 0 10:56 14.07.2020
833 Clouds 22 1016 56 10000 1 0 10:38 14.07.2020
834 Clouds 22 1016 56 10000 1 0 10:18 14.07.2020
835 Clouds 20 1016 59 10000 1.5 150 09:40 14.07.2020
836 Clouds 18 1016 67 10000 0.5 0 09:21 14.07.2020
837 Clouds 17 1016 67 10000 1 0 08:44 14.07.2020
838 Clouds 16 1016 77 10000 2.1 140 08:25 14.07.2020
839 Clouds 16 1017 82 10000 0.5 0 07:59 14.07.2020
840 Clouds 14 1017 93 10000 1.5 50 07:38 14.07.2020
841 Clouds 14 1017 93 10000 1.5 50 07:18 14.07.2020
842 Clouds 14 1017 93 10000 0.5 0 06:50 14.07.2020
843 Clouds 14 1017 93 10000 0.5 0 06:25 14.07.2020
844 Clouds 14 1017 93 10000 0.5 0 05:42 14.07.2020
845 Clouds 15 1017 87 10000 0.5 0 04:38 14.07.2020
846 Clouds 15 1017 87 10000 1 0 03:54 14.07.2020
847 Clouds 16 1018 87 10000 1 60 03:19 14.07.2020
848 Clouds 17 1018 82 10000 1.5 140 02:26 14.07.2020
849 Clouds 17 1018 72 10000 0.5 70 01:41 14.07.2020
850 Clouds 17 1018 72 10000 0.5 70 01:21 14.07.2020
851 Clouds 18 1018 72 10000 1.5 60 00:41 14.07.2020
852 Clouds 19 1018 67 10000 2.1 60 00:21 14.07.2020
853 Clouds 19 1019 67 10000 1 0 23:38 13.07.2020
854 Clouds 19 1019 63 10000 1 50 23:19 13.07.2020
855 Clouds 19 1019 63 10000 1 50 23:19 13.07.2020
856 Clouds 20 1019 59 10000 1 0 22:57 13.07.2020
857 Clouds 20 1019 59 10000 1 0 22:38 13.07.2020
858 Clouds 21 1019 59 10000 1.5 20 22:19 13.07.2020
859 Clouds 23 1019 49 10000 1.5 360 21:54 13.07.2020
860 Clouds 23 1019 49 10000 1.5 360 21:36 13.07.2020
861 Clouds 24 1019 40 10000 2.1 10 21:18 13.07.2020
862 Clouds 24 1019 40 10000 2.1 10 21:18 13.07.2020
863 Clouds 24 1019 38 10000 3.1 20 20:54 13.07.2020
864 Clouds 24 1019 38 10000 3.1 20 20:36 13.07.2020
865 Clouds 25 1019 36 10000 2.6 360 20:18 13.07.2020
866 Clouds 25 1019 36 10000 3.6 40 19:42 13.07.2020
867 Clear 25 1019 33 10000 3.6 30 19:23 13.07.2020
868 Clear 26 1019 29 10000 2.6 0 18:57 13.07.2020
869 Clear 26 1019 29 10000 2.6 0 18:38 13.07.2020
870 Clear 26 1019 31 10000 2.6 340 18:19 13.07.2020
871 Clear 27 1020 31 10000 2.6 30 17:55 13.07.2020
872 Clear 27 1020 31 10000 2.1 10 17:37 13.07.2020
873 Clear 27 1020 31 10000 2.1 10 17:18 13.07.2020
874 Clear 27 1020 29 10000 2.6 0 16:42 13.07.2020
875 Clear 27 1020 29 10000 2.6 0 16:42 13.07.2020
876 Clear 27 1021 31 10000 2.6 0 16:21 13.07.2020
877 Clear 27 1021 31 10000 2.6 0 15:59 13.07.2020
878 Clear 26 1021 29 10000 2.6 250 15:39 13.07.2020
879 Clear 26 1021 33 10000 2.1 230 15:20 13.07.2020
880 Clear 26 1022 33 10000 2.1 10 14:58 13.07.2020
881 Clouds 26 1022 36 10000 4.1 300 14:39 13.07.2020
882 Clouds 25 1022 36 10000 4.1 300 14:20 13.07.2020
883 Clouds 25 1022 33 10000 3.6 290 13:56 13.07.2020
884 Clouds 25 1023 36 10000 2.6 270 13:37 13.07.2020
885 Clouds 25 1023 36 10000 2.6 270 13:19 13.07.2020
886 Clouds 25 1023 38 10000 2.1 0 12:43 13.07.2020
887 Clouds 23 1023 40 10000 1 0 12:22 13.07.2020
888 Clouds 23 1023 43 10000 1 200 11:58 13.07.2020
889 Clouds 22 1023 43 10000 1 200 11:38 13.07.2020
890 Clouds 21 1024 46 10000 1.5 200 11:19 13.07.2020
891 Clouds 20 1024 49 10000 1.5 110 10:38 13.07.2020
892 Clouds 21 1024 52 10000 1 0 10:20 13.07.2020
893 Clouds 19 1024 55 10000 1 0 09:43 13.07.2020
894 Clouds 17 1025 59 10000 0.5 0 09:25 13.07.2020
895 Clouds 15 1024 72 10000 0.5 0 08:53 13.07.2020
896 Clouds 15 1024 72 10000 0.5 0 08:34 13.07.2020
897 Clouds 13 1024 87 10000 0.5 360 07:46 13.07.2020
898 Clouds 12 1024 87 10000 0.5 0 07:20 13.07.2020
899 Clouds 11 1024 87 10000 1.5 70 06:44 13.07.2020
900 Clouds 11 1024 87 10000 2.1 70 06:24 13.07.2020
901 Clouds 12 1025 87 10000 1.5 50 04:55 13.07.2020
902 Clouds 14 1025 67 10000 1.5 90 01:58 13.07.2020
903 Clouds 15 1025 67 10000 1.5 90 01:37 13.07.2020
904 Clouds 15 1025 67 10000 2.6 70 01:19 13.07.2020
905 Clouds 16 1025 67 10000 2.6 60 00:38 13.07.2020
906 Clouds 16 1025 67 10000 2.6 60 00:19 13.07.2020
907 Clouds 16 1026 76 10000 3.1 60 23:41 12.07.2020
908 Clouds 17 1026 67 10000 2.6 50 23:22 12.07.2020
909 Clouds 18 1026 67 10000 2.6 60 22:56 12.07.2020
910 Clouds 18 1026 67 10000 2.6 60 22:37 12.07.2020
911 Clouds 19 1026 59 10000 1.5 50 22:18 12.07.2020
912 Clouds 20 1026 59 10000 1.5 30 21:56 12.07.2020
913 Clouds 21 1025 52 10000 2.1 360 21:38 12.07.2020
914 Clouds 21 1025 52 10000 2.1 360 21:19 12.07.2020
915 Clouds 22 1025 46 10000 2.1 20 20:42 12.07.2020
916 Clouds 22 1026 43 10000 2.1 30 20:20 12.07.2020
917 Clouds 23 1026 43 10000 1.5 40 19:59 12.07.2020
918 Clouds 22 1026 43 10000 2.6 60 19:40 12.07.2020
919 Clouds 22 1026 43 10000 2.6 60 19:21 12.07.2020
920 Clouds 23 1026 37 10000 1.5 230 18:57 12.07.2020
921 Clouds 23 1026 40 10000 3.1 20 18:38 12.07.2020
922 Clear 23 1026 40 10000 3.1 20 18:18 12.07.2020
923 Clear 24 1026 38 10000 2.1 280 17:39 12.07.2020
924 Clear 24 1026 40 10000 2.6 360 17:21 12.07.2020
925 Clear 24 1027 40 10000 3.6 30 16:56 12.07.2020
926 Clear 23 1027 43 10000 4.1 310 16:38 12.07.2020
927 Clear 22 1027 43 10000 4.1 310 16:18 12.07.2020
928 Clear 23 1027 40 10000 3.1 320 15:41 12.07.2020
929 Clear 21 1027 43 10000 3.6 30 15:21 12.07.2020
930 Clear 22 1027 40 10000 2.6 0 14:42 12.07.2020
931 Clear 21 1028 40 10000 2.6 20 14:23 12.07.2020
932 Clear 21 1028 49 10000 3.1 0 13:41 12.07.2020
933 Clear 20 1028 45 10000 1.5 0 13:22 12.07.2020
934 Clouds 19 1028 55 10000 2.6 10 12:59 12.07.2020
935 Clouds 19 1028 55 10000 2.6 10 12:41 12.07.2020
936 Clouds 19 1028 49 10000 2.1 0 12:20 12.07.2020
937 Clouds 19 1028 55 10000 1.5 0 11:58 12.07.2020
938 Clouds 19 1028 55 10000 1.5 0 11:40 12.07.2020
939 Clouds 17 1028 63 10000 1.5 0 11:19 12.07.2020
940 Clouds 18 1028 63 10000 1.5 0 10:42 12.07.2020
941 Clouds 17 1028 67 10000 1 0 10:20 12.07.2020
942 Clouds 18 1028 72 10000 1 0 09:43 12.07.2020
943 Clouds 15 1028 76 10000 1 0 09:24 12.07.2020
944 Clear 15 1028 87 10000 1.5 160 08:59 12.07.2020
945 Clear 14 1028 87 10000 1.5 160 08:40 12.07.2020
946 Clear 13 1027 87 10000 1 0 08:22 12.07.2020
947 Clear 12 1027 93 10000 0.5 140 07:54 12.07.2020
948 Clear 11 1027 100 10000 1 0 07:36 12.07.2020
949 Clear 11 1027 100 10000 1 0 07:18 12.07.2020
950 Clear 10 1027 100 10000 1 30 06:47 12.07.2020
951 Clear 10 1027 93 10000 0.5 0 06:19 12.07.2020
952 Clear 11 1026 93 10000 1.5 110 05:22 12.07.2020
953 Clear 11 1026 93 10000 1 0 04:29 12.07.2020
954 Clear 11 1026 100 10000 0.5 0 03:53 12.07.2020
955 Clear 12 1026 93 10000 1.5 50 03:31 12.07.2020
956 Clear 12 1026 93 10000 1.5 50 03:31 12.07.2020
957 Clear 13 1026 100 10000 1 0 02:46 12.07.2020
958 Clear 13 1026 93 10000 1 0 01:36 12.07.2020
959 Clear 13 1026 93 10000 0.5 70 00:42 12.07.2020
960 Clear 14 1026 87 10000 1 0 00:22 12.07.2020
961 Clear 15 1026 93 10000 0.5 0 23:56 11.07.2020
962 Clear 15 1026 93 10000 0.5 0 23:38 11.07.2020
963 Clear 15 1026 87 10000 0.5 0 23:19 11.07.2020
964 Clear 16 1026 87 10000 1 0 22:45 11.07.2020
965 Clouds 16 1025 87 10000 1 40 22:26 11.07.2020
966 Clouds 17 1025 87 10000 1 40 21:59 11.07.2020
967 Clouds 17 1025 82 10000 1 0 21:40 11.07.2020
968 Clouds 18 1025 82 10000 1 0 21:22 11.07.2020
969 Rain 18 1025 63 10000 3.1 280 20:56 11.07.2020
970 Rain 18 1025 63 10000 3.1 280 20:38 11.07.2020
971 Rain 19 1025 55 10000 2.6 330 20:20 11.07.2020
972 Rain 19 1025 55 10000 3.6 330 19:57 11.07.2020
973 Rain 19 1025 55 10000 3.6 330 19:39 11.07.2020
974 Clouds 20 1024 48 10000 3.6 330 19:20 11.07.2020
975 Clouds 20 1024 42 10000 3.6 340 18:55 11.07.2020
976 Clouds 21 1024 40 10000 1.5 0 18:37 11.07.2020
977 Clouds 21 1024 40 10000 1.5 0 18:18 11.07.2020
978 Clouds 21 1024 42 10000 2.6 320 17:42 11.07.2020
979 Clouds 21 1024 48 10000 3.1 360 17:22 11.07.2020
980 Clouds 21 1024 40 10000 3.1 300 16:59 11.07.2020
981 Clouds 21 1024 40 10000 3.1 300 16:39 11.07.2020
982 Clouds 20 1025 45 10000 2.6 330 16:20 11.07.2020
983 Clouds 20 1025 45 10000 3.1 300 15:57 11.07.2020
984 Clouds 20 1025 45 10000 3.1 300 15:37 11.07.2020
985 Clouds 20 1024 48 10000 3.6 310 15:18 11.07.2020
986 Clouds 19 1024 52 10000 3.1 330 14:47 11.07.2020
987 Clouds 20 1024 49 10000 3.6 280 14:24 11.07.2020
988 Clouds 19 1024 45 10000 3.1 280 13:58 11.07.2020
989 Clouds 19 1024 52 10000 4.6 310 13:40 11.07.2020
990 Clouds 19 1024 52 10000 4.6 310 13:21 11.07.2020
991 Clouds 18 1024 48 10000 3.1 0 12:45 11.07.2020
992 Clouds 18 1024 48 10000 3.1 0 12:45 11.07.2020
993 Clouds 18 1024 52 10000 2.6 310 12:23 11.07.2020
994 Clouds 18 1024 55 10000 2.1 0 11:59 11.07.2020
995 Clouds 17 1024 55 10000 2.1 0 11:41 11.07.2020
996 Clouds 17 1024 55 10000 2.6 310 11:20 11.07.2020
997 Clouds 16 1024 63 10000 4.1 290 10:56 11.07.2020
998 Clouds 17 1024 63 10000 4.1 290 10:38 11.07.2020
999 Clouds 16 1024 63 10000 2.6 360 10:19 11.07.2020
1000 Clouds 15 1024 76 10000 1 0 09:39 11.07.2020
1001 Clouds 14 1024 76 10000 1 0 09:20 11.07.2020
1002 Clouds 15 1023 76 10000 1.5 320 08:46 11.07.2020
1003 Clouds 14 1023 82 10000 1.5 300 08:28 11.07.2020
1004 Clouds 12 1023 93 10000 0.5 0 07:56 11.07.2020
1005 Clouds 12 1022 93 10000 0.5 60 07:37 11.07.2020
1006 Clouds 12 1022 93 10000 0.5 60 07:18 11.07.2020
1007 Clouds 11 1022 93 10000 1 60 06:28 11.07.2020
1008 Clear 11 1021 100 10000 0.92 296 05:59 11.07.2020
1009 Clear 12 1021 100 10000 0.5 40 05:20 11.07.2020
1010 Clear 12 1021 93 10000 0.5 0 04:53 11.07.2020
1011 Clear 12 1021 93 10000 0.5 0 04:31 11.07.2020
1012 Clouds 13 1021 93 10000 0.5 60 02:57 11.07.2020
1013 Clouds 13 1021 93 10000 0.5 60 02:36 11.07.2020
1014 Clouds 13 1020 93 10000 1.5 60 01:27 11.07.2020
1015 Clouds 13 1020 93 10000 1.42 339 00:59 11.07.2020
1016 Clouds 13 1020 93 10000 1.42 339 00:38 11.07.2020
1017 Clouds 14 1019 87 10000 1.5 30 00:19 11.07.2020
1018 Clouds 14 1019 87 10000 1.5 50 23:57 10.07.2020
1019 Clouds 14 1019 87 10000 1.5 50 23:38 10.07.2020
1020 Clouds 14 1019 87 10000 1.5 50 23:38 10.07.2020
1021 Clouds 15 1019 87 10000 1 40 23:18 10.07.2020
1022 Clouds 15 1018 87 10000 2.1 10 22:43 10.07.2020
1023 Clouds 16 1018 76 10000 2.6 340 22:19 10.07.2020
1024 Clouds 16 1018 72 10000 2.6 340 21:55 10.07.2020
1025 Clouds 17 1018 72 10000 2.6 340 21:36 10.07.2020
1026 Clouds 17 1017 67 10000 3.1 340 21:18 10.07.2020
1027 Clouds 17 1017 67 10000 3.1 340 21:18 10.07.2020
1028 Clouds 18 1017 72 10000 3.1 340 20:41 10.07.2020
1029 Clouds 18 1017 63 10000 4.1 340 20:22 10.07.2020
1030 Clouds 18 1017 67 10000 5.1 360 19:57 10.07.2020
1031 Clouds 19 1017 63 10000 6.7 320 19:39 10.07.2020
1032 Clouds 19 1017 63 10000 6.7 320 19:20 10.07.2020
1033 Clouds 19 1016 72 10000 4.6 340 18:42 10.07.2020
1034 Clouds 19 1016 77 10000 5.1 340 18:21 10.07.2020
1035 Rain 19 1016 77 10000 6.7 320 17:58 10.07.2020
1036 Rain 19 1016 77 10000 6.7 320 17:39 10.07.2020
1037 Rain 19 1015 63 10000 7.2 310 17:21 10.07.2020
1038 Clouds 21 1015 60 10000 6.7 330 16:43 10.07.2020
1039 Clouds 21 1014 60 10000 5.7 310 16:21 10.07.2020
1040 Clouds 20 1014 56 10000 6.2 300 15:55 10.07.2020
1041 Clouds 20 1014 63 10000 7.2 310 15:37 10.07.2020
1042 Clouds 20 1014 63 10000 7.2 310 15:18 10.07.2020
1043 Clouds 20 1014 72 10000 6.7 310 14:41 10.07.2020
1044 Clouds 20 1013 72 10000 10.3 300 14:21 10.07.2020
1045 Clouds 19 1012 68 10000 6.7 290 13:58 10.07.2020
1046 Clouds 19 1012 68 10000 6.7 290 13:39 10.07.2020
1047 Rain 19 1012 72 10000 9.8 270 13:21 10.07.2020
1048 Rain 19 1011 68 10000 7.2 250 12:58 10.07.2020
1049 Rain 20 1011 68 10000 7.2 250 12:38 10.07.2020
1050 Clouds 19 1011 72 10000 8.7 260 12:19 10.07.2020
1051 Rain 19 1011 82 10000 5.7 260 11:42 10.07.2020
1052 Clouds 19 1010 77 10000 8.2 250 11:21 10.07.2020
1053 Clouds 19 1010 77 10000 8.2 250 10:58 10.07.2020
1054 Clouds 19 1010 77 10000 7.2 250 10:40 10.07.2020
1055 Clouds 19 1010 77 10000 6.7 250 10:21 10.07.2020
1056 Clouds 19 1010 77 10000 6.7 250 09:42 10.07.2020
1057 Clouds 19 1009 77 10000 7.2 260 09:23 10.07.2020
1058 Clouds 18 1009 77 10000 6.2 260 08:59 10.07.2020
1059 Clouds 18 1009 77 10000 6.2 260 08:41 10.07.2020
1060 Clouds 19 1009 77 10000 3.6 250 08:23 10.07.2020
1061 Clouds 19 1009 82 10000 2.6 210 07:58 10.07.2020
1062 Clouds 19 1009 82 10000 2.6 210 07:39 10.07.2020
1063 Clouds 19 1009 82 10000 2.6 190 07:19 10.07.2020
1064 Clouds 18 1009 88 10000 2.1 200 06:43 10.07.2020
1065 Clouds 18 1009 93 10000 1.5 220 05:53 10.07.2020
1066 Clouds 18 1009 88 10000 1.5 340 04:31 10.07.2020
1067 Clouds 18 1010 88 10000 2.1 60 03:22 10.07.2020
1068 Clouds 18 1010 82 10000 3.6 60 02:41 10.07.2020
1069 Clouds 18 1011 88 10000 2.1 60 01:39 10.07.2020
1070 Clouds 18 1011 88 10000 2.1 70 00:40 10.07.2020
1071 Clouds 18 1011 88 10000 2.1 60 00:18 10.07.2020
1072 Clouds 18 1011 88 10000 1.5 80 23:43 09.07.2020
1073 Clouds 19 1012 88 10000 2.1 80 23:20 09.07.2020
1074 Clouds 19 1012 88 10000 2.6 70 22:58 09.07.2020
1075 Clouds 19 1012 88 10000 2.6 70 22:39 09.07.2020
1076 Clouds 20 1012 82 10000 2.1 50 22:21 09.07.2020
1077 Clouds 21 1012 73 10000 2.1 110 21:56 09.07.2020
1078 Clouds 22 1012 73 10000 2.1 110 21:37 09.07.2020
1079 Clouds 22 1012 73 10000 2.1 110 21:37 09.07.2020
1080 Clouds 22 1012 68 10000 1.5 90 21:18 09.07.2020
1081 Clouds 22 1012 73 10000 2.1 50 20:43 09.07.2020
1082 Clouds 22 1012 77 10000 2.1 60 20:24 09.07.2020
1083 Rain 22 1012 73 10000 2.1 350 19:58 09.07.2020
1084 Rain 22 1012 73 10000 2.1 350 19:40 09.07.2020
1085 Rain 22 1012 73 10000 3.1 350 19:20 09.07.2020
1086 Rain 22 1012 60 10000 6.2 310 18:42 09.07.2020
1087 Rain 23 1012 53 10000 6.7 290 18:21 09.07.2020
1088 Clouds 24 1012 53 10000 6.7 280 17:55 09.07.2020
1089 Clouds 24 1012 53 10000 6.7 280 17:37 09.07.2020
1090 Clouds 25 1012 53 10000 7.2 290 17:18 09.07.2020
1091 Clouds 25 1013 54 10000 6.7 280 16:55 09.07.2020
1092 Clouds 25 1013 54 10000 6.7 280 16:37 09.07.2020
1093 Clouds 24 1013 53 10000 6.7 280 16:18 09.07.2020
1094 Clouds 25 1013 53 10000 6.7 260 15:46 09.07.2020
1095 Clouds 24 1013 57 10000 5.7 270 15:28 09.07.2020
1096 Clouds 24 1013 60 10000 6.2 280 14:59 09.07.2020
1097 Clouds 24 1013 60 10000 6.2 280 14:41 09.07.2020
1098 Clouds 23 1014 64 10000 6.2 280 14:23 09.07.2020
1099 Clouds 23 1014 64 10000 6.7 260 13:59 09.07.2020
1100 Clouds 22 1014 64 10000 6.7 260 13:41 09.07.2020
1101 Clouds 22 1014 64 10000 7.2 270 13:20 09.07.2020
1102 Clouds 22 1014 73 10000 5.1 270 12:58 09.07.2020
1103 Clouds 22 1014 73 10000 5.1 270 12:39 09.07.2020
1104 Clouds 21 1014 73 10000 5.1 280 12:20 09.07.2020
1105 Clouds 20 1014 77 10000 5.1 240 11:54 09.07.2020
1106 Clouds 20 1014 82 10000 3.1 220 11:36 09.07.2020
1107 Clouds 19 1014 82 10000 3.1 220 11:18 09.07.2020
1108 Clouds 20 1014 82 10000 3.6 170 10:42 09.07.2020
1109 Clouds 19 1014 82 10000 3.1 180 10:23 09.07.2020
1110 Clouds 18 1014 93 10000 2.1 190 09:59 09.07.2020
1111 Clouds 18 1014 93 10000 2.1 190 09:41 09.07.2020
1112 Clouds 18 1014 88 10000 2.6 180 09:21 09.07.2020
1113 Rain 17 1014 93 10000 2.1 0 08:45 09.07.2020
1114 Drizzle 17 1015 93 10000 2.1 170 08:25 09.07.2020
1115 Drizzle 17 1015 93 10000 2.6 180 07:47 09.07.2020
1116 Drizzle 17 1015 100 10000 2.1 180 07:25 09.07.2020
1117 Drizzle 16 1015 100 10000 2.1 180 06:55 09.07.2020
1118 Drizzle 16 1015 100 10000 2.1 200 06:20 09.07.2020
1119 Drizzle 16 1015 100 10000 2.1 200 05:37 09.07.2020
1120 Drizzle 16 1015 100 10000 1.5 180 04:28 09.07.2020
1121 Drizzle 16 1015 100 10000 2.6 190 02:33 09.07.2020
1122 Drizzle 16 1016 93 10000 2.6 180 01:40 09.07.2020
1123 Drizzle 16 1016 93 10000 2.1 160 00:56 09.07.2020
1124 Drizzle 16 1016 93 10000 3.1 0 00:37 09.07.2020
1125 Drizzle 16 1016 93 10000 3.1 0 00:18 09.07.2020
1126 Drizzle 16 1016 93 10000 3.1 160 23:43 08.07.2020
1127 Drizzle 16 1016 93 10000 2.6 150 23:24 08.07.2020
1128 Drizzle 16 1016 93 4500 2.1 130 22:55 08.07.2020
1129 Drizzle 16 1016 100 4500 2.1 130 22:36 08.07.2020
1130 Drizzle 16 1016 100 4500 2.1 130 22:18 08.07.2020
1131 Drizzle 16 1016 100 4000 2.1 120 21:39 08.07.2020
1132 Drizzle 16 1016 100 4000 2.1 120 21:39 08.07.2020
1133 Drizzle 16 1016 93 4500 1 0 21:21 08.07.2020
1134 Drizzle 16 1016 93 9000 1.5 50 20:59 08.07.2020
1135 Drizzle 16 1016 93 9000 1.5 50 20:41 08.07.2020
1136 Drizzle 16 1016 93 9000 1 0 20:23 08.07.2020
1137 Drizzle 16 1016 93 4500 1 0 19:54 08.07.2020
1138 Drizzle 16 1016 93 4500 1.5 100 19:36 08.07.2020
1139 Drizzle 16 1016 93 4500 1.5 100 19:18 08.07.2020
1140 Drizzle 16 1016 93 8000 1.5 110 18:40 08.07.2020
1141 Drizzle 16 1017 87 6000 1.5 60 18:21 08.07.2020
1142 Drizzle 16 1017 93 7000 1 0 17:57 08.07.2020
1143 Drizzle 16 1017 93 7000 1 0 17:38 08.07.2020
1144 Drizzle 16 1017 93 6000 1.5 60 17:20 08.07.2020
1145 Rain 16 1017 93 10000 1.5 60 16:57 08.07.2020
1146 Rain 16 1017 93 10000 1.5 60 16:38 08.07.2020
1147 Rain 16 1017 87 10000 1.5 60 16:18 08.07.2020
1148 Rain 16 1017 87 10000 1 0 15:57 08.07.2020
1149 Rain 16 1017 87 10000 1 0 15:38 08.07.2020
1150 Rain 15 1017 87 10000 1.5 180 15:19 08.07.2020
1151 Rain 15 1017 87 10000 1.5 180 15:19 08.07.2020
1152 Rain 15 1017 87 10000 2.1 160 14:42 08.07.2020
1153 Rain 15 1017 87 10000 1 0 14:23 08.07.2020
1154 Rain 15 1016 87 10000 2.1 160 13:57 08.07.2020
1155 Rain 15 1016 87 10000 2.1 160 13:38 08.07.2020
1156 Rain 15 1017 87 10000 2.1 160 13:18 08.07.2020
1157 Rain 14 1017 93 10000 2.1 140 12:41 08.07.2020
1158 Rain 14 1017 93 10000 2.1 140 12:20 08.07.2020
1159 Rain 14 1017 93 10000 1 0 11:56 08.07.2020
1160 Rain 14 1017 93 10000 1 0 11:37 08.07.2020
1161 Rain 14 1017 87 10000 1 0 11:19 08.07.2020
1162 Rain 14 1016 87 10000 1 0 10:43 08.07.2020
1163 Rain 13 1016 93 10000 1.5 230 10:24 08.07.2020
1164 Rain 13 1016 93 10000 2.1 220 09:46 08.07.2020
1165 Rain 13 1016 93 10000 0.5 0 09:25 08.07.2020
1166 Rain 12 1016 93 10000 2.1 230 08:56 08.07.2020
1167 Rain 12 1016 93 10000 2.1 230 08:38 08.07.2020
1168 Rain 12 1016 93 10000 2.1 260 08:19 08.07.2020
1169 Rain 12 1016 93 8000 4.6 250 07:42 08.07.2020
1170 Rain 12 1016 87 7000 7.2 260 07:19 08.07.2020
1171 Rain 14 1016 71 10000 5.7 250 06:45 08.07.2020
1172 Rain 14 1016 87 10000 0.5 0 06:25 08.07.2020
1173 Rain 14 1016 87 10000 2.1 170 05:48 08.07.2020
1174 Clouds 14 1016 82 10000 1.5 70 04:50 08.07.2020
1175 Clouds 14 1016 82 10000 3.1 70 03:39 08.07.2020
1176 Clouds 16 1017 82 10000 1.5 20 02:19 08.07.2020
1177 Rain 16 1017 72 10000 1.5 50 01:38 08.07.2020
1178 Rain 16 1017 77 10000 2.1 140 00:51 08.07.2020
1179 Clouds 17 1017 72 10000 1.5 70 00:20 08.07.2020
1180 Rain 17 1017 67 10000 0.5 0 23:44 07.07.2020
1181 Rain 18 1017 67 10000 1 70 23:22 07.07.2020
1182 Rain 18 1017 67 10000 1 70 23:22 07.07.2020
1183 Rain 18 1017 67 10000 1 70 22:58 07.07.2020
1184 Clouds 18 1018 59 10000 1 40 22:39 07.07.2020
1185 Clouds 19 1018 59 10000 1 40 22:20 07.07.2020
1186 Clouds 19 1018 55 10000 1.5 30 21:57 07.07.2020
1187 Clouds 19 1018 55 10000 1.5 30 21:38 07.07.2020
1188 Clouds 19 1018 55 10000 1.5 30 21:38 07.07.2020
1189 Clouds 19 1018 59 10000 2.6 340 21:19 07.07.2020
1190 Clouds 19 1018 52 10000 3.1 340 20:55 07.07.2020
1191 Clouds 20 1018 52 10000 3.1 330 20:36 07.07.2020
1192 Clouds 20 1018 52 10000 3.1 330 20:18 07.07.2020
1193 Clouds 20 1018 52 10000 3.1 330 20:18 07.07.2020
1194 Clouds 20 1018 55 10000 4.6 320 19:39 07.07.2020
1195 Clouds 21 1018 52 10000 4.6 320 19:20 07.07.2020
1196 Clouds 21 1018 49 10000 5.7 300 18:55 07.07.2020
1197 Clouds 21 1018 45 10000 6.2 290 18:37 07.07.2020
1198 Clouds 21 1018 45 10000 6.2 290 18:19 07.07.2020
1199 Clouds 20 1018 45 10000 5.7 280 17:57 07.07.2020
1200 Clouds 20 1018 45 10000 5.7 280 17:38 07.07.2020
1201 Rain 21 1019 43 10000 6.7 280 17:20 07.07.2020
1202 Rain 21 1019 45 10000 6.7 280 16:43 07.07.2020
1203 Clouds 21 1019 43 10000 5.1 240 16:23 07.07.2020
1204 Clouds 21 1019 49 10000 5.7 260 15:57 07.07.2020
1205 Clouds 21 1019 49 10000 5.7 260 15:38 07.07.2020
1206 Rain 20 1019 45 10000 4.6 270 15:20 07.07.2020
1207 Rain 20 1019 45 10000 4.6 270 15:20 07.07.2020
1208 Rain 21 1020 46 10000 5.1 280 14:46 07.07.2020
1209 Clouds 21 1020 46 10000 5.1 270 14:25 07.07.2020
1210 Clouds 21 1020 46 10000 5.1 270 14:25 07.07.2020
1211 Clouds 21 1020 49 10000 5.1 280 13:57 07.07.2020
1212 Clear 20 1020 45 10000 5.1 260 13:38 07.07.2020
1213 Clear 20 1020 45 10000 5.1 260 13:18 07.07.2020
1214 Clouds 19 1021 45 10000 2.1 0 12:40 07.07.2020
1215 Clouds 19 1021 45 10000 2.1 0 12:22 07.07.2020
1216 Clouds 19 1021 52 10000 2.1 240 11:50 07.07.2020
1217 Clouds 19 1021 48 10000 2.6 0 11:26 07.07.2020
1218 Clouds 18 1021 48 10000 2.6 0 10:59 07.07.2020
1219 Clouds 17 1021 55 10000 2.1 0 10:41 07.07.2020
1220 Clouds 17 1021 63 10000 1.5 0 10:22 07.07.2020
1221 Clouds 17 1021 67 10000 1.5 0 09:59 07.07.2020
1222 Clouds 16 1021 67 10000 1.5 0 09:38 07.07.2020
1223 Clouds 15 1022 72 10000 1 0 09:20 07.07.2020
1224 Clouds 15 1022 71 10000 1 0 08:42 07.07.2020
1225 Clouds 14 1022 82 10000 2.1 130 08:23 07.07.2020
1226 Clouds 12 1022 81 10000 1 0 07:45 07.07.2020
1227 Clouds 11 1022 93 10000 1 0 07:23 07.07.2020
1228 Clouds 10 1022 93 10000 0.5 0 06:49 07.07.2020
1229 Clouds 10 1022 93 10000 1 0 06:30 07.07.2020
1230 Clouds 10 1022 93 10000 1 0 05:53 07.07.2020
1231 Clear 10 1022 93 10000 1.5 160 05:23 07.07.2020
1232 Clouds 11 1022 93 10000 0.5 0 04:40 07.07.2020
1233 Clouds 11 1022 87 10000 0.5 0 03:40 07.07.2020
1234 Clouds 13 1022 81 10000 2.1 270 02:28 07.07.2020
1235 Clouds 14 1022 76 10000 3.1 260 01:25 07.07.2020
1236 Clear 14 1022 71 10000 3.1 270 00:44 07.07.2020
1237 Clear 14 1022 67 10000 3.6 300 00:25 07.07.2020
1238 Clear 15 1021 62 10000 6.2 290 23:59 06.07.2020
1239 Clear 15 1021 62 10000 6.2 290 23:40 06.07.2020
1240 Clear 15 1021 62 10000 4.6 300 23:22 06.07.2020
1241 Clouds 16 1021 62 10000 5.7 310 22:55 06.07.2020
1242 Clouds 16 1021 62 10000 5.7 310 22:37 06.07.2020
1243 Clouds 16 1021 55 10000 6.7 300 22:18 06.07.2020
1244 Clouds 16 1020 59 10000 5.7 310 21:54 06.07.2020
1245 Clouds 16 1020 59 10000 5.7 310 21:36 06.07.2020
1246 Clouds 17 1020 55 10000 8.2 300 21:18 06.07.2020
1247 Clouds 18 1019 45 10000 10.3 290 20:39 06.07.2020
1248 Clouds 18 1019 45 10000 10.3 290 20:20 06.07.2020
1249 Clouds 18 1019 51 10000 7.2 320 19:57 06.07.2020
1250 Clouds 19 1019 52 10000 8.7 300 19:39 06.07.2020
1251 Clouds 19 1019 52 10000 8.7 300 19:20 06.07.2020
1252 Clouds 19 1019 52 10000 6.7 310 18:56 06.07.2020
1253 Clouds 19 1019 52 10000 6.7 310 18:38 06.07.2020
1254 Rain 18 1019 63 10000 5.1 340 18:19 06.07.2020
1255 Rain 19 1018 55 10000 7.2 290 17:42 06.07.2020
1256 Rain 18 1018 52 10000 7.7 280 17:24 06.07.2020
1257 Rain 18 1018 63 10000 5.7 280 16:58 06.07.2020
1258 Rain 18 1018 63 10000 5.7 280 16:40 06.07.2020
1259 Rain 18 1017 51 10000 11.3 290 16:21 06.07.2020
1260 Rain 18 1017 52 10000 8.7 280 15:43 06.07.2020
1261 Clouds 18 1017 59 10000 9.3 270 15:25 06.07.2020
1262 Rain 16 1017 72 10000 4.6 270 14:57 06.07.2020
1263 Rain 17 1017 72 10000 4.6 270 14:38 06.07.2020
1264 Rain 17 1017 72 10000 4.6 270 14:38 06.07.2020
1265 Rain 16 1017 63 10000 11.8 290 14:20 06.07.2020
1266 Rain 16 1016 48 10000 9.3 260 13:56 06.07.2020
1267 Rain 17 1016 48 10000 9.3 260 13:38 06.07.2020
1268 Rain 18 1016 52 10000 8.2 260 13:19 06.07.2020
1269 Clouds 18 1016 52 10000 6.7 270 12:42 06.07.2020
1270 Clouds 17 1015 52 10000 8.7 280 12:19 06.07.2020
1271 Clouds 17 1015 52 10000 8.7 280 12:19 06.07.2020
1272 Clouds 17 1015 59 10000 7.7 280 11:58 06.07.2020
1273 Clouds 16 1015 59 10000 7.7 280 11:39 06.07.2020
1274 Clouds 16 1015 59 10000 7.7 260 11:20 06.07.2020
1275 Clouds 17 1015 59 10000 7.7 260 10:57 06.07.2020
1276 Clouds 16 1015 59 10000 7.7 260 10:39 06.07.2020
1277 Clouds 16 1015 63 10000 7.7 250 10:18 06.07.2020
1278 Clouds 15 1015 67 10000 8.7 260 09:42 06.07.2020
1279 Clouds 15 1015 67 10000 7.2 260 09:22 06.07.2020
1280 Clouds 15 1015 67 10000 7.7 260 08:58 06.07.2020
1281 Clouds 15 1015 67 10000 7.7 260 08:39 06.07.2020
1282 Clouds 15 1014 71 10000 9.3 270 08:20 06.07.2020
1283 Clouds 14 1014 71 10000 7.7 270 07:47 06.07.2020
1284 Clouds 14 1014 76 10000 4.1 240 07:29 06.07.2020
1285 Clouds 14 1014 76 10000 4.1 240 06:49 06.07.2020
1286 Clouds 13 1014 76 10000 4.6 250 06:31 06.07.2020
1287 Clouds 14 1014 71 10000 5.1 260 05:44 06.07.2020
1288 Clouds 14 1014 71 10000 6.7 260 05:25 06.07.2020
1289 Clouds 15 1014 67 10000 6.7 280 03:53 06.07.2020
1290 Clouds 16 1014 59 10000 10.3 270 02:29 06.07.2020
1291 Clouds 17 1013 59 10000 9.8 280 01:45 06.07.2020
1292 Clouds 18 1013 63 10000 8.2 280 00:49 06.07.2020
1293 Clouds 19 1012 68 10000 7.7 280 00:23 06.07.2020
1294 Clouds 19 1012 64 10000 7.7 280 23:56 05.07.2020
1295 Clouds 20 1012 64 10000 7.7 280 23:38 05.07.2020
1296 Clouds 21 1012 64 10000 7.2 280 23:19 05.07.2020
1297 Clouds 21 1012 64 10000 8.2 280 22:42 05.07.2020
1298 Clouds 22 1011 64 10000 5.7 250 22:21 05.07.2020
1299 Clouds 22 1011 64 10000 5.7 250 21:59 05.07.2020
1300 Clouds 22 1011 64 10000 6.2 230 21:41 05.07.2020
1301 Clouds 22 1011 64 10000 5.7 240 21:19 05.07.2020
1302 Clouds 22 1011 64 10000 5.7 240 21:19 05.07.2020
1303 Clouds 23 1011 60 10000 7.7 240 20:59 05.07.2020
1304 Clouds 23 1011 60 10000 7.7 240 20:40 05.07.2020
1305 Clouds 23 1012 60 10000 9.8 240 20:22 05.07.2020
1306 Clouds 23 1012 64 10000 8.7 240 19:57 05.07.2020
1307 Rain 23 1012 73 10000 8.2 250 19:39 05.07.2020
1308 Rain 23 1012 73 10000 8.2 250 19:19 05.07.2020
1309 Rain 23 1012 60 10000 10.3 260 18:42 05.07.2020
1310 Rain 23 1012 61 10000 7.7 240 18:23 05.07.2020
1311 Rain 23 1012 61 10000 8.7 250 17:59 05.07.2020
1312 Rain 24 1012 61 10000 8.7 250 17:41 05.07.2020
1313 Rain 24 1012 64 10000 8.7 260 17:19 05.07.2020
1314 Rain 23 1012 64 10000 8.2 260 16:44 05.07.2020
1315 Clouds 23 1012 60 10000 6.7 240 16:25 05.07.2020
1316 Clouds 23 1012 60 10000 7.7 230 15:59 05.07.2020
1317 Clouds 24 1012 60 10000 7.7 230 15:39 05.07.2020
1318 Clouds 24 1012 60 10000 8.7 240 15:19 05.07.2020
1319 Clouds 24 1012 60 10000 9.3 230 14:43 05.07.2020
1320 Clouds 25 1012 57 10000 7.7 230 14:23 05.07.2020
1321 Clouds 25 1012 53 10000 7.7 230 13:59 05.07.2020
1322 Clouds 25 1012 53 10000 7.7 230 13:40 05.07.2020
1323 Clouds 24 1012 57 10000 7.7 230 13:22 05.07.2020
1324 Clouds 24 1013 57 10000 8.2 220 12:45 05.07.2020
1325 Clouds 23 1013 60 10000 8.2 240 12:21 05.07.2020
1326 Clouds 23 1013 64 10000 8.2 230 11:56 05.07.2020
1327 Clouds 23 1013 64 10000 8.2 230 11:38 05.07.2020
1328 Clouds 23 1013 64 10000 7.2 240 11:19 05.07.2020
1329 Clouds 22 1013 68 10000 7.2 230 10:55 05.07.2020
1330 Clouds 22 1013 68 10000 7.2 230 10:37 05.07.2020
1331 Clouds 22 1013 73 10000 7.2 230 10:18 05.07.2020
1332 Clouds 22 1013 73 10000 6.7 220 09:41 05.07.2020
1333 Clouds 21 1013 73 10000 7.2 220 09:20 05.07.2020
1334 Clouds 21 1013 73 10000 5.7 230 08:57 05.07.2020
1335 Clouds 21 1013 73 10000 5.7 230 08:38 05.07.2020
1336 Clouds 20 1013 77 10000 4.6 220 08:18 05.07.2020
1337 Clouds 21 1013 77 10000 4.1 210 07:43 05.07.2020
1338 Clouds 21 1013 77 10000 4.1 210 07:22 05.07.2020
1339 Clouds 20 1013 77 10000 4.1 210 06:47 05.07.2020
1340 Clouds 20 1013 77 10000 3.6 210 04:37 05.07.2020
1341 Clouds 20 1014 82 10000 3.6 230 03:19 05.07.2020
1342 Clouds 20 1014 82 10000 4.1 220 02:41 05.07.2020
1343 Rain 19 1014 93 10000 3.1 180 01:59 05.07.2020
1344 Rain 19 1015 93 8000 2.6 210 01:31 05.07.2020
1345 Rain 20 1015 77 10000 4.1 210 00:53 05.07.2020
1346 Rain 20 1015 72 10000 5.1 210 00:31 05.07.2020
1347 Rain 20 1015 72 10000 4.1 210 23:59 04.07.2020
1348 Rain 20 1015 72 10000 4.1 210 23:41 04.07.2020
1349 Rain 20 1015 72 10000 3.6 210 23:23 04.07.2020
1350 Rain 20 1015 72 10000 6.7 220 22:54 04.07.2020
1351 Rain 21 1015 68 10000 4.6 220 22:36 04.07.2020
1352 Rain 21 1015 68 10000 4.6 220 22:18 04.07.2020
1353 Rain 21 1015 64 10000 7.2 230 21:40 04.07.2020
1354 Rain 21 1015 56 10000 4.1 220 21:22 04.07.2020
1355 Rain 22 1015 56 10000 5.7 220 20:57 04.07.2020
1356 Rain 22 1015 56 10000 5.7 220 20:38 04.07.2020
1357 Clouds 22 1015 60 10000 5.1 220 20:18 04.07.2020
1358 Clouds 23 1015 60 10000 6.2 230 19:43 04.07.2020
1359 Clouds 22 1015 60 10000 7.7 240 19:22 04.07.2020
1360 Clouds 22 1015 60 10000 7.7 240 19:22 04.07.2020
1361 Clouds 23 1015 56 10000 7.2 240 18:55 04.07.2020
1362 Clouds 23 1015 56 10000 5.7 240 18:37 04.07.2020
1363 Clouds 23 1015 56 10000 5.7 240 18:19 04.07.2020
1364 Clouds 23 1015 56 10000 7.2 230 17:42 04.07.2020
1365 Clouds 23 1015 56 10000 6.7 230 17:24 04.07.2020
1366 Clouds 23 1015 53 10000 6.7 210 16:57 04.07.2020
1367 Clouds 23 1015 53 10000 6.7 210 16:38 04.07.2020
1368 Clouds 23 1015 53 10000 6.7 220 16:19 04.07.2020
1369 Clouds 23 1015 49 10000 6.2 220 15:46 04.07.2020
1370 Clouds 23 1015 53 10000 4.1 220 15:28 04.07.2020
1371 Clouds 22 1015 53 10000 4.6 220 14:59 04.07.2020
1372 Clouds 22 1015 53 10000 4.6 220 14:38 04.07.2020
1373 Clouds 22 1016 53 10000 6.7 200 14:19 04.07.2020
1374 Clouds 22 1016 53 10000 5.7 200 13:59 04.07.2020
1375 Clouds 22 1016 53 10000 5.7 200 13:40 04.07.2020
1376 Clouds 22 1016 53 10000 7.2 210 13:18 04.07.2020
1377 Clouds 21 1016 56 10000 7.7 210 12:43 04.07.2020
1378 Rain 21 1016 60 10000 4.1 220 12:21 04.07.2020
1379 Clouds 21 1016 56 10000 7.7 230 11:57 04.07.2020
1380 Clouds 20 1016 56 10000 7.7 230 11:38 04.07.2020
1381 Clouds 20 1017 56 10000 7.7 230 11:19 04.07.2020
1382 Rain 20 1017 52 10000 6.7 220 10:42 04.07.2020
1383 Rain 20 1017 56 10000 5.1 220 10:22 04.07.2020
1384 Clouds 19 1017 59 10000 4.6 200 09:59 04.07.2020
1385 Clouds 19 1017 59 10000 4.6 200 09:40 04.07.2020
1386 Clouds 18 1017 63 10000 4.6 190 09:20 04.07.2020
1387 Clouds 17 1017 72 10000 4.1 180 08:50 04.07.2020
1388 Rain 17 1017 72 10000 4.1 170 08:32 04.07.2020
1389 Clouds 16 1017 77 10000 4.1 170 07:55 04.07.2020
1390 Clouds 15 1017 77 10000 4.1 170 07:36 04.07.2020
1391 Clouds 15 1017 82 10000 3.1 160 06:57 04.07.2020
1392 Clouds 14 1017 87 10000 3.1 150 06:23 04.07.2020
1393 Clouds 14 1017 82 10000 2.6 160 05:41 04.07.2020
1394 Clouds 14 1018 82 10000 2.6 180 04:57 04.07.2020
1395 Clouds 15 1018 82 10000 2.1 170 03:47 04.07.2020
1396 Clouds 16 1018 82 10000 0.5 0 02:39 04.07.2020
1397 Clouds 16 1018 77 10000 2.1 200 01:38 04.07.2020
1398 Clouds 17 1018 72 10000 2.6 190 00:47 04.07.2020
1399 Clouds 18 1018 72 10000 3.1 210 00:29 04.07.2020
1400 Clouds 18 1018 72 10000 2.1 240 23:57 03.07.2020
1401 Clouds 18 1018 72 10000 2.1 240 23:38 03.07.2020
1402 Clouds 18 1018 67 10000 1.5 230 23:18 03.07.2020
1403 Clouds 19 1018 63 10000 3.6 230 22:41 03.07.2020
1404 Clouds 19 1018 63 10000 3.1 250 22:23 03.07.2020
1405 Clouds 20 1017 59 10000 4.1 260 21:58 03.07.2020
1406 Clouds 20 1017 59 10000 4.1 260 21:38 03.07.2020
1407 Clouds 21 1017 52 10000 4.6 260 21:19 03.07.2020
1408 Clouds 22 1017 52 10000 5.1 250 20:43 03.07.2020
1409 Clouds 22 1017 52 10000 3.1 220 20:25 03.07.2020
1410 Clouds 22 1017 52 10000 5.1 230 19:57 03.07.2020
1411 Clouds 23 1017 52 10000 5.1 230 19:39 03.07.2020
1412 Clouds 23 1017 49 10000 4.6 250 19:18 03.07.2020
1413 Clouds 23 1017 49 10000 5.1 260 18:45 03.07.2020
1414 Clouds 23 1017 56 10000 3.1 260 18:23 03.07.2020
1415 Clouds 23 1017 56 10000 3.6 270 17:56 03.07.2020
1416 Clouds 23 1017 56 10000 3.6 270 17:38 03.07.2020
1417 Clouds 23 1018 56 10000 4.1 300 17:20 03.07.2020
1418 Clouds 23 1018 60 10000 4.1 270 16:41 03.07.2020
1419 Clouds 23 1018 56 10000 3.6 290 16:21 03.07.2020
1420 Clouds 22 1018 56 10000 4.6 280 15:45 03.07.2020
1421 Clouds 21 1018 64 10000 2.6 320 15:24 03.07.2020
1422 Clouds 21 1018 60 10000 4.6 290 14:57 03.07.2020
1423 Clouds 21 1018 64 10000 3.1 250 14:39 03.07.2020
1424 Clouds 20 1018 64 10000 3.1 250 14:20 03.07.2020
1425 Clouds 21 1019 64 10000 3.1 290 13:47 03.07.2020
1426 Clouds 20 1019 72 10000 2.6 250 13:29 03.07.2020
1427 Clouds 19 1019 72 10000 1.5 300 12:57 03.07.2020
1428 Clouds 18 1019 77 10000 3.1 320 12:38 03.07.2020
1429 Clouds 17 1019 77 10000 3.1 320 12:19 03.07.2020
1430 Clouds 17 1019 77 10000 1.5 250 11:42 03.07.2020
1431 Clouds 17 1019 72 10000 1 0 11:23 03.07.2020
1432 Clouds 16 1019 72 10000 1 0 10:58 03.07.2020
1433 Clouds 16 1019 82 10000 1.5 180 10:39 03.07.2020
1434 Clouds 16 1018 77 10000 1 0 10:20 03.07.2020
1435 Clouds 15 1018 82 10000 0.5 0 09:55 03.07.2020
1436 Clouds 15 1018 82 10000 0.5 0 09:37 03.07.2020
1437 Clouds 15 1018 82 10000 1.5 170 09:18 03.07.2020
1438 Clouds 14 1018 82 10000 1.5 180 08:40 03.07.2020
1439 Clouds 14 1018 87 10000 1.5 180 08:19 03.07.2020
1440 Clouds 14 1017 87 10000 2.1 160 07:49 03.07.2020
1441 Clouds 13 1017 87 10000 3.1 150 07:27 03.07.2020
1442 Clouds 13 1017 93 10000 2.6 170 06:58 03.07.2020
1443 Clouds 12 1017 93 10000 2.6 150 06:25 03.07.2020
1444 Clouds 13 1016 93 10000 0.5 0 04:56 03.07.2020
1445 Clouds 13 1016 87 10000 2.1 220 03:46 03.07.2020
1446 Clouds 14 1016 93 10000 1.5 160 02:49 03.07.2020
1447 Clouds 14 1016 93 10000 1.5 160 02:30 03.07.2020
1448 Clouds 14 1016 93 10000 2.1 170 01:30 03.07.2020
1449 Clouds 14 1015 100 10000 1 160 00:56 03.07.2020
1450 Clouds 14 1015 87 10000 0.5 0 00:37 03.07.2020
1451 Rain 15 1015 82 10000 4.1 350 23:52 02.07.2020
1452 Thunderstorm 15 1014 93 10000 3.1 150 23:21 02.07.2020
1453 Rain 16 1014 93 10000 1 0 22:59 02.07.2020
1454 Rain 17 1014 93 10000 1 0 22:40 02.07.2020
1455 Clouds 17 1014 93 10000 1.5 120 22:21 02.07.2020
1456 Rain 17 1014 93 10000 2.6 60 21:58 02.07.2020
1457 Rain 17 1014 93 10000 2.6 60 21:39 02.07.2020
1458 Rain 18 1013 88 10000 1.5 90 21:19 02.07.2020
1459 Rain 18 1013 93 10000 1 0 20:58 02.07.2020
1460 Rain 18 1013 93 10000 1 0 20:39 02.07.2020
1461 Rain 18 1013 93 10000 1 0 20:39 02.07.2020
1462 Rain 18 1013 93 10000 1 120 20:19 02.07.2020
1463 Rain 18 1013 82 10000 4.1 290 19:43 02.07.2020
1464 Rain 18 1013 82 10000 4.1 290 19:24 02.07.2020
1465 Rain 18 1012 88 10000 6.2 270 18:59 02.07.2020
1466 Rain 18 1012 88 10000 6.2 270 18:59 02.07.2020
1467 Rain 18 1012 88 10000 6.2 270 18:40 02.07.2020
1468 Rain 18 1012 82 10000 2.6 220 18:22 02.07.2020
1469 Clouds 20 1012 77 10000 3.1 240 17:57 02.07.2020
1470 Rain 21 1012 82 10000 2.1 160 17:38 02.07.2020
1471 Rain 21 1012 82 10000 2.1 160 17:18 02.07.2020
1472 Rain 21 1012 93 9000 4.6 260 16:42 02.07.2020
1473 Rain 20 1012 68 10000 4.1 210 16:21 02.07.2020
1474 Rain 22 1012 68 10000 3.6 210 15:59 02.07.2020
1475 Rain 21 1012 82 10000 2.6 190 15:38 02.07.2020
1476 Rain 21 1012 82 10000 2.6 190 15:20 02.07.2020
1477 Rain 21 1012 77 10000 2.6 240 14:46 02.07.2020
1478 Rain 21 1012 77 10000 2.6 240 14:23 02.07.2020
1479 Rain 20 1012 82 10000 2.1 240 13:57 02.07.2020
1480 Rain 20 1012 82 10000 2.1 240 13:39 02.07.2020
1481 Rain 19 1012 88 10000 2.1 230 13:20 02.07.2020
1482 Rain 19 1012 88 10000 3.6 240 12:58 02.07.2020
1483 Rain 19 1012 88 10000 3.6 240 12:38 02.07.2020
1484 Rain 19 1012 88 10000 2.1 210 12:20 02.07.2020
1485 Rain 19 1011 82 10000 0.5 0 11:44 02.07.2020
1486 Rain 19 1011 72 10000 2.6 280 11:25 02.07.2020
1487 Clouds 19 1011 59 10000 3.1 300 10:48 02.07.2020
1488 Clouds 19 1011 56 10000 2.1 300 10:28 02.07.2020
1489 Clouds 19 1011 56 10000 2.1 300 10:28 02.07.2020
1490 Clouds 19 1011 59 10000 3.1 300 10:28 02.07.2020
1491 Clouds 19 1011 59 10000 3.6 290 09:59 02.07.2020
1492 Clouds 19 1011 59 10000 3.6 290 09:40 02.07.2020
1493 Clouds 18 1011 63 10000 2.1 290 09:20 02.07.2020
1494 Clouds 18 1011 68 10000 2.1 210 08:56 02.07.2020
1495 Clouds 18 1011 68 10000 2.1 210 08:37 02.07.2020
1496 Clouds 17 1011 72 10000 1.5 200 08:18 02.07.2020
1497 Clouds 16 1011 77 10000 1.5 200 07:40 02.07.2020
1498 Clouds 15 1010 82 10000 1 0 07:20 02.07.2020
1499 Clouds 15 1010 93 10000 0.5 0 06:41 02.07.2020
1500 Clouds 14 1010 93 10000 1.5 170 06:20 02.07.2020
1501 Clouds 15 1010 87 10000 2.6 200 05:45 02.07.2020
1502 Clouds 15 1010 77 10000 3.1 230 04:40 02.07.2020
1503 Clouds 16 1010 87 10000 3.1 240 03:33 02.07.2020
1504 Clouds 17 1010 88 10000 3.6 240 01:44 02.07.2020
1505 Rain 18 1010 88 10000 2.1 190 00:26 02.07.2020
1506 Rain 18 1009 88 10000 2.1 250 23:55 01.07.2020
1507 Rain 18 1009 88 10000 2.1 250 23:37 01.07.2020
1508 Rain 18 1009 88 10000 2.1 280 23:18 01.07.2020
1509 Clouds 18 1009 93 10000 1.5 240 22:54 01.07.2020
1510 Clouds 18 1009 93 10000 1.5 240 22:36 01.07.2020
1511 Rain 18 1009 88 10000 2.6 270 22:18 01.07.2020
1512 Rain 19 1008 88 10000 4.1 290 21:55 01.07.2020
1513 Rain 19 1008 88 10000 4.1 290 21:37 01.07.2020
1514 Clouds 19 1008 88 10000 5.7 290 21:19 01.07.2020
1515 Rain 19 1008 93 10000 8.2 290 20:44 01.07.2020
1516 Rain 20 1007 64 10000 6.2 230 20:25 01.07.2020
1517 Rain 21 1007 60 0 5.1 230 19:57 01.07.2020
1518 Rain 22 1007 68 10000 4.6 230 19:38 01.07.2020
1519 Rain 22 1007 68 10000 4.6 230 19:20 01.07.2020
1520 Clouds 23 1008 68 10000 6.7 230 18:54 01.07.2020
1521 Clouds 23 1008 68 10000 6.7 230 18:36 01.07.2020
1522 Clouds 22 1007 64 10000 6.7 220 18:18 01.07.2020
1523 Clouds 22 1007 64 10000 6.7 210 17:41 01.07.2020
1524 Clouds 23 1007 68 10000 6.2 200 17:20 01.07.2020
1525 Clouds 23 1007 73 10000 4.1 200 16:48 01.07.2020
1526 Clouds 23 1008 78 10000 3.6 0 16:29 01.07.2020
1527 Clouds 23 1008 78 10000 3.6 0 15:59 01.07.2020
1528 Rain 22 1008 77 10000 2.1 0 15:41 01.07.2020
1529 Rain 22 1008 82 10000 3.1 250 15:22 01.07.2020
1530 Rain 20 1008 82 10000 3.6 250 14:56 01.07.2020
1531 Rain 20 1008 82 10000 3.6 250 14:37 01.07.2020
1532 Rain 21 1008 73 10000 4.6 220 14:19 01.07.2020
1533 Rain 21 1008 68 10000 6.2 230 13:40 01.07.2020
1534 Clouds 21 1007 64 10000 5.7 210 13:22 01.07.2020
1535 Clouds 21 1008 64 10000 6.7 220 12:59 01.07.2020
1536 Clouds 21 1008 68 10000 4.6 220 12:41 01.07.2020
1537 Clouds 21 1008 68 10000 4.6 220 12:22 01.07.2020
1538 Clouds 20 1008 68 10000 3.1 210 11:58 01.07.2020
1539 Clouds 20 1008 68 10000 3.1 210 11:40 01.07.2020
1540 Clouds 20 1008 72 10000 3.1 190 11:21 01.07.2020
1541 Clouds 20 1008 72 10000 3.6 200 10:55 01.07.2020
1542 Clouds 19 1008 72 10000 4.6 210 10:36 01.07.2020
1543 Clouds 19 1008 72 10000 4.6 210 10:18 01.07.2020
1544 Clouds 19 1008 77 10000 2.6 190 09:38 01.07.2020
1545 Clouds 19 1008 72 10000 3.1 190 09:20 01.07.2020
1546 Clouds 19 1008 77 10000 3.1 180 08:57 01.07.2020
1547 Clouds 19 1008 77 10000 3.1 180 08:39 01.07.2020
1548 Clouds 18 1008 72 10000 3.1 160 08:19 01.07.2020
1549 Clouds 18 1008 77 10000 2.6 160 07:41 01.07.2020
1550 Clouds 18 1008 77 10000 2.6 160 07:23 01.07.2020
1551 Clouds 18 1008 77 10000 3.1 180 06:55 01.07.2020
1552 Clouds 18 1008 77 10000 3.1 160 06:32 01.07.2020
1553 Clouds 18 1008 77 10000 3.1 170 05:46 01.07.2020
1554 Rain 18 1008 68 10000 3.1 170 04:30 01.07.2020
1555 Rain 19 1008 72 10000 2.6 170 03:42 01.07.2020
1556 Rain 19 1009 68 10000 3.1 170 03:22 01.07.2020
1557 Clouds 19 1009 68 10000 2.6 180 02:19 01.07.2020
1558 Clouds 20 1009 68 10000 2.6 190 01:23 01.07.2020
1559 Clouds 20 1009 64 10000 3.6 200 00:38 01.07.2020
1560 Clouds 20 1009 64 10000 3.6 200 00:19 01.07.2020
1561 Clouds 20 1009 60 10000 4.1 200 23:40 30.06.2020
1562 Clouds 20 1009 60 10000 3.6 200 23:20 30.06.2020
1563 Clouds 20 1009 60 10000 3.6 210 22:42 30.06.2020
1564 Clouds 20 1009 60 10000 5.1 220 22:19 30.06.2020
1565 Clouds 20 1009 56 10000 4.6 220 21:54 30.06.2020
1566 Clouds 21 1009 56 10000 4.6 220 21:36 30.06.2020
1567 Clouds 21 1009 56 10000 4.1 220 21:18 30.06.2020
1568 Rain 21 1009 52 10000 5.7 230 20:42 30.06.2020
1569 Rain 21 1009 52 10000 5.1 230 20:21 30.06.2020
1570 Rain 21 1009 52 10000 4.6 230 19:44 30.06.2020
1571 Clouds 21 1009 52 10000 4.1 230 19:21 30.06.2020
1572 Clouds 21 1010 52 10000 3.6 240 18:58 30.06.2020
1573 Clouds 22 1010 52 10000 4.6 240 18:40 30.06.2020
1574 Clouds 22 1010 52 10000 4.6 240 18:20 30.06.2020
1575 Clouds 22 1010 46 10000 5.7 250 17:40 30.06.2020
1576 Clouds 22 1010 46 10000 6.2 240 17:21 30.06.2020
1577 Clouds 22 1010 46 10000 6.2 240 16:59 30.06.2020
1578 Clouds 22 1010 46 10000 6.2 250 16:40 30.06.2020
1579 Clouds 22 1010 49 10000 7.2 260 16:21 30.06.2020
1580 Clouds 22 1010 49 10000 7.2 260 16:21 30.06.2020
1581 Clouds 22 1011 46 10000 6.7 250 15:56 30.06.2020
1582 Clouds 21 1011 46 10000 6.7 250 15:38 30.06.2020
1583 Clouds 21 1011 49 10000 6.7 230 15:19 30.06.2020
1584 Clouds 21 1011 46 10000 8.2 240 14:43 30.06.2020
1585 Clouds 21 1011 46 10000 7.2 240 14:22 30.06.2020
1586 Clouds 21 1011 49 10000 7.2 250 13:59 30.06.2020
1587 Clouds 21 1011 49 10000 7.7 230 13:38 30.06.2020
1588 Clouds 21 1011 49 10000 7.7 230 13:19 30.06.2020
1589 Clouds 21 1011 52 10000 7.2 250 12:57 30.06.2020
1590 Clouds 20 1011 52 10000 7.2 250 12:39 30.06.2020
1591 Clouds 19 1011 52 10000 6.7 240 12:20 30.06.2020
1592 Clouds 19 1011 49 10000 6.2 250 11:57 30.06.2020
1593 Clouds 19 1011 49 10000 6.2 250 11:38 30.06.2020
1594 Clouds 19 1011 52 10000 7.2 240 11:18 30.06.2020
1595 Clouds 18 1011 52 10000 7.2 240 10:55 30.06.2020
1596 Clouds 22 1014 52 10000 5.1 200 16:38 28.06.2020
1597 Clouds 22 1015 56 10000 5.7 200 16:19 28.06.2020
1598 Clouds 21 1015 59 10000 4.1 200 15:55 28.06.2020
1599 Clouds 21 1015 59 10000 5.1 210 15:37 28.06.2020
1600 Clouds 21 1015 59 10000 5.1 210 15:18 28.06.2020
1601 Clouds 20 1015 59 10000 6.7 250 14:42 28.06.2020
1602 Clouds 20 1015 63 10000 6.2 240 14:24 28.06.2020
1603 Clouds 19 1015 63 10000 6.7 260 13:55 28.06.2020
1604 Clouds 19 1015 63 10000 6.7 260 13:36 28.06.2020
1605 Clouds 19 1015 59 10000 6.2 250 13:18 28.06.2020
1606 Clouds 18 1015 63 10000 5.7 250 12:55 28.06.2020
1607 Rain 17 1015 59 10000 4.6 270 12:36 28.06.2020
1608 Rain 17 1015 59 10000 4.6 270 12:18 28.06.2020
1609 Rain 17 1014 72 10000 3.6 270 11:43 28.06.2020
1610 Rain 16 1014 77 10000 7.2 280 11:21 28.06.2020
1611 Clouds 17 1014 72 10000 7.7 290 10:59 28.06.2020
1612 Clouds 17 1014 72 10000 7.7 290 10:41 28.06.2020
1613 Clouds 17 1013 68 10000 5.7 270 10:23 28.06.2020
1614 Clouds 18 1013 68 10000 5.7 270 09:57 28.06.2020
1615 Clouds 19 1013 68 10000 5.1 260 09:39 28.06.2020
1616 Clouds 19 1013 68 10000 6.7 260 09:20 28.06.2020
1617 Clouds 19 1012 68 10000 5.1 250 08:42 28.06.2020
1618 Rain 20 1012 72 10000 2.6 230 08:22 28.06.2020
1619 Clouds 19 1012 77 10000 3.6 210 07:45 28.06.2020
1620 Rain 19 1011 77 10000 3.1 210 07:27 28.06.2020
1621 Rain 20 1011 72 10000 4.1 270 06:34 28.06.2020
1622 Rain 20 1011 68 10000 4.6 190 05:55 28.06.2020
1623 Clouds 20 1011 68 10000 3.6 190 05:25 28.06.2020
1624 Clouds 21 1011 64 10000 5.1 190 03:23 28.06.2020
1625 Clouds 22 1011 64 10000 4.1 180 02:36 28.06.2020
1626 Rain 21 1011 68 10000 3.1 170 01:49 28.06.2020
1627 Clouds 22 1011 64 10000 2.6 170 01:25 28.06.2020
1628 Clouds 22 1011 64 10000 3.6 170 00:44 28.06.2020
1629 Clouds 22 1011 64 10000 3.1 180 00:24 28.06.2020
1630 Clouds 23 1011 56 10000 3.1 210 23:41 27.06.2020
1631 Clouds 23 1011 56 10000 4.1 210 23:22 27.06.2020
1632 Clouds 23 1011 56 10000 4.1 210 22:58 27.06.2020
1633 Clouds 23 1011 56 10000 4.1 210 22:40 27.06.2020
1634 Clouds 24 1011 53 10000 4.6 210 22:19 27.06.2020
1635 Clouds 24 1011 57 10000 5.1 230 21:54 27.06.2020
1636 Clouds 24 1011 57 10000 5.1 230 21:36 27.06.2020
1637 Clouds 24 1011 53 10000 6.2 230 21:18 27.06.2020
1638 Clouds 25 1010 50 10000 8.2 240 20:41 27.06.2020
1639 Clouds 26 1010 50 10000 5.7 230 20:18 27.06.2020
1640 Clouds 26 1010 47 10000 7.2 220 19:55 27.06.2020
1641 Clouds 27 1010 47 10000 7.2 240 19:36 27.06.2020
1642 Rain 27 1010 47 10000 7.2 240 19:18 27.06.2020
1643 Rain 27 1010 44 10000 7.7 230 18:43 27.06.2020
1644 Clouds 27 1010 44 10000 7.7 240 18:22 27.06.2020
1645 Clouds 28 1010 44 10000 6.7 220 17:57 27.06.2020
1646 Rain 28 1010 47 10000 9.3 230 17:38 27.06.2020
1647 Rain 28 1010 47 10000 9.3 230 17:19 27.06.2020
1648 Clouds 29 1010 45 10000 6.7 230 16:43 27.06.2020
1649 Clouds 29 1010 57 10000 2.6 150 16:25 27.06.2020
1650 Clouds 29 1010 54 10000 3.6 150 15:55 27.06.2020
1651 Clouds 28 1010 54 10000 3.6 150 15:37 27.06.2020
1652 Clouds 28 1011 57 10000 4.6 140 15:18 27.06.2020
1653 Clouds 26 1011 61 10000 3.6 180 14:42 27.06.2020
1654 Rain 25 1011 64 10000 5.7 190 14:24 27.06.2020
1655 Rain 25 1011 64 10000 6.2 190 13:57 27.06.2020
1656 Rain 25 1011 57 10000 6.7 190 13:37 27.06.2020
1657 Rain 26 1011 57 10000 6.7 190 13:19 27.06.2020
1658 Clouds 27 1011 50 10000 7.7 190 12:57 27.06.2020
1659 Clouds 27 1011 50 10000 7.7 190 12:38 27.06.2020
1660 Clouds 24 1011 53 10000 5.7 200 12:20 27.06.2020
1661 Clouds 25 1010 50 10000 4.6 180 11:54 27.06.2020
1662 Clouds 24 1010 50 10000 4.6 180 11:36 27.06.2020
1663 Clouds 24 1010 60 10000 4.1 180 11:18 27.06.2020
1664 Clouds 23 1010 64 10000 2.1 0 10:38 27.06.2020
1665 Rain 23 1010 64 10000 0.5 0 10:19 27.06.2020
1666 Rain 22 1011 64 10000 4.1 210 09:41 27.06.2020
1667 Rain 22 1011 68 10000 3.6 200 09:22 27.06.2020
1668 Rain 22 1011 73 10000 5.1 210 08:58 27.06.2020
1669 Clouds 22 1011 77 10000 2.6 160 08:39 27.06.2020
1670 Clouds 21 1011 77 10000 2.6 160 08:20 27.06.2020
1671 Clouds 21 1011 82 10000 2.1 120 07:42 27.06.2020
1672 Clouds 21 1011 82 10000 2.1 120 07:42 27.06.2020
1673 Clouds 20 1010 82 10000 1.5 110 07:24 27.06.2020
1674 Clouds 20 1010 82 10000 2.1 120 06:45 27.06.2020
1675 Clouds 20 1010 82 10000 3.1 130 06:27 27.06.2020
1676 Clouds 20 1011 77 10000 2.6 120 04:23 27.06.2020
1677 Clouds 20 1011 82 10000 3.6 150 03:52 27.06.2020
1678 Clouds 20 1011 82 10000 2.1 140 03:23 27.06.2020
1679 Clouds 20 1011 82 10000 2.1 130 02:36 27.06.2020
1680 Clouds 21 1011 88 10000 2.1 130 01:45 27.06.2020
1681 Rain 21 1011 88 10000 1 0 01:23 27.06.2020
1682 Rain 21 1011 82 10000 2.1 90 00:38 27.06.2020
1683 Rain 22 1011 77 10000 1 0 23:46 26.06.2020
1684 Rain 22 1011 73 10000 0.5 70 23:26 26.06.2020
1685 Rain 22 1010 73 10000 1.5 120 22:57 26.06.2020
1686 Rain 23 1010 68 10000 2.6 130 22:39 26.06.2020
1687 Rain 23 1010 68 10000 2.6 130 22:20 26.06.2020
1688 Rain 23 1010 68 10000 2.6 130 21:57 26.06.2020
1689 Rain 23 1010 68 10000 2.1 160 21:38 26.06.2020
1690 Rain 24 1010 60 10000 2.6 200 21:20 26.06.2020
1691 Rain 24 1010 64 10000 2.6 210 20:46 26.06.2020
1692 Rain 25 1010 57 10000 5.1 230 20:26 26.06.2020
1693 Rain 28 1009 42 10000 2.6 90 19:47 26.06.2020
1694 Clouds 31 1009 42 10000 2.6 80 19:24 26.06.2020
1695 Clouds 31 1010 39 10000 2.1 90 18:59 26.06.2020
1696 Clouds 31 1010 39 10000 2.1 90 18:40 26.06.2020
1697 Clear 32 1010 33 10000 2.6 90 18:21 26.06.2020
1698 Clear 32 1010 33 10000 2.1 0 17:44 26.06.2020
1699 Clear 32 1010 33 10000 2.6 0 17:26 26.06.2020
1700 Clear 32 1010 33 10000 2.6 0 16:59 26.06.2020
1701 Clear 32 1010 33 10000 2.6 0 16:41 26.06.2020
1702 Clear 32 1010 37 10000 1.5 0 16:21 26.06.2020
1703 Clear 32 1011 35 10000 3.6 150 15:41 26.06.2020
1704 Clear 30 1011 37 10000 3.1 120 15:21 26.06.2020
1705 Clear 30 1012 37 10000 5.1 130 14:58 26.06.2020
1706 Clear 29 1012 37 10000 5.1 130 14:39 26.06.2020
1707 Clear 29 1012 39 10000 5.1 140 14:21 26.06.2020
1708 Clear 30 1012 39 10000 4.6 130 13:45 26.06.2020
1709 Clear 29 1012 42 10000 5.1 130 13:24 26.06.2020
1710 Clear 29 1012 42 10000 5.7 140 12:57 26.06.2020
1711 Clear 29 1012 42 10000 7.2 150 12:38 26.06.2020
1712 Clear 27 1012 42 10000 7.2 150 12:19 26.06.2020
1713 Clear 27 1013 44 10000 7.2 150 11:57 26.06.2020
1714 Clear 26 1013 44 10000 7.2 150 11:38 26.06.2020
1715 Clear 26 1013 47 10000 6.7 150 11:20 26.06.2020
1716 Clear 25 1013 47 10000 5.7 140 10:57 26.06.2020
1717 Clear 25 1013 47 10000 5.7 140 10:37 26.06.2020
1718 Clear 26 1013 50 10000 5.1 120 10:18 26.06.2020
1719 Clear 25 1014 56 10000 4.1 140 09:43 26.06.2020
1720 Clear 22 1014 60 10000 4.1 140 09:23 26.06.2020
1721 Clear 22 1014 60 10000 3.6 120 08:55 26.06.2020
1722 Clear 21 1014 68 10000 2.6 120 08:28 26.06.2020
1723 Clear 20 1014 68 10000 2.6 120 07:53 26.06.2020
1724 Clear 19 1014 68 10000 3.1 90 07:24 26.06.2020
1725 Clear 19 1014 68 10000 3.1 90 06:58 26.06.2020
1726 Clear 18 1014 72 10000 1.5 110 06:36 26.06.2020
1727 Clear 18 1014 72 10000 2.1 110 05:59 26.06.2020
1728 Clear 18 1014 72 10000 2.1 110 05:40 26.06.2020
1729 Clear 20 1015 72 10000 3.6 80 03:30 26.06.2020
1730 Clear 20 1015 68 10000 2.1 100 02:22 26.06.2020
1731 Clear 21 1015 64 10000 3.1 80 01:19 26.06.2020
1732 Clear 22 1016 68 10000 2.1 90 00:40 26.06.2020
1733 Clear 22 1016 68 10000 2.1 90 00:19 26.06.2020
1734 Clear 22 1016 64 10000 1.5 100 23:42 25.06.2020
1735 Clear 22 1016 60 10000 1.5 110 23:18 25.06.2020
1736 Clear 23 1016 56 10000 1.5 100 22:56 25.06.2020
1737 Clear 24 1016 60 10000 2.1 100 22:37 25.06.2020
1738 Clear 24 1016 60 10000 2.1 100 22:18 25.06.2020
1739 Clear 25 1016 64 10000 1.5 80 21:56 25.06.2020
1740 Clear 25 1016 64 10000 1.5 80 21:38 25.06.2020
1741 Clear 26 1016 57 10000 1.5 110 21:19 25.06.2020
1742 Clouds 26 1016 54 10000 2.6 110 20:44 25.06.2020
1743 Clouds 26 1016 57 10000 3.1 100 20:23 25.06.2020
1744 Clouds 27 1016 50 10000 3.6 110 19:58 25.06.2020
1745 Clouds 27 1016 54 10000 3.1 90 19:39 25.06.2020
1746 Clouds 27 1016 54 10000 3.1 90 19:19 25.06.2020
1747 Clouds 27 1016 50 10000 4.1 110 18:57 25.06.2020
1748 Clouds 27 1016 50 10000 4.1 110 18:37 25.06.2020
1749 Clouds 28 1017 51 10000 3.1 100 18:19 25.06.2020
1750 Rain 28 1017 47 10000 4.1 130 17:41 25.06.2020
1751 Rain 28 1017 51 10000 4.1 150 17:19 25.06.2020
1752 Rain 28 1017 45 10000 4.1 100 16:57 25.06.2020
1753 Rain 29 1017 45 10000 4.1 100 16:37 25.06.2020
1754 Rain 29 1017 42 10000 4.1 110 16:18 25.06.2020
1755 Rain 28 1017 44 10000 2.6 110 15:41 25.06.2020
1756 Clouds 29 1017 42 10000 4.1 90 15:21 25.06.2020
1757 Clouds 29 1018 42 10000 4.1 100 14:44 25.06.2020
1758 Clear 29 1018 42 10000 4.6 120 14:25 25.06.2020
1759 Clear 29 1018 42 10000 4.1 100 13:56 25.06.2020
1760 Clear 29 1018 42 10000 4.1 100 13:38 25.06.2020
1761 Clear 28 1018 42 10000 4.1 100 13:19 25.06.2020
1762 Clear 28 1019 44 10000 4.6 120 12:46 25.06.2020
1763 Clear 27 1019 44 10000 3.1 90 12:21 25.06.2020
1764 Clear 27 1019 44 10000 3.6 80 11:59 25.06.2020
1765 Clear 26 1019 44 10000 3.6 80 11:40 25.06.2020
1766 Clouds 26 1019 47 10000 4.6 120 11:21 25.06.2020
1767 Clouds 25 1020 50 10000 5.1 90 10:43 25.06.2020
1768 Clouds 24 1020 53 10000 4.1 100 10:25 25.06.2020
1769 Clear 23 1020 53 10000 4.1 100 09:42 25.06.2020
1770 Clouds 22 1020 56 10000 3.6 100 09:23 25.06.2020
1771 Clouds 22 1020 56 10000 3.6 100 09:23 25.06.2020
1772 Clouds 22 1020 60 10000 3.1 100 08:59 25.06.2020
1773 Clouds 21 1020 60 10000 3.1 100 08:41 25.06.2020
1774 Clouds 21 1020 64 10000 3.1 90 08:18 25.06.2020
1775 Clouds 20 1020 68 10000 3.1 100 07:42 25.06.2020
1776 Clouds 19 1020 72 10000 2.1 130 07:24 25.06.2020
1777 Clouds 18 1020 72 10000 1.5 130 06:45 25.06.2020
1778 Clouds 18 1020 72 10000 1.5 90 06:25 25.06.2020
1779 Clouds 18 1020 72 10000 1.5 110 05:39 25.06.2020
1780 Clouds 19 1021 63 10000 1.5 110 03:51 25.06.2020
1781 Clouds 20 1021 59 10000 2.1 100 02:59 25.06.2020
1782 Clouds 20 1021 59 10000 2.1 120 02:41 25.06.2020
1783 Clouds 21 1021 52 10000 2.1 90 01:43 25.06.2020
1784 Clouds 21 1021 49 10000 2.6 90 00:59 25.06.2020
1785 Clouds 22 1021 49 10000 2.6 90 00:40 25.06.2020
1786 Clouds 23 1021 46 10000 2.6 90 00:18 25.06.2020
1787 Clouds 23 1021 46 10000 2.6 100 23:41 24.06.2020
1788 Clouds 23 1021 46 10000 3.1 80 23:23 24.06.2020
1789 Clouds 23 1021 43 10000 2.1 90 22:56 24.06.2020
1790 Clouds 24 1021 43 10000 2.1 90 22:37 24.06.2020
1791 Clouds 25 1020 38 10000 2.1 90 22:18 24.06.2020
1792 Clouds 25 1020 33 10000 2.1 100 21:55 24.06.2020
1793 Clear 27 1020 29 10000 3.1 110 21:36 24.06.2020
1794 Clear 27 1020 29 10000 3.1 110 21:18 24.06.2020
1795 Clear 28 1020 30 10000 3.6 120 20:56 24.06.2020
1796 Clear 28 1020 30 10000 3.6 120 20:37 24.06.2020
1797 Clouds 28 1020 30 10000 4.1 130 20:19 24.06.2020
1798 Clouds 29 1020 30 10000 4.1 120 19:55 24.06.2020
1799 Clear 29 1020 32 10000 4.6 130 19:36 24.06.2020
1800 Clear 30 1020 32 10000 4.6 130 19:18 24.06.2020
1801 Clear 30 1020 32 10000 4.6 160 18:56 24.06.2020
1802 Clear 30 1020 32 10000 4.6 160 18:37 24.06.2020
1803 Clear 30 1020 32 10000 4.1 150 18:18 24.06.2020
1804 Clear 30 1020 32 10000 3.1 110 17:41 24.06.2020
1805 Clear 30 1020 32 10000 3.1 110 17:41 24.06.2020
1806 Clear 30 1020 30 10000 2.6 140 17:19 24.06.2020
1807 Clear 30 1020 32 10000 3.1 130 16:58 24.06.2020
1808 Clear 30 1020 32 10000 3.1 130 16:39 24.06.2020
1809 Clear 30 1020 32 10000 2.6 120 16:21 24.06.2020
1810 Clear 30 1021 30 10000 2.1 130 15:57 24.06.2020
1811 Clear 31 1021 30 10000 2.1 130 15:38 24.06.2020
1812 Clear 29 1021 32 10000 3.1 0 15:20 24.06.2020
1813 Clear 29 1021 32 10000 3.6 120 14:54 24.06.2020
1814 Clear 29 1021 32 10000 3.6 120 14:36 24.06.2020
1815 Clear 29 1022 34 10000 3.1 0 14:18 24.06.2020
1816 Clear 28 1022 37 10000 3.1 90 13:41 24.06.2020
1817 Clear 28 1022 34 10000 3.6 80 13:19 24.06.2020
1818 Clear 28 1022 36 10000 3.6 120 12:41 24.06.2020
1819 Clear 28 1022 36 10000 3.6 120 12:41 24.06.2020
1820 Clear 27 1023 39 10000 3.6 80 12:20 24.06.2020
1821 Clear 26 1023 36 10000 3.6 100 11:57 24.06.2020
1822 Clear 26 1023 36 10000 3.6 100 11:39 24.06.2020
1823 Clear 26 1023 38 10000 3.1 90 11:21 24.06.2020
1824 Clear 25 1023 41 10000 2.6 110 10:44 24.06.2020
1825 Clear 24 1023 44 10000 2.6 110 10:19 24.06.2020
1826 Clear 23 1023 43 10000 2.6 120 09:45 24.06.2020
1827 Clear 20 1023 49 10000 3.1 110 09:23 24.06.2020
1828 Clear 20 1023 56 10000 2.1 100 08:59 24.06.2020
1829 Clear 21 1023 56 10000 2.1 100 08:39 24.06.2020
1830 Clear 20 1023 60 10000 1.5 0 08:18 24.06.2020
1831 Clear 18 1023 68 10000 1 0 07:44 24.06.2020
1832 Clear 16 1023 87 10000 2.1 150 07:24 24.06.2020
1833 Clear 15 1023 82 10000 1 140 06:44 24.06.2020
1834 Clear 15 1023 76 10000 1 0 06:24 24.06.2020
1835 Clear 15 1023 76 10000 1 0 06:24 24.06.2020
1836 Clear 15 1023 77 10000 0.5 0 05:39 24.06.2020
1837 Clear 15 1023 82 10000 1.5 150 04:38 24.06.2020
1838 Clear 17 1023 63 10000 1 0 03:38 24.06.2020
1839 Clear 18 1023 55 10000 2.1 90 02:54 24.06.2020
1840 Clouds 19 1023 52 10000 3.1 80 02:21 24.06.2020
1841 Clouds 20 1024 52 10000 4.1 80 00:52 24.06.2020
1842 Clouds 21 1024 52 10000 4.1 80 00:33 24.06.2020
1843 Clouds 22 1024 52 10000 3.6 70 23:49 23.06.2020
1844 Clear 22 1023 52 10000 3.1 60 23:23 23.06.2020
1845 Clear 23 1023 53 10000 2.1 50 22:59 23.06.2020
1846 Clear 23 1023 53 10000 2.1 50 22:41 23.06.2020
1847 Clear 24 1023 49 10000 1.5 40 22:19 23.06.2020
1848 Clear 24 1023 47 10000 2.1 30 21:59 23.06.2020
1849 Clear 26 1023 41 10000 2.6 20 21:38 23.06.2020
1850 Clear 26 1023 41 10000 2.6 20 21:18 23.06.2020
1851 Clear 27 1023 36 10000 3.6 30 20:55 23.06.2020
1852 Clear 27 1023 36 10000 3.6 30 20:37 23.06.2020
1853 Clear 27 1023 39 10000 2.6 20 20:18 23.06.2020
1854 Clear 28 1023 32 10000 2.1 20 19:44 23.06.2020
1855 Clear 28 1023 34 10000 2.1 10 19:24 23.06.2020
1856 Clear 28 1023 34 10000 1.5 0 18:40 23.06.2020
1857 Clear 28 1023 34 10000 1.5 0 18:19 23.06.2020
1858 Clear 28 1023 34 10000 1.5 0 18:19 23.06.2020
1859 Clear 28 1023 34 10000 1 0 17:56 23.06.2020
1860 Clear 28 1023 34 10000 1 0 17:38 23.06.2020
1861 Clear 28 1024 34 10000 1.5 130 17:19 23.06.2020
1862 Clear 28 1024 37 10000 1.5 0 16:54 23.06.2020
1863 Clear 27 1024 39 10000 2.1 260 16:36 23.06.2020
1864 Clear 27 1024 39 10000 2.1 260 16:18 23.06.2020
1865 Clear 27 1024 39 10000 2.6 0 15:43 23.06.2020
1866 Clear 27 1025 36 10000 2.6 60 15:24 23.06.2020
1867 Clear 26 1025 39 10000 2.1 0 14:56 23.06.2020
1868 Clear 26 1025 39 10000 2.1 0 14:37 23.06.2020
1869 Clear 26 1025 41 10000 1.5 0 14:18 23.06.2020
1870 Clear 25 1025 41 10000 2.1 0 13:45 23.06.2020
1871 Clear 25 1025 41 10000 2.1 0 13:26 23.06.2020
1872 Clear 26 1025 41 10000 2.1 0 12:59 23.06.2020
1873 Clear 26 1025 41 10000 2.1 0 12:59 23.06.2020
1874 Clear 24 1025 41 10000 2.1 0 12:40 23.06.2020
1875 Clear 24 1025 44 10000 1 0 12:20 23.06.2020
1876 Clear 24 1026 44 10000 2.1 0 11:43 23.06.2020
1877 Clear 23 1026 46 10000 1.5 0 11:23 23.06.2020
1878 Clear 22 1026 56 10000 1 0 10:59 23.06.2020
1879 Clear 22 1026 56 10000 1 0 10:41 23.06.2020
1880 Clear 21 1026 56 10000 1.5 190 10:22 23.06.2020
1881 Clear 20 1026 63 10000 1.5 150 09:57 23.06.2020
1882 Clear 20 1026 63 10000 1.5 150 09:38 23.06.2020
1883 Clear 19 1026 68 10000 1.5 160 09:20 23.06.2020
1884 Clear 17 1026 72 10000 1.5 160 08:46 23.06.2020
1885 Clear 16 1026 77 10000 1.5 140 08:26 23.06.2020
1886 Clear 15 1026 82 10000 0.5 0 07:49 23.06.2020
1887 Clear 13 1026 93 10000 1.5 140 07:25 23.06.2020
1888 Clear 13 1026 93 10000 1.48 134 06:57 23.06.2020
1889 Clear 12 1026 93 10000 0.5 0 06:38 23.06.2020
1890 Clear 12 1026 93 10000 0.5 0 06:19 23.06.2020
1891 Clear 12 1025 100 10000 0.5 0 05:28 23.06.2020
1892 Clear 14 1025 93 10000 0.5 0 03:23 23.06.2020
1893 Clear 14 1025 87 10000 0.5 0 02:53 23.06.2020
1894 Clear 14 1025 87 10000 0.5 0 02:34 23.06.2020
1895 Clear 15 1025 87 10000 0.5 0 01:46 23.06.2020
1896 Clear 15 1025 87 10000 1 0 01:25 23.06.2020
1897 Clear 15 1025 87 10000 1 0 00:49 23.06.2020
1898 Clear 16 1025 82 10000 1 70 00:21 23.06.2020
1899 Clear 16 1025 82 10000 1 70 23:55 22.06.2020
1900 Clear 16 1025 82 10000 1 70 23:37 22.06.2020
1901 Clouds 17 1025 72 10000 2.1 60 23:18 22.06.2020
1902 Clouds 18 1025 67 10000 1 70 22:55 22.06.2020
1903 Clouds 18 1025 67 10000 1 70 22:37 22.06.2020
1904 Clouds 19 1025 68 10000 0.5 0 22:18 22.06.2020
1905 Clouds 21 1024 60 10000 1 0 21:54 22.06.2020
1906 Clouds 21 1025 52 10000 1 0 21:36 22.06.2020
1907 Clouds 22 1025 52 10000 1 0 21:18 22.06.2020
1908 Clear 23 1025 49 10000 1.5 0 20:41 22.06.2020
1909 Clear 23 1025 43 10000 1.5 300 20:22 22.06.2020
1910 Clear 24 1025 40 10000 2.6 330 19:45 22.06.2020
1911 Clear 24 1025 40 10000 2.6 330 19:20 22.06.2020
1912 -273 0 0 0 0 0 18:59 22.06.2020
1913 Clouds 23 1025 49 10000 2.6 340 18:39 22.06.2020
1914 Clouds 23 1025 43 10000 3.6 320 18:21 22.06.2020
1915 Clouds 23 1025 43 10000 3.6 320 17:56 22.06.2020
1916 Clouds 23 1025 43 10000 3.6 360 17:38 22.06.2020
1917 Clouds 23 1025 43 10000 3.6 360 17:38 22.06.2020
1918 Clouds 23 1025 43 10000 3.6 360 17:19 22.06.2020
1919 Clouds 23 1025 43 10000 3.6 360 17:19 22.06.2020
1920 Clouds 23 1026 46 10000 4.1 360 16:55 22.06.2020
1921 Clouds 22 1026 49 10000 3.6 330 16:37 22.06.2020
1922 Clouds 22 1026 52 10000 2.6 340 16:18 22.06.2020
1923 Clouds 22 1026 56 10000 2.1 0 15:42 22.06.2020
1924 Clouds 22 1026 56 10000 2.1 0 15:24 22.06.2020
1925 Clouds 21 1026 60 10000 2.6 0 14:57 22.06.2020
1926 Clouds 21 1026 64 10000 2.1 0 14:36 22.06.2020
1927 Clouds 20 1026 64 10000 2.1 0 14:18 22.06.2020
1928 Clouds 18 1026 72 10000 4.1 330 13:40 22.06.2020
1929 Clouds 18 1026 72 10000 4.1 330 13:21 22.06.2020
1930 Clouds 18 1026 72 10000 3.6 340 12:59 22.06.2020
1931 Clouds 17 1026 68 10000 3.1 320 12:41 22.06.2020
1932 Clouds 17 1026 68 10000 3.1 320 12:22 22.06.2020
1933 Clouds 16 1025 77 10000 2.1 330 11:38 22.06.2020
1934 Clouds 16 1025 77 10000 2.6 310 11:19 22.06.2020
1935 Clouds 16 1025 77 10000 2.6 310 10:57 22.06.2020
1936 Clouds 15 1025 77 10000 3.1 280 10:38 22.06.2020
1937 Clouds 15 1025 77 10000 3.1 280 10:19 22.06.2020
1938 Clouds 15 1025 87 10000 2.1 280 09:58 22.06.2020
1939 Drizzle 14 1025 93 5000 3.1 280 09:39 22.06.2020
1940 Drizzle 14 1025 93 6000 3.1 290 09:19 22.06.2020
1941 Drizzle 14 1025 93 6000 3.1 290 08:56 22.06.2020
1942 Clouds 14 1024 87 10000 3.1 310 08:38 22.06.2020
1943 Clouds 14 1024 87 10000 3.1 310 08:19 22.06.2020
1944 Clouds 14 1024 87 10000 3.1 290 07:49 22.06.2020
1945 Clouds 14 1024 87 10000 3.1 290 07:30 22.06.2020
1946 Clouds 13 1023 93 10000 3.6 270 06:43 22.06.2020
1947 Clouds 13 1023 93 10000 3.6 270 06:24 22.06.2020
1948 Clouds 14 1023 87 10000 6.7 280 05:43 22.06.2020
1949 Rain 18 1021 77 10000 0.5 0 03:48 22.06.2020
1950 Rain 18 1021 72 10000 0.5 0 02:35 22.06.2020
1951 Rain 20 1021 68 10000 0.5 0 01:21 22.06.2020
1952 Rain 20 1021 68 10000 2.1 320 00:39 22.06.2020
1953 Rain 21 1020 68 10000 0.5 0 23:58 21.06.2020
1954 Rain 21 1020 60 10000 1.5 0 23:39 21.06.2020
1955 Clouds 21 1020 60 10000 1.5 0 23:21 21.06.2020
1956 Clouds 21 1020 60 10000 3.1 330 22:57 21.06.2020
1957 Clouds 22 1019 53 10000 3.6 290 22:37 21.06.2020
1958 Clouds 22 1019 53 10000 3.6 290 22:19 21.06.2020
1959 Clouds 22 1019 49 10000 4.1 290 21:57 21.06.2020
1960 Clouds 23 1019 44 10000 5.7 280 21:39 21.06.2020
1961 Clouds 23 1019 44 10000 5.7 280 21:39 21.06.2020
1962 Clouds 23 1019 47 10000 6.2 290 21:21 21.06.2020
1963 Clouds 23 1019 47 10000 6.2 290 20:58 21.06.2020
1964 Clouds 24 1019 50 10000 4.1 260 20:38 21.06.2020
1965 Clouds 24 1019 50 10000 4.1 260 20:18 21.06.2020
1966 Clouds 24 1018 50 10000 2.6 220 19:56 21.06.2020
1967 Clouds 25 1018 47 10000 2.6 220 19:38 21.06.2020
1968 Rain 25 1018 47 10000 2.6 220 19:19 21.06.2020
1969 Rain 25 1019 44 10000 1.5 180 18:54 21.06.2020
1970 Clouds 26 1019 44 10000 1.5 180 18:36 21.06.2020
1971 Clouds 26 1019 47 10000 2.1 210 18:18 21.06.2020
1972 Clouds 26 1019 41 10000 3.1 240 17:40 21.06.2020
1973 Clouds 26 1019 41 10000 3.1 240 17:39 21.06.2020
1974 Clouds 26 1019 44 10000 2.6 210 17:20 21.06.2020
1975 Clouds 26 1019 44 10000 2.6 210 16:56 21.06.2020
1976 Clouds 27 1019 39 10000 2.6 0 16:37 21.06.2020
1977 Clouds 27 1019 39 10000 3.6 230 16:19 21.06.2020
1978 Clouds 26 1019 38 10000 2.1 0 15:38 21.06.2020
1979 Clouds 26 1019 38 10000 2.1 0 15:20 21.06.2020
1980 Clouds 25 1019 44 10000 2.1 0 14:55 21.06.2020
1981 Clouds 25 1019 44 10000 2.1 0 14:36 21.06.2020
1982 Clouds 25 1019 47 10000 1.5 0 14:18 21.06.2020
1983 Clouds 24 1020 46 10000 1 0 13:41 21.06.2020
1984 Clouds 25 1020 47 10000 2.6 230 13:23 21.06.2020
1985 Clouds 24 1020 47 10000 2.6 230 12:57 21.06.2020
1986 Clouds 23 1020 43 10000 1.5 0 12:39 21.06.2020
1987 Clouds 23 1020 43 10000 1.5 0 12:20 21.06.2020
1988 Clouds 23 1020 46 10000 1.5 0 11:42 21.06.2020
1989 Clouds 23 1020 46 10000 1.5 0 11:24 21.06.2020
1990 Clouds 22 1020 49 10000 2.6 160 10:58 21.06.2020
1991 Clouds 21 1021 60 10000 2.1 150 10:39 21.06.2020
1992 Clear 20 1021 63 10000 2.1 140 10:21 21.06.2020
1993 Clear 19 1021 68 10000 2.6 130 09:44 21.06.2020
1994 Clear 17 1021 68 10000 2.6 130 09:25 21.06.2020
1995 Clear 17 1021 72 10000 1.5 130 08:59 21.06.2020
1996 Clear 16 1021 82 10000 1.5 150 08:41 21.06.2020
1997 Clear 15 1021 82 10000 0.5 0 08:20 21.06.2020
1998 Clear 15 1021 82 10000 0.5 0 07:59 21.06.2020
1999 Clear 14 1021 93 10000 1.5 60 07:39 21.06.2020
2000 Clear 13 1021 93 10000 1.5 60 07:19 21.06.2020
2001 Clear 12 1020 93 10000 0.5 0 06:46 21.06.2020
2002 Clear 12 1021 100 10000 1.74 146 05:57 21.06.2020
2003 Clear 12 1020 93 10000 0.5 70 04:48 21.06.2020
2004 Clear 13 1021 93 10000 1.5 60 03:20 21.06.2020
2005 Clear 14 1021 93 10000 1.5 60 02:46 21.06.2020
2006 Clear 14 1021 87 10000 0.5 0 01:48 21.06.2020
2007 Clouds 14 1021 87 10000 1.5 70 01:21 21.06.2020
2008 Clouds 15 1021 87 10000 1.5 70 00:55 21.06.2020
2009 Clouds 15 1021 87 10000 0.5 40 00:36 21.06.2020
2010 Clouds 15 1021 87 10000 0.5 40 00:18 21.06.2020
2011 Clouds 16 1021 77 10000 1 0 23:41 20.06.2020
2012 Clouds 17 1021 77 10000 1 160 23:21 20.06.2020
2013 Clouds 18 1021 77 10000 1 160 22:55 20.06.2020
2014 Clouds 18 1021 77 10000 1 160 22:55 20.06.2020
2015 Clear 19 1020 68 10000 1 0 22:36 20.06.2020
2016 Clear 19 1020 63 10000 1.5 10 22:18 20.06.2020
2017 Clear 20 1020 63 10000 1.5 10 21:55 20.06.2020
2018 Clear 20 1020 63 10000 2.1 350 21:37 20.06.2020
2019 Clear 20 1020 63 10000 2.1 350 21:19 20.06.2020
2020 Clear 21 1020 56 10000 3.1 330 20:55 20.06.2020
2021 Clear 21 1020 52 10000 2.1 330 20:37 20.06.2020
2022 Clear 22 1020 46 10000 4.1 330 20:19 20.06.2020
2023 Clear 22 1020 46 10000 2.1 340 19:43 20.06.2020
2024 Clear 22 1020 46 10000 2.1 340 19:22 20.06.2020
2025 Clear 23 1020 43 10000 4.6 340 18:54 20.06.2020
2026 Clear 23 1020 40 10000 5.1 320 18:36 20.06.2020
2027 Clear 23 1020 40 10000 4.1 330 18:18 20.06.2020
2028 Clear 23 1020 40 10000 4.1 330 17:54 20.06.2020
2029 Clear 23 1020 40 10000 4.1 320 17:36 20.06.2020
2030 Clear 23 1020 43 10000 5.1 300 17:18 20.06.2020
2031 Clear 23 1021 43 10000 4.6 310 16:39 20.06.2020
2032 Clear 23 1021 43 10000 4.1 300 16:18 20.06.2020
2033 Clear 23 1021 43 10000 4.6 310 16:18 20.06.2020
2034 Clear 23 1021 43 10000 5.1 280 15:42 20.06.2020
2035 Clear 22 1021 43 10000 5.1 280 15:18 20.06.2020
2036 Clear 22 1021 43 10000 6.2 290 14:57 20.06.2020
2037 Clouds 22 1021 43 10000 4.6 290 14:39 20.06.2020
2038 Clouds 22 1021 43 10000 4.6 290 14:19 20.06.2020
2039 Clouds 21 1021 49 10000 4.1 300 13:41 20.06.2020
2040 Clouds 21 1021 49 10000 4.1 300 13:20 20.06.2020
2041 Clouds 21 1021 56 10000 3.6 270 12:55 20.06.2020
2042 Clouds 20 1021 68 10000 2.6 280 12:37 20.06.2020
2043 Clouds 20 1021 72 10000 3.1 320 12:18 20.06.2020
2044 Clouds 18 1021 77 10000 2.6 310 11:39 20.06.2020
2045 Clouds 18 1021 72 10000 2.6 310 11:20 20.06.2020
2046 Clouds 18 1021 72 10000 2.6 310 10:57 20.06.2020
2047 Clouds 17 1021 82 10000 3.1 340 10:39 20.06.2020
2048 Clouds 16 1021 87 10000 2.6 10 10:20 20.06.2020
2049 Clouds 16 1021 82 10000 1.5 0 09:43 20.06.2020
2050 Clouds 16 1021 82 10000 1.5 0 09:25 20.06.2020
2051 Clouds 15 1021 87 10000 1.5 250 08:58 20.06.2020
2052 Clouds 15 1021 87 10000 0.5 0 08:39 20.06.2020
2053 Clouds 15 1021 87 10000 0.5 0 08:21 20.06.2020
2054 Clouds 14 1021 93 10000 0.5 0 07:50 20.06.2020
2055 Clouds 14 1020 100 10000 1 0 07:25 20.06.2020
2056 Clouds 13 1020 100 10000 1 70 06:49 20.06.2020
2057 Clouds 13 1020 93 10000 1 0 06:21 20.06.2020
2058 Fog 12 1020 100 10000 0.5 0 05:48 20.06.2020
2059 Clouds 14 1020 93 10000 0.5 0 03:55 20.06.2020
2060 Clouds 15 1019 93 10000 0.5 0 01:58 20.06.2020
2061 Clouds 15 1019 93 10000 1 0 01:40 20.06.2020
2062 Clouds 16 1019 93 10000 0.5 330 00:49 20.06.2020
2063 Clouds 16 1019 93 10000 0.5 0 00:20 20.06.2020
2064 Clouds 17 1018 93 10000 1 0 23:46 19.06.2020
2065 Clouds 18 1018 88 10000 0.5 0 23:21 19.06.2020
2066 Clouds 18 1018 88 10000 0.5 0 22:58 19.06.2020
2067 Clouds 19 1018 82 10000 1.5 0 22:40 19.06.2020
2068 Clouds 19 1018 82 10000 1.5 0 22:21 19.06.2020
2069 Clouds 20 1017 88 10000 1.5 140 21:56 19.06.2020
2070 Clouds 20 1017 88 10000 1.5 140 21:56 19.06.2020
2071 Clouds 20 1017 82 10000 2.1 160 21:37 19.06.2020
2072 Clouds 21 1017 72 10000 2.6 180 21:18 19.06.2020
2073 Clouds 21 1017 72 10000 2.6 180 20:57 19.06.2020
2074 Rain 21 1017 82 10000 1.5 130 20:39 19.06.2020
2075 Rain 21 1017 82 10000 1.5 130 20:20 19.06.2020
2076 Rain 21 1017 93 10000 2.6 150 19:55 19.06.2020
2077 Rain 20 1017 88 10000 1.5 90 19:37 19.06.2020
2078 Rain 20 1017 88 10000 3.1 210 19:18 19.06.2020
2079 Rain 20 1017 93 10000 6.7 210 18:41 19.06.2020
2080 Rain 22 1016 68 10000 6.7 220 18:21 19.06.2020
2081 Rain 22 1016 68 10000 6.7 220 17:58 19.06.2020
2082 Rain 24 1016 47 10000 6.2 290 17:38 19.06.2020
2083 Rain 23 1016 47 10000 6.2 290 17:20 19.06.2020
2084 Rain 23 1016 47 10000 6.2 290 17:20 19.06.2020
2085 Rain 23 1016 47 10000 5.1 270 16:54 19.06.2020
2086 Rain 23 1016 49 10000 5.7 300 16:36 19.06.2020
2087 Rain 23 1016 49 10000 5.7 300 16:18 19.06.2020
2088 Clouds 23 1016 46 10000 4.6 280 15:42 19.06.2020
2089 Clouds 23 1016 46 10000 4.6 280 15:20 19.06.2020
2090 Clouds 23 1016 46 10000 3.1 280 14:56 19.06.2020
2091 Clouds 23 1016 46 10000 3.1 280 14:38 19.06.2020
2092 Clouds 23 1016 46 10000 3.1 280 14:18 19.06.2020
2093 Clouds 22 1016 49 10000 3.1 240 13:43 19.06.2020
2094 Clouds 22 1016 49 10000 3.1 240 13:25 19.06.2020
2095 Clouds 21 1016 56 10000 3.1 270 12:48 19.06.2020
2096 Clouds 21 1016 56 10000 3.1 270 12:23 19.06.2020
2097 Clouds 21 1016 56 10000 3.6 240 11:59 19.06.2020
2098 Clouds 21 1016 60 10000 2.6 260 11:40 19.06.2020
2099 Clouds 20 1016 64 10000 2.6 300 11:19 19.06.2020
2100 Clouds 20 1016 64 10000 2.6 300 10:55 19.06.2020
2101 Clouds 20 1016 64 10000 2.6 300 10:55 19.06.2020
2102 Clouds 19 1015 68 10000 2.1 240 10:37 19.06.2020
2103 Clouds 19 1015 68 10000 2.1 240 10:18 19.06.2020
2104 Clouds 18 1015 72 10000 2.1 230 09:41 19.06.2020
2105 Clouds 18 1015 72 10000 2.1 230 09:21 19.06.2020
2106 Clouds 17 1015 72 10000 1.5 190 08:55 19.06.2020
2107 Clouds 16 1015 82 10000 2.1 160 08:37 19.06.2020
2108 Clouds 16 1015 82 10000 0.5 0 08:19 19.06.2020
2109 Clear 15 1015 93 10000 1 60 07:40 19.06.2020
2110 Clear 14 1015 93 10000 1 60 07:21 19.06.2020
2111 Clear 13 1015 93 10000 1.5 60 06:44 19.06.2020
2112 Clear 12 1015 93 10000 1.5 60 06:19 19.06.2020
2113 Clear 13 1014 93 10000 1.5 130 04:30 19.06.2020
2114 Clear 14 1014 93 10000 1 0 03:22 19.06.2020
2115 Clouds 16 1014 93 10000 1 40 01:23 19.06.2020
2116 Rain 16 1014 87 10000 2.1 340 00:42 19.06.2020
2117 Rain 16 1014 87 10000 2.1 340 00:22 19.06.2020
2118 Rain 17 1014 82 10000 5.7 300 23:56 18.06.2020
2119 Rain 17 1014 82 10000 4.6 280 23:37 18.06.2020
2120 Rain 17 1014 82 10000 4.6 280 23:19 18.06.2020
2121 Clouds 17 1012 77 10000 1.5 40 22:39 18.06.2020
2122 Clouds 17 1012 77 10000 1.5 40 22:20 18.06.2020
2123 Clouds 18 1012 77 10000 1 0 21:56 18.06.2020
2124 Clouds 19 1012 72 10000 0.5 0 21:37 18.06.2020
2125 Clouds 19 1012 72 10000 0.5 0 21:18 18.06.2020
2126 Rain 21 1012 64 10000 1 0 20:40 18.06.2020
2127 Rain 22 1011 56 10000 1 0 20:20 18.06.2020
2128 Rain 22 1011 56 10000 1 0 19:57 18.06.2020
2129 Rain 22 1011 56 10000 2.1 80 19:39 18.06.2020
2130 Clouds 22 1011 49 10000 2.6 70 19:19 18.06.2020
2131 Clouds 22 1011 53 10000 2.1 80 18:41 18.06.2020
2132 Clouds 23 1011 53 10000 1.5 90 18:22 18.06.2020
2133 Clouds 23 1011 49 10000 2.6 130 17:55 18.06.2020
2134 Clouds 23 1011 49 10000 2.6 130 17:37 18.06.2020
2135 Clouds 22 1011 49 10000 2.6 130 17:19 18.06.2020
2136 Rain 23 1012 53 10000 2.1 130 16:43 18.06.2020
2137 Clouds 23 1012 56 10000 2.6 150 16:25 18.06.2020
2138 Rain 23 1012 53 10000 2.1 130 16:25 18.06.2020
2139 Clouds 23 1012 56 10000 2.6 150 15:59 18.06.2020
2140 Clouds 23 1012 46 10000 2.6 130 15:40 18.06.2020
2141 Clouds 23 1012 46 10000 2.6 130 15:20 18.06.2020
2142 Clouds 23 1012 46 10000 2.1 0 14:57 18.06.2020
2143 Clouds 22 1012 49 10000 3.6 190 14:38 18.06.2020
2144 Clouds 22 1012 43 10000 3.1 0 14:20 18.06.2020
2145 Clouds 21 1012 56 10000 3.1 220 13:48 18.06.2020
2146 Clouds 21 1012 56 10000 3.1 220 13:29 18.06.2020
2147 Clouds 21 1012 56 10000 3.1 240 12:58 18.06.2020
2148 Clouds 21 1012 60 10000 4.1 200 12:40 18.06.2020
2149 Clouds 21 1012 60 10000 4.1 200 12:20 18.06.2020
2150 Clouds 21 1012 64 10000 2.6 220 11:59 18.06.2020
2151 Clouds 20 1012 68 10000 3.6 170 11:40 18.06.2020
2152 Clouds 20 1012 72 10000 2.6 190 11:19 18.06.2020
2153 Clouds 20 1012 72 10000 2.6 190 11:19 18.06.2020
2154 Clouds 18 1012 77 10000 3.1 180 10:41 18.06.2020
2155 Clouds 18 1012 77 10000 3.1 180 10:41 18.06.2020
2156 Clouds 18 1012 77 10000 2.6 190 10:19 18.06.2020
2157 Clouds 17 1012 77 10000 2.6 190 09:55 18.06.2020
2158 Clouds 16 1012 82 0 3.1 170 09:37 18.06.2020
2159 Clouds 16 1012 87 10000 2.6 180 09:19 18.06.2020
2160 Clouds 15 1012 93 10000 2.6 180 08:40 18.06.2020
2161 Clouds 15 1012 93 10000 2.6 180 08:21 18.06.2020
2162 Clouds 15 1011 93 10000 2.6 160 07:46 18.06.2020
2163 Clouds 15 1011 93 10000 2.6 160 07:26 18.06.2020
2164 Clouds 15 1011 93 10000 2.1 150 06:55 18.06.2020
2165 Rain 15 1011 87 10000 1 0 05:58 18.06.2020
2166 Rain 15 1010 93 10000 3.6 230 04:24 18.06.2020
2167 Clouds 16 1010 93 10000 1.5 210 02:51 18.06.2020
2168 Rain 16 1011 93 10000 2.1 190 01:30 18.06.2020
2169 Rain 16 1011 93 10000 2.6 150 00:58 18.06.2020
2170 Rain 16 1010 93 10000 3.1 140 00:38 18.06.2020
2171 Rain 16 1010 93 10000 3.1 140 00:20 18.06.2020
2172 Rain 16 1011 93 10000 2.1 120 23:44 17.06.2020
2173 Rain 16 1011 93 10000 2.1 120 23:21 17.06.2020
2174 Rain 17 1011 93 0 1.5 130 22:57 17.06.2020
2175 Rain 17 1011 93 0 1.5 130 22:57 17.06.2020
2176 Rain 17 1010 93 10000 3.1 160 22:39 17.06.2020
2177 Rain 17 1010 93 10000 3.1 160 22:20 17.06.2020
2178 Rain 17 1010 93 10000 1.5 100 21:55 17.06.2020
2179 Rain 17 1010 93 7000 3.1 120 21:37 17.06.2020
2180 Thunderstorm 18 1010 93 2000 7.2 80 21:19 17.06.2020
2181 Rain 20 1009 94 10000 5.1 40 20:38 17.06.2020
2182 Rain 20 1009 94 10000 5.1 40 20:38 17.06.2020
2183 Rain 20 1009 94 10000 5.1 40 20:20 17.06.2020
2184 Rain 22 1008 88 10000 0.5 0 19:57 17.06.2020
2185 Rain 24 1009 77 10000 1.5 160 19:39 17.06.2020
2186 Rain 24 1009 60 10000 1 0 19:19 17.06.2020
2187 Clouds 25 1009 57 10000 1 0 18:45 17.06.2020
2188 Clouds 25 1009 57 10000 1 0 18:27 17.06.2020
2189 Clouds 25 1009 57 10000 1.5 0 17:46 17.06.2020
2190 Clouds 24 1009 57 10000 1.5 0 17:23 17.06.2020
2191 Clouds 24 1010 57 10000 1 0 16:58 17.06.2020
2192 Clouds 24 1010 57 10000 1.5 0 16:40 17.06.2020
2193 Clouds 24 1010 57 10000 1.5 0 16:21 17.06.2020
2194 Clouds 24 1010 57 10000 2.1 0 15:58 17.06.2020
2195 Clouds 24 1010 57 10000 1.5 0 15:39 17.06.2020
2196 Rain 23 1011 60 10000 1.5 360 15:20 17.06.2020
2197 Rain 23 1011 60 10000 1.5 360 14:58 17.06.2020
2198 Rain 23 1011 64 10000 2.1 320 14:39 17.06.2020
2199 Clouds 22 1011 68 10000 2.1 0 14:19 17.06.2020
2200 Clouds 22 1011 68 10000 2.1 0 13:57 17.06.2020
2201 Clouds 22 1012 68 10000 2.1 300 13:38 17.06.2020
2202 Clouds 22 1012 68 10000 2.1 280 13:20 17.06.2020
2203 Clouds 22 1012 68 10000 2.1 280 13:20 17.06.2020
2204 Clouds 21 1012 72 10000 1 0 12:43 17.06.2020
2205 Clouds 21 1012 72 10000 1 0 12:23 17.06.2020
2206 Clouds 20 1012 77 10000 1 0 11:58 17.06.2020
2207 Clouds 19 1012 82 10000 1 0 11:40 17.06.2020
2208 Clouds 19 1013 88 10000 0.5 0 11:22 17.06.2020
2209 Clouds 18 1013 88 9000 0.5 0 10:39 17.06.2020
2210 Clouds 17 1013 88 9000 0.5 0 10:19 17.06.2020
2211 Clouds 17 1013 93 7000 0.5 0 09:59 17.06.2020
2212 Mist 16 1013 93 5000 1.5 190 09:41 17.06.2020
2213 Mist 16 1013 100 5000 1.5 150 09:21 17.06.2020
2214 Mist 15 1013 100 5000 1.5 150 08:56 17.06.2020
2215 Mist 15 1013 93 5000 1.5 170 08:38 17.06.2020
2216 Mist 15 1013 93 5000 1.5 170 08:18 17.06.2020
2217 Fog 14 1012 100 3300 1 0 07:43 17.06.2020
2218 Fog 14 1012 100 3300 1 0 07:21 17.06.2020
2219 Mist 13 1012 100 1200 0.5 0 06:56 17.06.2020
2220 Fog 13 1013 100 500 2.1 140 06:37 17.06.2020
2221 Fog 13 1013 100 500 2.1 140 06:19 17.06.2020
2222 Fog 13 1013 100 300 1.5 60 05:18 17.06.2020
2223 Clouds 14 1013 100 10000 0.5 0 03:28 17.06.2020
2224 Clouds 15 1014 93 10000 1.5 70 01:52 17.06.2020
2225 Clouds 16 1014 93 10000 1 0 00:47 17.06.2020
2226 Clouds 16 1014 93 10000 1 0 00:23 17.06.2020
2227 Clouds 16 1014 93 10000 2.6 60 23:56 16.06.2020
2228 Clouds 16 1014 100 10000 1.5 60 23:38 16.06.2020
2229 Clouds 16 1014 100 10000 1.5 60 23:19 16.06.2020
2230 Clouds 17 1014 100 10000 1.5 80 22:56 16.06.2020
2231 Clouds 17 1014 93 10000 1.5 70 22:37 16.06.2020
2232 Clouds 18 1014 88 10000 1.5 50 22:18 16.06.2020
2233 Clouds 18 1014 82 10000 1 0 21:54 16.06.2020
2234 Clouds 18 1014 82 10000 1 0 21:36 16.06.2020
2235 Clouds 19 1014 82 10000 1.5 120 21:18 16.06.2020
2236 Clouds 19 1014 82 10000 2.1 130 20:42 16.06.2020
2237 Clouds 19 1014 82 10000 2.1 130 20:19 16.06.2020
2238 Clouds 19 1014 88 10000 1.5 200 19:58 16.06.2020
2239 Clouds 19 1014 88 10000 1.5 190 19:39 16.06.2020
2240 Rain 18 1014 88 10000 1 0 19:21 16.06.2020
2241 Rain 18 1014 88 10000 1 0 18:55 16.06.2020
2242 Rain 18 1015 88 10000 2.6 120 18:37 16.06.2020
2243 Rain 18 1015 100 10000 3.1 150 18:19 16.06.2020
2244 Rain 18 1015 100 10000 3.1 150 17:55 16.06.2020
2245 Rain 18 1015 100 6000 2.1 130 17:36 16.06.2020
2246 Rain 18 1015 87 4500 6.7 300 17:18 16.06.2020
2247 Rain 18 1015 87 4500 6.7 300 17:18 16.06.2020
2248 Rain 18 1015 87 4500 6.7 300 16:55 16.06.2020
2249 Rain 18 1015 72 10000 3.1 0 16:37 16.06.2020
2250 Rain 19 1015 72 10000 3.1 0 16:18 16.06.2020
2251 Rain 20 1015 64 10000 2.6 70 15:55 16.06.2020
2252 Rain 19 1015 64 10000 2.1 0 15:37 16.06.2020
2253 Rain 19 1015 64 10000 2.1 0 15:19 16.06.2020
2254 Rain 21 1015 68 10000 1.5 90 14:42 16.06.2020
2255 Rain 21 1015 68 10000 1.5 90 14:23 16.06.2020
2256 Rain 21 1015 68 10000 2.1 90 13:55 16.06.2020
2257 Rain 20 1016 72 10000 1 0 13:37 16.06.2020
2258 Rain 20 1016 72 10000 1 0 13:18 16.06.2020
2259 Rain 20 1016 72 10000 1 0 12:41 16.06.2020
2260 Rain 19 1016 77 10000 1 0 12:21 16.06.2020
2261 Rain 19 1016 77 10000 1 0 11:56 16.06.2020
2262 Rain 19 1016 82 10000 2.1 210 11:38 16.06.2020
2263 Rain 18 1016 88 10000 2.1 210 11:19 16.06.2020
2264 Rain 18 1016 88 10000 2.1 210 10:55 16.06.2020
2265 Rain 18 1016 88 10000 2.6 200 10:37 16.06.2020
2266 Rain 18 1016 88 10000 2.6 200 10:18 16.06.2020
2267 Rain 17 1016 93 10000 2.6 170 09:42 16.06.2020
2268 Rain 17 1016 93 10000 2.6 170 09:22 16.06.2020
2269 Rain 17 1016 93 10000 1 0 08:48 16.06.2020
2270 Rain 17 1016 93 10000 1 0 08:30 16.06.2020
2271 Rain 16 1016 93 9000 1 0 07:51 16.06.2020
2272 Rain 16 1016 93 9000 1 0 07:29 16.06.2020
2273 Rain 16 1016 93 9000 1 0 06:56 16.06.2020
2274 Rain 16 1016 93 9000 1 0 06:33 16.06.2020
2275 Rain 16 1016 93 10000 1 0 05:50 16.06.2020
2276 Rain 16 1016 93 10000 1.5 140 04:54 16.06.2020
2277 Rain 17 1016 93 10000 1.5 130 03:55 16.06.2020
2278 Rain 18 1016 77 10000 2.6 100 02:35 16.06.2020
2279 Rain 18 1017 77 10000 2.1 90 01:33 16.06.2020
2280 Clouds 19 1017 77 10000 1.5 70 00:55 16.06.2020
2281 Clouds 19 1017 77 10000 1 0 00:22 16.06.2020
2282 Clouds 19 1017 72 10000 1 0 23:56 15.06.2020
2283 Clouds 19 1017 72 10000 1.5 140 23:38 15.06.2020
2284 Clouds 19 1017 72 10000 2.1 150 23:19 15.06.2020
2285 Clouds 20 1016 72 10000 2.1 140 22:42 15.06.2020
2286 Clouds 20 1016 72 10000 2.1 140 22:22 15.06.2020
2287 Clouds 21 1016 68 10000 2.6 160 21:58 15.06.2020
2288 Clouds 21 1016 68 10000 1.5 140 21:38 15.06.2020
2289 Clouds 21 1016 68 10000 1.5 140 21:20 15.06.2020
2290 Clouds 21 1016 72 10000 1.5 160 20:59 15.06.2020
2291 Clouds 22 1016 68 10000 1.5 160 20:39 15.06.2020
2292 Clouds 22 1016 64 10000 1.5 180 20:20 15.06.2020
2293 Clouds 22 1016 64 10000 1.5 180 19:59 15.06.2020
2294 Clouds 22 1016 64 10000 1.5 180 19:59 15.06.2020
2295 Clouds 22 1016 64 10000 2.6 180 19:40 15.06.2020
2296 Clouds 22 1016 64 10000 2.1 180 19:21 15.06.2020
2297 Clouds 22 1016 64 10000 2.1 180 18:57 15.06.2020
2298 Clouds 22 1016 64 10000 2.1 190 18:39 15.06.2020
2299 Clouds 22 1016 64 10000 2.1 190 18:19 15.06.2020
2300 Clouds 22 1016 64 10000 1 0 17:57 15.06.2020
2301 Clouds 22 1016 60 10000 1.5 160 17:39 15.06.2020
2302 Clouds 22 1016 60 10000 1.5 160 17:19 15.06.2020
2303 Clouds 22 1017 64 10000 0.5 0 16:42 15.06.2020
2304 Clouds 22 1017 60 10000 1 0 16:19 15.06.2020
2305 Clouds 22 1017 60 10000 1 0 15:58 15.06.2020
2306 Clouds 22 1017 64 10000 1.5 340 15:40 15.06.2020
2307 Clouds 22 1017 64 10000 1.5 340 15:20 15.06.2020
2308 Clouds 22 1017 64 10000 1.5 310 14:56 15.06.2020
2309 Clouds 21 1017 64 10000 3.1 290 14:37 15.06.2020
2310 Clouds 21 1017 68 10000 4.1 290 14:18 15.06.2020
2311 Clouds 21 1017 60 10000 4.1 300 13:42 15.06.2020
2312 Clouds 21 1017 60 10000 4.1 300 13:24 15.06.2020
2313 Clouds 21 1017 64 10000 3.6 300 12:59 15.06.2020
2314 Clouds 21 1017 60 10000 2.6 340 12:41 15.06.2020
2315 Clouds 20 1017 64 10000 2.6 0 12:21 15.06.2020
2316 Clouds 20 1017 64 10000 2.6 20 11:46 15.06.2020
2317 Clouds 20 1017 64 10000 2.6 20 11:27 15.06.2020
2318 Clouds 20 1017 68 10000 2.1 360 10:59 15.06.2020
2319 Clouds 19 1017 68 10000 2.6 320 10:41 15.06.2020
2320 Clouds 19 1017 68 10000 1.5 0 10:21 15.06.2020
2321 Clouds 19 1017 72 10000 2.6 280 09:43 15.06.2020
2322 Clouds 18 1017 72 10000 2.6 280 09:23 15.06.2020
2323 Clouds 17 1017 77 10000 1.5 240 08:47 15.06.2020
2324 Clouds 17 1017 77 10000 1.5 240 08:27 15.06.2020
2325 Clouds 16 1016 82 10000 1.5 260 07:57 15.06.2020
2326 Clouds 16 1016 82 10000 3.1 260 07:39 15.06.2020
2327 Clouds 16 1016 82 10000 3.1 260 07:19 15.06.2020
2328 Clouds 16 1016 82 10000 3.1 260 06:29 15.06.2020
2329 Clouds 16 1016 82 10000 3.1 260 05:51 15.06.2020
2330 Clouds 16 1016 82 10000 3.1 280 05:30 15.06.2020
2331 Clouds 16 1016 82 10000 2.6 280 04:22 15.06.2020
2332 Clouds 16 1016 77 10000 3.1 280 03:49 15.06.2020
2333 Clouds 17 1016 77 10000 3.1 290 03:27 15.06.2020
2334 Clouds 17 1016 87 10000 0.5 0 02:33 15.06.2020
2335 Clouds 17 1016 82 10000 1 0 01:49 15.06.2020
2336 Clouds 17 1016 82 10000 0.5 0 01:29 15.06.2020
2337 Rain 17 1016 82 10000 1.5 360 00:56 15.06.2020
2338 Clouds 17 1016 82 10000 2.6 40 00:38 15.06.2020
2339 Clouds 17 1016 82 10000 2.6 40 00:18 15.06.2020
2340 Clouds 17 1016 82 10000 1.5 340 23:42 14.06.2020
2341 Clouds 17 1016 82 10000 1.5 340 23:24 14.06.2020
2342 Clouds 18 1015 72 10000 3.1 280 22:58 14.06.2020
2343 Rain 18 1015 82 10000 1.5 260 22:39 14.06.2020
2344 Rain 18 1015 82 10000 1.5 260 22:19 14.06.2020
2345 Clouds 18 1015 82 10000 2.6 350 21:57 14.06.2020
2346 Clouds 18 1015 82 10000 2.6 350 21:38 14.06.2020
2347 Clouds 18 1015 82 10000 5.1 340 21:19 14.06.2020
2348 Clouds 18 1015 82 10000 2.6 350 21:19 14.06.2020
2349 Clouds 19 1015 82 10000 5.1 340 20:58 14.06.2020
2350 Clouds 20 1015 77 10000 4.1 340 20:38 14.06.2020
2351 Rain 20 1014 68 10000 4.6 330 20:20 14.06.2020
2352 Rain 20 1014 68 10000 4.6 330 19:59 14.06.2020
2353 Clouds 20 1014 68 10000 4.6 300 19:38 14.06.2020
2354 Clouds 20 1014 68 10000 4.6 300 19:19 14.06.2020
2355 Clouds 20 1014 68 10000 4.6 300 19:19 14.06.2020
2356 Clouds 21 1014 64 10000 4.6 290 18:57 14.06.2020
2357 Clouds 21 1014 64 10000 4.6 290 18:57 14.06.2020
2358 Clouds 21 1014 68 10000 4.1 290 18:38 14.06.2020
2359 Clouds 21 1014 68 10000 4.1 290 18:20 14.06.2020
2360 Clouds 21 1014 68 10000 6.2 290 17:58 14.06.2020
2361 Clouds 21 1014 72 10000 4.1 290 17:38 14.06.2020
2362 Clouds 21 1014 72 10000 4.1 290 17:19 14.06.2020
2363 Rain 20 1014 88 10000 3.1 270 16:41 14.06.2020
2364 Rain 20 1014 72 10000 4.6 320 16:22 14.06.2020
2365 -273 0 0 0 0 0 15:59 14.06.2020
2366 Rain 21 1014 64 10000 5.7 290 15:41 14.06.2020
2367 Rain 21 1014 64 10000 5.7 290 15:19 14.06.2020
2368 Clouds 21 1014 68 10000 6.2 300 14:59 14.06.2020
2369 Clouds 20 1014 64 10000 6.7 280 14:40 14.06.2020
2370 Clouds 20 1014 64 10000 6.7 280 14:21 14.06.2020
2371 Clouds 21 1014 64 10000 7.2 310 13:58 14.06.2020
2372 Clouds 21 1014 64 10000 6.2 290 13:39 14.06.2020
2373 Clouds 21 1014 64 10000 6.2 290 13:21 14.06.2020
2374 Clouds 20 1014 64 10000 4.6 280 12:56 14.06.2020
2375 Clouds 20 1014 60 10000 5.7 280 12:38 14.06.2020
2376 Clouds 20 1014 60 10000 5.7 280 12:18 14.06.2020
2377 Clouds 20 1013 64 10000 6.2 280 11:56 14.06.2020
2378 Clouds 20 1013 64 10000 6.2 280 11:38 14.06.2020
2379 Clouds 20 1014 64 10000 5.1 280 11:18 14.06.2020
2380 Clouds 19 1013 64 10000 5.7 290 10:42 14.06.2020
2381 Clouds 19 1013 60 10000 7.2 280 10:20 14.06.2020
2382 Clouds 19 1013 64 10000 5.7 290 09:51 14.06.2020
2383 Clouds 19 1013 64 10000 5.7 290 09:26 14.06.2020
2384 Clouds 19 1013 68 10000 6.7 300 08:59 14.06.2020
2385 Clouds 19 1013 68 10000 4.1 280 08:41 14.06.2020
2386 Clouds 19 1012 68 10000 5.1 290 08:19 14.06.2020
2387 Clouds 18 1012 82 10000 1 0 07:52 14.06.2020
2388 Clouds 18 1012 82 10000 1 0 07:32 14.06.2020
2389 Rain 18 1012 82 10000 1.5 240 06:39 14.06.2020
2390 Rain 18 1012 88 10000 3.1 140 05:45 14.06.2020
2391 Rain 18 1011 88 10000 2.1 190 05:18 14.06.2020
2392 Rain 18 1012 88 10000 2.6 160 04:35 14.06.2020
2393 Rain 19 1012 72 10000 1.5 350 03:36 14.06.2020
2394 Rain 19 1012 77 10000 1 0 02:32 14.06.2020
2395 Rain 19 1012 77 10000 1.5 180 01:49 14.06.2020
2396 Rain 20 1012 77 10000 1.5 180 01:26 14.06.2020
2397 Clouds 20 1011 72 10000 1.5 80 00:42 14.06.2020
2398 Clouds 21 1011 72 10000 1.5 80 00:20 14.06.2020
2399 Rain 21 1011 82 10000 1.5 10 23:44 13.06.2020
2400 Rain 21 1011 82 10000 1.5 10 23:25 13.06.2020
2401 Rain 21 1011 82 10000 1.5 10 23:25 13.06.2020
2402 Clouds 22 1011 68 10000 1 0 22:58 13.06.2020
2403 Rain 22 1011 68 10000 2.1 360 22:38 13.06.2020
2404 Clouds 23 1011 60 10000 2.1 30 22:18 13.06.2020
2405 Clouds 23 1010 56 10000 1.5 360 21:57 13.06.2020
2406 Clouds 23 1010 56 10000 1.5 360 21:38 13.06.2020
2407 Clouds 24 1010 56 10000 2.6 330 21:20 13.06.2020
2408 Clouds 24 1010 57 10000 0.5 0 20:44 13.06.2020
2409 Clouds 25 1010 53 10000 1 0 20:20 13.06.2020
2410 Clouds 25 1010 53 10000 1 0 19:58 13.06.2020
2411 Clouds 25 1009 47 10000 2.6 300 19:37 13.06.2020
2412 Clouds 26 1009 44 10000 2.6 290 19:19 13.06.2020
2413 Clouds 26 1009 44 10000 2.6 290 18:57 13.06.2020
2414 Clouds 26 1009 44 10000 2.6 290 18:57 13.06.2020
2415 Clouds 26 1010 47 10000 1.5 340 18:38 13.06.2020
2416 Clouds 26 1010 47 10000 1.5 340 18:19 13.06.2020
2417 Clouds 26 1010 50 10000 1.5 20 17:55 13.06.2020
2418 Clouds 25 1010 57 10000 2.1 50 17:37 13.06.2020
2419 Clouds 25 1010 57 10000 2.1 50 17:19 13.06.2020
2420 Clouds 24 1011 56 10000 1.5 200 16:41 13.06.2020
2421 Clouds 24 1011 56 10000 1.5 200 16:20 13.06.2020
2422 Rain 24 1011 64 10000 1.5 70 15:59 13.06.2020
2423 Rain 23 1011 64 10000 1.5 70 15:41 13.06.2020
2424 Rain 23 1011 60 10000 2.1 140 15:21 13.06.2020
2425 Clouds 23 1011 60 10000 2.1 130 14:44 13.06.2020
2426 Clouds 23 1011 60 10000 3.1 140 14:23 13.06.2020
2427 Clouds 24 1011 60 10000 3.1 140 13:57 13.06.2020
2428 Clouds 24 1011 53 10000 2.6 180 13:37 13.06.2020
2429 Rain 23 1011 60 10000 1.5 150 13:19 13.06.2020
2430 Clouds 23 1011 60 10000 1.5 140 12:43 13.06.2020
2431 Clouds 23 1011 60 10000 1.5 140 12:25 13.06.2020
2432 Clouds 23 1011 56 10000 1.5 210 11:57 13.06.2020
2433 Clouds 22 1011 60 10000 2.6 210 11:38 13.06.2020
2434 Clouds 22 1011 60 10000 2.6 210 11:19 13.06.2020
2435 Clouds 22 1011 60 10000 2.6 200 10:56 13.06.2020
2436 Clouds 21 1011 64 10000 3.1 180 10:37 13.06.2020
2437 Clouds 21 1011 64 10000 3.1 180 10:18 13.06.2020
2438 Clouds 20 1010 64 10000 1.5 120 09:42 13.06.2020
2439 Clouds 19 1010 68 10000 2.1 150 09:21 13.06.2020
2440 Clouds 19 1010 72 10000 2.6 140 08:48 13.06.2020
2441 Clouds 19 1010 72 10000 2.6 140 08:30 13.06.2020
2442 Clouds 17 1010 77 10000 1.5 180 07:50 13.06.2020
2443 Clouds 17 1010 82 10000 2.6 160 07:28 13.06.2020
2444 Clouds 17 1010 82 10000 2.1 180 06:50 13.06.2020
2445 Clouds 16 1010 82 10000 2.1 180 06:30 13.06.2020
2446 Clouds 16 1009 82 10000 2.6 40 05:45 13.06.2020
2447 Clouds 16 1009 82 10000 2.6 40 05:24 13.06.2020
2448 Clouds 17 1010 77 10000 3.1 300 03:48 13.06.2020
2449 Clouds 17 1010 77 10000 4.1 300 02:54 13.06.2020
2450 Clouds 17 1010 82 10000 7.2 250 02:34 13.06.2020
2451 Clouds 18 1008 77 10000 4.1 310 01:46 13.06.2020
2452 Clouds 18 1008 77 10000 4.1 310 01:21 13.06.2020
2453 Clouds 18 1007 68 10000 5.7 330 00:42 13.06.2020
2454 Clouds 19 1007 68 10000 5.7 330 00:23 13.06.2020
2455 Clouds 19 1006 60 10000 1.5 70 23:42 12.06.2020
2456 Clouds 20 1006 60 10000 1.5 70 23:19 12.06.2020
2457 Clouds 21 1006 56 10000 2.6 70 22:59 12.06.2020
2458 Clouds 22 1006 53 10000 2.6 80 22:40 12.06.2020
2459 Rain 24 1005 44 10000 1.5 100 22:19 12.06.2020
2460 Rain 24 1005 44 10000 1.5 100 22:19 12.06.2020
2461 Rain 25 1005 44 10000 1.5 100 21:49 12.06.2020
2462 Rain 27 1005 36 10000 4.6 120 21:26 12.06.2020
2463 Rain 27 1005 36 10000 4.6 120 20:59 12.06.2020
2464 Rain 28 1005 34 10000 2.6 120 20:41 12.06.2020
2465 Clouds 28 1005 34 10000 2.6 120 20:22 12.06.2020
2466 Clouds 28 1005 39 10000 3.1 90 19:57 12.06.2020
2467 Clouds 28 1005 34 10000 3.6 110 19:38 12.06.2020
2468 Clouds 28 1005 37 10000 2.6 120 19:18 12.06.2020
2469 Clouds 28 1005 34 10000 2.6 100 18:39 12.06.2020
2470 Clouds 29 1005 34 10000 4.6 120 18:19 12.06.2020
2471 Clouds 29 1005 34 10000 4.6 120 17:58 12.06.2020
2472 Clouds 29 1005 37 10000 4.1 130 17:39 12.06.2020
2473 Clouds 29 1005 37 10000 4.1 130 17:19 12.06.2020
2474 Clouds 28 1006 42 10000 5.1 130 16:44 12.06.2020
2475 Clear 28 1006 42 10000 5.1 130 16:20 12.06.2020
2476 Clear 28 1006 42 10000 5.1 140 15:49 12.06.2020
2477 Clear 28 1006 42 10000 5.1 140 15:26 12.06.2020
2478 Clear 27 1006 39 10000 5.1 150 14:58 12.06.2020
2479 Clear 27 1006 44 10000 5.1 130 14:39 12.06.2020
2480 Clouds 27 1006 44 10000 5.1 130 14:21 12.06.2020
2481 Clouds 26 1007 47 10000 5.1 130 13:42 12.06.2020
2482 Clouds 26 1007 47 10000 5.1 130 13:22 12.06.2020
2483 Clouds 24 1007 56 10000 4.6 120 12:55 12.06.2020
2484 Clouds 24 1007 56 10000 4.6 120 12:37 12.06.2020
2485 Clouds 24 1007 56 10000 4.1 110 12:18 12.06.2020
2486 Clouds 23 1007 60 10000 4.1 120 11:42 12.06.2020
2487 Clouds 22 1007 60 10000 4.1 120 11:23 12.06.2020
2488 Clouds 21 1008 68 10000 4.1 110 10:49 12.06.2020
2489 Clouds 20 1008 72 10000 4.6 80 10:26 12.06.2020
2490 Clouds 19 1008 72 10000 4.6 80 09:58 12.06.2020
2491 Clouds 17 1008 77 10000 4.1 90 09:39 12.06.2020
2492 Clouds 17 1008 77 10000 4.1 80 09:19 12.06.2020
2493 Clouds 17 1008 82 10000 1.5 140 08:41 12.06.2020
2494 Clear 16 1008 82 10000 1.5 140 08:22 12.06.2020
2495 Clear 13 1008 93 10000 2.1 170 07:41 12.06.2020
2496 Clear 13 1008 93 10000 1.5 130 07:23 12.06.2020
2497 Clear 12 1008 93 10000 2.1 150 06:41 12.06.2020
2498 Clear 12 1008 93 10000 2.1 150 06:21 12.06.2020
2499 Clear 12 1008 100 10000 1 0 05:49 12.06.2020
2500 Clear 12 1008 100 10000 1 0 05:23 12.06.2020
2501 Clear 13 1009 87 10000 1.5 100 03:53 12.06.2020
2502 Clear 13 1010 93 10000 1.5 40 02:43 12.06.2020
2503 Clouds 14 1010 87 10000 2.1 90 01:47 12.06.2020
2504 Clouds 14 1010 87 10000 2.1 90 01:20 12.06.2020
2505 Clouds 15 1010 82 10000 2.1 90 00:40 12.06.2020
2506 Clouds 16 1010 82 10000 1.5 100 00:21 12.06.2020
2507 Clouds 16 1010 82 10000 1.5 100 23:57 11.06.2020
2508 Clouds 16 1010 77 10000 2.1 90 23:39 11.06.2020
2509 Clouds 16 1010 77 10000 2.1 90 23:20 11.06.2020
2510 Clouds 17 1010 77 10000 2.6 70 22:56 11.06.2020
2511 Clouds 17 1009 77 10000 1.5 80 22:38 11.06.2020
2512 Clear 18 1009 77 10000 1.5 80 22:19 11.06.2020
2513 Clouds 19 1009 68 10000 2.1 90 21:43 11.06.2020
2514 Clouds 19 1009 63 10000 2.6 90 21:20 11.06.2020
2515 Clouds 19 1009 63 10000 2.6 90 20:59 11.06.2020
2516 Clouds 19 1009 59 10000 3.6 80 20:41 11.06.2020
2517 Clouds 19 1009 63 10000 1.5 80 20:21 11.06.2020
2518 Clouds 19 1009 63 10000 2.6 80 19:44 11.06.2020
2519 Clouds 20 1009 63 10000 2.6 80 19:23 11.06.2020
2520 Clouds 20 1009 63 10000 2.6 80 19:23 11.06.2020
2521 Clouds 20 1009 63 10000 2.6 80 18:58 11.06.2020
2522 Clouds 20 1009 63 10000 2.6 80 18:40 11.06.2020
2523 Clouds 20 1009 56 10000 3.1 70 18:20 11.06.2020
2524 Clouds 20 1009 56 10000 2.1 90 17:56 11.06.2020
2525 Clouds 20 1009 56 10000 2.1 90 17:37 11.06.2020
2526 Clouds 20 1009 56 10000 2.1 110 17:19 11.06.2020
2527 Clouds 20 1009 56 10000 2.6 80 16:55 11.06.2020
2528 Clouds 20 1010 59 10000 2.6 70 16:37 11.06.2020
2529 Clouds 20 1010 59 10000 2.6 70 16:18 11.06.2020
2530 Clouds 20 1010 52 10000 1 0 15:42 11.06.2020
2531 Clouds 20 1010 56 10000 1 0 15:23 11.06.2020
2532 Clouds 19 1010 59 10000 3.1 20 14:55 11.06.2020
2533 Clouds 19 1010 59 10000 3.1 20 14:37 11.06.2020
2534 Clouds 19 1010 59 10000 1 0 14:19 11.06.2020
2535 Clouds 19 1010 63 10000 2.6 0 13:54 11.06.2020
2536 Clouds 19 1010 55 10000 1 0 13:36 11.06.2020
2537 Clouds 19 1010 55 10000 1 0 13:18 11.06.2020
2538 Clouds 18 1010 59 10000 1.5 50 12:39 11.06.2020
2539 Clouds 18 1010 63 10000 1 0 12:20 11.06.2020
2540 Clouds 18 1011 77 10000 1.5 10 11:59 11.06.2020
2541 Clouds 17 1011 77 10000 1.5 10 11:40 11.06.2020
2542 Rain 17 1011 77 10000 1 0 11:22 11.06.2020
2543 Rain 16 1011 87 10000 1.5 20 10:59 11.06.2020
2544 Rain 16 1011 87 10000 1.5 20 10:41 11.06.2020
2545 Clouds 15 1011 77 10000 1 310 10:18 11.06.2020
2546 Clouds 15 1011 82 10000 0.5 0 09:44 11.06.2020
2547 Rain 15 1011 93 10000 1 0 09:26 11.06.2020
2548 Rain 14 1011 93 10000 0.5 0 08:54 11.06.2020
2549 Rain 14 1011 93 10000 0.5 0 08:36 11.06.2020
2550 Rain 14 1011 93 9000 0.5 0 08:18 11.06.2020
2551 Rain 14 1011 93 9000 1 190 07:41 11.06.2020
2552 Rain 14 1011 100 9000 0.5 0 07:22 11.06.2020
2553 Rain 14 1011 100 10000 1 90 06:33 11.06.2020
2554 Rain 14 1011 100 10000 1.5 70 05:54 11.06.2020
2555 Rain 14 1012 100 10000 0.5 0 04:41 11.06.2020
2556 Rain 15 1012 93 10000 0.5 50 03:25 11.06.2020
2557 Clouds 15 1012 87 10000 0.45 87 02:46 11.06.2020
2558 Clouds 15 1013 82 10000 0.5 0 01:56 11.06.2020
2559 Clouds 15 1013 82 10000 2.1 130 01:35 11.06.2020
2560 Clouds 16 1013 77 10000 1.5 60 00:57 11.06.2020
2561 Clouds 16 1013 77 10000 2.1 50 00:39 11.06.2020
2562 Clouds 16 1013 77 10000 2.1 50 00:19 11.06.2020
2563 Clouds 16 1013 77 10000 2.1 40 23:41 10.06.2020
2564 Clouds 16 1013 77 10000 2.1 40 23:22 10.06.2020
2565 Clouds 17 1013 72 10000 2.1 10 22:55 10.06.2020
2566 Clouds 17 1013 77 10000 2.1 30 22:37 10.06.2020
2567 Clouds 17 1013 77 10000 2.1 30 22:18 10.06.2020
2568 Clouds 17 1013 72 10000 2.6 20 21:55 10.06.2020
2569 Clouds 17 1013 72 10000 2.6 20 21:37 10.06.2020
2570 Clouds 18 1013 68 10000 3.1 30 21:18 10.06.2020
2571 Clouds 18 1013 68 10000 2.6 30 20:55 10.06.2020
2572 Clouds 18 1013 68 10000 3.1 40 20:37 10.06.2020
2573 Clouds 19 1013 68 10000 3.1 40 20:18 10.06.2020
2574 Clouds 19 1013 59 10000 3.6 50 19:38 10.06.2020
2575 Clouds 19 1013 59 10000 3.6 50 19:18 10.06.2020
2576 Clouds 19 1013 59 10000 3.6 50 19:18 10.06.2020
2577 Clouds 19 1013 52 10000 2.1 20 18:57 10.06.2020
2578 Clouds 19 1013 52 10000 2.1 20 18:38 10.06.2020
2579 Clouds 19 1013 55 10000 2.6 30 18:19 10.06.2020
2580 Clouds 19 1013 59 10000 2.1 40 17:55 10.06.2020
2581 Clouds 18 1013 59 10000 2.1 40 17:36 10.06.2020
2582 Clouds 18 1014 55 10000 2.1 90 17:18 10.06.2020
2583 Clouds 18 1014 55 10000 2.1 130 16:56 10.06.2020
2584 Clouds 18 1014 55 10000 2.1 130 16:38 10.06.2020
2585 Clouds 18 1014 59 10000 2.1 140 16:18 10.06.2020
2586 Clouds 17 1015 68 10000 2.6 170 15:40 10.06.2020
2587 Clouds 17 1015 68 10000 2.6 170 15:21 10.06.2020
2588 Clouds 17 1015 72 10000 1.5 20 14:56 10.06.2020
2589 Clouds 17 1015 72 10000 1.5 20 14:38 10.06.2020
2590 Clouds 16 1015 82 10000 1.5 140 14:19 10.06.2020
2591 Rain 16 1015 82 10000 1.5 120 13:40 10.06.2020
2592 Clouds 17 1015 72 10000 1 0 13:21 10.06.2020
2593 Rain 17 1015 77 10000 1.5 0 12:44 10.06.2020
2594 Rain 17 1015 77 10000 1.5 0 12:20 10.06.2020
2595 Rain 16 1015 77 10000 1 0 11:58 10.06.2020
2596 Rain 16 1015 77 10000 1 0 11:40 10.06.2020
2597 Rain 16 1016 82 10000 1.5 20 11:19 10.06.2020
2598 Rain 16 1016 87 10000 1 0 10:57 10.06.2020
2599 Rain 16 1016 87 10000 0.5 20 10:39 10.06.2020
2600 Rain 15 1016 87 10000 0.5 20 10:20 10.06.2020
2601 Rain 15 1016 93 9000 1 0 09:41 10.06.2020
2602 Rain 15 1016 87 10000 1 0 09:41 10.06.2020
2603 Rain 15 1016 87 10000 1 0 09:41 10.06.2020
2604 Rain 15 1016 93 9000 1 0 09:23 10.06.2020
2605 Clouds 14 1016 93 6000 0.5 0 08:57 10.06.2020
2606 Mist 14 1016 87 4500 1 0 08:38 10.06.2020
2607 Mist 14 1016 87 4500 1 0 08:20 10.06.2020
2608 Mist 13 1016 100 4000 0.5 280 07:39 10.06.2020
2609 Mist 13 1016 93 3500 1 0 07:20 10.06.2020
2610 Mist 13 1015 100 3500 1 140 06:44 10.06.2020
2611 Mist 13 1015 100 3500 1 140 06:23 10.06.2020
2612 Mist 13 1016 100 3500 0.5 0 05:56 10.06.2020
2613 Rain 13 1016 100 6000 0.5 130 05:26 10.06.2020
2614 Clouds 13 1016 100 6000 0.5 0 04:35 10.06.2020
2615 Clouds 13 1017 93 6000 1.5 50 02:57 10.06.2020
2616 Clouds 13 1017 93 6000 1 0 02:22 10.06.2020
2617 Clouds 13 1017 93 8000 1 0 01:38 10.06.2020
2618 Clouds 14 1017 100 10000 2.1 360 00:40 10.06.2020
2619 Clouds 14 1017 100 10000 2.1 360 00:22 10.06.2020
2620 Clouds 14 1017 100 8000 2.1 350 23:58 09.06.2020
2621 Clouds 14 1017 100 8000 2.1 350 23:39 09.06.2020
2622 Clouds 14 1017 100 8000 2.1 350 23:39 09.06.2020
2623 Clouds 14 1017 100 10000 1.5 340 23:21 09.06.2020
2624 Rain 14 1017 93 10000 1 0 22:56 09.06.2020
2625 Rain 14 1017 93 10000 1 0 22:38 09.06.2020
2626 Rain 14 1017 93 10000 1.5 300 22:20 09.06.2020
2627 Rain 15 1017 93 10000 1 0 21:57 09.06.2020
2628 Rain 15 1017 93 10000 1 0 21:57 09.06.2020
2629 Rain 15 1017 93 10000 1 0 21:38 09.06.2020
2630 Rain 15 1017 93 10000 1 0 21:38 09.06.2020
2631 Rain 16 1017 93 10000 2.6 60 21:20 09.06.2020
2632 Rain 16 1016 87 10000 4.1 70 20:57 09.06.2020
2633 Rain 16 1016 87 10000 4.1 70 20:38 09.06.2020
2634 Rain 17 1016 93 8000 6.2 60 20:20 09.06.2020
2635 Rain 17 1016 93 8000 6.2 60 20:20 09.06.2020
2636 Rain 18 1016 63 10000 2.6 350 19:57 09.06.2020
2637 Rain 19 1016 63 10000 2.6 350 19:39 09.06.2020
2638 Rain 19 1016 63 10000 2.6 350 19:39 09.06.2020
2639 Clouds 19 1016 59 10000 2.6 10 19:20 09.06.2020
2640 Clouds 19 1016 55 10000 2.1 360 18:57 09.06.2020
2641 Clouds 19 1016 55 10000 2.1 360 18:38 09.06.2020
2642 Clouds 19 1016 55 10000 3.1 340 18:19 09.06.2020
2643 Clouds 19 1016 63 10000 3.1 40 17:55 09.06.2020
2644 Clouds 19 1016 68 10000 2.6 20 17:37 09.06.2020
2645 Clouds 19 1016 68 10000 2.6 20 17:18 09.06.2020
2646 Rain 19 1016 82 10000 1 0 16:42 09.06.2020
2647 Rain 18 1016 82 10000 3.6 140 16:23 09.06.2020
2648 Rain 19 1016 63 10000 4.6 320 15:56 09.06.2020
2649 Rain 19 1016 63 10000 4.6 320 15:38 09.06.2020
2650 Rain 19 1016 59 10000 6.2 300 15:20 09.06.2020
2651 Clouds 18 1016 63 10000 6.2 300 14:54 09.06.2020
2652 Clouds 18 1016 63 10000 6.2 300 14:36 09.06.2020
2653 Clouds 18 1017 63 10000 5.1 310 14:18 09.06.2020
2654 Clouds 17 1017 59 10000 5.7 310 13:42 09.06.2020
2655 Clouds 17 1017 63 10000 5.7 310 13:21 09.06.2020
2656 Clouds 17 1017 63 10000 4.6 310 12:58 09.06.2020
2657 Clouds 16 1017 67 10000 4.1 310 12:40 09.06.2020
2658 Clouds 16 1017 67 10000 4.1 310 12:18 09.06.2020
2659 Clouds 15 1017 67 10000 3.6 320 11:55 09.06.2020
2660 Clouds 15 1017 67 10000 3.6 320 11:37 09.06.2020
2661 Clouds 15 1017 72 10000 3.6 310 11:19 09.06.2020
2662 Clouds 14 1017 77 10000 2.6 360 10:44 09.06.2020
2663 Clouds 14 1017 77 10000 3.1 350 10:25 09.06.2020
2664 Clouds 14 1017 76 10000 3.1 340 09:44 09.06.2020
2665 Clouds 14 1017 82 10000 3.1 320 09:25 09.06.2020
2666 Clouds 14 1017 82 10000 3.1 320 09:25 09.06.2020
2667 Clouds 13 1017 82 10000 2.1 320 08:58 09.06.2020
2668 Clouds 13 1017 82 10000 2.1 320 08:39 09.06.2020
2669 Clouds 13 1016 87 10000 1 0 08:20 09.06.2020
2670 Clouds 12 1016 93 10000 1 0 07:40 09.06.2020
2671 Clouds 12 1016 93 10000 1 0 07:21 09.06.2020
2672 Clouds 11 1016 100 8000 0.5 0 06:55 09.06.2020
2673 Clouds 11 1016 100 9000 1.5 40 06:36 09.06.2020
2674 Clear 12 1016 93 10000 0.5 0 05:36 09.06.2020
2675 Clear 11 1016 93 10000 1 60 03:52 09.06.2020
2676 Clouds 12 1016 87 10000 1 0 02:20 09.06.2020
2677 Clouds 13 1015 82 10000 2.1 350 01:36 09.06.2020
2678 Clouds 13 1015 82 10000 2.1 350 01:18 09.06.2020
2679 Rain 14 1015 82 10000 2.6 340 00:40 09.06.2020
2680 Rain 14 1015 82 10000 2.6 340 00:19 09.06.2020
2681 Clouds 15 1016 71 10000 1 0 23:41 08.06.2020
2682 Clouds 15 1016 71 10000 1 0 23:21 08.06.2020
2683 Clouds 15 1015 71 10000 1.5 350 22:58 08.06.2020
2684 Clouds 16 1015 67 10000 1.5 330 22:38 08.06.2020
2685 Clouds 16 1015 67 10000 1.5 330 22:20 08.06.2020
2686 Rain 16 1014 63 10000 3.1 320 21:56 08.06.2020
2687 Rain 17 1014 55 10000 4.6 320 21:37 08.06.2020
2688 Rain 17 1014 55 10000 4.6 320 21:19 08.06.2020
2689 Rain 17 1014 55 10000 4.6 330 20:55 08.06.2020
2690 Rain 18 1014 55 10000 4.6 330 20:36 08.06.2020
2691 Rain 18 1014 52 10000 5.1 360 20:18 08.06.2020
2692 Clouds 19 1013 52 10000 4.1 360 19:43 08.06.2020
2693 Clouds 19 1013 55 10000 4.6 330 19:21 08.06.2020
2694 Clouds 19 1013 42 10000 3.6 330 18:44 08.06.2020
2695 Clouds 20 1013 43 10000 3.6 310 18:21 08.06.2020
2696 Clouds 20 1013 48 10000 3.1 350 17:58 08.06.2020
2697 Rain 20 1013 49 10000 2.6 0 17:40 08.06.2020
2698 Rain 20 1013 49 10000 2.6 0 17:40 08.06.2020
2699 Rain 20 1013 49 10000 2.6 0 17:22 08.06.2020
2700 Clouds 20 1014 52 10000 2.6 0 16:58 08.06.2020
2701 Clouds 20 1014 52 10000 2.6 0 16:40 08.06.2020
2702 Clouds 19 1014 52 10000 3.1 0 16:21 08.06.2020
2703 Clouds 19 1013 49 10000 4.6 320 15:44 08.06.2020
2704 Clouds 18 1013 55 10000 4.6 330 15:22 08.06.2020
2705 Clouds 19 1014 52 10000 4.1 320 14:58 08.06.2020
2706 Clouds 18 1014 48 10000 3.6 300 14:39 08.06.2020
2707 Clouds 18 1014 48 10000 3.6 300 14:20 08.06.2020
2708 Clouds 18 1014 52 10000 1.5 0 13:44 08.06.2020
2709 Clouds 18 1014 52 10000 2.1 0 13:24 08.06.2020
2710 Clouds 18 1014 55 10000 2.6 260 12:44 08.06.2020
2711 Clouds 18 1014 55 10000 2.6 260 12:22 08.06.2020
2712 Clouds 17 1014 67 10000 2.1 0 11:59 08.06.2020
2713 Clouds 17 1014 67 10000 2.1 0 11:41 08.06.2020
2714 Clouds 16 1014 63 10000 1.5 10 11:23 08.06.2020
2715 Clouds 16 1014 71 10000 2.1 150 10:58 08.06.2020
2716 Clouds 15 1014 76 10000 2.6 150 10:40 08.06.2020
2717 Clouds 15 1014 76 10000 2.6 150 10:21 08.06.2020
2718 Clouds 15 1014 81 10000 2.1 140 09:58 08.06.2020
2719 Clouds 15 1014 81 10000 2.1 140 09:58 08.06.2020
2720 Clouds 14 1014 81 10000 2.1 140 09:40 08.06.2020
2721 Clouds 14 1014 81 10000 1.5 150 09:22 08.06.2020
2722 Clouds 13 1014 87 10000 1 0 08:47 08.06.2020
2723 Clouds 12 1014 87 10000 1 0 08:23 08.06.2020
2724 Clear 12 1013 93 10000 1.5 150 07:46 08.06.2020
2725 Clear 12 1013 87 10000 1 0 07:24 08.06.2020
2726 Clear 12 1013 87 10000 0.5 0 06:54 08.06.2020
2727 Clear 12 1013 87 10000 0.5 0 06:36 08.06.2020
2728 Clear 11 1013 87 10000 0.5 0 05:54 08.06.2020
2729 Clear 11 1013 93 10000 1 50 04:35 08.06.2020
2730 Clear 11 1012 93 10000 0.5 0 02:56 08.06.2020
2731 Clear 11 1012 87 10000 0.5 0 02:25 08.06.2020
2732 Clear 11 1012 87 10000 1.55 248 01:40 08.06.2020
2733 Clear 12 1012 81 10000 1.5 360 00:41 08.06.2020
2734 Clear 13 1012 81 10000 1.88 282 00:19 08.06.2020
2735 Clear 13 1011 76 10000 1.88 282 23:38 07.06.2020
2736 Clear 14 1011 71 10000 1 60 23:18 07.06.2020
2737 Clear 15 1011 76 10000 0.5 0 22:56 07.06.2020
2738 Clear 15 1011 67 10000 1.5 10 22:36 07.06.2020
2739 Clear 16 1011 67 10000 1.5 10 22:18 07.06.2020
2740 Clear 16 1011 58 10000 2.1 350 21:57 07.06.2020
2741 Clear 17 1011 58 10000 2.1 350 21:36 07.06.2020
2742 Clear 17 1010 48 10000 3.6 300 21:18 07.06.2020
2743 Clear 18 1010 45 10000 3.6 300 20:39 07.06.2020
2744 Clouds 18 1010 45 10000 3.6 330 20:21 07.06.2020
2745 Clouds 18 1010 42 10000 5.1 300 19:57 07.06.2020
2746 Clouds 18 1009 39 10000 5.1 280 19:39 07.06.2020
2747 Clouds 18 1009 39 10000 5.1 280 19:20 07.06.2020
2748 Clouds 18 1009 42 10000 4.6 280 18:59 07.06.2020
2749 Clouds 18 1009 39 10000 5.1 260 18:38 07.06.2020
2750 Rain 18 1009 39 10000 5.1 260 18:20 07.06.2020
2751 Rain 18 1009 39 10000 4.1 270 17:57 07.06.2020
2752 Clouds 18 1009 39 10000 4.1 270 17:38 07.06.2020
2753 Clouds 19 1009 42 10000 4.6 290 17:20 07.06.2020
2754 Clouds 19 1009 42 10000 5.7 260 16:43 07.06.2020
2755 Clouds 19 1009 42 10000 6.2 270 16:22 07.06.2020
2756 Clouds 18 1009 42 10000 7.2 290 15:44 07.06.2020
2757 Clouds 18 1009 42 10000 7.2 290 15:44 07.06.2020
2758 Clouds 18 1009 42 10000 6.7 270 15:22 07.06.2020
2759 Clouds 17 1008 42 10000 6.2 300 14:54 07.06.2020
2760 Clouds 17 1008 45 10000 6.7 260 14:36 07.06.2020
2761 Clouds 17 1008 45 10000 6.7 260 14:18 07.06.2020
2762 Clouds 16 1008 42 10000 5.7 270 13:42 07.06.2020
2763 Clouds 16 1008 42 10000 5.7 270 13:42 07.06.2020
2764 Clouds 16 1008 42 10000 5.7 270 13:42 07.06.2020
2765 Clouds 16 1008 42 10000 5.7 270 13:41 07.06.2020
2766 Clouds 16 1008 48 10000 4.6 270 13:19 07.06.2020
2767 Clouds 16 1008 48 10000 5.1 240 12:43 07.06.2020
2768 Clouds 16 1007 54 10000 4.1 220 12:25 07.06.2020
2769 Clouds 16 1007 58 10000 3.6 200 11:55 07.06.2020
2770 Clouds 16 1007 58 10000 3.6 200 11:55 07.06.2020
2771 Clouds 15 1007 58 10000 4.6 240 11:37 07.06.2020
2772 Clouds 15 1007 58 10000 4.6 240 11:19 07.06.2020
2773 Clouds 14 1007 62 10000 5.7 230 10:54 07.06.2020
2774 Clouds 14 1006 58 10000 5.7 240 10:36 07.06.2020
2775 Clouds 14 1006 58 10000 5.7 240 10:18 07.06.2020
2776 Clouds 13 1006 62 10000 6.2 250 09:41 07.06.2020
2777 Clouds 12 1006 66 10000 5.7 240 09:22 07.06.2020
2778 Clouds 12 1006 66 10000 5.7 240 08:59 07.06.2020
2779 Clouds 12 1005 66 10000 4.6 210 08:41 07.06.2020
2780 Clouds 12 1005 62 10000 5.1 220 08:23 07.06.2020
2781 Clouds 12 1005 62 10000 5.1 210 07:43 07.06.2020
2782 Clouds 11 1004 62 10000 5.1 210 07:24 07.06.2020
2783 Clouds 11 1004 62 10000 3.1 190 06:24 07.06.2020
2784 Clouds 11 1004 62 10000 4.1 170 05:28 07.06.2020
2785 Clouds 11 1004 66 10000 3.6 190 04:19 07.06.2020
2786 Clouds 11 1003 66 10000 3.1 190 02:30 07.06.2020
2787 Clouds 11 1003 66 10000 3.1 190 01:43 07.06.2020
2788 Clouds 12 1003 62 10000 3.1 200 01:24 07.06.2020
2789 Clouds 12 1003 58 10000 3.1 200 00:40 07.06.2020
2790 Clouds 13 1003 58 10000 3.1 200 00:18 07.06.2020
2791 Clouds 13 1003 50 10000 4.1 230 23:56 06.06.2020
2792 Clouds 14 1003 47 10000 4.6 220 23:36 06.06.2020
2793 Clouds 14 1003 47 10000 4.6 220 23:18 06.06.2020
2794 Clouds 14 1003 47 10000 4.6 230 22:55 06.06.2020
2795 Clouds 15 1003 47 10000 4.6 230 22:37 06.06.2020
2796 Clouds 15 1003 47 10000 4.6 230 22:18 06.06.2020
2797 Clouds 15 1002 47 10000 3.6 220 21:43 06.06.2020
2798 Clear 16 1002 51 10000 3.6 220 21:22 06.06.2020
2799 Clear 16 1002 44 10000 5.1 240 20:56 06.06.2020
2800 Clear 16 1002 44 10000 5.1 240 20:37 06.06.2020
2801 Rain 17 1002 44 10000 5.7 260 20:18 06.06.2020
2802 Rain 17 1002 41 10000 7.2 260 19:56 06.06.2020
2803 Clouds 17 1002 39 10000 6.7 240 19:37 06.06.2020
2804 Clouds 17 1002 39 10000 6.7 240 19:37 06.06.2020
2805 Clouds 17 1002 39 10000 6.7 240 19:19 06.06.2020
2806 Clouds 17 1002 42 10000 7.7 250 18:43 06.06.2020
2807 Clouds 18 1001 36 10000 8.2 250 18:24 06.06.2020
2808 Clouds 18 1001 39 10000 7.2 260 17:58 06.06.2020
2809 Clouds 18 1001 39 10000 7.2 260 17:39 06.06.2020
2810 Clouds 17 1001 39 10000 7.7 250 17:19 06.06.2020
2811 Clouds 18 1001 42 10000 7.7 260 16:44 06.06.2020
2812 Clouds 18 1001 42 10000 7.7 260 16:22 06.06.2020
2813 Clouds 18 1001 36 10000 9.3 240 15:58 06.06.2020
2814 Clouds 18 1001 36 10000 9.3 240 15:40 06.06.2020
2815 Clouds 18 1001 39 10000 9.8 240 15:20 06.06.2020
2816 Clouds 17 1001 45 10000 7.2 250 14:44 06.06.2020
2817 Clouds 17 1001 51 10000 6.7 250 14:25 06.06.2020
2818 Clouds 16 1001 54 10000 6.7 230 13:59 06.06.2020
2819 Clouds 16 1001 58 10000 4.6 240 13:41 06.06.2020
2820 Clouds 15 1001 58 10000 4.6 240 13:18 06.06.2020
2821 Clouds 14 1001 66 10000 4.1 220 12:43 06.06.2020
2822 Rain 13 1001 76 10000 5.1 210 12:24 06.06.2020
2823 Rain 12 1001 76 10000 6.7 250 11:59 06.06.2020
2824 Rain 12 1001 71 10000 8.2 240 11:39 06.06.2020
2825 Rain 12 1001 71 10000 8.2 240 11:20 06.06.2020
2826 Rain 13 1000 58 10000 7.7 230 10:59 06.06.2020
2827 Rain 13 1000 58 10000 7.7 230 10:40 06.06.2020
2828 Clouds 13 1000 62 10000 6.7 220 10:21 06.06.2020
2829 Clouds 13 1000 66 10000 6.7 230 09:58 06.06.2020
2830 Clouds 13 1000 66 10000 6.7 230 09:40 06.06.2020
2831 Clouds 13 1000 66 10000 5.1 210 09:21 06.06.2020
2832 Clouds 12 1000 71 10000 3.1 180 08:45 06.06.2020
2833 Clouds 11 1000 81 10000 2.6 170 08:24 06.06.2020
2834 Clouds 10 1000 81 10000 3.6 170 07:55 06.06.2020
2835 Clouds 10 1000 81 10000 3.6 170 07:36 06.06.2020
2836 Clouds 9 999 87 10000 3.6 180 07:18 06.06.2020
2837 Clouds 9 999 87 10000 3.6 180 06:42 06.06.2020
2838 Clouds 9 999 87 10000 3.1 150 06:23 06.06.2020
2839 Clouds 9 999 81 10000 2.6 190 05:32 06.06.2020
2840 Rain 9 999 76 10000 3.1 180 04:47 06.06.2020
2841 Clouds 9 999 87 10000 2.6 140 03:29 06.06.2020
2842 Clouds 9 999 81 10000 2.6 140 01:59 06.06.2020
2843 Rain 9 1000 81 10000 2.6 230 01:21 06.06.2020
2844 Clouds 9 1000 76 10000 7.2 280 00:56 06.06.2020
2845 Clouds 9 999 87 10000 3.6 230 00:38 06.06.2020
2846 Clouds 9 999 87 10000 3.6 230 00:20 06.06.2020
2847 Clouds 10 999 93 10000 1.5 180 23:40 05.06.2020
2848 Clouds 10 999 93 10000 1.5 180 23:20 05.06.2020
2849 Clouds 10 999 93 10000 1.5 180 23:20 05.06.2020
2850 Clouds 10 999 87 10000 2.1 230 22:56 05.06.2020
2851 Rain 10 998 93 10000 5.1 240 22:38 05.06.2020
2852 Rain 10 998 93 10000 5.1 240 22:20 05.06.2020
2853 Rain 11 998 76 10000 3.6 260 21:54 05.06.2020
2854 Clouds 11 997 71 10000 5.1 280 21:36 05.06.2020
2855 Clouds 11 997 71 10000 5.1 280 21:18 05.06.2020
2856 Clouds 11 997 71 10000 6.2 290 20:44 05.06.2020
2857 Clouds 11 996 71 10000 7.2 280 20:22 05.06.2020
2858 Clouds 11 996 76 10000 8.7 270 19:44 05.06.2020
2859 Clouds 12 995 81 10000 7.7 270 19:24 05.06.2020
2860 Rain 12 995 81 10000 6.7 270 18:59 05.06.2020
2861 Rain 11 995 81 10000 6.7 270 18:40 05.06.2020
2862 Rain 11 994 76 10000 17 280 18:21 05.06.2020
2863 Rain 12 993 76 10000 4.6 220 17:59 05.06.2020
2864 Clouds 13 993 87 10000 3.6 220 17:40 05.06.2020
2865 Clouds 13 993 87 10000 3.6 220 17:20 05.06.2020
2866 Rain 12 994 93 10000 5.1 250 16:57 05.06.2020
2867 Rain 12 994 93 10000 5.1 250 16:37 05.06.2020
2868 Rain 11 994 93 10000 8.2 260 16:19 05.06.2020
2869 Rain 11 994 93 10000 8.2 260 16:19 05.06.2020
2870 Rain 12 993 87 6000 3.6 210 15:39 05.06.2020
2871 Rain 12 993 81 10000 6.2 170 15:20 05.06.2020
2872 Rain 12 993 81 10000 4.6 190 14:58 05.06.2020
2873 Rain 12 993 81 10000 4.6 190 14:39 05.06.2020
2874 Rain 12 993 81 10000 4.6 190 14:39 05.06.2020
2875 Rain 12 994 81 10000 4.6 180 14:21 05.06.2020
2876 Rain 12 994 81 10000 5.7 180 13:47 05.06.2020
2877 Rain 13 995 76 10000 7.2 190 13:28 05.06.2020
2878 Clouds 13 995 71 10000 5.7 190 12:57 05.06.2020
2879 Clouds 14 995 76 10000 6.2 160 12:39 05.06.2020
2880 Clouds 13 995 76 10000 6.2 160 12:19 05.06.2020
2881 Clouds 13 996 81 10000 5.7 170 11:43 05.06.2020
2882 Rain 12 996 81 10000 5.1 170 11:24 05.06.2020
2883 Rain 12 996 81 10000 5.7 170 10:59 05.06.2020
2884 Rain 12 996 81 10000 5.7 170 10:41 05.06.2020
2885 Clouds 12 997 87 10000 5.1 160 10:20 05.06.2020
2886 Clouds 12 997 87 10000 4.1 160 09:57 05.06.2020
2887 Clouds 11 997 87 10000 4.1 160 09:39 05.06.2020
2888 Rain 11 997 87 10000 2.6 160 09:20 05.06.2020
2889 Rain 10 998 87 10000 2.6 160 08:58 05.06.2020
2890 Rain 10 998 87 10000 2.6 160 08:40 05.06.2020
2891 Clouds 11 998 87 10000 2.6 180 08:18 05.06.2020
2892 Clouds 10 998 87 10000 2.6 170 07:52 05.06.2020
2893 Clouds 10 998 93 10000 2.6 190 07:32 05.06.2020
2894 Clouds 9 998 93 10000 1.5 180 06:50 05.06.2020
2895 Clouds 9 998 93 10000 3.1 260 05:23 05.06.2020
2896 Clouds 9 998 87 10000 3.6 260 04:28 05.06.2020
2897 Clouds 9 998 93 10000 1.5 320 03:32 05.06.2020
2898 Rain 10 998 93 10000 3.1 270 02:30 05.06.2020
2899 Rain 10 998 93 10000 2.1 320 01:59 05.06.2020
2900 Drizzle 10 998 100 10000 5.7 320 01:33 05.06.2020
2901 Rain 10 998 93 8000 5.1 310 00:55 05.06.2020
2902 Rain 10 998 93 8000 5.1 310 00:36 05.06.2020
2903 Clouds 11 998 87 10000 5.7 290 00:18 05.06.2020
2904 Rain 11 998 93 10000 6.2 260 23:42 04.06.2020
2905 Rain 12 998 93 8000 4.6 260 23:24 04.06.2020
2906 Rain 12 997 87 10000 4.1 280 22:42 04.06.2020
2907 Clouds 12 997 87 10000 4.1 270 22:22 04.06.2020
2908 Rain 12 997 87 10000 4.6 270 21:58 04.06.2020
2909 Rain 12 997 87 10000 4.6 270 21:39 04.06.2020
2910 Rain 12 997 87 10000 5.1 290 21:21 04.06.2020
2911 Rain 12 997 93 10000 3.6 300 20:57 04.06.2020
2912 Rain 12 997 93 10000 3.6 300 20:39 04.06.2020
2913 Rain 12 997 87 10000 6.2 320 20:20 04.06.2020
2914 Rain 13 996 87 10000 4.6 280 19:55 04.06.2020
2915 Rain 13 996 87 10000 4.1 280 19:37 04.06.2020
2916 Rain 13 996 87 10000 4.1 280 19:19 04.06.2020
2917 Clouds 13 996 87 10000 7.2 290 18:40 04.06.2020
2918 Clouds 13 996 87 10000 7.2 290 18:21 04.06.2020
2919 Clouds 13 996 82 10000 5.1 320 17:59 04.06.2020
2920 Clouds 13 996 82 10000 5.1 320 17:41 04.06.2020
2921 Clouds 14 996 82 10000 5.1 320 17:20 04.06.2020
2922 Clouds 14 996 82 10000 6.7 300 16:41 04.06.2020
2923 Rain 14 996 87 10000 7.2 300 16:21 04.06.2020
2924 Rain 14 996 87 10000 7.2 300 16:21 04.06.2020
2925 Rain 14 996 87 10000 4.6 310 15:55 04.06.2020
2926 Clouds 14 996 82 10000 4.6 310 15:37 04.06.2020
2927 Clouds 15 996 82 10000 4.6 310 15:19 04.06.2020
2928 Rain 15 996 93 10000 4.1 300 14:38 04.06.2020
2929 Rain 15 996 93 10000 4.1 300 14:19 04.06.2020
2930 Clouds 15 996 87 10000 4.1 300 13:56 04.06.2020
2931 Clouds 14 996 87 10000 4.1 300 13:37 04.06.2020
2932 Clouds 15 996 82 10000 4.6 290 13:18 04.06.2020
2933 Clouds 15 996 87 10000 5.7 290 12:42 04.06.2020
2934 Clouds 15 996 82 10000 5.7 290 12:23 04.06.2020
2935 Clouds 15 996 87 10000 4.1 290 12:00 04.06.2020
2936 Clouds 15 996 82 10000 3.6 290 11:39 04.06.2020
2937 Clouds 15 996 82 10000 3.6 290 11:20 04.06.2020
2938 Clouds 15 996 87 10000 3.1 290 10:58 04.06.2020
2939 Clouds 15 996 93 8000 2.6 320 10:38 04.06.2020
2940 Clouds 15 996 93 8000 2.6 320 10:20 04.06.2020
2941 Rain 15 996 93 8000 4.1 300 09:46 04.06.2020
2942 Rain 15 997 93 7000 3.1 260 09:28 04.06.2020
2943 Rain 15 997 93 7000 1.5 320 08:51 04.06.2020
2944 Rain 15 997 93 7000 1 0 08:31 04.06.2020
2945 Rain 15 997 100 7000 1 150 07:59 04.06.2020
2946 Rain 15 997 93 7000 1 40 07:31 04.06.2020
2947 Rain 15 997 93 8000 1.5 210 06:45 04.06.2020
2948 Rain 15 997 93 7000 0.5 0 06:45 04.06.2020
2949 Rain 15 997 93 8000 1.5 210 06:26 04.06.2020
2950 Rain 15 998 93 9000 1 0 05:51 04.06.2020
2951 Rain 15 998 93 10000 2.1 130 05:31 04.06.2020
2952 Rain 15 998 93 10000 2.1 130 05:31 04.06.2020
2953 Rain 16 1000 82 10000 2.6 220 03:34 04.06.2020
2954 Clouds 17 1000 55 10000 5.1 260 02:19 04.06.2020
2955 Clouds 18 1000 59 10000 2.6 330 01:21 04.06.2020
2956 Clouds 18 1000 59 10000 3.6 330 00:59 04.06.2020
2957 Clouds 18 1000 59 10000 2.6 350 00:18 04.06.2020
2958 Clouds 19 1000 59 10000 1.5 50 23:37 03.06.2020
2959 Clouds 19 1000 59 10000 1.5 50 23:19 03.06.2020
2960 Clouds 19 1000 59 10000 1.5 50 23:19 03.06.2020
2961 Clouds 20 1001 59 10000 0.5 0 22:54 03.06.2020
2962 Clouds 21 1001 59 10000 0.5 0 22:36 03.06.2020
2963 Clouds 21 1001 55 10000 1 0 22:18 03.06.2020
2964 Clouds 22 1001 49 10000 2.6 330 21:55 03.06.2020
2965 Clouds 22 1001 49 10000 2.6 330 21:36 03.06.2020
2966 Clouds 22 1001 46 10000 3.1 330 21:18 03.06.2020
2967 Clouds 24 1001 38 10000 2.1 260 20:41 03.06.2020
2968 Clouds 24 1001 40 10000 3.6 300 20:21 03.06.2020
2969 Clouds 24 1001 36 10000 3.1 300 19:57 03.06.2020
2970 Clouds 25 1001 33 10000 3.6 270 19:39 03.06.2020
2971 Clouds 25 1001 33 10000 3.6 270 19:20 03.06.2020
2972 Clouds 25 1001 33 10000 4.1 280 18:58 03.06.2020
2973 Clouds 25 1001 33 10000 4.1 280 18:39 03.06.2020
2974 Clouds 25 1002 36 10000 4.1 270 18:19 03.06.2020
2975 Clouds 25 1002 36 10000 4.1 0 17:45 03.06.2020
2976 Clouds 24 1002 38 10000 3.6 300 17:23 03.06.2020
2977 Clouds 24 1003 38 10000 3.1 310 16:58 03.06.2020
2978 Clouds 24 1003 38 10000 3.1 310 16:39 03.06.2020
2979 Rain 24 1003 38 10000 2.6 270 16:19 03.06.2020
2980 Clouds 24 1004 38 10000 2.6 330 15:55 03.06.2020
2981 Clouds 24 1004 38 10000 2.6 330 15:37 03.06.2020
2982 Clouds 24 1004 40 10000 3.6 290 15:18 03.06.2020
2983 Clouds 24 1004 32 10000 4.6 280 14:42 03.06.2020
2984 Clouds 24 1004 36 10000 2.1 0 14:23 03.06.2020
2985 Clouds 24 1005 36 10000 3.6 300 13:40 03.06.2020
2986 Clouds 24 1005 38 10000 3.1 310 13:40 03.06.2020
2987 Clouds 24 1005 38 10000 3.1 310 13:21 03.06.2020
2988 Clouds 24 1005 33 10000 3.6 300 12:57 03.06.2020
2989 Clouds 23 1005 33 10000 3.6 300 12:39 03.06.2020
2990 Clouds 23 1006 36 10000 4.1 310 12:19 03.06.2020
2991 Clouds 22 1006 38 10000 4.1 310 11:44 03.06.2020
2992 Clouds 22 1006 40 10000 3.1 320 11:25 03.06.2020
2993 Clouds 21 1006 43 10000 2.6 0 10:44 03.06.2020
2994 Clouds 21 1007 46 10000 2.1 0 10:25 03.06.2020
2995 Clouds 20 1007 49 10000 2.1 290 09:58 03.06.2020
2996 Clouds 19 1007 55 10000 2.6 340 09:37 03.06.2020
2997 Clouds 19 1007 55 10000 2.6 340 09:18 03.06.2020
2998 Clouds 18 1007 55 10000 1 0 08:47 03.06.2020
2999 Clouds 17 1007 59 10000 1 0 08:22 03.06.2020
3000 Clouds 17 1008 72 10000 1 60 07:57 03.06.2020
3001 Clouds 17 1008 67 10000 2.21 275 07:36 03.06.2020
3002 Clouds 16 1008 76 10000 1 0 07:18 03.06.2020
3003 Clouds 16 1008 76 10000 1 0 06:44 03.06.2020
3004 Rain 16 1008 71 10000 0.5 80 06:22 03.06.2020
3005 Rain 16 1008 71 10000 0.5 0 05:44 03.06.2020
3006 Rain 17 1009 72 10000 0.5 160 04:26 03.06.2020
3007 Rain 17 1009 67 10000 2.12 267 03:42 03.06.2020
3008 Rain 18 1010 63 10000 1 0 02:39 03.06.2020
3009 Rain 18 1010 67 10000 1 0 01:46 03.06.2020
3010 Clouds 21 1011 59 10000 1.5 320 00:39 03.06.2020
3011 Clouds 21 1011 59 10000 1.5 320 00:21 03.06.2020
3012 Clouds 21 1011 48 10000 2.6 60 23:46 02.06.2020
3013 Clouds 21 1011 42 10000 0.5 0 23:27 02.06.2020
3014 Clouds 23 1011 43 10000 0.5 0 22:55 02.06.2020
3015 Clouds 23 1011 43 10000 0.5 0 22:36 02.06.2020
3016 Clouds 24 1011 46 10000 1 0 22:18 02.06.2020
3017 Clouds 24 1011 52 10000 1.5 0 21:54 02.06.2020
3018 Clouds 26 1011 46 10000 0.5 0 21:36 02.06.2020
3019 Clouds 26 1011 46 10000 0.5 0 21:18 02.06.2020
3020 Clouds 27 1011 34 10000 1 110 20:42 02.06.2020
3021 Clouds 28 1012 26 10000 1 0 20:23 02.06.2020
3022 Clouds 28 1012 26 10000 1 0 20:23 02.06.2020
3023 Clouds 28 1012 24 10000 1.5 90 19:59 02.06.2020
3024 Clouds 29 1012 26 10000 1.5 80 19:40 02.06.2020
3025 Clouds 29 1012 26 10000 1.5 80 19:22 02.06.2020
3026 Clouds 29 1012 24 10000 2.1 50 18:55 02.06.2020
3027 Clouds 29 1013 24 10000 2.1 80 18:37 02.06.2020
3028 Clouds 29 1013 24 10000 2.1 80 18:19 02.06.2020
3029 Clouds 30 1013 23 10000 1.5 0 17:42 02.06.2020
3030 Clouds 30 1014 23 10000 3.1 250 17:23 02.06.2020
3031 Clouds 30 1014 23 10000 3.1 250 17:23 02.06.2020
3032 Clouds 30 1014 21 10000 1.5 0 16:57 02.06.2020
3033 Clouds 30 1014 20 10000 3.1 100 16:38 02.06.2020
3034 Clouds 30 1014 20 10000 3.1 100 16:20 02.06.2020
3035 Clouds 29 1015 24 10000 3.6 170 15:54 02.06.2020
3036 Clouds 29 1015 25 10000 2.1 0 15:36 02.06.2020
3037 Clouds 29 1015 25 10000 2.1 0 15:18 02.06.2020
3038 Clouds 28 1015 26 10000 3.1 0 14:42 02.06.2020
3039 Clouds 28 1016 30 10000 4.1 170 14:22 02.06.2020
3040 Clouds 27 1016 28 10000 4.1 170 13:54 02.06.2020
3041 Clouds 27 1017 30 10000 2.6 0 13:36 02.06.2020
3042 Clouds 27 1017 30 10000 2.6 0 13:18 02.06.2020
3043 Clouds 27 1017 29 10000 1.5 0 12:40 02.06.2020
3044 Clouds 25 1017 31 10000 3.1 120 12:21 02.06.2020
3045 Clouds 25 1018 31 10000 1.5 0 11:59 02.06.2020
3046 Clouds 25 1018 31 10000 1.5 0 11:39 02.06.2020
3047 Clouds 24 1018 36 10000 3.1 160 11:20 02.06.2020
3048 Clouds 23 1018 38 10000 3.6 150 10:50 02.06.2020
3049 Clouds 23 1019 40 10000 2.1 0 10:28 02.06.2020
3050 Clouds 22 1019 43 10000 2.6 100 09:59 02.06.2020
3051 Clouds 22 1019 43 10000 2.6 100 09:40 02.06.2020
3052 Clouds 17 1019 49 10000 2.6 110 09:20 02.06.2020
3053 Clouds 18 1019 48 10000 2.1 110 08:53 02.06.2020
3054 Clouds 18 1019 52 10000 2.6 90 08:27 02.06.2020
3055 Clouds 17 1019 55 10000 1 0 07:54 02.06.2020
3056 Clouds 16 1019 62 10000 1 0 07:31 02.06.2020
3057 Clouds 14 1019 71 10000 2.1 80 06:51 02.06.2020
3058 Clouds 14 1019 81 10000 0.5 120 06:31 02.06.2020
3059 Clouds 14 1019 81 10000 1 0 05:28 02.06.2020
3060 Clouds 15 1019 71 10000 0.5 0 03:53 02.06.2020
3061 Clouds 16 1019 51 10000 2.6 90 02:30 02.06.2020
3062 Clouds 17 1020 51 10000 1.5 100 01:43 02.06.2020
3063 Clouds 19 1019 45 10000 3.1 80 00:40 02.06.2020
3064 Clouds 19 1019 45 10000 3.1 80 00:20 02.06.2020
3065 Clouds 20 1019 42 10000 2.6 80 23:39 01.06.2020
3066 Clouds 20 1019 40 10000 2.6 80 23:19 01.06.2020
3067 Clouds 21 1019 40 10000 2.6 90 22:56 01.06.2020
3068 Clouds 22 1019 40 10000 2.6 90 22:38 01.06.2020
3069 Clouds 22 1019 37 10000 2.6 100 22:18 01.06.2020
3070 Clouds 23 1019 35 10000 2.1 100 21:42 01.06.2020
3071 Clouds 24 1018 31 10000 2.6 130 21:21 01.06.2020
3072 Clouds 25 1018 31 10000 2.6 120 20:59 01.06.2020
3073 Clouds 25 1018 31 10000 2.6 120 20:41 01.06.2020
3074 Clear 26 1018 23 10000 2.1 0 20:20 01.06.2020
3075 Clear 27 1018 23 10000 2.1 0 19:58 01.06.2020
3076 Clear 27 1018 24 10000 2.1 70 19:39 01.06.2020
3077 Clear 27 1018 24 10000 2.1 70 19:20 01.06.2020
3078 Clear 27 1018 26 10000 3.1 190 18:57 01.06.2020
3079 Clear 28 1019 26 10000 3.1 170 18:38 01.06.2020
3080 Clear 28 1019 26 10000 3.1 170 18:19 01.06.2020
3081 Clear 28 1019 24 10000 3.6 150 17:42 01.06.2020
3082 Clear 28 1019 26 10000 1.5 0 17:22 01.06.2020
3083 -273 0 0 0 0 0 16:58 01.06.2020
3084 Clear 28 1019 26 10000 2.6 80 16:39 01.06.2020
3085 Clear 28 1020 26 10000 2.1 0 16:19 01.06.2020
3086 Clear 28 1020 26 10000 2.1 0 15:55 01.06.2020
3087 Clear 27 1020 24 10000 1.5 0 15:36 01.06.2020
3088 Clear 27 1020 24 10000 1.5 0 15:18 01.06.2020
3089 Clear 26 1020 26 10000 3.1 0 14:55 01.06.2020
3090 Clear 26 1020 26 10000 3.1 0 14:36 01.06.2020
3091 Clouds 26 1020 27 10000 3.6 0 14:18 01.06.2020
3092 Clouds 25 1021 29 10000 4.1 40 13:41 01.06.2020
3093 Clouds 25 1021 29 10000 4.1 40 13:21 01.06.2020
3094 Clouds 25 1021 31 10000 3.1 50 12:58 01.06.2020
3095 Clouds 24 1021 33 10000 3.1 50 12:40 01.06.2020
3096 Clear 24 1021 33 10000 3.1 50 12:21 01.06.2020
3097 Clear 23 1022 35 10000 3.1 0 11:56 01.06.2020
3098 Clear 23 1022 37 10000 3.6 90 11:36 01.06.2020
3099 Clear 23 1022 37 10000 3.6 90 11:18 01.06.2020
3100 Clear 22 1022 40 10000 3.1 120 10:54 01.06.2020
3101 Clear 21 1022 45 10000 2.6 110 10:36 01.06.2020
3102 Clear 21 1022 45 10000 2.6 110 10:18 01.06.2020
3103 Clear 19 1022 48 10000 3.6 70 09:43 01.06.2020
3104 Clear 19 1022 48 10000 3.6 70 09:24 01.06.2020
3105 Clear 18 1022 52 10000 2.6 70 08:54 01.06.2020
3106 Clouds 17 1022 62 10000 0.5 0 08:31 01.06.2020
3107 Clouds 15 1022 66 10000 0.5 0 07:58 01.06.2020
3108 Clouds 14 1022 76 10000 0.5 0 07:39 01.06.2020
3109 Clouds 13 1022 76 10000 0.5 0 07:21 01.06.2020
3110 Clouds 12 1022 87 10000 0.5 0 06:49 01.06.2020
3111 Clouds 12 1022 87 10000 0.5 0 05:56 01.06.2020
3112 Clouds 12 1022 76 10000 0.5 0 04:56 01.06.2020
3113 Clouds 13 1022 71 10000 0.5 0 03:56 01.06.2020
3114 Clouds 13 1022 71 10000 0.5 0 03:37 01.06.2020
3115 Clouds 13 1022 76 10000 1 0 02:42 01.06.2020
3116 Clouds 15 1022 54 10000 2.1 70 01:40 01.06.2020
3117 Clouds 15 1022 54 10000 2.6 80 01:18 01.06.2020
3118 Clouds 16 1022 58 10000 2.1 80 00:46 01.06.2020
3119 Clouds 16 1022 58 10000 2.1 80 00:21 01.06.2020
3120 Clouds 17 1022 48 10000 2.1 80 23:59 31.05.2020
3121 Clouds 17 1022 48 10000 2.1 80 23:59 31.05.2020
3122 Clouds 18 1022 45 10000 3.1 80 23:40 31.05.2020
3123 Clouds 18 1022 45 10000 3.1 80 23:22 31.05.2020
3124 Clouds 18 1022 51 10000 2.1 70 22:58 31.05.2020
3125 Clouds 19 1021 48 10000 1.5 70 22:40 31.05.2020
3126 Clouds 19 1021 39 10000 1.5 90 22:22 31.05.2020
3127 Clouds 20 1021 39 10000 1.5 90 21:57 31.05.2020
3128 Clouds 20 1021 37 10000 2.6 90 21:38 31.05.2020
3129 Clouds 20 1021 37 10000 2.6 90 21:20 31.05.2020
3130 Clouds 21 1020 33 10000 3.6 80 20:44 31.05.2020
3131 Clouds 22 1020 33 10000 3.1 90 20:25 31.05.2020
3132 Clouds 22 1020 33 10000 3.1 90 19:56 31.05.2020
3133 Clouds 23 1020 31 10000 4.6 60 19:38 31.05.2020
3134 Clouds 23 1020 31 10000 4.1 60 19:20 31.05.2020
3135 Clouds 23 1020 31 10000 4.1 60 18:45 31.05.2020
3136 Clouds 23 1020 31 10000 3.6 100 18:25 31.05.2020
3137 Clouds 23 1020 30 10000 3.1 110 17:59 31.05.2020
3138 Clouds 23 1020 28 10000 4.1 100 17:40 31.05.2020
3139 Clouds 23 1020 30 10000 4.6 100 17:21 31.05.2020
3140 Clouds 23 1020 30 10000 3.6 0 16:41 31.05.2020
3141 Clouds 22 1020 30 10000 3.6 0 16:22 31.05.2020
3142 Clouds 23 1020 28 10000 3.1 0 15:56 31.05.2020
3143 Clouds 23 1021 27 10000 2.6 0 15:37 31.05.2020
3144 Clouds 22 1021 26 10000 4.1 60 15:19 31.05.2020
3145 Clouds 22 1021 26 10000 3.6 100 14:42 31.05.2020
3146 Clouds 22 1021 26 10000 3.6 100 14:19 31.05.2020
3147 Clouds 21 1021 32 10000 4.1 60 13:56 31.05.2020
3148 Clouds 21 1021 32 10000 3.6 50 13:37 31.05.2020
3149 Clouds 20 1022 32 10000 4.1 50 13:19 31.05.2020
3150 Clouds 20 1022 34 10000 3.6 0 12:54 31.05.2020
3151 Clouds 19 1022 34 10000 3.6 0 12:36 31.05.2020
3152 Clouds 19 1022 34 10000 3.6 0 12:18 31.05.2020
3153 Clouds 19 1022 36 10000 3.6 60 11:42 31.05.2020
3154 Clouds 18 1022 36 10000 3.6 60 11:21 31.05.2020
3155 Clouds 17 1022 39 10000 3.6 60 10:46 31.05.2020
3156 Clouds 17 1022 39 10000 3.6 60 10:28 31.05.2020
3157 Clouds 16 1022 44 10000 4.1 60 09:59 31.05.2020
3158 Clouds 15 1022 54 10000 0.5 0 09:41 31.05.2020
3159 Clouds 15 1022 54 10000 0.5 0 09:21 31.05.2020
3160 Clouds 14 1022 58 10000 0.5 0 08:56 31.05.2020
3161 Clouds 14 1022 71 10000 1 0 08:36 31.05.2020
3162 Clouds 13 1022 71 10000 1 0 08:18 31.05.2020
3163 Clouds 12 1022 81 10000 0.5 0 07:39 31.05.2020
3164 Clouds 11 1022 75 10000 1 180 07:18 31.05.2020
3165 Clouds 11 1022 75 10000 0.5 0 06:49 31.05.2020
3166 Clouds 11 1022 75 10000 0.5 0 06:31 31.05.2020
3167 Clouds 11 1022 62 10000 2.6 80 05:41 31.05.2020
3168 Clouds 12 1022 62 10000 3.1 60 04:25 31.05.2020
3169 Clouds 12 1022 66 10000 3.6 60 03:48 31.05.2020
3170 Clouds 12 1022 66 10000 4.1 60 02:59 31.05.2020
3171 Clouds 13 1022 62 10000 3.6 60 01:48 31.05.2020
3172 Clouds 14 1022 58 10000 2.1 80 01:19 31.05.2020
3173 Clouds 15 1022 50 10000 2.6 80 00:30 31.05.2020
3174 Clouds 16 1022 50 10000 2.6 80 23:56 30.05.2020
3175 Clouds 17 1022 47 10000 2.6 90 23:38 30.05.2020
3176 Clouds 17 1022 47 10000 2.6 90 23:38 30.05.2020
3177 Clouds 17 1022 47 10000 2.6 90 23:19 30.05.2020
3178 Clouds 18 1022 36 10000 2.6 70 22:41 30.05.2020
3179 Clouds 18 1022 36 10000 2.6 70 22:23 30.05.2020
3180 Clouds 19 1021 34 10000 3.6 60 21:56 30.05.2020
3181 Clear 20 1021 34 10000 4.1 60 21:37 30.05.2020
3182 Clouds 20 1021 34 10000 4.1 60 21:19 30.05.2020
3183 Clouds 21 1021 30 10000 5.1 70 20:56 30.05.2020
3184 Clouds 21 1021 30 10000 4.1 80 20:38 30.05.2020
3185 Clouds 22 1021 30 10000 4.1 80 20:20 30.05.2020
3186 Clouds 22 1021 28 10000 5.1 80 19:42 30.05.2020
3187 Clouds 22 1021 28 10000 5.1 80 19:22 30.05.2020
3188 Clouds 22 1021 30 10000 4.6 70 18:46 30.05.2020
3189 Clouds 22 1021 30 10000 4.6 70 18:25 30.05.2020
3190 Clouds 23 1021 28 10000 4.6 60 17:56 30.05.2020
3191 Clouds 23 1021 27 10000 4.6 70 17:37 30.05.2020
3192 Clouds 23 1021 23 10000 4.6 60 17:19 30.05.2020
3193 Clouds 24 1021 23 10000 4.1 70 16:43 30.05.2020
3194 Clear 24 1021 23 10000 4.1 70 16:23 30.05.2020
3195 Clear 24 1021 23 10000 2.6 90 15:56 30.05.2020
3196 Clear 23 1022 28 10000 4.6 50 15:38 30.05.2020
3197 Clear 24 1022 28 10000 4.6 50 15:19 30.05.2020
3198 Clear 23 1022 32 10000 4.1 70 14:42 30.05.2020
3199 Clear 23 1022 28 10000 4.6 50 14:21 30.05.2020
3200 Clear 22 1023 32 10000 3.1 0 13:42 30.05.2020
3201 Clear 22 1023 32 10000 3.1 0 13:20 30.05.2020
3202 Clear 22 1023 32 10000 3.6 60 12:40 30.05.2020
3203 Clear 21 1024 32 10000 4.1 130 12:20 30.05.2020
3204 Clear 22 1024 32 10000 4.1 130 11:56 30.05.2020
3205 Clear 21 1024 32 10000 3.6 90 11:38 30.05.2020
3206 Clear 21 1024 32 10000 3.6 90 11:20 30.05.2020
3207 Clear 20 1024 34 10000 3.6 110 10:39 30.05.2020
3208 Clear 20 1024 39 10000 3.6 80 10:21 30.05.2020
3209 Clear 18 1024 39 10000 2.6 90 09:48 30.05.2020
3210 Clear 16 1024 39 10000 2.6 90 09:30 30.05.2020
3211 Clear 16 1024 39 10000 2.6 90 09:30 30.05.2020
3212 Clear 16 1024 51 10000 2.1 80 08:51 30.05.2020
3213 Clear 16 1024 51 10000 2.1 80 08:32 30.05.2020
3214 Clear 13 1024 66 10000 0.5 0 07:45 30.05.2020
3215 Clear 13 1024 66 10000 0.5 0 07:23 30.05.2020
3216 Clear 11 1024 75 10000 0.5 0 06:50 30.05.2020
3217 Clear 11 1024 70 10000 0.5 0 06:23 30.05.2020
3218 Clear 11 1024 70 10000 0.5 0 05:49 30.05.2020
3219 Clear 13 1024 54 10000 3.6 80 03:39 30.05.2020
3220 Clear 14 1024 54 10000 2.6 80 02:30 30.05.2020
3221 Clear 15 1024 47 10000 3.1 80 01:49 30.05.2020
3222 Clear 15 1024 41 10000 3.1 80 00:38 30.05.2020
3223 Clear 16 1024 41 10000 3.1 80 00:19 30.05.2020
3224 Clear 16 1024 41 10000 3.1 80 23:57 29.05.2020
3225 Clear 17 1024 38 10000 2.6 70 23:38 29.05.2020
3226 Clear 18 1023 39 10000 3.1 70 23:18 29.05.2020
3227 Clear 18 1023 34 10000 3.1 80 22:41 29.05.2020
3228 Clear 19 1023 34 10000 3.1 80 22:20 29.05.2020
3229 Clear 19 1023 32 10000 3.1 50 21:59 29.05.2020
3230 Clouds 21 1023 28 10000 4.1 40 21:39 29.05.2020
3231 Clouds 21 1023 24 10000 4.6 30 21:20 29.05.2020
3232 Clouds 22 1023 25 10000 4.6 40 20:54 29.05.2020
3233 Clear 22 1023 25 10000 4.6 40 20:36 29.05.2020
3234 Clear 22 1023 25 10000 4.6 40 20:18 29.05.2020
3235 Clear 23 1023 28 10000 4.1 40 19:42 29.05.2020
3236 Clear 23 1023 28 10000 4.1 40 19:23 29.05.2020
3237 Clear 23 1023 27 10000 3.6 60 18:47 29.05.2020
3238 Clear 23 1023 33 10000 3.1 40 18:21 29.05.2020
3239 Clear 23 1024 27 10000 2.6 0 17:57 29.05.2020
3240 Clear 23 1024 27 10000 3.6 0 17:38 29.05.2020
3241 Clear 23 1024 27 10000 3.6 0 17:20 29.05.2020
3242 Clear 23 1024 25 10000 2.1 0 16:46 29.05.2020
3243 Clear 23 1025 25 10000 2.6 0 16:28 29.05.2020
3244 Clear 23 1025 28 10000 2.6 70 15:58 29.05.2020
3245 Clear 23 1025 27 10000 3.1 0 15:40 29.05.2020
3246 Clear 23 1026 28 10000 3.1 0 15:20 29.05.2020
3247 Clear 22 1026 28 10000 3.1 0 14:54 29.05.2020
3248 Clear 22 1026 30 10000 2.6 50 14:36 29.05.2020
3249 Clear 22 1027 26 10000 2.1 0 14:18 29.05.2020
3250 Clear 22 1027 30 10000 4.6 60 13:41 29.05.2020
3251 Clear 22 1027 30 10000 4.6 60 13:21 29.05.2020
3252 Clear 21 1027 32 10000 2.6 120 12:55 29.05.2020
3253 Clear 21 1028 32 10000 4.1 50 12:37 29.05.2020
3254 Clear 20 1028 34 10000 2.6 20 12:18 29.05.2020
3255 Clear 19 1028 39 10000 2.1 0 11:42 29.05.2020
3256 Clear 20 1028 39 10000 2.1 0 11:42 29.05.2020
3257 Clear 19 1028 39 10000 2.1 0 11:24 29.05.2020
3258 Clouds 19 1028 45 10000 1.5 0 10:46 29.05.2020
3259 Clouds 18 1028 45 10000 1.5 0 10:24 29.05.2020
3260 Clear 17 1029 51 10000 0.5 0 09:58 29.05.2020
3261 Clear 16 1029 54 10000 1 0 09:40 29.05.2020
3262 Clear 15 1029 54 10000 1 0 09:19 29.05.2020
3263 Clear 14 1029 62 10000 1 0 08:47 29.05.2020
3264 Clear 13 1029 76 10000 1.5 150 08:24 29.05.2020
3265 Clear 12 1029 81 10000 2.1 150 07:48 29.05.2020
3266 Clear 11 1029 81 10000 2.1 150 07:30 29.05.2020
3267 Clear 10 1029 87 10000 1.5 150 06:58 29.05.2020
3268 Clear 10 1029 86 10000 2.1 140 06:39 29.05.2020
3269 Clear 10 1029 86 10000 2.1 140 06:21 29.05.2020
3270 Clear 10 1029 75 10000 0.5 0 05:40 29.05.2020
3271 Clear 13 1029 61 10000 2.1 60 02:18 29.05.2020
3272 Clear 13 1029 61 10000 2.1 50 01:27 29.05.2020
3273 Clear 13 1029 66 10000 2.1 50 00:53 29.05.2020
3274 Clear 14 1029 62 10000 2.1 60 00:32 29.05.2020
3275 Clear 14 1029 58 10000 1 0 23:57 28.05.2020
3276 Clear 16 1029 54 10000 3.1 40 23:39 28.05.2020
3277 Clear 15 1029 50 10000 1.5 40 23:18 28.05.2020
3278 Clear 17 1029 41 10000 2.6 30 22:42 28.05.2020
3279 Clear 17 1029 41 10000 2.6 30 22:24 28.05.2020
3280 Clear 18 1029 39 10000 3.1 20 21:56 28.05.2020
3281 Clear 18 1029 39 10000 3.1 20 21:56 28.05.2020
3282 Clear 19 1029 36 10000 4.1 20 21:38 28.05.2020
3283 Clear 19 1029 36 10000 4.1 20 21:19 28.05.2020
3284 Clear 19 1029 36 10000 4.1 20 21:19 28.05.2020
3285 Clear 20 1029 32 10000 4.6 10 20:56 28.05.2020
3286 Clear 21 1029 30 10000 5.7 20 20:37 28.05.2020
3287 Clear 21 1029 30 10000 5.7 20 20:18 28.05.2020
3288 Clear 21 1029 28 10000 5.1 20 19:43 28.05.2020
3289 Clear 22 1029 28 10000 5.1 20 19:21 28.05.2020
3290 Clear 21 1029 28 10000 5.7 20 18:58 28.05.2020
3291 Clear 22 1029 28 10000 6.7 20 18:40 28.05.2020
3292 Clear 22 1030 24 10000 4.6 40 18:22 28.05.2020
3293 Clear 22 1030 28 10000 6.2 20 17:43 28.05.2020
3294 Clear 22 1030 28 10000 6.2 20 17:22 28.05.2020
3295 Clear 22 1030 28 10000 6.2 20 17:22 28.05.2020
3296 Clear 21 1030 28 10000 5.7 360 16:58 28.05.2020
3297 Clear 21 1030 26 10000 5.7 20 16:38 28.05.2020
3298 Clear 21 1030 26 10000 5.7 20 16:20 28.05.2020
3299 Clear 21 1031 28 10000 4.6 40 15:42 28.05.2020
3300 Clear 21 1031 28 10000 4.6 40 15:24 28.05.2020
3301 Clear 21 1031 30 10000 4.6 10 14:57 28.05.2020
3302 Clear 20 1031 30 10000 5.1 20 14:38 28.05.2020
3303 Clear 20 1032 32 10000 5.1 20 14:20 28.05.2020
3304 Clear 20 1032 34 10000 4.6 50 13:42 28.05.2020
3305 Clear 19 1032 34 10000 4.6 50 13:24 28.05.2020
3306 Clear 19 1032 32 10000 5.7 40 12:42 28.05.2020
3307 Clear 18 1032 39 10000 5.1 10 12:19 28.05.2020
3308 Clear 18 1033 42 10000 4.1 20 11:44 28.05.2020
3309 Clear 18 1033 42 10000 4.1 20 11:26 28.05.2020
3310 Clear 18 1033 42 10000 4.1 20 11:26 28.05.2020
3311 Clear 17 1033 45 10000 2.1 0 10:58 28.05.2020
3312 Clouds 17 1033 48 10000 3.1 360 10:40 28.05.2020
3313 Clouds 16 1033 48 10000 3.1 360 10:22 28.05.2020
3314 Clouds 15 1033 62 10000 2.1 50 09:40 28.05.2020
3315 Clouds 14 1033 66 10000 2.1 360 09:22 28.05.2020
3316 Clouds 13 1033 71 10000 4.1 20 08:52 28.05.2020
3317 Clouds 13 1033 71 10000 4.1 20 08:32 28.05.2020
3318 Clear 13 1033 71 10000 1.5 360 07:58 28.05.2020
3319 Clouds 11 1033 76 10000 2.1 320 07:38 28.05.2020
3320 Clouds 11 1033 76 10000 2.1 320 07:20 28.05.2020
3321 Clouds 11 1033 71 10000 1.5 10 06:39 28.05.2020
3322 Clouds 11 1033 71 10000 1.5 360 06:21 28.05.2020
3323 Clouds 11 1032 66 10000 2.6 10 05:38 28.05.2020
3324 Clouds 12 1032 54 10000 4.1 20 04:35 28.05.2020
3325 Clouds 13 1032 54 10000 4.6 30 03:52 28.05.2020
3326 Clouds 15 1032 62 10000 3.1 360 02:52 28.05.2020
3327 Clouds 16 1032 63 10000 5.1 30 01:57 28.05.2020
3328 Clouds 16 1032 67 10000 3.6 20 01:35 28.05.2020
3329 Clouds 17 1031 59 10000 5.1 360 00:47 28.05.2020
3330 Clouds 17 1031 59 10000 5.1 360 00:19 28.05.2020
3331 Clouds 18 1031 59 10000 3.6 360 23:56 27.05.2020
3332 Clouds 18 1031 59 10000 3.1 350 23:37 27.05.2020
3333 Clouds 18 1031 55 10000 3.1 340 23:19 27.05.2020
3334 Clouds 19 1031 55 10000 3.6 340 22:41 27.05.2020
3335 Clouds 19 1031 55 10000 3.6 340 22:23 27.05.2020
3336 Clouds 20 1030 52 10000 2.1 340 21:56 27.05.2020
3337 Clouds 20 1030 49 10000 2.6 350 21:38 27.05.2020
3338 Clouds 21 1030 46 10000 3.6 330 21:20 27.05.2020
3339 Clouds 22 1030 46 10000 3.6 330 20:58 27.05.2020
3340 Clouds 22 1030 43 10000 3.6 350 20:39 27.05.2020
3341 Clouds 23 1030 38 10000 5.7 310 20:19 27.05.2020
3342 Clouds 23 1030 43 10000 5.1 320 19:46 27.05.2020
3343 Clouds 23 1030 36 10000 5.7 330 19:21 27.05.2020
3344 Clouds 24 1030 36 10000 5.7 330 18:56 27.05.2020
3345 Clouds 24 1031 35 10000 3.6 350 18:37 27.05.2020
3346 Clouds 23 1031 33 10000 4.1 350 18:18 27.05.2020
3347 Clouds 24 1031 29 10000 2.1 0 17:42 27.05.2020
3348 Clouds 25 1031 31 10000 3.6 0 17:24 27.05.2020
3349 Clouds 24 1031 31 10000 3.6 0 16:57 27.05.2020
3350 Clouds 24 1031 29 10000 3.1 300 16:38 27.05.2020
3351 Clouds 25 1031 29 10000 3.1 300 16:20 27.05.2020
3352 Clouds 24 1032 27 10000 2.1 0 15:49 27.05.2020
3353 Clouds 24 1032 27 10000 2.1 0 15:23 27.05.2020
3354 Clouds 24 1032 29 10000 2.6 170 14:58 27.05.2020
3355 Clouds 24 1032 31 10000 2.1 360 14:39 27.05.2020
3356 Clouds 24 1032 31 10000 2.1 360 14:20 27.05.2020
3357 Clouds 24 1032 33 10000 3.6 270 13:44 27.05.2020
3358 Clouds 23 1032 33 10000 3.6 270 13:25 27.05.2020
3359 Clouds 23 1033 35 10000 2.1 0 12:56 27.05.2020
3360 Clouds 22 1033 35 10000 2.6 100 12:37 27.05.2020
3361 Clouds 22 1033 37 10000 1.5 0 12:18 27.05.2020
3362 Clouds 21 1033 40 10000 2.6 180 11:39 27.05.2020
3363 Clouds 21 1033 40 10000 2.6 180 11:21 27.05.2020
3364 Clouds 20 1033 42 10000 3.6 170 10:56 27.05.2020
3365 Clouds 19 1033 48 10000 2.6 160 10:38 27.05.2020
3366 Clouds 19 1033 48 10000 2.6 160 10:19 27.05.2020
3367 Clouds 17 1034 59 10000 2.6 140 09:40 27.05.2020
3368 Clouds 16 1034 59 10000 2.6 140 09:21 27.05.2020
3369 Clouds 16 1034 58 10000 3.1 130 08:56 27.05.2020
3370 Clouds 15 1034 62 10000 2.1 130 08:36 27.05.2020
3371 Clear 15 1034 62 10000 2.1 130 08:18 27.05.2020
3372 Clear 13 1034 71 10000 0.5 0 07:49 27.05.2020
3373 Clear 12 1034 71 10000 0.5 0 07:30 27.05.2020
3374 Clear 11 1034 87 10000 1 0 06:47 27.05.2020
3375 Clear 11 1034 87 10000 1 0 06:20 27.05.2020
3376 Clear 11 1033 76 10000 1.5 50 05:49 27.05.2020
3377 Clear 12 1033 71 10000 1.5 0 04:38 27.05.2020
3378 Clear 14 1034 62 10000 3.6 80 02:32 27.05.2020
3379 Clouds 14 1034 62 10000 3.1 70 01:53 27.05.2020
3380 Clouds 15 1034 62 10000 3.1 80 01:30 27.05.2020
3381 Clouds 15 1034 62 10000 4.1 50 00:46 27.05.2020
3382 Clouds 16 1034 58 10000 3.1 50 00:20 27.05.2020
3383 Clouds 16 1034 58 10000 3.1 50 23:56 26.05.2020
3384 Clouds 17 1034 55 10000 3.1 60 23:38 26.05.2020
3385 Clouds 17 1034 55 10000 3.1 60 23:19 26.05.2020
3386 Clouds 17 1034 51 10000 2.6 40 22:41 26.05.2020
3387 Clouds 18 1034 51 10000 2.6 40 22:21 26.05.2020
3388 Clouds 19 1033 45 10000 3.6 20 21:59 26.05.2020
3389 Clear 20 1033 40 10000 4.1 20 21:40 26.05.2020
3390 Clouds 20 1033 40 10000 4.1 20 21:40 26.05.2020
3391 Clear 20 1033 40 10000 4.1 20 21:21 26.05.2020
3392 Clear 21 1033 37 10000 3.6 10 20:57 26.05.2020
3393 Clouds 21 1033 37 10000 4.1 10 20:39 26.05.2020
3394 Clouds 22 1033 37 10000 4.1 10 20:19 26.05.2020
3395 Clouds 22 1033 31 10000 4.6 350 19:40 26.05.2020
3396 Clouds 23 1033 28 10000 4.1 330 19:20 26.05.2020
3397 Clouds 23 1033 28 10000 4.1 330 18:58 26.05.2020
3398 Clouds 23 1033 27 10000 3.6 10 18:39 26.05.2020
3399 Clouds 23 1033 27 10000 3.6 10 18:20 26.05.2020
3400 Clouds 23 1033 28 10000 3.6 360 17:40 26.05.2020
3401 Clouds 23 1033 28 10000 3.6 360 17:21 26.05.2020
3402 Clouds 23 1033 28 10000 3.1 10 16:48 26.05.2020
3403 Clear 22 1034 31 10000 3.6 0 16:23 26.05.2020
3404 Clear 22 1034 31 10000 3.6 0 15:59 26.05.2020
3405 Clear 21 1034 30 10000 3.6 360 15:40 26.05.2020
3406 Clouds 21 1034 35 10000 2.6 0 15:19 26.05.2020
3407 Clouds 21 1034 35 10000 2.6 0 15:19 26.05.2020
3408 Clouds 21 1034 35 10000 2.6 0 14:55 26.05.2020
3409 Clouds 22 1034 33 10000 5.1 50 14:36 26.05.2020
3410 Clouds 21 1034 33 10000 5.1 50 14:18 26.05.2020
3411 Clouds 21 1035 42 10000 3.1 330 13:41 26.05.2020
3412 Clouds 20 1035 45 10000 2.6 0 13:22 26.05.2020
3413 Clouds 19 1035 48 10000 2.1 0 12:44 26.05.2020
3414 Clouds 19 1035 48 10000 3.6 350 12:23 26.05.2020
3415 Clouds 18 1035 48 10000 3.6 350 11:59 26.05.2020
3416 Clouds 18 1035 51 10000 3.1 340 11:41 26.05.2020
3417 Clouds 17 1035 55 10000 2.1 0 11:20 26.05.2020
3418 Clouds 16 1035 62 10000 2.1 280 10:47 26.05.2020
3419 Clouds 16 1035 62 10000 2.1 280 10:20 26.05.2020
3420 Clouds 15 1035 67 10000 1.5 0 09:59 26.05.2020
3421 Clouds 14 1035 67 10000 1 0 09:37 26.05.2020
3422 Clouds 14 1035 81 10000 1 0 09:18 26.05.2020
3423 Clouds 12 1035 81 10000 1.5 50 08:41 26.05.2020
3424 Clouds 12 1035 81 10000 1.5 50 08:22 26.05.2020
3425 Clouds 11 1035 93 10000 1 0 07:43 26.05.2020
3426 Clouds 10 1035 93 10000 1 0 07:23 26.05.2020
3427 Clouds 10 1035 100 10000 1 40 06:53 26.05.2020
3428 Clouds 10 1034 100 10000 1.5 140 06:31 26.05.2020
3429 Clouds 10 1034 93 10000 2.6 60 05:44 26.05.2020
3430 Clear 10 1034 93 10000 2.6 60 05:25 26.05.2020
3431 Clear 10 1034 87 10000 0.5 0 04:49 26.05.2020
3432 Clear 10 1034 87 10000 0.5 0 04:31 26.05.2020
3433 Clear 11 1034 93 10000 0.5 0 03:52 26.05.2020
3434 Clear 12 1034 87 10000 0.5 0 02:40 26.05.2020
3435 Clear 13 1034 81 10000 2.1 60 01:48 26.05.2020
3436 Clear 13 1034 81 10000 2.1 60 01:21 26.05.2020
3437 Clear 14 1034 76 10000 2.1 60 00:37 26.05.2020
3438 Clear 14 1034 76 10000 2.1 60 00:18 26.05.2020
3439 Clear 15 1034 76 10000 2.1 50 23:55 25.05.2020
3440 Clear 15 1034 71 10000 2.6 20 23:36 25.05.2020
3441 Clear 15 1034 71 10000 2.6 20 23:18 25.05.2020
3442 Clear 16 1034 71 10000 3.1 350 22:54 25.05.2020
3443 Clear 16 1034 71 10000 3.1 350 22:36 25.05.2020
3444 Clear 17 1033 63 10000 3.6 350 22:18 25.05.2020
3445 Clear 17 1033 59 10000 4.6 350 21:54 25.05.2020
3446 Clouds 18 1033 59 10000 4.6 350 21:36 25.05.2020
3447 Clouds 18 1033 55 10000 4.1 360 21:18 25.05.2020
3448 Clouds 19 1033 55 10000 4.1 340 20:42 25.05.2020
3449 Clouds 19 1033 52 10000 4.6 330 20:21 25.05.2020
3450 Clouds 19 1033 52 10000 4.6 330 19:59 25.05.2020
3451 -273 0 0 0 0 0 19:59 25.05.2020
3452 Clouds 20 1032 45 10000 6.2 340 19:39 25.05.2020
3453 Clouds 20 1032 49 10000 5.1 360 19:18 25.05.2020
3454 Clouds 20 1032 49 10000 5.1 360 18:54 25.05.2020
3455 Clouds 20 1032 49 10000 5.7 350 18:36 25.05.2020
3456 Clouds 20 1032 49 10000 6.7 330 18:18 25.05.2020
3457 Clouds 20 1032 52 10000 5.7 340 17:41 25.05.2020
3458 Clouds 20 1032 52 10000 5.7 340 17:23 25.05.2020
3459 Clouds 20 1033 55 10000 5.7 340 16:57 25.05.2020
3460 Clouds 20 1033 55 10000 5.7 330 16:39 25.05.2020
3461 Clouds 19 1033 55 10000 4.6 350 16:19 25.05.2020
3462 Clouds 19 1033 59 10000 4.6 350 15:44 25.05.2020
3463 Clouds 19 1033 59 10000 4.6 350 15:20 25.05.2020
3464 Clouds 18 1033 63 10000 5.1 330 14:59 25.05.2020
3465 Clouds 18 1033 63 10000 4.6 330 14:38 25.05.2020
3466 Clouds 18 1033 63 10000 4.6 320 14:20 25.05.2020
3467 Clouds 18 1033 67 10000 4.6 320 13:40 25.05.2020
3468 Clouds 18 1033 67 10000 5.1 310 13:21 25.05.2020
3469 Clouds 17 1033 67 10000 5.1 310 12:59 25.05.2020
3470 Clouds 17 1033 72 10000 3.6 320 12:39 25.05.2020
3471 Clouds 17 1033 72 10000 3.6 330 12:20 25.05.2020
3472 Clouds 17 1033 72 10000 3.6 330 11:56 25.05.2020
3473 Clouds 16 1033 77 10000 4.6 310 11:37 25.05.2020
3474 Clouds 16 1033 82 10000 4.6 310 11:18 25.05.2020
3475 Clouds 16 1033 77 10000 5.1 320 10:41 25.05.2020
3476 Clouds 16 1033 77 10000 5.1 320 10:41 25.05.2020
3477 Clouds 15 1033 77 10000 5.1 320 10:20 25.05.2020
3478 Clouds 14 1033 82 10000 5.1 300 09:56 25.05.2020
3479 Clouds 14 1033 82 10000 5.1 300 09:38 25.05.2020
3480 Clouds 14 1032 82 10000 4.6 300 09:19 25.05.2020
3481 Clouds 14 1032 87 10000 3.6 310 08:44 25.05.2020
3482 Clouds 14 1032 87 10000 3.6 310 08:24 25.05.2020
3483 Clouds 13 1032 87 10000 2.1 310 07:58 25.05.2020
3484 Clouds 13 1032 87 10000 2.1 320 07:39 25.05.2020
3485 Clouds 13 1032 87 10000 2.1 320 07:19 25.05.2020
3486 Clouds 13 1032 93 10000 2.1 310 06:41 25.05.2020
3487 Clouds 13 1032 93 10000 2.1 310 06:41 25.05.2020
3488 Clouds 13 1032 93 10000 2.1 310 06:21 25.05.2020
3489 Rain 13 1032 93 10000 2.6 310 03:40 25.05.2020
3490 Rain 13 1032 93 10000 2.6 310 03:22 25.05.2020
3491 Rain 13 1032 87 10000 3.1 320 02:44 25.05.2020
3492 Clouds 13 1031 93 10000 0.5 150 01:42 25.05.2020
3493 Clouds 13 1032 93 10000 0.5 70 00:58 25.05.2020
3494 Clouds 13 1032 93 10000 1.5 50 00:33 25.05.2020
3495 Clouds 13 1031 93 10000 2.1 250 23:59 24.05.2020
3496 Clouds 13 1032 93 10000 1.5 330 23:40 24.05.2020
3497 Clouds 13 1032 93 10000 1.5 330 23:22 24.05.2020
3498 Clouds 13 1031 93 10000 2.6 330 22:58 24.05.2020
3499 Rain 13 1031 93 10000 7.7 320 22:40 24.05.2020
3500 Rain 13 1031 93 10000 7.7 320 22:18 24.05.2020
3501 Clouds 13 1031 87 10000 2.1 330 21:55 24.05.2020
3502 Clouds 14 1031 87 10000 2.1 330 21:37 24.05.2020
3503 Clouds 15 1031 87 10000 2.1 330 21:19 24.05.2020
3504 Rain 15 1030 87 10000 5.7 320 20:43 24.05.2020
3505 Rain 15 1030 87 10000 5.7 320 20:43 24.05.2020
3506 Rain 15 1030 87 10000 5.7 320 20:22 24.05.2020
3507 Rain 15 1030 63 10000 5.7 280 19:59 24.05.2020
3508 Rain 15 1030 63 10000 5.7 280 19:59 24.05.2020
3509 Clouds 16 1030 63 10000 7.2 300 19:40 24.05.2020
3510 Clouds 17 1030 63 10000 7.2 310 19:19 24.05.2020
3511 Clouds 17 1030 63 10000 7.2 310 18:56 24.05.2020
3512 Clouds 16 1030 63 10000 8.7 300 18:37 24.05.2020
3513 Clouds 16 1029 63 10000 8.2 300 18:19 24.05.2020
3514 Clouds 17 1029 59 10000 8.2 280 17:41 24.05.2020
3515 Clouds 17 1029 55 10000 8.7 300 17:22 24.05.2020
3516 Clouds 17 1029 55 10000 8.7 300 16:58 24.05.2020
3517 Rain 17 1029 59 10000 8.2 300 16:39 24.05.2020
3518 Rain 16 1029 59 10000 8.2 300 16:20 24.05.2020
3519 Rain 17 1029 55 10000 8.7 290 16:20 24.05.2020
3520 Rain 17 1029 55 10000 8.7 290 15:57 24.05.2020
3521 Rain 16 1029 59 10000 7.7 280 15:38 24.05.2020
3522 Rain 17 1029 59 10000 7.7 280 15:19 24.05.2020
3523 Rain 17 1028 51 10000 7.2 280 14:55 24.05.2020
3524 Clouds 17 1028 51 10000 6.2 280 14:37 24.05.2020
3525 Clouds 17 1028 51 10000 6.7 270 14:18 24.05.2020
3526 Clouds 17 1028 51 10000 7.7 280 13:43 24.05.2020
3527 Clouds 17 1028 51 10000 7.7 280 13:23 24.05.2020
3528 Clouds 17 1028 48 10000 6.7 280 12:59 24.05.2020
3529 Clouds 17 1028 48 10000 6.7 280 12:59 24.05.2020
3530 Clouds 16 1029 51 10000 7.2 260 12:41 24.05.2020
3531 Clouds 17 1029 51 10000 7.2 260 12:22 24.05.2020
3532 Clouds 16 1028 55 10000 6.7 260 11:59 24.05.2020
3533 Clouds 16 1029 54 10000 6.7 260 11:41 24.05.2020
3534 Clouds 15 1029 54 10000 6.7 260 11:23 24.05.2020
3535 Clouds 15 1029 54 10000 6.7 260 11:23 24.05.2020
3536 Clouds 15 1029 58 10000 6.2 260 10:59 24.05.2020
3537 Rain 14 1034 51 0 2.68 165 10:39 24.05.2020
3538 Clouds 14 1029 62 10000 6.2 250 10:21 24.05.2020
3539 Clouds 14 1029 66 10000 6.2 260 09:55 24.05.2020
3540 Clouds 13 1034 55 0 2.24 202 09:37 24.05.2020
3541 Clouds 13 1029 66 10000 6.2 260 09:18 24.05.2020
3542 Clouds 12 1028 71 10000 4.1 230 08:40 24.05.2020
3543 Clouds 12 1028 71 10000 4.1 230 08:22 24.05.2020
3544 Clouds 12 1028 71 10000 2.6 210 07:54 24.05.2020
3545 Clouds 12 1028 71 10000 3.1 190 07:36 24.05.2020
3546 Clouds 11 1028 71 10000 3.1 190 07:18 24.05.2020
3547 Clouds 11 1027 71 10000 2.6 180 06:38 24.05.2020
3548 Clouds 11 1027 71 10000 2.6 200 05:49 24.05.2020
3549 Clear 12 1032 50 0 1.34 161 03:49 24.05.2020
3550 Clear 12 1032 49 0 1.79 209 03:26 24.05.2020
3551 Clear 12 1027 57 10000 3.6 220 02:23 24.05.2020
3552 Clear 13 1027 54 10000 5.1 250 00:59 24.05.2020
3553 Clear 14 1027 50 10000 5.1 260 00:36 24.05.2020
3554 Clear 14 1027 50 10000 5.1 260 00:18 24.05.2020
3555 Clear 14 1026 47 10000 6.7 260 23:38 23.05.2020
3556 Clear 15 1026 47 10000 6.7 260 23:19 23.05.2020
3557 Clear 15 1026 44 10000 6.2 270 22:55 23.05.2020
3558 Clear 16 1026 38 10000 7.7 270 22:37 23.05.2020
3559 Clear 16 1025 41 10000 6.7 260 22:18 23.05.2020
3560 Clear 16 1025 41 10000 6.7 260 21:56 23.05.2020
3561 Clear 17 1025 39 10000 8.2 270 21:36 23.05.2020
3562 Clear 17 1025 39 10000 8.2 270 21:18 23.05.2020
3563 Clear 18 1024 34 10000 8.7 280 20:40 23.05.2020
3564 Clouds 18 1024 34 10000 8.7 280 20:20 23.05.2020
3565 Clouds 19 1024 34 10000 9.3 280 19:59 23.05.2020
3566 Clouds 19 1024 48 10000 4.1 210 19:40 23.05.2020
3567 Clouds 19 1023 45 10000 5.1 210 19:19 23.05.2020
3568 Clouds 19 1023 45 10000 5.1 210 18:55 23.05.2020
3569 Clouds 19 1023 45 10000 6.2 230 18:36 23.05.2020
3570 Clouds 19 1023 48 10000 7.7 220 18:18 23.05.2020
3571 Clouds 19 1023 48 10000 7.7 220 17:54 23.05.2020
3572 Clouds 19 1023 45 10000 5.7 260 17:36 23.05.2020
3573 Clouds 19 1023 45 10000 5.7 260 17:18 23.05.2020
3574 Clouds 19 1024 45 10000 5.7 260 16:41 23.05.2020
3575 Clouds 19 1024 45 10000 5.7 260 16:21 23.05.2020
3576 Clouds 19 1024 45 10000 5.7 260 16:21 23.05.2020
3577 Clouds 18 1023 48 10000 6.2 260 15:59 23.05.2020
3578 Clouds 18 1024 48 10000 6.7 260 15:41 23.05.2020
3579 Clouds 17 1024 48 10000 6.7 260 15:22 23.05.2020
3580 Clouds 17 1023 55 10000 6.2 230 14:43 23.05.2020
3581 Clouds 16 1023 55 10000 6.2 230 14:24 23.05.2020
3582 Clouds 16 1024 54 10000 8.2 240 13:57 23.05.2020
3583 Clouds 16 1024 54 10000 6.7 240 13:38 23.05.2020
3584 Clouds 15 1024 62 10000 6.2 230 13:18 23.05.2020
3585 Rain 15 1023 54 10000 7.7 240 12:42 23.05.2020
3586 Clouds 15 1023 58 10000 8.7 250 12:20 23.05.2020
3587 Clouds 15 1023 58 10000 8.7 250 11:59 23.05.2020
3588 Rain 15 1023 67 10000 8.2 250 11:41 23.05.2020
3589 Rain 15 1023 62 10000 6.7 250 11:19 23.05.2020
3590 Rain 15 1023 67 10000 4.6 240 10:56 23.05.2020
3591 Rain 15 1023 67 10000 4.6 240 10:38 23.05.2020
3592 Rain 14 1023 66 10000 3.6 220 10:19 23.05.2020
3593 Rain 14 1023 66 10000 3.6 220 09:55 23.05.2020
3594 Clouds 14 1023 62 10000 4.6 250 09:37 23.05.2020
3595 Clouds 14 1022 62 10000 3.6 240 09:19 23.05.2020
3596 Clouds 14 1022 66 10000 2.1 220 08:41 23.05.2020
3597 Clouds 14 1022 71 10000 2.6 200 08:19 23.05.2020
3598 Clouds 14 1021 76 10000 1.5 160 07:46 23.05.2020
3599 Clouds 14 1021 76 10000 1.5 160 07:28 23.05.2020
3600 Clouds 14 1021 76 10000 1.5 170 06:53 23.05.2020
3601 Clouds 14 1021 76 10000 2.1 180 06:35 23.05.2020
3602 Clouds 15 1021 82 10000 3.1 210 04:49 23.05.2020
3603 Rain 15 1021 87 10000 2.1 170 03:29 23.05.2020
3604 Clouds 16 1021 87 10000 1.5 210 02:56 23.05.2020
3605 Rain 16 1021 93 10000 2.6 160 01:57 23.05.2020
3606 Rain 16 1021 87 10000 2.6 170 01:21 23.05.2020
3607 Rain 16 1021 82 10000 2.6 210 00:46 23.05.2020
3608 Rain 16 1021 82 10000 2.6 210 00:25 23.05.2020
3609 Rain 17 1020 77 10000 3.1 220 23:57 22.05.2020
3610 Rain 17 1020 82 10000 3.6 260 23:38 22.05.2020
3611 Clouds 17 1020 82 10000 5.7 270 23:18 22.05.2020
3612 Clouds 17 1020 82 10000 4.1 260 22:43 22.05.2020
3613 Clouds 17 1020 82 10000 4.1 260 22:21 22.05.2020
3614 Clouds 17 1020 72 10000 6.2 300 21:57 22.05.2020
3615 Clouds 17 1020 72 10000 6.7 290 21:39 22.05.2020
3616 Clouds 18 1020 72 10000 6.7 290 21:20 22.05.2020
3617 Clouds 18 1019 72 10000 7.2 310 20:46 22.05.2020
3618 Clouds 19 1019 68 10000 8.2 310 20:21 22.05.2020
3619 Rain 20 1018 64 10000 7.2 320 19:59 22.05.2020
3620 Clouds 20 1018 60 10000 7.7 320 19:40 22.05.2020
3621 Clouds 21 1018 60 10000 7.7 320 19:22 22.05.2020
3622 Clouds 23 1017 53 10000 2.6 320 18:39 22.05.2020
3623 Clouds 23 1017 53 10000 2.6 320 18:20 22.05.2020
3624 Rain 23 1017 47 10000 6.2 290 17:57 22.05.2020
3625 Rain 24 1016 47 10000 4.6 220 17:37 22.05.2020
3626 Rain 24 1016 47 10000 4.6 220 17:18 22.05.2020
3627 Rain 27 1017 47 10000 4.6 200 16:44 22.05.2020
3628 Rain 27 1017 47 10000 4.6 200 16:20 22.05.2020
3629 Rain 27 1017 44 10000 6.7 200 15:59 22.05.2020
3630 Rain 27 1017 47 10000 6.2 210 15:41 22.05.2020
3631 Rain 27 1017 47 10000 6.2 210 15:20 22.05.2020
3632 Clouds 27 1017 47 10000 5.7 190 14:44 22.05.2020
3633 Rain 26 1017 47 10000 5.7 190 14:24 22.05.2020
3634 Rain 26 1018 47 10000 4.1 190 13:49 22.05.2020
3635 Rain 26 1018 50 10000 5.1 180 13:21 22.05.2020
3636 Rain 25 1018 53 10000 4.6 170 12:56 22.05.2020
3637 Rain 24 1018 53 10000 4.1 160 12:37 22.05.2020
3638 Rain 24 1018 56 10000 3.6 160 12:19 22.05.2020
3639 Rain 23 1019 60 10000 3.1 150 11:44 22.05.2020
3640 Rain 22 1019 60 10000 3.1 150 11:21 22.05.2020
3641 Rain 22 1019 64 10000 3.1 130 10:55 22.05.2020
3642 Rain 21 1019 68 10000 2.1 130 10:37 22.05.2020
3643 Rain 21 1018 64 10000 2.1 130 10:18 22.05.2020
3644 Clouds 20 1019 68 10000 2.6 140 09:42 22.05.2020
3645 Clouds 19 1019 68 10000 2.6 140 09:20 22.05.2020
3646 Clouds 19 1018 72 10000 2.1 130 08:55 22.05.2020
3647 Clouds 18 1018 72 10000 1.5 130 08:37 22.05.2020
3648 Clouds 18 1018 72 10000 1.5 130 08:18 22.05.2020
3649 Clouds 18 1018 67 10000 2.1 90 07:46 22.05.2020
3650 Clouds 17 1018 67 10000 2.1 90 07:22 22.05.2020
3651 Clouds 16 1018 82 10000 0.5 0 06:46 22.05.2020
3652 Clouds 16 1018 82 10000 0.5 0 06:28 22.05.2020
3653 Clouds 16 1018 82 10000 1 0 05:35 22.05.2020
3654 Clouds 16 1019 82 10000 1 0 04:48 22.05.2020
3655 Clouds 17 1019 72 10000 1.5 110 03:50 22.05.2020
3656 Clouds 17 1019 72 10000 2.1 80 03:29 22.05.2020
3657 Clouds 18 1019 77 10000 2.1 60 01:58 22.05.2020
3658 Clouds 18 1019 77 10000 1.5 70 01:32 22.05.2020
3659 Clouds 18 1019 77 10000 1 0 00:52 22.05.2020
3660 Clouds 19 1020 67 10000 2.6 50 00:30 22.05.2020
3661 Clouds 19 1020 67 10000 1 0 23:57 21.05.2020
3662 Clouds 20 1019 67 10000 0.5 70 23:39 21.05.2020
3663 Clouds 20 1019 63 10000 2.6 70 23:20 21.05.2020
3664 Clouds 21 1019 63 10000 2.6 70 22:57 21.05.2020
3665 Clouds 22 1019 52 10000 1.5 60 22:37 21.05.2020
3666 Clear 22 1019 52 10000 1.5 60 22:19 21.05.2020
3667 Clear 25 1019 47 10000 1 50 21:47 21.05.2020
3668 Clear 25 1019 47 10000 1 50 21:27 21.05.2020
3669 Clear 26 1019 34 10000 1.5 30 20:57 21.05.2020
3670 Clear 27 1019 30 10000 2.1 30 20:39 21.05.2020
3671 Clouds 27 1019 30 10000 2.1 30 20:20 21.05.2020
3672 Clouds 28 1019 30 10000 3.1 350 19:40 21.05.2020
3673 Clouds 28 1019 30 10000 3.1 350 19:19 21.05.2020
3674 Clouds 28 1019 28 10000 1.5 0 18:57 21.05.2020
3675 Clouds 28 1019 28 10000 2.6 290 18:36 21.05.2020
3676 Clouds 29 1019 28 10000 2.1 40 18:18 21.05.2020
3677 Clouds 28 1019 28 10000 2.1 40 17:54 21.05.2020
3678 Clouds 28 1020 28 10000 1.5 0 17:36 21.05.2020
3679 Clouds 28 1020 28 10000 3.6 260 17:18 21.05.2020
3680 Clouds 28 1020 34 10000 1.5 0 16:40 21.05.2020
3681 Clouds 27 1020 36 10000 2.1 10 16:21 21.05.2020
3682 Clouds 27 1020 39 10000 2.1 0 15:41 21.05.2020
3683 Clear 27 1020 39 10000 2.1 0 15:22 21.05.2020
3684 Clear 26 1021 39 10000 1.5 0 14:41 21.05.2020
3685 Clouds 26 1021 39 10000 1.5 0 14:23 21.05.2020
3686 Clouds 25 1021 41 10000 2.1 0 13:58 21.05.2020
3687 Clouds 25 1021 44 10000 3.1 0 13:38 21.05.2020
3688 Clear 25 1021 44 10000 3.1 0 13:18 21.05.2020
3689 Clouds 23 1021 46 10000 3.1 0 12:40 21.05.2020
3690 Clouds 24 1021 46 10000 3.1 0 12:40 21.05.2020
3691 Clouds 23 1022 49 10000 2.6 150 12:21 21.05.2020
3692 Clouds 22 1022 49 10000 2.6 150 11:58 21.05.2020
3693 Clouds 22 1022 52 10000 3.1 150 11:39 21.05.2020
3694 Clear 21 1022 52 10000 3.1 150 11:21 21.05.2020
3695 Clear 20 1022 59 10000 3.1 150 10:45 21.05.2020
3696 Clear 20 1022 59 10000 3.1 150 10:23 21.05.2020
3697 Clear 18 1022 59 10000 2.6 140 09:59 21.05.2020
3698 Clear 16 1022 63 10000 2.1 130 09:40 21.05.2020
3699 Clear 16 1022 63 10000 2.1 130 09:40 21.05.2020
3700 Clear 17 1022 63 10000 2.1 130 09:22 21.05.2020
3701 Clear 16 1022 67 10000 2.1 120 08:57 21.05.2020
3702 Clear 15 1022 72 10000 2.1 90 08:38 21.05.2020
3703 Clear 15 1022 72 10000 2.1 90 08:20 21.05.2020
3704 Clear 13 1022 87 10000 1 0 07:42 21.05.2020
3705 Clear 12 1022 87 10000 1 0 07:22 21.05.2020
3706 Clear 11 1021 100 10000 1 60 06:37 21.05.2020
3707 Clear 11 1021 100 10000 1.5 150 05:50 21.05.2020
3708 Clear 12 1022 93 10000 0.5 0 04:18 21.05.2020
3709 Clear 13 1022 76 10000 1.5 90 03:21 21.05.2020
3710 Clear 13 1022 76 10000 1.5 90 03:21 21.05.2020
3711 Clear 13 1022 76 10000 1.5 90 03:21 21.05.2020
3712 Clear 13 1022 76 10000 1.5 90 03:21 21.05.2020
3713 Clear 13 1022 76 10000 2.1 70 02:31 21.05.2020
3714 Clear 14 1022 71 10000 2.1 90 01:52 21.05.2020
3715 Clear 14 1022 71 10000 2.1 90 01:24 21.05.2020
3716 Clear 15 1022 71 10000 3.1 80 00:59 21.05.2020
3717 Clear 15 1022 82 10000 2.6 60 00:41 21.05.2020
3718 Clear 15 1022 82 10000 2.6 60 00:19 21.05.2020
3719 Clear 16 1022 72 10000 2.1 50 23:40 20.05.2020
3720 Clear 17 1022 72 10000 1.5 60 23:19 20.05.2020
3721 Clear 17 1022 63 10000 1.5 20 22:55 20.05.2020
3722 Clear 17 1022 63 10000 1.5 20 22:37 20.05.2020
3723 Clear 18 1021 59 10000 3.1 10 22:19 20.05.2020
3724 Clear 19 1021 55 10000 3.1 20 21:40 20.05.2020
3725 Clear 20 1021 55 10000 3.1 20 21:20 20.05.2020
3726 Clouds 20 1021 49 10000 3.6 10 20:44 20.05.2020
3727 Clouds 21 1021 49 10000 3.6 10 20:24 20.05.2020
3728 Clouds 21 1021 52 10000 4.6 20 19:56 20.05.2020
3729 Clouds 22 1021 46 10000 4.1 20 19:37 20.05.2020
3730 Clouds 22 1021 46 10000 4.1 20 19:19 20.05.2020
3731 Clouds 22 1021 49 10000 3.6 360 18:43 20.05.2020
3732 Clouds 22 1021 49 10000 3.6 360 18:23 20.05.2020
3733 Clouds 22 1021 49 10000 3.6 340 17:43 20.05.2020
3734 Clouds 22 1021 46 10000 3.6 340 17:24 20.05.2020
3735 Clouds 22 1021 46 10000 3.6 340 16:58 20.05.2020
3736 Clouds 21 1022 46 10000 3.6 360 16:39 20.05.2020
3737 Clouds 22 1022 46 10000 3.1 0 16:21 20.05.2020
3738 Clouds 21 1022 46 10000 3.1 0 15:55 20.05.2020
3739 Clouds 21 1022 49 10000 3.1 350 15:36 20.05.2020
3740 Clouds 21 1022 52 10000 3.1 0 15:18 20.05.2020
3741 Clouds 20 1022 52 10000 3.6 320 14:38 20.05.2020
3742 Clouds 20 1022 56 10000 3.6 340 14:19 20.05.2020
3743 Clouds 20 1022 59 10000 3.1 330 13:40 20.05.2020
3744 Clouds 20 1022 59 10000 3.1 330 13:18 20.05.2020
3745 Clouds 19 1022 59 10000 3.1 320 12:42 20.05.2020
3746 Clouds 19 1022 59 10000 3.1 320 12:21 20.05.2020
3747 Clouds 19 1022 63 10000 2.6 300 11:57 20.05.2020
3748 Clouds 18 1022 68 10000 3.1 320 11:36 20.05.2020
3749 Clouds 18 1022 63 10000 2.1 330 11:18 20.05.2020
3750 Clouds 18 1022 68 10000 2.6 340 10:42 20.05.2020
3751 Clouds 18 1022 68 10000 2.6 340 10:19 20.05.2020
3752 Clouds 17 1022 72 10000 2.6 320 09:44 20.05.2020
3753 Clouds 17 1022 72 10000 2.6 320 09:21 20.05.2020
3754 Clear 16 1022 77 10000 3.1 320 08:54 20.05.2020
3755 Clear 15 1022 82 10000 3.1 330 08:36 20.05.2020
3756 Clear 15 1022 82 10000 3.1 330 08:18 20.05.2020
3757 Clear 15 1022 82 10000 1.5 350 07:41 20.05.2020
3758 Clear 15 1022 82 10000 1.5 350 07:19 20.05.2020
3759 Clear 14 1021 87 10000 1 0 06:34 20.05.2020
3760 Clear 15 1021 82 10000 0.5 10 05:22 20.05.2020
3761 Clear 15 1022 82 10000 3.1 350 04:26 20.05.2020
3762 Clear 16 1022 82 10000 1.5 350 03:38 20.05.2020
3763 Clear 16 1021 77 10000 3.1 340 02:24 20.05.2020
3764 Clear 17 1021 67 10000 2.1 330 01:28 20.05.2020
3765 Clear 18 1021 63 10000 1.5 340 00:44 20.05.2020
3766 Clear 18 1022 63 10000 1.5 360 00:23 20.05.2020
3767 Clear 19 1021 59 10000 2.1 360 23:42 19.05.2020
3768 Clear 19 1021 59 10000 2.1 360 23:19 19.05.2020
3769 Clear 20 1021 59 10000 2.1 10 22:56 19.05.2020
3770 Clear 19 1021 63 10000 1.5 20 22:38 19.05.2020
3771 Clear 20 1021 56 10000 2.1 10 22:19 19.05.2020
3772 Clear 20 1021 56 10000 2.1 10 21:58 19.05.2020
3773 Clear 21 1021 52 10000 2.1 20 21:38 19.05.2020
3774 Clear 21 1021 52 10000 2.1 20 21:38 19.05.2020
3775 Clear 21 1021 52 10000 2.1 20 21:19 19.05.2020
3776 Clear 22 1020 49 10000 2.6 360 20:57 19.05.2020
3777 Clear 22 1020 46 10000 3.6 340 20:39 19.05.2020
3778 Clouds 23 1020 46 10000 4.6 330 20:21 19.05.2020
3779 Clouds 22 1020 46 10000 3.6 340 20:21 19.05.2020
3780 Clouds 22 1020 46 10000 4.6 330 19:55 19.05.2020
3781 Clouds 22 1020 46 10000 4.1 350 19:37 19.05.2020
3782 Rain 23 1020 43 10000 3.6 330 19:18 19.05.2020
3783 Rain 23 1020 41 10000 5.7 320 18:42 19.05.2020
3784 Clouds 24 1020 41 10000 5.7 320 18:20 19.05.2020
3785 Clouds 24 1020 41 10000 5.1 340 17:44 19.05.2020
3786 Clouds 24 1020 41 10000 5.7 310 17:21 19.05.2020
3787 Clouds 23 1021 40 10000 5.7 330 16:59 19.05.2020
3788 Clouds 23 1021 40 10000 5.1 350 16:39 19.05.2020
3789 Clear 23 1021 40 10000 5.1 350 16:20 19.05.2020
3790 Clear 23 1021 36 10000 5.1 330 15:47 19.05.2020
3791 Clouds 23 1021 38 10000 4.1 320 15:23 19.05.2020
3792 Clouds 22 1021 38 10000 3.6 340 14:59 19.05.2020
3793 Clouds 22 1021 35 10000 4.1 300 14:41 19.05.2020
3794 Clouds 22 1021 35 10000 4.1 300 14:21 19.05.2020
3795 Clouds 22 1022 33 10000 3.1 0 13:58 19.05.2020
3796 Clouds 22 1022 28 10000 2.6 290 13:40 19.05.2020
3797 Clouds 22 1022 28 10000 3.1 0 13:21 19.05.2020
3798 Clouds 21 1022 28 10000 3.1 0 12:58 19.05.2020
3799 Clouds 21 1022 32 10000 2.1 270 12:39 19.05.2020
3800 Clouds 20 1022 32 10000 2.1 270 12:21 19.05.2020
3801 Clouds 19 1022 34 10000 2.1 0 11:57 19.05.2020
3802 Clouds 19 1022 34 10000 2.1 0 11:39 19.05.2020
3803 Clouds 19 1022 34 10000 2.1 0 11:21 19.05.2020
3804 Clouds 17 1022 41 10000 2.1 290 10:46 19.05.2020
3805 Clouds 17 1022 41 10000 2.1 290 10:28 19.05.2020
3806 Clouds 16 1022 41 10000 1.5 260 09:58 19.05.2020
3807 Clouds 16 1022 51 10000 1.5 270 09:40 19.05.2020
3808 Clouds 15 1022 51 10000 1.5 270 09:22 19.05.2020
3809 Clouds 14 1022 66 10000 1.5 130 08:43 19.05.2020
3810 Clouds 13 1022 66 10000 1.5 130 08:24 19.05.2020
3811 Clouds 12 1022 87 10000 1 50 07:45 19.05.2020
3812 Clouds 11 1022 87 10000 1 50 07:26 19.05.2020
3813 Clouds 10 1022 93 10000 2.1 60 06:54 19.05.2020
3814 Clouds 10 1022 93 10000 0.5 140 06:25 19.05.2020
3815 Clouds 10 1022 87 10000 1 60 05:42 19.05.2020
3816 Clouds 10 1022 87 10000 1 60 05:42 19.05.2020
3817 Clouds 11 1022 81 10000 0.5 0 04:57 19.05.2020
3818 Clouds 11 1022 75 10000 0.5 50 04:34 19.05.2020
3819 Clouds 13 1023 71 10000 1 170 02:21 19.05.2020
3820 Clouds 15 1023 58 10000 2.1 360 00:48 19.05.2020
3821 Clouds 16 1022 62 10000 1.5 20 00:26 19.05.2020
3822 Clouds 17 1022 58 10000 1.5 340 23:58 18.05.2020
3823 Clouds 17 1022 59 10000 1 0 23:40 18.05.2020
3824 Clouds 17 1022 67 10000 1 0 23:20 18.05.2020
3825 Clouds 17 1022 59 10000 1.5 350 22:42 18.05.2020
3826 Clouds 19 1022 59 10000 1.5 350 22:22 18.05.2020
3827 Clouds 20 1022 48 10000 3.1 300 21:59 18.05.2020
3828 Clouds 21 1021 43 10000 4.6 290 21:40 18.05.2020
3829 Clouds 22 1021 43 10000 5.7 270 21:20 18.05.2020
3830 Clouds 22 1021 43 10000 5.7 270 20:57 18.05.2020
3831 Clouds 22 1021 43 10000 5.7 270 20:37 18.05.2020
3832 Clouds 23 1021 40 10000 5.7 300 20:18 18.05.2020
3833 Clouds 23 1021 38 10000 4.6 280 19:41 18.05.2020
3834 Clouds 23 1021 38 10000 4.6 280 19:41 18.05.2020
3835 Clear 23 1021 40 10000 5.7 300 19:20 18.05.2020
3836 Clouds 23 1021 40 10000 5.7 300 18:59 18.05.2020
3837 Clouds 23 1022 40 10000 3.6 310 18:41 18.05.2020
3838 Clouds 23 1022 40 10000 6.2 300 18:20 18.05.2020
3839 Clouds 23 1022 38 10000 5.1 290 17:38 18.05.2020
3840 Clouds 23 1022 38 10000 5.1 290 17:18 18.05.2020
3841 Clouds 23 1022 38 10000 5.7 290 17:18 18.05.2020
3842 Clouds 23 1022 38 10000 5.7 290 16:56 18.05.2020
3843 Clouds 23 1022 38 10000 5.1 260 16:37 18.05.2020
3844 Clouds 22 1022 38 10000 4.6 260 16:18 18.05.2020
3845 Clouds 22 1022 37 10000 3.1 0 15:46 18.05.2020
3846 Clouds 22 1023 37 10000 4.1 280 15:25 18.05.2020
3847 Clouds 22 1023 37 10000 4.1 280 14:59 18.05.2020
3848 Clouds 21 1023 37 10000 3.6 270 14:41 18.05.2020
3849 Clouds 21 1023 37 10000 4.6 280 14:23 18.05.2020
3850 Clouds 21 1023 37 10000 4.6 280 13:54 18.05.2020
3851 Clouds 20 1023 40 10000 4.1 320 13:36 18.05.2020
3852 Clouds 20 1024 40 10000 4.6 290 13:18 18.05.2020
3853 Clouds 20 1024 40 10000 4.6 290 12:55 18.05.2020
3854 Clouds 19 1024 39 10000 5.1 280 12:37 18.05.2020
3855 Clouds 19 1024 39 10000 5.1 270 12:18 18.05.2020
3856 Clouds 18 1024 39 10000 5.1 270 11:46 18.05.2020
3857 Clouds 18 1024 45 10000 2.6 0 11:26 18.05.2020
3858 Clouds 17 1024 51 10000 2.6 310 10:57 18.05.2020
3859 Clouds 17 1024 51 10000 2.1 240 10:38 18.05.2020
3860 Clouds 16 1024 54 10000 1.5 180 10:20 18.05.2020
3861 Clouds 15 1023 58 10000 2.6 160 09:42 18.05.2020
3862 Clouds 14 1024 66 10000 3.1 140 09:24 18.05.2020
3863 Clouds 13 1024 71 10000 3.1 150 08:44 18.05.2020
3864 Clouds 13 1024 76 10000 2.1 140 08:25 18.05.2020
3865 Clouds 12 1029 53 0 0.45 124 07:52 18.05.2020
3866 Clouds 11 1029 55 0 1.47 173 07:26 18.05.2020
3867 Clouds 10 1029 60 0 0.45 153 06:51 18.05.2020
3868 Clouds 10 1029 62 0 1.47 173 06:33 18.05.2020
3869 Clouds 9 1023 87 10000 1 0 05:49 18.05.2020
3870 Clouds 9 1023 87 10000 0.5 0 05:21 18.05.2020
3871 Clear 11 1029 57 0 0.45 104 03:31 18.05.2020
3872 Clear 11 1023 87 10000 1.5 60 02:22 18.05.2020
3873 Clear 12 1023 76 10000 0.5 0 00:55 18.05.2020
3874 Clear 12 1023 76 10000 0.5 110 00:25 18.05.2020
3875 Clear 13 1023 66 10000 0.5 70 23:57 17.05.2020
3876 Clear 14 1023 66 10000 1.5 60 23:39 17.05.2020
3877 Clear 14 1023 66 10000 1.5 60 23:20 17.05.2020
3878 Clear 14 1023 62 10000 0.5 0 22:56 17.05.2020
3879 Clear 15 1023 62 10000 0.5 0 22:37 17.05.2020
3880 Clear 16 1023 54 10000 1 30 22:19 17.05.2020
3881 Clear 16 1023 54 10000 1 30 21:56 17.05.2020
3882 Clear 17 1023 48 10000 2.1 360 21:38 17.05.2020
3883 Clear 18 1023 45 10000 2.6 350 21:18 17.05.2020
3884 Clear 18 1023 42 10000 2.6 310 20:42 17.05.2020
3885 Clear 19 1023 42 10000 2.6 310 20:22 17.05.2020
3886 Clear 19 1023 37 10000 3.6 300 19:57 17.05.2020
3887 Clear 19 1023 37 10000 3.6 300 19:39 17.05.2020
3888 Clear 19 1023 37 10000 3.6 300 19:20 17.05.2020
3889 Clear 19 1023 37 10000 3.6 310 18:54 17.05.2020
3890 Clear 19 1023 37 10000 4.1 310 18:36 17.05.2020
3891 Clear 19 1023 37 10000 4.1 310 18:18 17.05.2020
3892 Clear 19 1023 36 10000 3.6 10 17:40 17.05.2020
3893 Clear 19 1023 36 10000 3.6 10 17:21 17.05.2020
3894 Clear 19 1024 34 10000 2.1 0 16:40 17.05.2020
3895 Clouds 18 1024 36 10000 2.6 0 16:21 17.05.2020
3896 Clouds 18 1024 36 10000 2.6 0 15:59 17.05.2020
3897 Clouds 18 1024 34 10000 3.1 250 15:40 17.05.2020
3898 Clouds 18 1025 34 10000 3.6 320 15:22 17.05.2020
3899 Clouds 18 1025 34 10000 3.6 320 14:56 17.05.2020
3900 Clear 17 1025 39 10000 3.6 300 14:37 17.05.2020
3901 Clouds 17 1025 39 10000 3.6 300 14:19 17.05.2020
3902 Clear 17 1025 41 10000 3.1 290 13:41 17.05.2020
3903 Clear 17 1025 41 10000 3.1 290 13:20 17.05.2020
3904 Clouds 7 1023 93 10000 1.5 340 04:54 17.05.2020
3905 Clear 9 1023 81 10000 1 0 03:31 17.05.2020
3906 Clouds 9 1022 75 10000 1 0 02:26 17.05.2020
3907 Clouds 10 1022 75 10000 1.5 350 01:53 17.05.2020
3908 Clouds 11 1022 62 10000 3.6 340 00:46 17.05.2020
3909 Clouds 12 1022 62 10000 3.6 340 00:26 17.05.2020
3910 Clouds 12 1022 54 10000 3.1 340 23:42 16.05.2020
3911 Clouds 13 1021 54 10000 3.6 340 23:23 16.05.2020
3912 Clouds 13 1021 54 10000 3.6 340 22:59 16.05.2020
3913 Clouds 13 1021 50 10000 4.1 330 22:41 16.05.2020
3914 Clouds 14 1020 47 10000 5.1 330 22:22 16.05.2020
3915 Clouds 15 1020 47 10000 5.1 330 21:56 16.05.2020
3916 Clouds 15 1020 41 10000 3.6 320 21:38 16.05.2020
3917 Clouds 16 1020 41 10000 3.6 320 21:19 16.05.2020
3918 Clouds 16 1020 41 10000 3.6 320 20:56 16.05.2020
3919 Clouds 17 1020 41 10000 2.6 330 20:38 16.05.2020
3920 Clouds 17 1020 39 10000 4.6 310 20:19 16.05.2020
3921 Clouds 18 1020 36 10000 4.1 320 19:43 16.05.2020
3922 Clouds 18 1020 36 10000 4.6 310 19:23 16.05.2020
3923 Clouds 18 1020 36 10000 4.6 310 19:23 16.05.2020
3924 Clouds 18 1020 36 10000 4.6 310 18:59 16.05.2020
3925 Clouds 18 1020 36 10000 4.6 310 18:59 16.05.2020
3926 Clouds 18 1021 36 10000 3.6 320 18:40 16.05.2020
3927 Clouds 18 1021 36 10000 3.6 340 18:22 16.05.2020
3928 Clouds 18 1021 39 10000 3.6 330 17:42 16.05.2020
3929 Clouds 18 1021 39 10000 3.6 330 17:42 16.05.2020
3930 Clouds 18 1021 39 10000 2.1 330 17:21 16.05.2020
3931 Clouds 17 1021 39 10000 2.1 330 16:57 16.05.2020
3932 Clouds 17 1021 36 10000 3.6 310 16:38 16.05.2020
3933 Clouds 17 1021 36 10000 2.6 210 16:18 16.05.2020
3934 Clouds 18 1022 34 10000 2.6 0 15:42 16.05.2020
3935 Clouds 18 1022 36 10000 1.5 0 15:21 16.05.2020
3936 Clouds 18 1022 36 10000 1.5 0 14:59 16.05.2020
3937 Clouds 17 1023 36 10000 2.1 330 14:41 16.05.2020
3938 Clouds 17 1023 36 10000 2.1 330 14:20 16.05.2020
3939 Clouds 17 1023 34 10000 2.1 0 13:56 16.05.2020
3940 Clouds 17 1023 36 10000 1.5 0 13:36 16.05.2020
3941 Clouds 17 1023 36 10000 1.5 0 13:18 16.05.2020
3942 Clouds 16 1023 38 10000 1.5 320 12:43 16.05.2020
3943 Clouds 15 1023 38 10000 1.5 320 12:20 16.05.2020
3944 Clouds 15 1023 38 10000 2.1 0 11:56 16.05.2020
3945 Clouds 15 1024 44 10000 2.1 270 11:37 16.05.2020
3946 Clouds 15 1024 47 10000 1.5 0 11:18 16.05.2020
3947 Clear 14 1024 50 10000 1 0 10:54 16.05.2020
3948 Clear 13 1024 50 10000 1 0 10:36 16.05.2020
3949 Clear 13 1024 57 10000 1 0 10:18 16.05.2020
3950 Clear 9 1024 61 10000 1 0 09:39 16.05.2020
3951 Clear 10 1024 61 10000 1 0 09:18 16.05.2020
3952 Clear 9 1024 70 10000 1.5 150 08:42 16.05.2020
3953 Clear 8 1024 70 10000 1.5 150 08:21 16.05.2020
3954 Clear 7 1024 86 10000 0.5 0 07:45 16.05.2020
3955 Clear 5 1024 73 10000 0.5 80 07:26 16.05.2020
3956 Clear 5 1023 73 10000 0.5 0 06:57 16.05.2020
3957 Clear 4 1023 73 10000 1.5 60 06:37 16.05.2020
3958 Clear 5 1023 76 10000 2.1 130 06:18 16.05.2020
3959 Clear 5 1023 76 10000 1 60 05:32 16.05.2020
3960 Clear 6 1023 74 10000 1 150 03:37 16.05.2020
3961 Clear 7 1023 86 10000 0.5 0 02:59 16.05.2020
3962 Clouds 8 1024 70 10000 0.5 0 02:21 16.05.2020
3963 Clear 8 1023 80 10000 1.5 70 01:53 16.05.2020
3964 Clear 8 1023 80 10000 1.5 40 01:23 16.05.2020
3965 Clear 9 1023 75 10000 0.5 0 00:49 16.05.2020
3966 Clear 9 1023 70 10000 0.5 0 00:22 16.05.2020
3967 Clear 10 1023 61 10000 0.5 0 23:41 15.05.2020
3968 Clear 10 1023 61 10000 0.5 0 23:41 15.05.2020
3969 Clear 10 1023 61 10000 0.5 0 23:20 15.05.2020
3970 Clear 11 1023 57 10000 1.5 50 22:59 15.05.2020
3971 Clear 11 1023 53 10000 1.5 360 22:40 15.05.2020
3972 Clear 12 1022 50 10000 2.6 10 22:19 15.05.2020
3973 Clear 12 1022 55 10000 3.6 10 21:40 15.05.2020
3974 Clouds 13 1022 52 10000 3.6 10 21:22 15.05.2020
3975 Clear 14 1022 43 10000 5.7 20 20:59 15.05.2020
3976 Clear 14 1022 43 10000 5.7 20 20:59 15.05.2020
3977 Clear 14 1021 41 10000 4.6 360 20:41 15.05.2020
3978 Clear 15 1021 41 10000 4.6 360 20:23 15.05.2020
3979 Clear 15 1021 38 10000 5.7 360 19:59 15.05.2020
3980 Clear 15 1021 38 10000 5.7 360 19:41 15.05.2020
3981 Clear 16 1021 38 10000 5.7 360 19:22 15.05.2020
3982 Clear 16 1021 31 10000 4.1 30 18:47 15.05.2020
3983 Clear 16 1021 31 10000 4.1 30 18:27 15.05.2020
3984 Clear 16 1021 31 10000 5.1 360 17:57 15.05.2020
3985 Clear 16 1020 31 10000 4.1 360 17:36 15.05.2020
3986 Clear 16 1020 31 10000 5.1 10 17:18 15.05.2020
3987 Clear 17 1020 31 10000 5.1 10 16:54 15.05.2020
3988 Clear 16 1020 32 10000 4.6 0 16:36 15.05.2020
3989 Clear 16 1020 33 10000 3.1 0 16:18 15.05.2020
3990 Clear 16 1020 36 10000 3.6 350 15:40 15.05.2020
3991 Clear 16 1020 36 10000 3.6 350 15:20 15.05.2020
3992 Clear 15 1020 32 10000 4.6 20 14:56 15.05.2020
3993 Clear 15 1020 38 10000 5.1 350 14:38 15.05.2020
3994 Clear 15 1020 38 10000 5.1 350 14:19 15.05.2020
3995 Clear 14 1020 35 10000 5.7 10 13:41 15.05.2020
3996 Clear 14 1020 35 10000 5.7 10 13:22 15.05.2020
3997 Clear 14 1020 35 10000 5.7 350 12:56 15.05.2020
3998 Clear 13 1020 35 10000 3.6 360 12:36 15.05.2020
3999 Clear 13 1020 35 10000 3.6 360 12:18 15.05.2020
4000 Clear 13 1020 39 10000 4.1 10 11:56 15.05.2020
4001 Clear 13 1020 44 10000 3.6 340 11:37 15.05.2020
4002 Clear 13 1020 44 10000 3.6 340 11:18 15.05.2020
4003 Clouds 12 1020 46 10000 4.1 320 10:54 15.05.2020
4004 Clear 11 1020 50 10000 2.6 0 10:36 15.05.2020
4005 Clear 11 1020 53 10000 2.1 0 10:18 15.05.2020
4006 Clear 10 1020 61 10000 2.1 330 09:38 15.05.2020
4007 Clear 8 1020 61 10000 2.1 330 09:19 15.05.2020
4008 Clear 8 1020 65 10000 2.6 340 08:58 15.05.2020
4009 Clear 7 1020 54 10000 2.6 350 08:37 15.05.2020
4010 Clear 7 1020 61 10000 0.5 0 08:18 15.05.2020
4011 Clear 6 1019 61 10000 0.5 0 07:44 15.05.2020
4012 Clear 5 1019 67 10000 0.5 0 07:24 15.05.2020
4013 Clear 5 1019 86 10000 1.5 160 06:54 15.05.2020
4014 Clear 5 1018 86 10000 1 0 05:49 15.05.2020
4015 Clear 5 1018 74 10000 0.5 170 04:28 15.05.2020
4016 Clear 6 1018 69 10000 3.1 60 03:48 15.05.2020
4017 Clear 7 1018 65 10000 2.1 50 02:35 15.05.2020
4018 Clear 8 1018 60 10000 2.1 30 01:24 15.05.2020
4019 Clear 8 1018 60 10000 2.1 30 00:56 15.05.2020
4020 Clear 8 1018 56 10000 2.1 30 00:37 15.05.2020
4021 Clear 9 1018 52 10000 2.1 20 00:19 15.05.2020
4022 Clear 9 1018 49 10000 1.5 40 23:40 14.05.2020
4023 Clear 10 1018 49 10000 1.5 40 23:18 14.05.2020
4024 Clear 11 1018 43 10000 3.1 20 22:41 14.05.2020
4025 Clear 11 1018 43 10000 3.1 20 22:20 14.05.2020
4026 Clear 12 1018 43 10000 3.1 10 21:58 14.05.2020
4027 Clear 12 1017 37 10000 3.6 20 21:39 14.05.2020
4028 Clouds 13 1017 37 10000 3.6 20 21:19 14.05.2020
4029 Clear 13 1017 35 10000 5.1 20 21:19 14.05.2020
4030 Clear 13 1017 35 10000 5.1 20 20:56 14.05.2020
4031 Clear 14 1017 35 10000 6.2 20 20:38 14.05.2020
4032 Clouds 14 1017 35 10000 6.2 20 20:18 14.05.2020
4033 Clouds 15 1017 35 10000 5.7 20 19:55 14.05.2020
4034 Clouds 15 1017 33 10000 5.1 20 19:37 14.05.2020
4035 Clouds 15 1017 33 10000 5.1 20 19:19 14.05.2020
4036 Clouds 15 1017 33 10000 6.2 20 18:54 14.05.2020
4037 Clouds 15 1017 33 10000 6.7 10 18:36 14.05.2020
4038 Clouds 15 1017 33 10000 6.7 10 18:18 14.05.2020
4039 Clouds 15 1017 33 10000 5.1 20 17:55 14.05.2020
4040 Clouds 15 1017 37 10000 5.1 10 17:36 14.05.2020
4041 Clouds 15 1017 36 10000 5.1 10 17:18 14.05.2020
4042 Clouds 15 1017 33 10000 4.6 10 17:18 14.05.2020
4043 Clouds 15 1017 35 10000 5.1 40 16:39 14.05.2020
4044 Clouds 15 1017 36 10000 4.6 10 16:20 14.05.2020
4045 Clouds 15 1017 36 10000 4.6 10 15:57 14.05.2020
4046 Clouds 15 1018 36 10000 4.6 10 15:39 14.05.2020
4047 Clear 15 1018 36 10000 4.6 10 15:20 14.05.2020
4048 Clear 14 1018 37 10000 3.6 40 14:56 14.05.2020
4049 Clear 14 1018 36 10000 4.1 40 14:38 14.05.2020
4050 Clouds 13 1019 37 10000 6.2 10 14:19 14.05.2020
4051 Clouds 14 1018 37 10000 4.1 40 14:19 14.05.2020
4052 Clouds 14 1019 37 10000 6.2 10 13:56 14.05.2020
4053 Clouds 13 1019 37 10000 4.6 20 13:38 14.05.2020
4054 Clouds 13 1019 43 10000 5.1 30 13:18 14.05.2020
4055 Clouds 13 1019 43 10000 5.1 30 12:57 14.05.2020
4056 Clouds 12 1019 40 10000 5.7 30 12:37 14.05.2020
4057 Clouds 12 1019 43 10000 5.7 30 12:18 14.05.2020
4058 Clouds 11 1019 50 10000 5.1 30 11:56 14.05.2020
4059 Clouds 11 1019 50 10000 5.1 30 11:37 14.05.2020
4060 Clouds 11 1019 50 10000 5.1 30 11:19 14.05.2020
4061 Clouds 10 1019 57 10000 5.7 30 10:44 14.05.2020
4062 Clouds 9 1019 57 10000 5.7 30 10:26 14.05.2020
4063 Clouds 9 1019 65 10000 4.1 30 09:56 14.05.2020
4064 Clouds 8 1019 70 10000 3.1 50 09:38 14.05.2020
4065 Clouds 8 1019 70 10000 3.6 50 09:19 14.05.2020
4066 Clouds 7 1019 80 10000 2.1 340 08:40 14.05.2020
4067 Clouds 6 1019 80 10000 2.1 340 08:19 14.05.2020
4068 Clouds 4 1018 67 10000 0.5 0 07:45 14.05.2020
4069 Clouds 5 1018 73 10000 0.5 0 07:24 14.05.2020
4070 Clouds 4 1017 73 10000 1 0 06:54 14.05.2020
4071 Clouds 4 1017 76 10000 1.5 10 06:28 14.05.2020
4072 Clouds 4 1017 76 10000 2.1 40 05:44 14.05.2020
4073 Clouds 5 1017 93 10000 1 360 05:23 14.05.2020
4074 Clouds 5 1016 86 10000 3.1 340 04:25 14.05.2020
4075 Clouds 6 1016 80 10000 3.1 340 03:22 14.05.2020
4076 Clouds 7 1015 80 10000 3.1 330 02:41 14.05.2020
4077 Clouds 7 1015 75 10000 2.6 330 01:56 14.05.2020
4078 Clouds 8 1015 65 10000 2.6 350 01:23 14.05.2020
4079 Clouds 8 1014 65 10000 3.6 10 00:44 14.05.2020
4080 Clouds 8 1014 65 10000 4.1 360 00:23 14.05.2020
4081 Rain 9 1013 65 10000 4.6 10 23:42 13.05.2020
4082 Rain 9 1013 65 10000 4.6 10 23:21 13.05.2020
4083 Clouds 9 1013 61 10000 5.1 20 22:54 13.05.2020
4084 Clouds 10 1013 61 10000 5.1 20 22:36 13.05.2020
4085 Clouds 10 1013 61 10000 5.1 20 22:18 13.05.2020
4086 Clouds 10 1012 66 10000 5.7 30 21:55 13.05.2020
4087 Clouds 10 1012 61 10000 4.6 10 21:37 13.05.2020
4088 Clouds 10 1011 66 10000 5.1 10 21:18 13.05.2020
4089 Clouds 11 1011 62 10000 6.7 10 20:41 13.05.2020
4090 Clouds 11 1011 62 10000 6.7 10 20:23 13.05.2020
4091 Clouds 12 1011 54 10000 5.7 360 19:44 13.05.2020
4092 Clouds 12 1011 54 10000 5.7 360 19:25 13.05.2020
4093 Clouds 12 1011 54 10000 4.6 10 18:58 13.05.2020
4094 Clouds 12 1011 53 10000 3.1 320 18:39 13.05.2020
4095 Clouds 13 1011 46 10000 3.1 320 18:21 13.05.2020
4096 Clouds 13 1011 35 10000 2.6 90 17:39 13.05.2020
4097 Clouds 13 1011 43 10000 1.5 0 17:20 13.05.2020
4098 Clouds 15 1011 43 10000 1.5 0 16:56 13.05.2020
4099 Clouds 15 1011 37 10000 1 0 16:38 13.05.2020
4100 Clouds 14 1011 37 10000 1 0 16:19 13.05.2020
4101 Clouds 14 1012 37 10000 1.5 0 15:43 13.05.2020
4102 Clouds 14 1012 37 10000 2.6 300 15:20 13.05.2020
4103 Clouds 14 1012 37 10000 2.6 300 14:59 13.05.2020
4104 Clouds 14 1012 40 10000 2.1 30 14:41 13.05.2020
4105 Clouds 14 1012 40 10000 2.1 30 14:22 13.05.2020
4106 Clouds 13 1012 40 10000 1.5 0 13:58 13.05.2020
4107 Clouds 13 1013 40 10000 2.1 0 13:39 13.05.2020
4108 Clouds 13 1013 40 10000 2.1 0 13:39 13.05.2020
4109 Clouds 13 1013 40 10000 1.5 10 13:21 13.05.2020
4110 Clouds 12 1013 40 10000 1.5 10 12:57 13.05.2020
4111 Clouds 12 1013 43 10000 2.1 340 12:39 13.05.2020
4112 Clouds 11 1013 43 10000 1 0 12:18 13.05.2020
4113 Clouds 12 1013 43 10000 1 0 11:56 13.05.2020
4114 Clouds 12 1013 40 10000 3.1 320 11:36 13.05.2020
4115 Clouds 12 1013 40 10000 3.1 320 11:18 13.05.2020
4116 Clouds 12 1013 40 10000 1.5 0 10:56 13.05.2020
4117 Clouds 11 1013 45 10000 1.5 0 10:38 13.05.2020
4118 Clouds 11 1013 45 10000 1.5 0 10:18 13.05.2020
4119 Clouds 10 1014 57 10000 1.5 70 09:43 13.05.2020
4120 Clouds 10 1014 57 10000 1.5 70 09:23 13.05.2020
4121 Clouds 9 1014 65 10000 2.1 160 08:57 13.05.2020
4122 Clouds 8 1014 75 10000 1.5 160 08:37 13.05.2020
4123 Clouds 8 1014 75 10000 1.5 160 08:19 13.05.2020
4124 Clouds 6 1014 86 10000 1 0 07:44 13.05.2020
4125 Clouds 6 1014 86 10000 1 0 07:26 13.05.2020
4126 Clouds 5 1014 66 10000 1 160 06:49 13.05.2020
4127 Clouds 5 1014 70 10000 1 160 06:28 13.05.2020
4128 Clouds 6 1014 86 10000 1 70 05:33 13.05.2020
4129 Clouds 6 1015 80 10000 1.5 140 03:28 13.05.2020
4130 Clouds 7 1015 80 10000 2.1 40 02:34 13.05.2020
4131 Clouds 7 1015 62 10000 1 0 01:45 13.05.2020
4132 Clouds 6 1015 60 10000 2.6 60 00:55 13.05.2020
4133 Clouds 7 1015 58 10000 2.6 60 00:22 13.05.2020
4134 Clouds 7 1015 58 10000 0.5 0 23:58 12.05.2020
4135 Clouds 8 1015 58 10000 0.5 0 23:39 12.05.2020
4136 Clouds 8 1015 56 10000 1 60 23:18 12.05.2020
4137 Clouds 8 1015 75 10000 1 60 22:42 12.05.2020
4138 Clouds 9 1015 53 10000 1.5 50 22:22 12.05.2020
4139 Clouds 10 1015 53 10000 1.5 50 21:56 12.05.2020
4140 Clouds 10 1015 46 10000 2.1 10 21:38 12.05.2020
4141 Clouds 11 1015 46 10000 2.1 10 21:19 12.05.2020
4142 Clouds 11 1015 43 10000 2.6 10 20:58 12.05.2020
4143 Clouds 11 1016 40 10000 2.6 360 20:39 12.05.2020
4144 Clear 12 1016 40 10000 2.6 360 20:21 12.05.2020
4145 Clear 12 1016 40 10000 3.1 320 19:58 12.05.2020
4146 Clear 12 1016 40 10000 3.6 310 19:40 12.05.2020
4147 Clear 12 1016 40 10000 4.1 320 19:21 12.05.2020
4148 Clear 12 1016 40 10000 4.1 320 18:56 12.05.2020
4149 Clear 13 1016 37 10000 4.1 270 18:38 12.05.2020
4150 Clear 13 1016 37 10000 4.1 270 18:20 12.05.2020
4151 Clear 13 1017 37 10000 2.6 250 17:43 12.05.2020
4152 Clear 12 1017 37 10000 2.6 250 17:24 12.05.2020
4153 Clear 13 1018 40 10000 3.1 340 16:47 12.05.2020
4154 Clear 12 1018 40 10000 3.1 340 16:26 12.05.2020
4155 Clear 12 1018 40 10000 2.6 310 15:57 12.05.2020
4156 Clear 12 1018 37 10000 3.6 0 15:39 12.05.2020
4157 Clear 12 1018 37 10000 3.6 0 15:39 12.05.2020
4158 Clear 12 1018 37 10000 3.6 0 15:19 12.05.2020
4159 Clear 12 1018 43 10000 2.1 0 14:58 12.05.2020
4160 Clouds 11 1019 46 10000 3.1 330 14:39 12.05.2020
4161 Clouds 11 1019 46 10000 3.1 330 14:20 12.05.2020
4162 Clouds 11 1019 43 10000 2.1 0 13:59 12.05.2020
4163 Clouds 11 1025 31 0 0.89 347 13:41 12.05.2020
4164 Clouds 10 1025 34 0 0.89 279 13:20 12.05.2020
4165 Clouds 10 1025 38 0 0.89 328 12:58 12.05.2020
4166 Clouds 9 1025 41 0 1.79 315 12:40 12.05.2020
4167 Clouds 9 1025 41 0 1.79 315 12:40 12.05.2020
4168 Clouds 9 1025 39 0 0.89 317 12:22 12.05.2020
4169 Clouds 9 1020 57 10000 2.1 0 11:58 12.05.2020
4170 Clouds 9 1020 57 10000 2.1 0 11:39 12.05.2020
4171 Clouds 9 1020 57 10000 2.1 0 11:21 12.05.2020
4172 Clouds 8 1020 57 10000 2.1 0 10:59 12.05.2020
4173 Clouds 8 1020 57 10000 1.5 0 10:40 12.05.2020
4174 Clouds 8 1021 65 10000 1 0 10:22 12.05.2020
4175 Clouds 7 1021 65 10000 1 0 09:59 12.05.2020
4176 Clouds 7 1021 70 10000 2.1 300 09:40 12.05.2020
4177 Clouds 7 1021 70 10000 2.1 300 09:21 12.05.2020
4178 Clouds 7 1021 70 10000 2.1 300 09:21 12.05.2020
4179 Clouds 6 1020 56 10000 1.5 300 08:59 12.05.2020
4180 Clear 6 1020 62 10000 1 0 08:38 12.05.2020
4181 Clear 5 1020 86 10000 0.5 180 08:19 12.05.2020
4182 Clear 4 1020 62 10000 0.5 0 07:42 12.05.2020
4183 Clear 3 1020 92 10000 2.1 70 07:24 12.05.2020
4184 Clear 2 1020 92 10000 1.5 60 06:50 12.05.2020
4185 Clear 2 1020 92 10000 1.5 60 06:29 12.05.2020
4186 Clear 3 1020 92 10000 1.5 50 05:54 12.05.2020
4187 Clear 4 1020 72 10000 1.5 50 05:35 12.05.2020
4188 Clear 4 1019 80 10000 1.5 10 03:43 12.05.2020
4189 Clear 5 1018 64 10000 2.1 340 02:53 12.05.2020
4190 Clouds 5 1018 64 10000 2.1 340 02:25 12.05.2020
4191 Clouds 6 1018 60 10000 3.1 350 01:29 12.05.2020
4192 Clouds 7 1017 56 10000 3.6 350 00:37 12.05.2020
4193 Clouds 7 1017 56 10000 3.6 350 00:18 12.05.2020
4194 Clouds 7 1017 56 10000 3.6 350 00:18 12.05.2020
4195 Clouds 7 1017 56 10000 2.6 360 23:54 11.05.2020
4196 Clouds 8 1016 48 10000 3.1 360 23:36 11.05.2020
4197 Clouds 8 1016 48 10000 3.1 360 23:18 11.05.2020
4198 Clouds 8 1015 48 10000 3.1 360 22:54 11.05.2020
4199 Clouds 8 1015 48 10000 3.1 360 22:36 11.05.2020
4200 Clouds 9 1015 48 10000 3.1 360 22:18 11.05.2020
4201 Clouds 10 1014 42 10000 5.1 360 21:54 11.05.2020
4202 Clouds 10 1014 43 10000 4.6 10 21:36 11.05.2020
4203 Clouds 11 1014 43 10000 4.6 10 21:18 11.05.2020
4204 Clouds 11 1013 37 10000 4.6 10 20:42 11.05.2020
4205 Clouds 11 1013 37 10000 4.6 10 20:21 11.05.2020
4206 Clouds 12 1012 37 10000 6.7 10 19:58 11.05.2020
4207 Clouds 12 1012 37 10000 7.2 350 19:40 11.05.2020
4208 Clouds 13 1012 37 10000 7.2 350 19:21 11.05.2020
4209 Clouds 13 1011 35 10000 7.7 360 18:57 11.05.2020
4210 Clouds 13 1011 37 10000 9.3 40 18:38 11.05.2020
4211 Clouds 13 1011 37 10000 9.3 40 18:19 11.05.2020
4212 Clouds 13 1011 37 10000 8.2 360 17:57 11.05.2020
4213 Clouds 13 1010 40 10000 8.7 20 17:39 11.05.2020
4214 Clouds 13 1010 40 10000 8.7 20 17:20 11.05.2020
4215 Clouds 13 1010 40 10000 8.7 30 16:56 11.05.2020
4216 Clouds 13 1010 37 10000 8.7 20 16:37 11.05.2020
4217 Clouds 13 1009 40 10000 8.2 10 16:18 11.05.2020
4218 Clouds 13 1009 37 10000 9.3 30 15:42 11.05.2020
4219 Clouds 13 1009 37 10000 9.3 30 15:20 11.05.2020
4220 Clouds 12 1009 50 10000 9.8 360 14:58 11.05.2020
4221 Clouds 12 1009 40 10000 10.3 20 14:40 11.05.2020
4222 Clouds 12 1009 41 10000 10.3 20 14:21 11.05.2020
4223 Clouds 12 1009 50 10000 10.3 30 13:54 11.05.2020
4224 Clouds 12 1009 43 10000 8.7 360 13:36 11.05.2020
4225 Clouds 11 1009 43 10000 7.7 20 13:18 11.05.2020
4226 Clouds 11 1009 43 10000 7.7 20 12:54 11.05.2020
4227 Clouds 11 1009 57 10000 8.2 10 12:36 11.05.2020
4228 Clouds 10 1009 57 10000 8.2 10 12:18 11.05.2020
4229 Clouds 9 1009 65 10000 5.7 20 11:41 11.05.2020
4230 Clouds 9 1009 65 10000 5.7 20 11:22 11.05.2020
4231 Clouds 8 1010 70 10000 6.2 10 10:58 11.05.2020
4232 Clouds 8 1010 70 10000 6.2 10 10:58 11.05.2020
4233 Clouds 8 1009 75 10000 5.1 10 10:40 11.05.2020
4234 Clouds 7 1009 75 10000 5.1 10 10:21 11.05.2020
4235 Drizzle 7 1009 80 10000 5.7 10 09:58 11.05.2020
4236 Drizzle 7 1009 80 10000 5.1 10 09:39 11.05.2020
4237 Drizzle 6 1009 80 10000 5.1 10 09:19 11.05.2020
4238 Drizzle 6 1009 86 10000 5.1 360 08:55 11.05.2020
4239 Drizzle 6 1009 86 10000 5.1 360 08:37 11.05.2020
4240 Rain 6 1009 86 10000 4.6 10 08:18 11.05.2020
4241 Drizzle 6 1009 93 10000 4.6 10 07:42 11.05.2020
4242 Drizzle 6 1009 86 10000 4.6 360 07:23 11.05.2020
4243 Rain 7 1009 81 10000 5.1 10 06:43 11.05.2020
4244 Rain 7 1009 70 10000 5.1 10 05:58 11.05.2020
4245 Clouds 7 1008 75 10000 4.6 360 05:25 11.05.2020
4246 Clouds 7 1008 75 10000 5.1 360 04:32 11.05.2020
4247 Rain 7 1008 81 10000 4.1 10 03:29 11.05.2020
4248 Rain 8 1008 76 10000 5.7 10 02:29 11.05.2020
4249 Clouds 9 1007 76 10000 6.7 30 01:43 11.05.2020
4250 Clouds 10 1007 81 10000 7.7 20 00:53 11.05.2020
4251 Clouds 11 1006 82 10000 7.2 360 00:21 11.05.2020
4252 Clouds 12 1006 82 10000 6.7 360 23:45 10.05.2020
4253 Clouds 13 1006 82 10000 6.7 360 23:26 10.05.2020
4254 Clouds 14 1005 72 10000 7.7 10 22:57 10.05.2020
4255 Clouds 15 1005 82 10000 3.1 350 22:39 10.05.2020
4256 Clouds 16 1005 77 10000 2.6 340 22:20 10.05.2020
4257 Clouds 16 1004 72 10000 2.6 340 21:44 10.05.2020
4258 Clouds 18 1004 72 10000 2.6 340 21:20 10.05.2020
4259 Clouds 18 1004 77 10000 2.6 340 20:56 10.05.2020
4260 Clouds 18 1004 77 10000 2.6 330 20:38 10.05.2020
4261 Clouds 19 1004 77 10000 2.6 330 20:20 10.05.2020
4262 Clouds 19 1004 72 10000 2.6 350 19:54 10.05.2020
4263 Clouds 19 1004 68 10000 3.1 330 19:36 10.05.2020
4264 Clouds 19 1004 68 10000 3.1 330 19:18 10.05.2020
4265 Clouds 19 1005 68 10000 2.1 320 18:54 10.05.2020
4266 Clouds 19 1005 68 10000 2.1 320 18:36 10.05.2020
4267 Clouds 19 1005 68 10000 2.1 320 18:18 10.05.2020
4268 Clouds 20 1005 72 10000 3.6 250 17:55 10.05.2020
4269 Clouds 19 1005 82 10000 3.1 240 17:36 10.05.2020
4270 Clouds 19 1005 68 10000 1.5 320 17:18 10.05.2020
4271 Rain 19 1005 77 10000 1 0 16:41 10.05.2020
4272 Rain 19 1005 77 10000 1 0 16:20 10.05.2020
4273 Clouds 20 1005 60 10000 1.5 0 15:58 10.05.2020
4274 Rain 20 1005 60 10000 1.5 350 15:38 10.05.2020
4275 Clouds 20 1005 56 10000 1 0 15:20 10.05.2020
4276 Clouds 20 1005 56 10000 1 0 14:55 10.05.2020
4277 Clouds 20 1005 60 10000 2.1 360 14:37 10.05.2020
4278 Clouds 21 1005 56 10000 0.5 0 14:18 10.05.2020
4279 Clouds 20 1005 56 10000 0.5 0 13:56 10.05.2020
4280 Clouds 20 1005 56 10000 1 0 13:36 10.05.2020
4281 Clouds 20 1005 56 10000 1 0 13:36 10.05.2020
4282 Clouds 20 1005 56 10000 1 0 13:36 10.05.2020
4283 Clouds 20 1005 56 10000 1.5 240 13:18 10.05.2020
4284 Clouds 20 1005 63 10000 1.5 0 12:42 10.05.2020
4285 Clouds 20 1005 63 10000 1.5 0 12:22 10.05.2020
4286 Clouds 19 1005 68 10000 1.5 150 11:59 10.05.2020
4287 Rain 19 1006 68 10000 1.5 0 11:40 10.05.2020
4288 Clouds 18 1006 68 10000 2.6 130 11:21 10.05.2020
4289 Clouds 18 1006 68 10000 2.6 130 10:58 10.05.2020
4290 Clouds 17 1006 72 10000 2.1 100 10:40 10.05.2020
4291 Clouds 16 1011 59 0 0.45 121 10:22 10.05.2020
4292 Rain 15 1006 76 10000 1 0 09:42 10.05.2020
4293 Rain 15 1006 76 10000 1 0 09:23 10.05.2020
4294 Rain 13 1006 87 10000 1.5 150 08:59 10.05.2020
4295 Clouds 13 1006 87 10000 1 70 08:40 10.05.2020
4296 Clouds 13 1006 87 10000 1 70 08:22 10.05.2020
4297 Clouds 13 1006 81 10000 2.1 60 07:42 10.05.2020
4298 Clouds 13 1006 81 10000 2.1 60 07:19 10.05.2020
4299 Clouds 12 1006 81 10000 1.5 60 06:50 10.05.2020
4300 Clouds 12 1006 87 10000 1.5 90 06:27 10.05.2020
4301 Clouds 12 1007 93 10000 1.5 60 05:48 10.05.2020
4302 Clouds 13 1007 87 10000 1 0 04:48 10.05.2020
4303 Clouds 13 1007 87 10000 2.1 70 04:29 10.05.2020
4304 Clouds 13 1007 81 10000 1 0 03:51 10.05.2020
4305 Clouds 14 1008 82 10000 2.1 80 03:30 10.05.2020
4306 Clouds 14 1008 82 10000 1.5 80 02:25 10.05.2020
4307 Clouds 15 1008 81 10000 1 0 01:59 10.05.2020
4308 Clouds 15 1008 82 10000 2.6 50 01:40 10.05.2020
4309 Clouds 15 1009 82 10000 1.5 60 01:19 10.05.2020
4310 Clouds 15 1009 82 10000 1.5 60 00:53 10.05.2020
4311 Clouds 16 1009 72 10000 1 0 00:23 10.05.2020
4312 Clouds 16 1009 76 10000 0.5 0 23:58 09.05.2020
4313 Clouds 17 1009 67 10000 2.1 100 23:39 09.05.2020
4314 Clouds 18 1009 67 10000 2.1 100 23:20 09.05.2020
4315 Clouds 19 1009 59 10000 2.6 130 22:42 09.05.2020
4316 Clouds 19 1009 59 10000 2.6 130 22:24 09.05.2020
4317 Clouds 20 1009 59 10000 2.6 140 21:58 09.05.2020
4318 Clouds 21 1009 55 10000 2.6 150 21:40 09.05.2020
4319 Clouds 21 1009 55 10000 2.6 150 21:21 09.05.2020
4320 Clouds 22 1009 52 10000 3.1 150 20:58 09.05.2020
4321 Clouds 23 1009 40 10000 2.6 120 20:38 09.05.2020
4322 Clouds 23 1009 43 10000 3.6 150 20:20 09.05.2020
4323 Clouds 24 1009 43 10000 3.6 150 19:56 09.05.2020
4324 Clouds 24 1009 38 10000 4.1 150 19:38 09.05.2020
4325 Clouds 25 1010 38 10000 3.6 140 19:19 09.05.2020
4326 Clouds 25 1010 38 10000 3.6 150 18:44 09.05.2020
4327 Clouds 25 1010 38 10000 3.6 150 18:26 09.05.2020
4328 Clouds 25 1010 36 10000 2.6 120 17:56 09.05.2020
4329 Clouds 26 1010 33 0 3.6 160 17:36 09.05.2020
4330 Clouds 26 1011 33 10000 2.1 0 17:18 09.05.2020
4331 Clouds 25 1011 33 10000 2.6 110 16:41 09.05.2020
4332 Clouds 25 1011 38 10000 2.1 0 16:20 09.05.2020
4333 Clouds 25 1012 38 10000 1.5 0 15:45 09.05.2020
4334 Clouds 25 1012 38 10000 1.5 0 15:26 09.05.2020
4335 Clouds 25 1012 38 10000 1.5 0 14:59 09.05.2020
4336 Clouds 24 1012 40 10000 2.6 70 14:40 09.05.2020
4337 Clouds 24 1012 40 10000 2.6 70 14:19 09.05.2020
4338 Clouds 23 1012 40 10000 1.5 60 13:58 09.05.2020
4339 Clouds 22 1012 43 10000 1.5 140 13:40 09.05.2020
4340 Clouds 22 1013 40 10000 2.1 130 13:20 09.05.2020
4341 Clouds 21 1013 42 10000 2.1 130 12:42 09.05.2020
4342 Clouds 20 1013 45 10000 1.5 0 12:22 09.05.2020
4343 Clouds 20 1013 45 10000 1.5 0 11:56 09.05.2020
4344 Clouds 20 1013 52 10000 2.6 130 11:37 09.05.2020
4345 Clouds 19 1013 51 10000 2.6 90 11:18 09.05.2020
4346 Clouds 18 1014 55 10000 2.1 80 10:43 09.05.2020
4347 Clouds 17 1014 55 10000 2.1 80 10:25 09.05.2020
4348 Clouds 17 1014 51 10000 2.1 90 09:58 09.05.2020
4349 Clouds 16 1014 54 10000 1.5 130 09:38 09.05.2020
4350 Clouds 16 1014 62 10000 1 0 09:19 09.05.2020
4351 Clouds 15 1014 62 10000 1 0 08:51 09.05.2020
4352 Clouds 13 1014 76 10000 1.5 160 08:33 09.05.2020
4353 Clouds 12 1014 87 10000 1.5 120 07:51 09.05.2020
4354 Clouds 12 1014 81 10000 1.5 50 07:33 09.05.2020
4355 Clouds 11 1014 93 10000 3.1 150 06:55 09.05.2020
4356 Clouds 11 1014 76 10000 1.5 80 06:26 09.05.2020
4357 Clouds 12 1014 81 10000 0.5 0 05:49 09.05.2020
4358 Clouds 12 1015 76 10000 2.6 50 04:43 09.05.2020
4359 Clouds 13 1015 62 10000 1.5 0 03:38 09.05.2020
4360 Clouds 13 1015 71 10000 1 40 02:50 09.05.2020
4361 Clouds 13 1015 66 10000 0.5 0 01:54 09.05.2020
4362 Clouds 14 1015 62 10000 1 0 01:26 09.05.2020
4363 Clouds 14 1015 62 10000 0.5 0 00:59 09.05.2020
4364 Clouds 14 1015 58 10000 0.5 0 00:38 09.05.2020
4365 Clouds 15 1015 62 10000 1.5 120 23:58 08.05.2020
4366 Clouds 16 1015 51 10000 3.1 60 23:39 08.05.2020
4367 Clouds 16 1016 48 10000 3.1 60 23:19 08.05.2020
4368 Clouds 17 1016 48 10000 3.1 60 22:54 08.05.2020
4369 Clouds 18 1016 45 10000 3.1 70 22:36 08.05.2020
4370 Clouds 18 1015 42 10000 3.6 50 22:18 08.05.2020
4371 Clouds 18 1016 45 10000 3.1 70 22:18 08.05.2020
4372 Clouds 18 1015 42 10000 3.6 50 21:54 08.05.2020
4373 Clouds 19 1015 39 10000 4.1 40 21:36 08.05.2020
4374 Clouds 19 1015 39 10000 4.1 40 21:18 08.05.2020
4375 Clouds 20 1015 40 10000 3.1 350 20:41 08.05.2020
4376 Clouds 21 1016 37 10000 3.6 320 20:23 08.05.2020
4377 Clouds 21 1016 37 10000 3.6 320 19:58 08.05.2020
4378 Clouds 22 1015 33 10000 2.6 340 19:40 08.05.2020
4379 Clouds 22 1015 33 10000 2.6 340 19:20 08.05.2020
4380 Clouds 22 1016 33 10000 3.6 330 18:45 08.05.2020
4381 Clouds 23 1016 33 10000 4.6 310 18:27 08.05.2020
4382 Clouds 23 1016 33 10000 3.1 330 17:43 08.05.2020
4383 Clouds 23 1016 33 10000 3.1 330 17:43 08.05.2020
4384 Clouds 23 1016 33 10000 3.1 330 17:20 08.05.2020
4385 Clouds 23 1016 33 10000 3.1 300 16:56 08.05.2020
4386 Clouds 23 1016 31 10000 2.1 280 16:38 08.05.2020
4387 Clouds 23 1017 31 10000 1.5 0 16:19 08.05.2020
4388 Clouds 23 1017 31 10000 2.6 0 15:43 08.05.2020
4389 Clouds 23 1017 35 10000 2.6 260 15:22 08.05.2020
4390 Clouds 23 1017 35 10000 2.6 260 14:57 08.05.2020
4391 Clouds 23 1017 33 10000 2.1 0 14:39 08.05.2020
4392 Clouds 23 1017 33 10000 2.1 0 14:19 08.05.2020
4393 Clouds 22 1018 35 10000 3.1 220 13:55 08.05.2020
4394 Clouds 22 1018 37 10000 2.6 0 13:37 08.05.2020
4395 Clouds 22 1018 40 10000 2.1 260 13:18 08.05.2020
4396 Clouds 21 1018 42 10000 2.1 0 12:42 08.05.2020
4397 Clouds 20 1018 42 10000 2.1 0 12:23 08.05.2020
4398 Clouds 20 1019 42 10000 1.5 0 11:54 08.05.2020
4399 Clouds 19 1019 48 10000 1 0 11:36 08.05.2020
4400 Clouds 18 1019 51 10000 1 0 11:18 08.05.2020
4401 Clouds 18 1019 58 10000 2.1 180 10:42 08.05.2020
4402 Clouds 16 1019 58 10000 2.1 180 10:20 08.05.2020
4403 Clouds 16 1019 58 10000 2.1 160 09:58 08.05.2020
4404 Clouds 14 1019 71 10000 1.5 160 09:39 08.05.2020
4405 Clouds 13 1019 76 10000 1.5 150 09:18 08.05.2020
4406 Clouds 11 1019 81 10000 0.5 0 08:45 08.05.2020
4407 Clouds 11 1019 81 10000 0.5 0 08:23 08.05.2020
4408 Clouds 9 1019 93 10000 0.5 60 07:44 08.05.2020
4409 Clouds 9 1019 93 10000 0.5 60 07:25 08.05.2020
4410 Clouds 9 1019 93 10000 0.5 0 06:51 08.05.2020
4411 Clouds 9 1019 93 10000 0.5 0 06:24 08.05.2020
4412 Clouds 9 1019 93 10000 0.5 0 05:59 08.05.2020
4413 Clouds 10 1019 87 10000 1 0 04:50 08.05.2020
4414 Clouds 11 1019 76 10000 2.1 50 02:54 08.05.2020
4415 Clouds 12 1020 71 10000 1.5 80 02:21 08.05.2020
4416 Clouds 12 1020 66 10000 1 0 01:37 08.05.2020
4417 Clouds 13 1020 66 10000 1 0 01:18 08.05.2020
4418 Clouds 13 1020 71 10000 2.1 140 00:45 08.05.2020
4419 Clouds 13 1020 71 10000 2.1 140 00:22 08.05.2020
4420 Clouds 14 1020 62 10000 0.5 100 23:44 07.05.2020
4421 Clouds 14 1020 62 10000 0.5 100 23:24 07.05.2020
4422 Clouds 15 1020 58 10000 2.1 60 22:59 07.05.2020
4423 Clouds 16 1020 58 10000 1.5 60 22:41 07.05.2020
4424 Clouds 16 1020 58 10000 1.5 60 22:20 07.05.2020
4425 Clouds 17 1020 58 10000 1.5 50 21:57 07.05.2020
4426 Clouds 18 1020 54 10000 1 0 21:38 07.05.2020
4427 Clouds 18 1020 54 10000 1 0 21:19 07.05.2020
4428 Clouds 18 1020 54 10000 1 0 21:19 07.05.2020
4429 Clouds 19 1020 48 10000 1 60 20:57 07.05.2020
4430 Clouds 19 1020 48 10000 1 70 20:37 07.05.2020
4431 Clouds 20 1020 34 10000 1 0 20:19 07.05.2020
4432 Clouds 20 1020 26 0 1 0 19:46 07.05.2020
4433 Clouds 21 1020 26 0 1 0 19:22 07.05.2020
4434 Clouds 22 1020 24 10000 1.5 10 18:56 07.05.2020
4435 Clouds 22 1021 36 10000 2.1 270 18:38 07.05.2020
4436 Clouds 23 1021 30 10000 1.5 290 18:20 07.05.2020
4437 Clouds 22 1021 24 10000 1.5 260 17:41 07.05.2020
4438 Clouds 23 1022 27 10000 1 0 17:20 07.05.2020
4439 Clouds 22 1022 22 10000 2.1 360 16:43 07.05.2020
4440 Clear 22 1023 20 10000 1.5 0 16:19 07.05.2020
4441 Clear 21 1023 20 10000 1.5 0 15:58 07.05.2020
4442 Clear 21 1023 20 10000 1 0 15:39 07.05.2020
4443 Clear 22 1023 20 10000 1 0 15:19 07.05.2020
4444 Clear 21 1023 24 10000 2.1 0 14:59 07.05.2020
4445 Clear 21 1024 25 10000 2.6 0 14:41 07.05.2020
4446 Clear 20 1024 25 10000 2.6 0 14:18 07.05.2020
4447 Clear 20 1024 32 10000 3.1 230 13:42 07.05.2020
4448 Clear 19 1024 32 10000 3.1 230 13:24 07.05.2020
4449 Clear 19 1024 36 10000 2.6 0 12:44 07.05.2020
4450 Clear 18 1024 36 10000 2.6 0 12:20 07.05.2020
4451 Clear 18 1025 33 10000 1.5 260 11:58 07.05.2020
4452 Clear 17 1025 38 10000 1 0 11:38 07.05.2020
4453 Clear 16 1025 47 10000 1 0 11:20 07.05.2020
4454 Clear 14 1025 47 10000 1 0 10:41 07.05.2020
4455 Clear 14 1025 47 10000 1 0 10:22 07.05.2020
4456 Clear 12 1025 61 10000 1 0 09:41 07.05.2020
4457 Clear 12 1025 61 10000 1 0 09:41 07.05.2020
4458 Clear 11 1025 61 10000 1 0 09:20 07.05.2020
4459 Clear 10 1025 70 10000 1 0 08:57 07.05.2020
4460 Clear 10 1025 70 10000 1 0 08:38 07.05.2020
4461 Clear 8 1025 86 10000 1.5 150 08:20 07.05.2020
4462 Clear 7 1025 86 10000 0.5 0 07:46 07.05.2020
4463 Clear 6 1025 86 10000 0.5 0 07:28 07.05.2020
4464 Clear 5 1025 93 10000 1 0 06:52 07.05.2020
4465 Clear 5 1025 86 10000 1 0 06:33 07.05.2020
4466 Clear 6 1025 86 10000 1 0 05:38 07.05.2020
4467 Clear 7 1025 86 10000 1 0 04:25 07.05.2020
4468 Clear 8 1025 80 10000 2.6 60 03:26 07.05.2020
4469 Clear 8 1025 80 10000 1 0 02:55 07.05.2020
4470 Clear 9 1025 86 10000 1.5 60 02:19 07.05.2020
4471 Clear 9 1025 75 10000 0.5 0 01:24 07.05.2020
4472 Clear 10 1025 70 10000 3.1 60 00:50 07.05.2020
4473 Clear 11 1025 70 10000 3.1 60 00:29 07.05.2020
4474 Clear 11 1025 61 10000 3.1 70 23:58 06.05.2020
4475 Clear 11 1024 66 10000 2.6 60 23:38 06.05.2020
4476 Clear 12 1024 66 10000 2.6 60 23:19 06.05.2020
4477 Clear 13 1024 53 10000 2.1 60 22:54 06.05.2020
4478 Clear 13 1024 53 10000 2.1 60 22:36 06.05.2020
4479 Clear 13 1024 53 10000 2.1 60 22:18 06.05.2020
4480 Clear 15 1024 47 10000 2.1 20 21:42 06.05.2020
4481 Clear 15 1024 42 10000 2.1 20 21:22 06.05.2020
4482 Clear 17 1024 36 10000 2.6 360 20:57 06.05.2020
4483 Clear 17 1023 33 10000 3.6 340 20:38 06.05.2020
4484 Clear 17 1023 39 10000 4.1 330 20:20 06.05.2020
4485 Clear 18 1023 39 10000 4.1 330 19:56 06.05.2020
4486 Clear 18 1023 39 10000 3.1 330 19:37 06.05.2020
4487 Clear 19 1023 34 10000 3.6 310 19:18 06.05.2020
4488 Clear 19 1023 34 10000 3.6 310 18:55 06.05.2020
4489 Clear 19 1023 25 10000 1.5 0 18:37 06.05.2020
4490 Clear 19 1023 25 10000 2.1 0 18:18 06.05.2020
4491 Clear 19 1023 25 10000 2.1 0 17:54 06.05.2020
4492 Clear 19 1024 25 10000 3.1 0 17:36 06.05.2020
4493 Clear 19 1024 25 10000 2.1 0 17:18 06.05.2020
4494 Clear 20 1024 25 10000 3.1 0 17:18 06.05.2020
4495 Clear 19 1024 25 10000 2.1 0 16:57 06.05.2020
4496 Clear 19 1024 27 10000 2.6 10 16:39 06.05.2020
4497 Clear 19 1024 27 10000 1 0 16:19 06.05.2020
4498 Clear 18 1024 27 10000 2.6 140 15:47 06.05.2020
4499 Clear 18 1024 27 10000 2.6 140 15:22 06.05.2020
4500 Clear 18 1024 29 10000 2.6 0 14:58 06.05.2020
4501 Clear 18 1024 26 10000 2.1 0 14:39 06.05.2020
4502 Clear 18 1024 26 10000 2.1 0 14:19 06.05.2020
4503 Clear 17 1025 29 10000 3.1 90 14:19 06.05.2020
4504 Clear 17 1025 29 10000 3.1 90 13:58 06.05.2020
4505 Clear 17 1025 31 10000 3.6 0 13:39 06.05.2020
4506 Clear 16 1025 28 10000 3.6 60 13:19 06.05.2020
4507 Clear 16 1025 30 10000 2.6 80 12:43 06.05.2020
4508 Clear 16 1025 30 10000 2.6 80 12:25 06.05.2020
4509 Clear 14 1025 33 10000 3.6 0 11:55 06.05.2020
4510 Clear 14 1025 33 10000 3.6 0 11:36 06.05.2020
4511 Clear 13 1025 37 10000 3.1 160 11:18 06.05.2020
4512 Clear 13 1025 37 10000 3.1 160 10:55 06.05.2020
4513 Clear 13 1025 50 10000 2.6 160 10:36 06.05.2020
4514 Clear 12 1025 50 10000 2.1 150 10:18 06.05.2020
4515 Clear 11 1025 57 10000 2.1 130 09:39 06.05.2020
4516 Clear 10 1025 61 10000 1 0 09:20 06.05.2020
4517 Clear 8 1025 80 10000 0.5 0 08:44 06.05.2020
4518 Clear 7 1025 80 10000 0.5 0 08:21 06.05.2020
4519 Clear 6 1024 59 10000 1 0 07:57 06.05.2020
4520 Clear 5 1024 86 10000 0.5 0 07:39 06.05.2020
4521 Clear 5 1024 66 10000 0.5 0 07:19 06.05.2020
4522 Clear 4 1024 66 10000 0.5 0 06:49 06.05.2020
4523 Clear 5 1024 67 10000 0.5 0 06:21 06.05.2020
4524 Clear 5 1024 67 10000 1 0 05:50 06.05.2020
4525 Clear 5 1023 66 10000 0.5 0 05:32 06.05.2020
4526 Clear 6 1023 64 10000 1 0 03:55 06.05.2020
4527 Clear 6 1023 64 10000 1 0 03:34 06.05.2020
4528 Clear 7 1023 62 10000 1.5 0 02:58 06.05.2020
4529 Clear 7 1023 60 10000 0.5 0 02:28 06.05.2020
4530 Clear 7 1023 75 10000 0.5 0 01:53 06.05.2020
4531 Clear 8 1023 75 10000 2.1 40 01:27 06.05.2020
4532 Clear 8 1022 70 10000 0.5 0 00:45 06.05.2020
4533 Clear 9 1022 70 10000 0.5 0 00:23 06.05.2020
4534 Clear 9 1022 70 10000 1.5 50 23:42 05.05.2020
4535 Clear 10 1021 61 10000 1.5 40 23:20 05.05.2020
4536 Clear 10 1021 61 10000 1.5 40 22:59 05.05.2020
4537 Clear 11 1021 51 10000 2.1 40 22:40 05.05.2020
4538 Clear 12 1020 51 10000 2.6 40 22:19 05.05.2020
4539 Clear 12 1020 51 10000 4.1 40 21:56 05.05.2020
4540 Clear 12 1020 51 10000 4.1 40 21:38 05.05.2020
4541 Clear 13 1020 47 10000 4.1 40 21:19 05.05.2020
4542 Clear 13 1020 47 10000 4.1 40 21:19 05.05.2020
4543 Clear 14 1020 48 10000 5.1 30 20:56 05.05.2020
4544 Clear 14 1020 48 10000 5.1 30 20:38 05.05.2020
4545 Clear 15 1019 41 10000 5.1 30 20:18 05.05.2020
4546 Clear 15 1019 38 10000 6.2 10 19:42 05.05.2020
4547 Clear 16 1019 38 10000 5.7 20 19:23 05.05.2020
4548 Clear 16 1019 38 10000 5.7 20 18:58 05.05.2020
4549 Clear 16 1019 37 10000 5.1 30 18:40 05.05.2020
4550 Clear 16 1019 35 10000 5.1 30 18:20 05.05.2020
4551 Clear 16 1019 33 10000 4.6 20 17:58 05.05.2020
4552 Clear 16 1019 30 10000 3.1 0 17:39 05.05.2020
4553 Clear 16 1019 26 10000 4.6 30 17:21 05.05.2020
4554 Clear 16 1019 26 10000 4.6 30 16:56 05.05.2020
4555 Clear 16 1019 26 10000 4.1 0 16:36 05.05.2020
4556 Clear 16 1019 28 10000 3.6 10 16:18 05.05.2020
4557 Clear 16 1019 28 10000 3.6 10 16:18 05.05.2020
4558 Clear 16 1019 26 10000 4.1 20 15:41 05.05.2020
4559 Clear 15 1019 26 10000 4.1 20 15:22 05.05.2020
4560 Clear 15 1019 28 10000 3.6 20 14:58 05.05.2020
4561 Clear 16 1020 33 10000 2.1 0 14:39 05.05.2020
4562 Clouds 15 1020 30 10000 2.6 0 14:20 05.05.2020
4563 Clouds 15 1020 30 10000 2.6 0 13:58 05.05.2020
4564 Clouds 14 1020 37 10000 2.1 0 13:39 05.05.2020
4565 Clouds 14 1020 37 10000 2.1 0 13:21 05.05.2020
4566 Clouds 14 1020 33 10000 2.1 0 12:58 05.05.2020
4567 Clouds 13 1020 43 10000 3.1 50 12:39 05.05.2020
4568 Clouds 13 1020 30 10000 3.6 60 12:19 05.05.2020
4569 Clouds 12 1020 35 10000 3.6 60 11:42 05.05.2020
4570 Clouds 12 1020 40 10000 3.6 60 11:21 05.05.2020
4571 Clouds 11 1020 40 10000 2.6 70 10:59 05.05.2020
4572 Clouds 11 1021 57 10000 2.1 50 10:39 05.05.2020
4573 Clouds 10 1020 61 10000 1.5 0 10:19 05.05.2020
4574 Clouds 9 1020 61 10000 1.5 0 09:58 05.05.2020
4575 Clouds 9 1020 65 10000 2.1 90 09:40 05.05.2020
4576 Clouds 8 1020 65 10000 2.1 90 09:22 05.05.2020
4577 Clouds 8 1020 70 10000 0.5 0 08:41 05.05.2020
4578 Clouds 8 1021 70 10000 0.5 0 08:20 05.05.2020
4579 Clouds 7 1021 70 10000 0.5 0 07:58 05.05.2020
4580 Clouds 7 1020 75 10000 1 0 07:38 05.05.2020
4581 Clouds 7 1020 75 10000 1.5 60 07:19 05.05.2020
4582 Clouds 7 1020 75 10000 1.5 70 06:49 05.05.2020
4583 Clouds 6 1020 75 10000 1.5 70 06:22 05.05.2020
4584 Clear 7 1020 70 10000 3.6 80 05:37 05.05.2020
4585 Clear 8 1019 70 10000 5.1 60 03:35 05.05.2020
4586 Clear 9 1021 75 10000 3.6 50 01:51 05.05.2020
4587 Clear 10 1020 75 10000 3.6 50 00:54 05.05.2020
4588 Clear 10 1020 75 10000 3.1 50 00:22 05.05.2020
4589 Clear 10 1020 87 10000 2.6 60 23:45 04.05.2020
4590 Clear 10 1020 87 10000 2.6 60 23:23 04.05.2020
4591 Clear 11 1019 81 10000 2.1 60 22:56 04.05.2020
4592 Clear 11 1019 81 10000 1.5 70 22:38 04.05.2020
4593 Clear 12 1019 76 10000 1.5 60 22:19 04.05.2020
4594 Clear 12 1019 76 10000 1.5 60 21:56 04.05.2020
4595 Clear 13 1018 62 10000 1.5 60 21:35 04.05.2020
4596 Clear 14 1018 50 10000 3.1 30 21:03 04.05.2020
4597 Clear 14 1018 50 10000 3.1 30 21:03 04.05.2020
4598 Clear 14 1018 50 10000 3.1 30 21:01 04.05.2020
4599 Clear 14 1018 50 10000 3.1 30 20:59 04.05.2020
4600 Clear 14 1018 50 10000 3.1 30 20:59 04.05.2020
4601 Clear 15 1018 50 10000 5.1 30 20:38 04.05.2020
4602 Clear 15 1018 50 10000 5.1 30 20:38 04.05.2020
4603 Clouds 15 1018 50 10000 5.1 30 20:18 04.05.2020
4604 Clouds 16 1018 41 10000 5.7 360 19:43 04.05.2020
4605 Clouds 16 1018 41 10000 5.7 360 19:23 04.05.2020
4606 Clouds 16 1018 41 10000 5.7 360 19:23 04.05.2020
4607 Clouds 16 1018 44 10000 4.6 20 18:58 04.05.2020
4608 Clouds 16 1018 54 10000 4.6 10 18:38 04.05.2020
4609 Clouds 16 1018 44 10000 4.6 360 18:19 04.05.2020
4610 Clouds 16 1018 48 10000 5.1 10 17:56 04.05.2020
4611 Clouds 16 1018 48 10000 5.1 10 17:37 04.05.2020
4612 Clouds 15 1018 54 10000 2.6 20 17:19 04.05.2020
4613 Clouds 16 1018 55 10000 4.6 10 16:43 04.05.2020
4614 Rain 16 1018 54 10000 4.1 360 16:23 04.05.2020
4615 Rain 16 1018 54 10000 4.1 360 15:58 04.05.2020
4616 Rain 15 1018 58 10000 3.1 20 15:39 04.05.2020
4617 Rain 15 1018 58 10000 3.1 20 15:20 04.05.2020
4618 Rain 15 1017 58 10000 5.7 40 14:48 04.05.2020
4619 Rain 14 1017 58 10000 5.7 40 14:20 04.05.2020
4620 Rain 14 1017 71 10000 5.7 20 13:21 04.05.2020
4621 Rain 14 1017 71 10000 5.7 20 13:21 04.05.2020
4622 Rain 14 1017 71 10000 5.7 20 13:21 04.05.2020
4623 Rain 13 1017 71 10000 3.1 20 12:44 04.05.2020
4624 Rain 13 1017 71 10000 3.1 20 12:44 04.05.2020
4625 Rain 13 1017 71 10000 3.1 20 12:44 04.05.2020
4626 Rain 13 1017 71 10000 3.1 20 12:44 04.05.2020
4627 Rain 13 1017 71 10000 3.1 20 12:44 04.05.2020
4628 Rain 13 1016 71 10000 3.1 30 11:21 04.05.2020
4629 Clouds 12 1016 81 10000 1 0 09:28 04.05.2020
4630 Rain 11 1015 87 10000 1 0 07:53 04.05.2020
4631 Rain 11 1015 87 10000 1 0 07:33 04.05.2020
4632 Clouds 11 1015 81 10000 2.1 60 05:49 04.05.2020
4633 Clouds 12 1016 87 10000 1.5 60 04:52 04.05.2020
4634 Clouds 12 1016 87 10000 1.5 60 04:52 04.05.2020
4635 Clouds 12 1016 87 10000 2.1 30 02:54 04.05.2020
4636 Rain 12 1016 81 10000 0.5 0 01:39 04.05.2020
4637 Clouds 12 1017 81 10000 3.1 60 00:18 04.05.2020
4638 Rain 13 1017 87 10000 2.1 60 23:43 03.05.2020
4639 Rain 13 1017 87 10000 2.1 60 23:43 03.05.2020
4640 Rain 13 1017 87 10000 2.1 60 23:23 03.05.2020
4641 Rain 13 1017 71 10000 1.5 210 22:44 03.05.2020
4642 Rain 13 1017 71 10000 1.5 210 22:25 03.05.2020
4643 Rain 14 1017 66 10000 2.1 60 21:56 03.05.2020
4644 Rain 14 1017 66 10000 2.6 40 21:38 03.05.2020
4645 Rain 14 1017 71 10000 3.1 10 21:19 03.05.2020
4646 Rain 14 1017 71 10000 3.1 10 21:19 03.05.2020
4647 Rain 14 1017 66 10000 2.6 40 21:19 03.05.2020
4648 Rain 14 1017 66 10000 2.6 40 21:19 03.05.2020
4649 Rain 15 1017 62 10000 3.1 290 20:42 03.05.2020
4650 Rain 15 1017 62 10000 3.1 290 20:42 03.05.2020
4651 Clouds 15 1017 54 10000 4.1 230 20:20 03.05.2020
4652 Clouds 15 1017 48 10000 1 0 19:49 03.05.2020
4653 Rain 16 1017 48 10000 1 0 19:30 03.05.2020
4654 Rain 17 1017 45 10000 1.5 50 18:56 03.05.2020
4655 Rain 17 1017 45 10000 1.5 50 18:56 03.05.2020
4656 Rain 17 1017 45 10000 2.6 110 18:38 03.05.2020
4657 Rain 17 1017 45 10000 2.6 110 18:38 03.05.2020
4658 Rain 17 1017 45 10000 2.6 110 18:38 03.05.2020
4659 Rain 17 1017 45 10000 2.6 110 18:38 03.05.2020
4660 Rain 17 1017 45 10000 2.6 110 18:38 03.05.2020
4661 Rain 17 1017 45 10000 2.6 110 18:19 03.05.2020
4662 Rain 17 1017 45 10000 2.6 110 18:19 03.05.2020
4663 Rain 17 1017 45 10000 2.6 110 18:19 03.05.2020
4664 Rain 17 1017 45 10000 2.6 110 18:19 03.05.2020
4665 Rain 17 1017 45 10000 2.6 110 18:19 03.05.2020
4666 Rain 17 1017 42 10000 1.5 0 17:41 03.05.2020
4667 Rain 17 1017 42 10000 1.5 0 17:41 03.05.2020
4668 Clouds 18 1017 42 10000 1.5 0 17:21 03.05.2020
4669 Clouds 17 1017 44 10000 2.1 0 16:45 03.05.2020
4670 Clouds 17 1017 44 10000 2.1 0 16:21 03.05.2020
4671 Clouds 17 1017 42 10000 1.5 100 15:59 03.05.2020
4672 Clouds 18 1018 39 10000 2.6 270 15:40 03.05.2020
4673 Clouds 18 1018 42 10000 2.1 250 15:20 03.05.2020
4674 Clouds 17 1018 42 10000 2.1 250 14:58 03.05.2020
4675 Clouds 17 1018 44 10000 1.5 0 14:40 03.05.2020
4676 Clouds 16 1018 44 10000 1.5 0 14:21 03.05.2020
4677 Clouds 16 1018 51 10000 2.1 0 13:54 03.05.2020
4678 Clouds 16 1018 51 10000 2.1 0 13:21 03.05.2020
4679 Clouds 16 1018 51 10000 2.1 0 13:21 03.05.2020
4680 Clouds 16 1018 51 10000 2.1 0 13:21 03.05.2020
4681 Clouds 15 1019 50 10000 1.5 0 12:45 03.05.2020
4682 Clouds 14 1019 50 10000 1.5 0 12:18 03.05.2020
4683 Clouds 14 1019 58 10000 1 0 11:56 03.05.2020
4684 Clouds 14 1018 58 10000 1 0 11:37 03.05.2020
4685 Clouds 13 1018 58 10000 1 0 11:19 03.05.2020
4686 Clouds 12 1019 71 10000 1 0 10:47 03.05.2020
4687 Clouds 12 1019 71 10000 1 0 10:47 03.05.2020
4688 Clouds 12 1019 71 10000 1 0 10:47 03.05.2020
4689 Clouds 12 1019 71 10000 1 0 10:47 03.05.2020
4690 Clouds 11 1018 71 10000 1 0 09:58 03.05.2020
4691 Clouds 10 1018 76 10000 2.1 140 09:38 03.05.2020
4692 Clouds 9 1018 81 10000 1.5 120 08:56 03.05.2020
4693 Clear 7 1018 93 10000 2.1 140 08:27 03.05.2020
4694 Clear 6 1018 93 10000 2.1 60 07:40 03.05.2020
4695 Clear 5 1017 93 10000 2.1 0 06:29 03.05.2020
4696 Clear 5 1017 93 10000 2.1 0 06:29 03.05.2020
4697 Clear 5 1017 93 10000 2.1 0 06:29 03.05.2020
4698 Clear 5 1017 93 10000 2.1 0 06:29 03.05.2020
4699 Clear 5 1017 93 10000 2.1 0 06:29 03.05.2020
4700 Clear 6 1017 100 10000 1 0 05:49 03.05.2020
4701 Clear 6 1017 93 10000 1 60 05:28 03.05.2020
4702 Clear 6 1017 93 10000 1 60 05:28 03.05.2020
4703 Clear 6 1017 93 10000 1 60 05:28 03.05.2020
4704 Clear 6 1017 93 10000 1 60 05:28 03.05.2020
4705 Clear 6 1016 100 10000 0.5 0 04:27 03.05.2020
4706 Clear 6 1016 100 10000 0.5 0 04:27 03.05.2020
4707 Clear 7 1016 100 10000 1 0 03:29 03.05.2020
4708 Clear 7 1016 93 10000 0.5 0 02:30 03.05.2020
4709 Clear 7 1015 93 10000 1 0 01:47 03.05.2020
4710 Clear 7 1015 93 10000 1 0 01:27 03.05.2020
4711 Clear 8 1015 93 10000 0.5 0 00:57 03.05.2020
4712 Clear 8 1015 93 10000 0.5 0 00:57 03.05.2020
4713 Clear 9 1015 93 10000 1 0 00:38 03.05.2020
4714 Clear 9 1015 93 10000 1 0 00:20 03.05.2020
4715 Clear 9 1015 87 10000 1 0 23:44 02.05.2020
4716 Clear 9 1015 87 10000 1 0 23:26 02.05.2020
4717 Clear 10 1014 87 10000 1 0 22:56 02.05.2020
4718 Clouds 10 1014 87 10000 1 0 22:37 02.05.2020
4719 Clouds 10 1014 87 10000 1 0 22:19 02.05.2020
4720 Clouds 11 1013 81 10000 2.1 240 21:40 02.05.2020
4721 Clouds 11 1013 81 10000 2.1 240 21:20 02.05.2020
4722 Clouds 12 1012 76 10000 3.1 250 20:58 02.05.2020
4723 Clouds 12 1012 71 10000 4.1 280 20:38 02.05.2020
4724 Clouds 12 1012 71 10000 4.1 280 20:20 02.05.2020
4725 Clouds 12 1012 71 10000 3.6 270 19:57 02.05.2020
4726 Clouds 12 1012 66 10000 5.1 270 19:39 02.05.2020
4727 Clouds 12 1011 66 10000 7.7 290 19:20 02.05.2020
4728 Clouds 12 1012 66 10000 5.1 270 19:20 02.05.2020
4729 Clouds 12 1011 66 10000 7.7 290 18:56 02.05.2020
4730 Clouds 12 1011 66 10000 7.2 280 18:37 02.05.2020
4731 Clouds 12 1011 66 10000 7.2 280 18:19 02.05.2020
4732 Clouds 13 1011 71 10000 5.1 300 17:55 02.05.2020
4733 Clouds 12 1010 81 10000 5.1 290 17:37 02.05.2020
4734 Rain 12 1016 56 0 2.68 273 17:19 02.05.2020
4735 Clouds 12 1010 58 10000 6.7 270 16:44 02.05.2020
4736 Clouds 13 1010 58 10000 6.7 270 16:25 02.05.2020
4737 Clouds 12 1010 62 10000 6.7 280 15:55 02.05.2020
4738 Clouds 13 1010 66 10000 7.7 270 15:36 02.05.2020
4739 Clouds 12 1010 66 10000 7.7 270 15:18 02.05.2020
4740 Clouds 12 1009 71 10000 6.7 270 14:41 02.05.2020
4741 Clouds 12 1009 71 10000 6.7 270 14:23 02.05.2020
4742 Clouds 12 1009 76 10000 5.1 280 13:58 02.05.2020
4743 Rain 11 1009 81 10000 6.7 280 13:38 02.05.2020
4744 Rain 10 1009 81 10000 6.7 280 13:18 02.05.2020
4745 Rain 10 1008 58 10000 8.2 270 12:40 02.05.2020
4746 Rain 10 1008 58 10000 8.2 270 12:20 02.05.2020
4747 Rain 10 1008 66 10000 9.8 280 11:57 02.05.2020
4748 Rain 10 1007 71 10000 8.2 260 11:39 02.05.2020
4749 Rain 10 1007 71 10000 8.2 260 11:20 02.05.2020
4750 Rain 10 1007 76 10000 5.1 260 10:40 02.05.2020
4751 Rain 10 1007 76 10000 5.1 260 10:40 02.05.2020
4752 Rain 10 1007 76 10000 5.1 260 10:22 02.05.2020
4753 Rain 9 1007 87 10000 4.1 310 09:59 02.05.2020
4754 Rain 9 1007 87 10000 5.7 250 09:41 02.05.2020
4755 Rain 9 1007 87 10000 5.7 250 09:23 02.05.2020
4756 Rain 8 1007 87 10000 5.7 250 08:57 02.05.2020
4757 Rain 8 1007 87 10000 6.7 240 08:38 02.05.2020
4758 Rain 9 1007 87 10000 6.7 240 08:19 02.05.2020
4759 Rain 9 1006 93 10000 3.1 200 07:45 02.05.2020
4760 Rain 9 1006 93 10000 3.1 200 07:27 02.05.2020
4761 Clouds 9 1006 93 10000 3.1 210 06:43 02.05.2020
4762 Clouds 8 1005 93 10000 3.6 230 05:28 02.05.2020
4763 Clouds 8 1005 93 10000 3.1 220 04:31 02.05.2020
4764 Clouds 8 1005 93 10000 2.6 210 03:56 02.05.2020
4765 Rain 9 1005 87 10000 3.1 240 02:43 02.05.2020
4766 Rain 9 1005 87 10000 5.1 260 01:59 02.05.2020
4767 Rain 9 1004 93 10000 2.1 170 01:28 02.05.2020
4768 Rain 9 1004 93 10000 1.5 170 00:44 02.05.2020
4769 Rain 9 1004 93 10000 1.5 170 00:24 02.05.2020
4770 Rain 9 1004 93 10000 1 0 23:57 01.05.2020
4771 Rain 9 1003 93 10000 1 0 23:37 01.05.2020
4772 Rain 9 1003 93 10000 1 0 23:19 01.05.2020
4773 Rain 9 1003 93 10000 2.1 240 22:54 01.05.2020
4774 Rain 10 1003 81 10000 2.6 240 22:36 01.05.2020
4775 Rain 10 1002 76 10000 2.6 300 22:18 01.05.2020
4776 Rain 10 1002 66 10000 6.2 310 21:41 01.05.2020
4777 Rain 10 1002 66 10000 3.6 280 21:21 01.05.2020
4778 Rain 11 1002 66 10000 3.6 280 20:58 01.05.2020
4779 Rain 12 1001 62 10000 6.2 260 20:40 01.05.2020
4780 Rain 12 1001 62 10000 6.2 260 20:20 01.05.2020
4781 Rain 12 1001 62 10000 6.2 260 20:20 01.05.2020
4782 Rain 12 1001 58 10000 8.2 260 19:59 01.05.2020
4783 Rain 13 1001 58 10000 8.2 250 19:41 01.05.2020
4784 Rain 13 1001 58 10000 8.2 250 19:22 01.05.2020
4785 Clouds 14 1001 62 10000 7.2 260 18:57 01.05.2020
4786 Clouds 15 1000 67 10000 4.6 250 18:38 01.05.2020
4787 Thunderstorm 14 1001 76 10000 8.7 260 18:19 01.05.2020
4788 Thunderstorm 14 1001 76 10000 8.7 260 17:54 01.05.2020
4789 Clouds 15 1000 51 10000 7.2 220 17:36 01.05.2020
4790 Clouds 15 1000 54 10000 5.1 230 17:18 01.05.2020
4791 Rain 16 1000 54 10000 8.2 240 16:55 01.05.2020
4792 Rain 16 1000 54 10000 8.2 240 16:36 01.05.2020
4793 Rain 16 1000 54 10000 8.2 240 16:18 01.05.2020
4794 Clouds 15 1000 47 10000 5.7 240 15:42 01.05.2020
4795 Clouds 15 1000 47 10000 5.7 240 15:23 01.05.2020
4796 Clouds 15 1000 51 10000 5.7 240 14:57 01.05.2020
4797 Clouds 15 1000 54 10000 7.2 220 14:38 01.05.2020
4798 Clouds 15 1000 54 10000 7.2 220 14:20 01.05.2020
4799 Clouds 14 1001 58 10000 5.7 240 13:40 01.05.2020
4800 Clouds 14 1001 58 10000 5.7 240 13:22 01.05.2020
4801 Clouds 14 1001 62 10000 6.2 230 12:57 01.05.2020
4802 Clouds 13 1001 62 10000 6.2 250 12:39 01.05.2020
4803 Clouds 13 1006 45 0 2.24 213 12:19 01.05.2020
4804 Clouds 13 1001 58 10000 7.7 240 11:57 01.05.2020
4805 Clouds 13 1001 62 10000 7.2 230 11:39 01.05.2020
4806 Clouds 12 1002 71 10000 5.7 200 11:19 01.05.2020
4807 Clouds 11 1002 76 10000 5.1 190 10:41 01.05.2020
4808 Clouds 11 1002 76 10000 5.1 190 10:20 01.05.2020
4809 Clouds 10 1002 81 10000 4.1 180 09:55 01.05.2020
4810 Clouds 9 1002 87 10000 3.1 180 09:37 01.05.2020
4811 Clouds 9 1002 87 10000 3.1 180 09:18 01.05.2020
4812 Clouds 8 1002 81 10000 6.2 190 08:42 01.05.2020
4813 Clouds 8 1002 81 10000 6.2 190 08:24 01.05.2020
4814 Clouds 8 1002 93 10000 5.1 170 07:55 01.05.2020
4815 Clouds 8 1002 93 10000 3.1 180 07:36 01.05.2020
4816 Rain 7 1001 93 10000 3.6 180 06:57 01.05.2020
4817 Rain 8 1002 87 10000 4.1 160 05:41 01.05.2020
4818 Rain 9 1002 87 10000 4.1 160 05:20 01.05.2020
4819 Clouds 9 1002 93 10000 4.1 160 03:42 01.05.2020
4820 Clouds 9 1002 87 10000 4.1 190 02:50 01.05.2020
4821 Clouds 9 1002 87 10000 4.1 190 02:32 01.05.2020
4822 Clouds 9 1001 93 10000 2.6 190 01:47 01.05.2020
4823 Clouds 9 1001 93 10000 2.6 190 01:26 01.05.2020
4824 Rain 10 1001 93 10000 3.1 170 00:40 01.05.2020
4825 Rain 10 1001 93 10000 3.1 170 00:20 01.05.2020
4826 Rain 10 1001 87 10000 4.1 150 23:57 30.04.2020
4827 Rain 10 1001 93 10000 4.1 150 23:38 30.04.2020
4828 Rain 10 1001 93 10000 4.1 150 23:38 30.04.2020
4829 Rain 10 1001 93 10000 4.1 150 23:20 30.04.2020
4830 Rain 10 1001 93 10000 4.1 150 23:20 30.04.2020
4831 Clouds 10 1001 87 10000 4.6 140 22:56 30.04.2020
4832 Clouds 10 1001 87 10000 4.6 140 22:56 30.04.2020
4833 Clouds 10 1001 87 10000 4.6 140 22:37 30.04.2020
4834 Clouds 10 1001 87 10000 4.6 140 22:18 30.04.2020
4835 Clouds 10 1001 93 10000 4.1 160 21:42 30.04.2020
4836 Rain 10 1001 93 10000 4.1 160 21:22 30.04.2020
4837 Rain 10 1001 87 10000 4.1 140 20:58 30.04.2020
4838 Clouds 10 1001 87 10000 3.1 150 20:40 30.04.2020
4839 Clouds 10 1001 87 10000 3.1 150 20:18 30.04.2020
4840 Rain 11 1001 87 10000 2.6 140 19:46 30.04.2020
4841 Rain 11 1001 93 9000 1 0 19:26 30.04.2020
4842 Rain 10 1001 93 10000 1 0 18:59 30.04.2020
4843 Rain 10 1001 93 10000 3.6 270 18:39 30.04.2020
4844 Rain 10 1001 93 10000 3.6 270 18:21 30.04.2020
4845 Rain 11 1001 81 7000 4.6 270 17:58 30.04.2020
4846 Rain 11 1001 62 10000 7.2 220 17:40 30.04.2020
4847 Clouds 13 1000 41 10000 3.6 180 17:21 30.04.2020
4848 Clouds 16 1000 41 10000 3.6 180 16:57 30.04.2020
4849 Clouds 17 1001 41 10000 5.1 190 16:38 30.04.2020
4850 Clouds 17 1001 41 10000 6.2 200 16:19 30.04.2020
4851 Clouds 17 1002 41 10000 5.1 210 15:48 30.04.2020
4852 Clouds 17 1001 41 10000 6.2 200 15:48 30.04.2020
4853 Clear 17 1002 41 10000 5.1 210 15:25 30.04.2020
4854 Clear 16 1002 41 10000 7.2 200 14:58 30.04.2020
4855 Clouds 16 1002 41 10000 6.7 210 14:39 30.04.2020
4856 Clouds 16 1002 44 10000 7.2 240 14:19 30.04.2020
4857 Clouds 16 1002 44 10000 7.2 240 13:56 30.04.2020
4858 Clouds 16 1002 44 10000 7.2 240 13:56 30.04.2020
4859 Clouds 15 1003 47 10000 5.7 230 13:38 30.04.2020
4860 Clouds 15 1003 47 10000 5.7 230 13:19 30.04.2020
4861 Clouds 14 1003 62 10000 5.1 250 12:41 30.04.2020
4862 Clouds 14 1003 62 10000 5.1 250 12:21 30.04.2020
4863 Clouds 14 1003 66 10000 6.2 250 11:59 30.04.2020
4864 Clouds 13 1003 66 10000 6.7 240 11:37 30.04.2020
4865 Clouds 13 1003 66 10000 6.7 240 11:18 30.04.2020
4866 Clouds 13 1003 67 10000 7.7 240 10:54 30.04.2020
4867 Clouds 12 1002 81 10000 5.7 220 10:36 30.04.2020
4868 Clouds 12 1002 81 10000 5.7 220 10:18 30.04.2020
4869 Clouds 11 1002 81 10000 5.1 190 09:43 30.04.2020
4870 Rain 11 1002 87 10000 4.1 170 09:23 30.04.2020
4871 Clouds 11 1002 87 10000 4.1 170 08:54 30.04.2020
4872 Clouds 11 1002 93 10000 3.1 160 08:36 30.04.2020
4873 Rain 11 1001 93 10000 3.6 160 08:18 30.04.2020
4874 Rain 11 1002 93 10000 5.1 180 07:42 30.04.2020
4875 Rain 11 1002 93 10000 5.1 180 07:23 30.04.2020
4876 Rain 11 1001 87 10000 4.6 170 06:48 30.04.2020
4877 Rain 11 1002 93 10000 3.6 160 05:49 30.04.2020
4878 Rain 11 1002 93 10000 3.6 160 05:28 30.04.2020
4879 Rain 11 1003 81 10000 1 0 04:32 30.04.2020
4880 Clouds 11 1003 87 10000 1 0 03:53 30.04.2020
4881 Rain 11 1009 70 0 0.89 174 02:43 30.04.2020
4882 Rain 12 1009 70 0 0.89 227 02:23 30.04.2020
4883 Rain 14 1004 67 10000 5.1 180 01:35 30.04.2020
4884 Rain 14 1004 67 10000 6.2 190 00:42 30.04.2020
4885 Rain 14 1004 67 10000 4.1 180 00:19 30.04.2020
4886 Rain 14 1004 67 10000 4.1 180 23:57 29.04.2020
4887 Rain 14 1005 67 10000 4.1 170 23:37 29.04.2020
4888 Rain 15 1005 67 10000 4.1 170 23:18 29.04.2020
4889 Rain 15 1005 58 10000 4.1 190 22:40 29.04.2020
4890 Clouds 15 1005 58 10000 4.1 190 22:21 29.04.2020
4891 Clouds 15 1005 71 10000 3.1 160 21:57 29.04.2020
4892 Clouds 15 1005 71 10000 3.1 160 21:37 29.04.2020
4893 Clouds 15 1005 71 10000 3.1 160 21:18 29.04.2020
4894 Rain 15 1005 71 10000 1.5 140 20:55 29.04.2020
4895 Clouds 16 1005 67 10000 1.5 90 20:36 29.04.2020
4896 Clouds 16 1005 62 10000 1.5 130 20:18 29.04.2020
4897 Clouds 16 1005 62 10000 1.5 130 20:18 29.04.2020
4898 Rain 17 1010 46 0 0.45 166 19:42 29.04.2020
4899 Clouds 17 1005 55 10000 1 0 19:20 29.04.2020
4900 Clouds 17 1006 59 10000 1 0 18:57 29.04.2020
4901 Clouds 17 1006 71 10000 2.1 310 18:38 29.04.2020
4902 Clouds 17 1006 71 10000 2.1 310 18:18 29.04.2020
4903 Rain 16 1006 48 10000 5.7 230 17:41 29.04.2020
4904 Rain 16 1006 48 10000 5.7 230 17:21 29.04.2020
4905 Rain 16 1006 48 10000 5.1 220 16:55 29.04.2020
4906 Clouds 17 1006 48 10000 5.1 220 16:36 29.04.2020
4907 Clouds 17 1006 48 10000 5.1 220 16:18 29.04.2020
4908 Clouds 17 1006 55 10000 6.2 230 15:54 29.04.2020
4909 Clouds 17 1006 55 10000 6.2 230 15:36 29.04.2020
4910 Clouds 17 1006 55 10000 5.7 230 15:18 29.04.2020
4911 Clouds 16 1006 59 10000 6.7 230 14:41 29.04.2020
4912 Clouds 16 1006 59 10000 6.7 230 14:23 29.04.2020
4913 Clouds 15 1006 59 10000 5.1 220 13:56 29.04.2020
4914 Clouds 15 1006 67 10000 5.1 220 13:38 29.04.2020
4915 Clouds 15 1006 67 10000 5.1 220 13:38 29.04.2020
4916 Clouds 14 1006 71 10000 5.7 210 13:18 29.04.2020
4917 Rain 14 1006 67 10000 7.7 240 12:41 29.04.2020
4918 Rain 13 1006 67 10000 7.7 240 12:19 29.04.2020
4919 Rain 13 1006 67 10000 7.7 240 12:19 29.04.2020
4920 Rain 14 1006 58 10000 6.7 230 11:59 29.04.2020
4921 Clouds 14 1006 58 10000 5.1 210 11:38 29.04.2020
4922 Clouds 14 1005 58 10000 6.7 230 11:20 29.04.2020
4923 Clouds 14 1005 63 10000 4.1 200 10:54 29.04.2020
4924 Clouds 14 1005 63 10000 4.1 200 10:36 29.04.2020
4925 Clouds 14 1006 71 10000 3.6 180 10:18 29.04.2020
4926 Clouds 13 1006 76 10000 3.1 180 09:41 29.04.2020
4927 Clouds 13 1006 76 10000 3.1 180 09:21 29.04.2020
4928 Clouds 12 1005 81 10000 3.1 180 08:44 29.04.2020
4929 Clouds 12 1005 81 10000 3.1 180 08:25 29.04.2020
4930 Clouds 12 1005 76 10000 3.1 200 07:55 29.04.2020
4931 Clouds 12 1005 81 10000 3.1 190 07:29 29.04.2020
4932 Clouds 12 1005 87 10000 2.1 170 06:53 29.04.2020
4933 Clouds 12 1005 81 10000 1.5 190 06:32 29.04.2020
4934 Rain 12 1005 76 10000 2.1 220 05:53 29.04.2020
4935 Rain 13 1005 76 10000 3.1 240 05:19 29.04.2020
4936 Clouds 13 1005 76 10000 3.1 250 04:20 29.04.2020
4937 Clouds 13 1005 76 10000 3.1 250 03:53 29.04.2020
4938 Clouds 13 1005 76 10000 3.1 210 01:59 29.04.2020
4939 Rain 13 1005 82 10000 3.6 230 01:37 29.04.2020
4940 Clouds 14 1004 71 10000 4.1 240 01:19 29.04.2020
4941 Clouds 14 1004 71 10000 3.6 230 00:38 29.04.2020
4942 Rain 14 1004 76 10000 3.1 230 00:18 29.04.2020
4943 Rain 14 1004 76 10000 3.1 230 23:45 28.04.2020
4944 Rain 14 1004 87 10000 3.1 190 23:22 28.04.2020
4945 Clouds 13 1004 93 10000 2.6 170 22:40 28.04.2020
4946 Clouds 14 1004 93 10000 2.6 170 22:22 28.04.2020
4947 Clouds 14 1004 93 10000 0.5 0 22:22 28.04.2020
4948 Clouds 14 1004 93 10000 0.5 0 21:59 28.04.2020
4949 Clouds 14 1004 93 10000 0.5 0 21:59 28.04.2020
4950 Clouds 14 1004 100 10000 1 80 21:41 28.04.2020
4951 Clouds 15 1003 87 10000 1 0 21:23 28.04.2020
4952 Clouds 16 1003 87 10000 1 0 20:59 28.04.2020
4953 Clouds 16 1003 87 10000 2.1 170 20:40 28.04.2020
4954 Clouds 16 1003 87 10000 2.1 170 20:21 28.04.2020
4955 Clouds 16 1003 82 10000 1.5 150 19:58 28.04.2020
4956 Clouds 16 1003 77 10000 2.6 250 19:39 28.04.2020
4957 Clouds 16 1003 77 10000 2.6 250 19:20 28.04.2020
4958 Clouds 16 1003 87 10000 1.5 360 18:57 28.04.2020
4959 Clouds 16 1003 87 10000 3.1 290 18:38 28.04.2020
4960 Clouds 16 1003 87 10000 3.1 290 18:19 28.04.2020
4961 Rain 15 1003 87 10000 5.1 300 17:38 28.04.2020
4962 Rain 15 1003 87 10000 5.1 300 17:20 28.04.2020
4963 Rain 15 1003 93 10000 6.7 270 16:59 28.04.2020
4964 Rain 14 1003 100 10000 7.2 250 16:40 28.04.2020
4965 Rain 15 1003 72 8000 4.1 230 16:22 28.04.2020
4966 Rain 16 1003 72 8000 4.1 230 15:57 28.04.2020
4967 Rain 17 1003 72 10000 2.1 130 15:39 28.04.2020
4968 Rain 17 1002 68 10000 3.1 110 15:20 28.04.2020
4969 Rain 18 1002 68 10000 3.1 110 14:57 28.04.2020
4970 Clouds 18 1003 67 10000 6.2 150 14:39 28.04.2020
4971 Clouds 19 1003 55 10000 6.7 150 14:19 28.04.2020
4972 Clouds 20 1003 55 10000 6.7 150 13:57 28.04.2020
4973 Clouds 20 1003 59 10000 3.6 150 13:37 28.04.2020
4974 Clouds 19 1003 55 10000 3.1 130 13:19 28.04.2020
4975 Clouds 19 1003 59 10000 5.1 130 12:44 28.04.2020
4976 Rain 20 1003 52 10000 4.1 140 12:24 28.04.2020
4977 Rain 18 1003 55 10000 2.1 140 11:45 28.04.2020
4978 Rain 18 1003 55 10000 2.1 140 11:26 28.04.2020
4979 Rain 18 1004 59 10000 2.1 80 11:00 28.04.2020
4980 Rain 18 1004 59 10000 2.1 80 10:59 28.04.2020
4981 Rain 17 1004 63 10000 2.6 120 10:39 28.04.2020
4982 Clouds 16 1004 67 10000 2.1 120 10:19 28.04.2020
4983 Clouds 16 1004 67 10000 2.1 120 09:58 28.04.2020
4984 Clouds 16 1004 62 10000 3.6 140 09:39 28.04.2020
4985 Clouds 15 1004 62 10000 3.6 140 09:20 28.04.2020
4986 Clouds 14 1004 66 10000 3.6 120 08:46 28.04.2020
4987 Clouds 13 1004 66 10000 3.6 120 08:26 28.04.2020
4988 Clouds 11 1004 81 10000 1.5 120 07:46 28.04.2020
4989 Clouds 11 1004 81 10000 1.5 120 07:21 28.04.2020
4990 Clouds 10 1004 81 10000 2.1 40 06:55 28.04.2020
4991 Clouds 11 1004 75 10000 1.5 70 06:28 28.04.2020
4992 Clouds 11 1004 76 10000 1.5 80 05:44 28.04.2020
4993 Clouds 11 1004 76 10000 1.5 80 05:25 28.04.2020
4994 Clouds 11 1005 75 10000 1 0 04:33 28.04.2020
4995 Clouds 12 1005 76 10000 1 0 02:36 28.04.2020
4996 Clouds 14 1006 71 10000 0.5 0 01:25 28.04.2020
4997 Clouds 14 1006 71 10000 0.5 0 00:59 28.04.2020
4998 Clouds 14 1006 66 10000 1 0 00:26 28.04.2020
4999 Clouds 15 1006 62 10000 2.1 60 23:47 27.04.2020
5000 Clouds 15 1006 66 10000 0.5 0 23:25 27.04.2020
5001 Clouds 15 1006 58 10000 0.5 0 22:57 27.04.2020
5002 Clouds 16 1006 54 10000 1 0 22:38 27.04.2020
5003 Clouds 16 1006 54 10000 1 0 22:20 27.04.2020
5004 Clouds 17 1006 48 10000 1 0 21:56 27.04.2020
5005 Clouds 18 1006 48 10000 0.5 0 21:38 27.04.2020
5006 Clouds 19 1006 48 10000 0.5 0 21:18 27.04.2020
5007 Clouds 19 1006 48 10000 0.5 0 21:18 27.04.2020
5008 Clouds 20 1006 39 10000 1 0 20:55 27.04.2020
5009 Clouds 21 1006 32 10000 1 0 20:37 27.04.2020
5010 Clouds 21 1006 32 10000 1 0 20:18 27.04.2020
5011 Clouds 22 1006 28 10000 3.1 270 19:40 27.04.2020
5012 Clouds 21 1006 28 10000 2.6 0 19:22 27.04.2020
5013 Clouds 22 1006 28 10000 2.6 0 18:59 27.04.2020
5014 Clouds 22 1006 28 10000 2.6 250 18:40 27.04.2020
5015 Clouds 22 1006 26 10000 3.6 290 18:20 27.04.2020
5016 Clouds 22 1006 26 10000 3.6 290 17:58 27.04.2020
5017 Clouds 22 1006 28 10000 4.6 300 17:40 27.04.2020
5018 Clouds 22 1006 28 10000 4.6 290 17:19 27.04.2020
5019 Clouds 22 1007 28 10000 4.6 310 16:40 27.04.2020
5020 Clouds 22 1007 28 10000 4.6 310 16:40 27.04.2020
5021 Clouds 22 1007 30 10000 4.1 260 16:22 27.04.2020
5022 Clouds 21 1007 30 10000 4.1 260 15:57 27.04.2020
5023 Clouds 21 1007 30 10000 4.1 260 15:57 27.04.2020
5024 Clouds 21 1007 30 10000 4.1 230 15:38 27.04.2020
5025 Clouds 21 1007 28 10000 4.1 260 15:19 27.04.2020
5026 Clouds 21 1007 28 10000 4.1 260 14:58 27.04.2020
5027 Clouds 21 1007 28 10000 4.1 260 14:58 27.04.2020
5028 Clouds 21 1007 30 10000 3.1 0 14:40 27.04.2020
5029 Clouds 21 1008 34 10000 3.1 0 14:19 27.04.2020
5030 Clouds 21 1008 34 10000 3.1 0 13:57 27.04.2020
5031 Clouds 20 1008 34 10000 3.6 270 13:37 27.04.2020
5032 Clouds 20 1008 34 10000 3.6 270 13:18 27.04.2020
5033 Clouds 19 1008 39 10000 2.6 0 12:43 27.04.2020
5034 Clouds 18 1008 42 10000 2.1 300 12:21 27.04.2020
5035 Clouds 17 1008 42 10000 2.1 300 11:55 27.04.2020
5036 Clouds 17 1009 48 10000 1 0 11:37 27.04.2020
5037 Clouds 17 1009 48 10000 1 0 11:18 27.04.2020
5038 Clouds 15 1009 50 10000 1 0 10:42 27.04.2020
5039 Clouds 14 1009 58 10000 1.5 150 10:24 27.04.2020
5040 Clouds 14 1009 58 10000 1.5 150 10:24 27.04.2020
5041 Clouds 13 1009 66 10000 2.1 140 09:58 27.04.2020
5042 Clear 11 1009 66 10000 2.1 140 09:39 27.04.2020
5043 Clear 11 1009 70 10000 1 0 09:18 27.04.2020
5044 Clear 8 1009 93 10000 1.5 150 08:52 27.04.2020
5045 Clear 7 1009 93 10000 1.5 150 08:32 27.04.2020
5046 Clear 6 1009 86 10000 0.5 0 07:45 27.04.2020
5047 Clear 6 1009 86 10000 0.5 0 07:27 27.04.2020
5048 Clear 6 1009 93 10000 0.5 0 06:58 27.04.2020
5049 Clear 6 1009 93 10000 2.1 150 06:30 27.04.2020
5050 Clear 6 1009 93 10000 1 150 05:57 27.04.2020
5051 Clear 7 1009 86 10000 0.5 0 05:21 27.04.2020
5052 Clear 7 1009 86 10000 0.5 0 04:40 27.04.2020
5053 Clear 8 1010 86 10000 1 0 03:47 27.04.2020
5054 Clear 9 1010 81 10000 0.5 60 02:35 27.04.2020
5055 Clear 10 1010 75 10000 0.5 0 01:20 27.04.2020
5056 Clear 10 1010 70 10000 1.5 70 00:40 27.04.2020
5057 Clear 11 1010 70 10000 1.5 70 00:19 27.04.2020
5058 Clear 11 1010 61 10000 1 0 23:55 26.04.2020
5059 Clear 11 1010 61 10000 1 0 23:37 26.04.2020
5060 Clear 13 1010 61 10000 1 0 23:18 26.04.2020
5061 Clear 12 1010 54 10000 1.5 50 22:55 26.04.2020
5062 Clear 14 1010 57 10000 1 0 22:37 26.04.2020
5063 Clear 14 1009 50 10000 1.5 10 22:18 26.04.2020
5064 Clear 15 1009 41 10000 2.1 360 21:55 26.04.2020
5065 Clear 15 1009 41 10000 2.1 360 21:37 26.04.2020
5066 Clear 16 1009 41 10000 2.1 360 21:18 26.04.2020
5067 Clear 17 1009 33 10000 2.6 340 20:39 26.04.2020
5068 Clear 18 1009 33 10000 2.6 340 20:20 26.04.2020
5069 Clear 19 1009 29 10000 3.1 330 19:59 26.04.2020
5070 Clear 19 1009 29 10000 3.1 340 19:38 26.04.2020
5071 Clear 19 1009 29 10000 3.1 340 19:19 26.04.2020
5072 Clear 20 1009 28 10000 2.1 0 18:45 26.04.2020
5073 Clear 20 1009 28 10000 2.1 0 18:25 26.04.2020
5074 Clear 20 1009 27 10000 1.5 0 17:58 26.04.2020
5075 Clear 20 1009 22 10000 1 0 17:39 26.04.2020
5076 Clear 20 1010 28 10000 2.6 240 17:21 26.04.2020
5077 Clear 20 1010 24 10000 1.5 120 16:42 26.04.2020
5078 Clear 20 1010 24 10000 1.5 120 16:24 26.04.2020
5079 Clear 19 1010 29 10000 3.1 280 15:59 26.04.2020
5080 Clear 19 1010 29 10000 3.1 280 15:59 26.04.2020
5081 Clear 19 1010 29 10000 3.1 280 15:59 26.04.2020
5082 Clear 19 1010 32 10000 2.1 0 15:41 26.04.2020
5083 Clear 19 1010 32 10000 2.1 0 15:41 26.04.2020
5084 Clear 19 1010 32 10000 2.1 0 15:22 26.04.2020
5085 Clear 19 1011 34 10000 3.1 0 14:58 26.04.2020
5086 Clear 19 1011 34 10000 3.1 0 14:39 26.04.2020
5087 Clear 18 1011 36 10000 2.6 0 14:18 26.04.2020
5088 Clear 18 1011 36 10000 2.6 0 13:57 26.04.2020
5089 Clear 18 1011 39 10000 2.1 0 13:38 26.04.2020
5090 Clear 17 1012 44 10000 2.1 0 13:19 26.04.2020
5091 Clear 16 1012 44 10000 2.1 0 12:54 26.04.2020
5092 Clear 16 1012 44 10000 2.1 0 12:36 26.04.2020
5093 Clear 15 1012 44 10000 1.5 0 12:18 26.04.2020
5094 Clear 14 1012 50 10000 1.5 0 11:41 26.04.2020
5095 Clear 14 1012 50 10000 1.5 0 11:23 26.04.2020
5096 Clear 13 1012 54 10000 1 0 10:59 26.04.2020
5097 Clear 13 1012 62 10000 1.5 140 10:41 26.04.2020
5098 Clear 12 1012 62 10000 1.5 140 10:22 26.04.2020
5099 Clear 11 1012 70 10000 1 0 09:57 26.04.2020
5100 Clear 9 1012 75 10000 1.5 140 09:37 26.04.2020
5101 Clear 8 1012 87 10000 2.1 150 09:18 26.04.2020
5102 Clear 6 1012 93 10000 1 0 08:41 26.04.2020
5103 Clear 6 1012 93 10000 0.5 90 08:22 26.04.2020
5104 Clear 5 1012 93 10000 0.5 90 07:48 26.04.2020
5105 Clouds 5 1011 86 10000 3.1 250 07:23 26.04.2020
5106 Clear 5 1011 100 10000 1 0 06:47 26.04.2020
5107 Clear 5 1012 93 10000 1.5 50 06:23 26.04.2020
5108 Clear 5 1012 93 10000 1.5 50 05:49 26.04.2020
5109 Clear 6 1012 93 10000 0.5 0 05:30 26.04.2020
5110 Clear 6 1012 93 10000 1.5 60 04:37 26.04.2020
5111 Clear 7 1012 80 10000 1 0 03:39 26.04.2020
5112 Clear 8 1011 86 10000 0.5 0 02:37 26.04.2020
5113 Clear 8 1012 80 10000 1.5 150 02:19 26.04.2020
5114 Clear 8 1012 86 10000 1 0 01:36 26.04.2020
5115 Clear 9 1012 75 10000 3.1 60 00:41 26.04.2020
5116 Clear 10 1012 75 10000 3.1 60 00:21 26.04.2020
5117 Clear 10 1012 75 10000 3.1 60 00:21 26.04.2020
5118 Clear 10 1011 66 10000 2.1 60 23:56 25.04.2020
5119 Clear 10 1011 66 10000 2.1 60 23:37 25.04.2020
5120 Clear 11 1011 66 10000 2.1 60 23:18 25.04.2020
5121 Clear 12 1011 61 10000 1.5 10 22:42 25.04.2020
5122 Clear 12 1011 57 10000 2.6 360 22:21 25.04.2020
5123 Clear 13 1011 57 10000 2.6 360 21:58 25.04.2020
5124 Clear 13 1011 50 10000 3.1 330 21:39 25.04.2020
5125 Clouds 14 1011 50 10000 3.6 320 21:19 25.04.2020
5126 Clouds 14 1011 50 10000 3.6 320 20:54 25.04.2020
5127 Clouds 15 1011 44 10000 4.1 320 20:36 25.04.2020
5128 Clouds 16 1011 38 10000 4.1 300 20:18 25.04.2020
5129 Clouds 16 1011 41 10000 3.6 290 19:40 25.04.2020
5130 Clouds 16 1011 41 10000 3.6 290 19:22 25.04.2020
5131 Clouds 17 1011 39 10000 3.1 280 18:57 25.04.2020
5132 Clouds 16 1011 36 10000 3.1 270 18:38 25.04.2020
5133 Clouds 17 1011 36 10000 3.1 270 18:19 25.04.2020
5134 Clouds 17 1012 38 10000 3.6 310 17:55 25.04.2020
5135 Clouds 16 1012 38 10000 3.6 310 17:37 25.04.2020
5136 Clouds 17 1012 38 10000 3.6 310 17:18 25.04.2020
5137 Clouds 16 1012 41 10000 3.1 320 16:48 25.04.2020
5138 Clouds 16 1012 38 10000 3.6 310 16:28 25.04.2020
5139 Clouds 16 1012 38 10000 3.6 0 15:59 25.04.2020
5140 Clouds 15 1013 41 10000 3.1 0 15:39 25.04.2020
5141 Clouds 15 1013 41 10000 1.5 0 15:19 25.04.2020
5142 Clouds 15 1013 41 10000 1.5 0 14:58 25.04.2020
5143 Clouds 14 1013 41 10000 3.1 290 14:38 25.04.2020
5144 Clouds 15 1013 41 10000 3.1 290 14:19 25.04.2020
5145 Clouds 13 1014 47 10000 2.6 0 13:43 25.04.2020
5146 Clouds 13 1014 47 10000 2.6 0 13:19 25.04.2020
5147 Clouds 13 1014 54 10000 3.1 270 12:58 25.04.2020
5148 Clouds 12 1014 53 10000 3.6 310 12:40 25.04.2020
5149 Clouds 11 1014 53 10000 3.6 310 12:20 25.04.2020
5150 Clouds 11 1015 50 10000 2.1 0 11:57 25.04.2020
5151 Clouds 11 1015 54 10000 3.1 30 11:39 25.04.2020
5152 Clouds 10 1015 61 10000 2.6 40 11:20 25.04.2020
5153 Clouds 10 1015 61 10000 2.1 20 10:43 25.04.2020
5154 Clouds 9 1015 61 10000 2.1 20 10:23 25.04.2020
5155 Clouds 9 1014 61 10000 2.1 10 09:48 25.04.2020
5156 Clouds 8 1014 65 10000 3.1 20 09:29 25.04.2020
5157 Clouds 8 1014 70 10000 2.6 340 08:59 25.04.2020
5158 Clouds 8 1014 70 10000 1.5 310 08:40 25.04.2020
5159 Clouds 8 1014 70 10000 1.5 310 08:21 25.04.2020
5160 Clouds 8 1014 75 10000 1.5 320 07:58 25.04.2020
5161 Clouds 8 1014 75 10000 2.6 340 07:40 25.04.2020
5162 Clouds 7 1014 75 10000 2.6 330 06:56 25.04.2020
5163 Clouds 7 1013 75 10000 3.6 330 06:36 25.04.2020
5164 Clouds 7 1013 81 10000 5.1 320 05:42 25.04.2020
5165 Clouds 7 1013 81 10000 5.1 320 05:23 25.04.2020
5166 Clouds 8 1012 75 10000 3.6 330 03:29 25.04.2020
5167 Clear 9 1012 75 10000 3.1 340 02:28 25.04.2020
5168 Clear 10 1012 70 10000 3.1 330 01:56 25.04.2020
5169 Clear 10 1012 61 10000 3.6 330 01:37 25.04.2020
5170 Clear 11 1012 61 10000 3.6 330 01:18 25.04.2020
5171 Clouds 12 1012 57 10000 3.6 330 00:38 25.04.2020
5172 Clouds 13 1012 54 10000 4.1 340 23:59 24.04.2020
5173 Clouds 13 1011 54 10000 4.1 340 23:40 24.04.2020
5174 Clouds 13 1011 46 10000 2.1 340 23:20 24.04.2020
5175 Clouds 15 1011 53 10000 2.6 330 22:41 24.04.2020
5176 Clouds 15 1011 53 10000 2.6 330 22:20 24.04.2020
5177 Clouds 15 1011 53 10000 2.6 330 21:59 24.04.2020
5178 Clouds 16 1011 38 10000 3.6 330 21:40 24.04.2020
5179 Clouds 16 1011 38 10000 3.6 330 21:22 24.04.2020
5180 Clouds 17 1011 39 10000 4.6 330 20:58 24.04.2020
5181 Clouds 17 1010 36 10000 5.1 330 20:40 24.04.2020
5182 Clouds 18 1010 36 10000 5.1 330 20:19 24.04.2020
5183 Clouds 19 1011 32 10000 6.2 310 19:47 24.04.2020
5184 Clouds 20 1011 32 10000 6.2 310 19:28 24.04.2020
5185 Clouds 20 1011 34 10000 5.7 320 18:58 24.04.2020
5186 Clouds 20 1011 37 10000 6.2 320 18:38 24.04.2020
5187 Clouds 21 1011 37 10000 7.7 300 18:20 24.04.2020
5188 Clouds 21 1011 37 10000 5.7 320 17:43 24.04.2020
5189 Clouds 20 1011 37 10000 6.7 320 17:24 24.04.2020
5190 Clouds 20 1011 37 10000 6.7 320 16:59 24.04.2020
5191 Clouds 20 1011 40 10000 5.1 330 16:41 24.04.2020
5192 Clouds 20 1011 37 10000 5.1 300 16:22 24.04.2020
5193 Clouds 20 1011 37 10000 5.1 300 15:59 24.04.2020
5194 Clouds 20 1012 35 10000 6.2 310 15:38 24.04.2020
5195 Clouds 20 1012 35 10000 6.2 310 15:18 24.04.2020
5196 Clouds 20 1012 37 10000 6.2 300 14:40 24.04.2020
5197 Clouds 20 1012 40 10000 6.2 310 14:21 24.04.2020
5198 Clouds 20 1012 40 10000 6.2 310 13:57 24.04.2020
5199 Clouds 20 1012 40 10000 5.7 300 13:38 24.04.2020
5200 Clouds 20 1013 42 10000 4.6 300 13:20 24.04.2020
5201 Clouds 19 1013 42 10000 3.6 280 12:42 24.04.2020
5202 Clouds 18 1013 42 10000 3.6 280 12:24 24.04.2020
5203 Clouds 18 1013 45 10000 3.1 280 11:58 24.04.2020
5204 Clouds 17 1013 51 10000 2.1 290 11:39 24.04.2020
5205 Clouds 17 1013 51 10000 2.1 290 11:20 24.04.2020
5206 Clouds 16 1013 51 10000 2.6 280 10:56 24.04.2020
5207 Clouds 15 1013 51 10000 3.6 270 10:37 24.04.2020
5208 Clouds 15 1013 51 10000 3.6 270 10:19 24.04.2020
5209 Clouds 13 1013 62 10000 1 0 09:46 24.04.2020
5210 Clouds 13 1013 62 10000 1 0 09:24 24.04.2020
5211 Clouds 12 1013 81 10000 0.5 0 08:58 24.04.2020
5212 Clouds 11 1013 66 10000 0.5 260 08:40 24.04.2020
5213 Clouds 11 1013 66 10000 0.5 260 08:18 24.04.2020
5214 Clouds 10 1013 66 10000 0.5 260 07:47 24.04.2020
5215 Clouds 9 1013 86 10000 0.5 0 07:27 24.04.2020
5216 Clouds 9 1013 86 10000 1.24 262 06:59 24.04.2020
5217 Clouds 9 1013 81 10000 2.1 60 06:40 24.04.2020
5218 Clouds 9 1013 81 10000 1 0 05:49 24.04.2020
5219 Clouds 10 1014 75 10000 0.5 0 04:46 24.04.2020
5220 Clouds 11 1014 75 10000 0.5 0 03:28 24.04.2020
5221 Clouds 11 1014 70 10000 0.5 0 02:47 24.04.2020
5222 Clouds 12 1015 70 10000 0.5 0 02:20 24.04.2020
5223 Clouds 12 1015 70 10000 0.5 0 01:37 24.04.2020
5224 Clouds 13 1015 61 10000 0.5 0 00:46 24.04.2020
5225 Clouds 14 1015 57 10000 0.5 0 00:18 24.04.2020
5226 Clouds 14 1016 54 10000 1 0 23:46 23.04.2020
5227 Clouds 15 1016 54 10000 1 0 23:27 23.04.2020
5228 Clouds 15 1016 44 10000 1 0 22:57 23.04.2020
5229 Clouds 16 1016 41 10000 1 0 22:38 23.04.2020
5230 Clouds 16 1016 41 10000 1 0 22:19 23.04.2020
5231 Clouds 17 1016 50 10000 0.5 0 21:57 23.04.2020
5232 Clouds 18 1016 39 10000 0.5 110 21:39 23.04.2020
5233 Clouds 19 1016 39 10000 0.5 110 21:20 23.04.2020
5234 Clouds 20 1016 34 10000 1.5 100 20:56 23.04.2020
5235 Clouds 21 1016 32 10000 1.5 100 20:38 23.04.2020
5236 Clouds 22 1016 26 10000 2.1 90 20:19 23.04.2020
5237 Clouds 22 1016 28 10000 2.1 130 19:56 23.04.2020
5238 Clouds 22 1016 26 10000 3.1 150 19:38 23.04.2020
5239 Clouds 23 1016 23 10000 3.1 160 19:19 23.04.2020
5240 Clouds 24 1017 25 10000 3.6 160 18:41 23.04.2020
5241 Clear 24 1017 25 10000 4.6 170 18:23 23.04.2020
5242 Clear 24 1017 25 10000 4.6 170 17:58 23.04.2020
5243 Clear 24 1017 25 10000 4.6 160 17:39 23.04.2020
5244 Clear 24 1017 25 10000 5.1 160 17:21 23.04.2020
5245 Clear 24 1017 25 10000 5.1 160 16:56 23.04.2020
5246 Clear 23 1018 26 10000 4.6 160 16:38 23.04.2020
5247 Clear 23 1018 24 10000 4.6 180 16:18 23.04.2020
5248 Clear 22 1018 26 10000 4.6 160 15:42 23.04.2020
5249 Clear 23 1018 26 10000 4.6 160 15:22 23.04.2020
5250 Clear 22 1019 24 10000 6.2 160 14:56 23.04.2020
5251 Clear 22 1019 24 10000 6.2 160 14:37 23.04.2020
5252 Clear 22 1019 24 10000 6.2 160 14:19 23.04.2020
5253 Clear 22 1019 26 10000 4.1 140 13:55 23.04.2020
5254 Clear 22 1019 26 10000 4.1 140 13:36 23.04.2020
5255 Clear 22 1019 26 10000 4.1 140 13:36 23.04.2020
5256 Clear 21 1020 30 10000 4.6 140 13:18 23.04.2020
5257 Clear 21 1020 30 10000 4.6 110 12:42 23.04.2020
5258 Clear 20 1020 30 10000 4.6 110 12:24 23.04.2020
5259 Clear 19 1020 29 10000 5.1 130 11:56 23.04.2020
5260 Clear 19 1021 31 10000 4.1 110 11:38 23.04.2020
5261 Clear 18 1020 33 10000 3.6 120 11:18 23.04.2020
5262 Clear 18 1020 33 10000 3.6 120 11:18 23.04.2020
5263 Clear 17 1021 36 10000 4.1 130 10:41 23.04.2020
5264 Clear 16 1021 41 10000 3.1 110 10:21 23.04.2020
5265 Clear 16 1021 41 10000 3.1 110 09:55 23.04.2020
5266 Clear 13 1021 44 10000 3.1 120 09:37 23.04.2020
5267 Clear 12 1021 54 10000 0.5 0 09:18 23.04.2020
5268 Clear 11 1021 66 10000 1.5 130 08:42 23.04.2020
5269 Clear 10 1021 66 10000 1.5 130 08:23 23.04.2020
5270 Clear 9 1020 75 10000 0.5 0 07:42 23.04.2020
5271 Clear 8 1020 75 10000 0.5 0 07:23 23.04.2020
5272 Clear 9 1020 61 10000 2.6 90 06:49 23.04.2020
5273 Clear 8 1020 70 10000 0.5 0 06:22 23.04.2020
5274 Clear 9 1020 75 10000 1 0 05:31 23.04.2020
5275 Clear 10 1020 57 10000 2.1 130 04:52 23.04.2020
5276 Clear 13 1020 46 10000 2.6 100 02:25 23.04.2020
5277 Clear 13 1020 43 10000 2.6 120 01:49 23.04.2020
5278 Clear 14 1020 41 10000 2.6 120 01:28 23.04.2020
5279 Clear 15 1020 41 10000 3.6 90 00:47 23.04.2020
5280 Clear 15 1020 41 10000 3.6 90 00:22 23.04.2020
5281 Clear 15 1019 38 10000 3.6 80 23:50 22.04.2020
5282 Clear 16 1019 55 10000 4.1 80 23:24 22.04.2020
5283 Clear 16 1019 55 10000 4.1 80 22:58 22.04.2020
5284 Clear 17 1019 55 10000 3.6 80 22:38 22.04.2020
5285 Clear 17 1019 55 10000 3.6 80 22:19 22.04.2020
5286 Clear 18 1019 55 10000 3.1 90 21:56 22.04.2020
5287 Clear 19 1018 44 10000 3.6 80 21:38 22.04.2020
5288 Clear 19 1018 25 10000 3.6 80 21:20 22.04.2020
5289 Clear 19 1018 25 10000 3.6 80 20:54 22.04.2020
5290 Clear 21 1018 21 10000 3.6 80 20:36 22.04.2020
5291 Clear 21 1017 21 10000 4.6 80 20:18 22.04.2020
5292 Clear 21 1017 21 10000 4.6 80 19:54 22.04.2020
5293 Clear 21 1017 21 10000 4.6 80 19:54 22.04.2020
5294 Clear 22 1017 19 10000 5.1 70 19:36 22.04.2020
5295 Clear 22 1017 19 10000 5.1 70 19:36 22.04.2020
5296 Clear 22 1017 19 10000 5.1 70 19:18 22.04.2020
5297 Clear 23 1017 17 10000 4.6 100 18:55 22.04.2020
5298 Clear 23 1017 17 10000 4.6 80 18:37 22.04.2020
5299 Clear 23 1017 17 10000 5.7 80 18:18 22.04.2020
5300 Clear 23 1017 16 10000 4.6 100 17:42 22.04.2020
5301 Clear 23 1017 16 10000 5.7 90 17:23 22.04.2020
5302 Clear 23 1017 17 10000 5.7 100 16:47 22.04.2020
5303 Clear 23 1017 17 10000 5.7 100 16:28 22.04.2020
5304 Clear 23 1018 17 10000 5.7 100 15:59 22.04.2020
5305 Clear 23 1018 17 10000 5.1 70 15:38 22.04.2020
5306 Clear 23 1018 17 10000 5.1 70 15:19 22.04.2020
5307 Clear 22 1018 18 10000 6.2 110 14:56 22.04.2020
5308 Clear 22 1018 18 10000 5.7 70 14:36 22.04.2020
5309 Clear 22 1018 18 10000 5.7 70 14:18 22.04.2020
5310 Clear 22 1018 19 10000 6.7 80 13:43 22.04.2020
5311 Clear 21 1019 22 10000 6.2 80 13:20 22.04.2020
5312 Clear 20 1019 25 10000 5.1 100 12:43 22.04.2020
5313 Clear 18 1019 25 10000 5.1 100 12:24 22.04.2020
5314 Clear 19 1019 27 10000 5.1 100 11:58 22.04.2020
5315 Clear 18 1019 27 10000 5.1 100 11:58 22.04.2020
5316 Clear 18 1019 29 10000 5.7 100 11:39 22.04.2020
5317 Clear 18 1019 29 10000 5.7 100 11:39 22.04.2020
5318 Clear 18 1019 29 10000 5.7 100 11:20 22.04.2020
5319 Clear 16 1019 37 10000 4.1 80 10:45 22.04.2020
5320 Clear 15 1019 37 10000 4.1 80 10:25 22.04.2020
5321 Clear 15 1019 37 10000 5.1 80 09:56 22.04.2020
5322 Clear 12 1019 41 10000 4.1 90 09:38 22.04.2020
5323 Clear 12 1019 54 10000 4.1 80 09:19 22.04.2020
5324 Clear 11 1019 54 10000 4.1 80 08:54 22.04.2020
5325 Clear 11 1019 54 10000 4.1 80 08:54 22.04.2020
5326 Clear 11 1019 54 10000 2.6 80 08:36 22.04.2020
5327 Clear 11 1019 54 10000 2.6 80 08:18 22.04.2020
5328 Clear 10 1019 54 10000 4.1 70 07:46 22.04.2020
5329 Clear 10 1019 54 10000 4.1 70 07:22 22.04.2020
5330 Clear 10 1019 54 10000 3.1 70 06:45 22.04.2020
5331 Clear 11 1018 57 10000 4.1 70 05:47 22.04.2020
5332 Clear 11 1018 57 10000 4.1 70 05:23 22.04.2020
5333 Clear 12 1018 57 10000 3.6 90 03:55 22.04.2020
5334 Clear 13 1018 57 10000 3.6 90 02:37 22.04.2020
5335 Clear 13 1018 52 10000 5.1 90 01:43 22.04.2020
5336 Clear 14 1018 52 10000 5.1 90 01:24 22.04.2020
5337 Clear 14 1018 52 10000 4.1 80 00:46 22.04.2020
5338 Clear 14 1017 53 10000 3.6 70 00:22 22.04.2020
5339 Clear 15 1017 53 10000 3.6 70 23:56 21.04.2020
5340 Clear 15 1017 53 10000 3.6 80 23:37 21.04.2020
5341 Clear 15 1017 53 10000 2.6 70 23:18 21.04.2020
5342 Clear 16 1017 53 10000 1.5 50 22:40 21.04.2020
5343 Clear 16 1017 53 10000 3.6 70 22:21 21.04.2020
5344 Clear 16 1017 53 10000 3.6 70 21:58 21.04.2020
5345 Clear 17 1016 53 10000 3.6 70 21:40 21.04.2020
5346 Clear 17 1016 46 10000 3.6 70 21:22 21.04.2020
5347 Clear 18 1016 46 10000 6.2 80 20:54 21.04.2020
5348 Clear 19 1016 46 10000 6.2 80 20:36 21.04.2020
5349 Clear 19 1016 46 10000 6.2 80 20:36 21.04.2020
5350 Clear 19 1015 25 10000 6.2 80 20:18 21.04.2020
5351 Clear 20 1015 24 10000 6.2 80 19:40 21.04.2020
5352 Clear 20 1015 24 10000 6.2 80 19:19 21.04.2020
5353 Clear 20 1015 22 10000 5.7 100 18:57 21.04.2020
5354 Clear 21 1015 22 10000 7.2 120 18:38 21.04.2020
5355 Clear 21 1015 21 10000 6.2 100 18:19 21.04.2020
5356 Clear 21 1015 21 10000 6.2 100 17:55 21.04.2020
5357 Clear 21 1015 21 10000 6.7 80 17:37 21.04.2020
5358 Clear 21 1015 21 10000 6.7 80 17:18 21.04.2020
5359 Clear 21 1015 19 10000 6.2 110 16:39 21.04.2020
5360 Clear 21 1015 19 10000 6.2 110 16:19 21.04.2020
5361 Clear 21 1015 19 10000 6.2 90 15:57 21.04.2020
5362 Clear 21 1015 19 10000 7.7 70 15:39 21.04.2020
5363 Clear 21 1015 19 10000 7.7 70 15:21 21.04.2020
5364 Clear 20 1016 20 10000 8.7 80 14:57 21.04.2020
5365 Clear 20 1016 19 10000 8.2 70 14:39 21.04.2020
5366 Clear 19 1016 20 10000 7.2 90 14:21 21.04.2020
5367 Clear 19 1016 20 10000 7.2 90 13:42 21.04.2020
5368 Clear 19 1016 20 10000 7.2 90 13:42 21.04.2020
5369 Clear 19 1016 20 10000 7.2 90 13:23 21.04.2020
5370 Clear 19 1016 22 10000 6.7 80 12:57 21.04.2020
5371 Clear 19 1016 22 10000 6.2 100 12:37 21.04.2020
5372 Clear 18 1016 25 10000 8.2 100 12:18 21.04.2020
5373 Clear 17 1016 25 10000 8.2 100 11:55 21.04.2020
5374 Clear 17 1016 25 10000 8.2 100 11:55 21.04.2020
5375 Clear 17 1016 26 10000 8.2 90 11:36 21.04.2020
5376 Clear 16 1017 28 10000 6.7 80 11:18 21.04.2020
5377 Clear 16 1017 28 10000 6.7 80 10:56 21.04.2020
5378 Clear 14 1017 33 10000 6.2 80 10:38 21.04.2020
5379 Clear 14 1017 33 10000 6.2 80 10:20 21.04.2020
5380 Clear 11 1017 40 10000 4.6 90 09:37 21.04.2020
5381 Clear 11 1017 40 10000 4.6 90 09:19 21.04.2020
5382 Clear 11 1017 43 10000 2.6 90 08:57 21.04.2020
5383 Clear 11 1016 46 10000 4.1 70 08:39 21.04.2020
5384 Clear 10 1016 49 10000 4.1 70 08:19 21.04.2020
5385 Clear 9 1016 49 10000 3.6 80 07:44 21.04.2020
5386 Clear 9 1016 49 10000 2.6 80 07:22 21.04.2020
5387 Clear 9 1016 49 10000 2.1 90 06:49 21.04.2020
5388 Clear 9 1016 49 10000 2.1 90 06:20 21.04.2020
5389 Clear 9 1016 49 10000 2.6 90 05:49 21.04.2020
5390 Clear 10 1016 43 10000 2.1 110 04:21 21.04.2020
5391 Clear 10 1017 43 10000 3.6 80 03:44 21.04.2020
5392 Clear 12 1017 34 10000 3.6 90 01:46 21.04.2020
5393 Clear 12 1017 34 10000 3.6 90 01:28 21.04.2020
5394 Clear 13 1017 34 10000 6.2 80 00:37 21.04.2020
5395 Clear 13 1017 35 10000 5.7 80 23:47 20.04.2020
5396 Clear 13 1017 35 10000 5.7 80 23:25 20.04.2020
5397 Clear 14 1017 32 10000 5.1 80 22:58 20.04.2020
5398 Clear 14 1017 30 10000 4.1 80 22:40 20.04.2020
5399 Clear 15 1017 30 10000 4.1 80 22:21 20.04.2020
5400 Clear 15 1017 30 10000 5.7 70 21:58 20.04.2020
5401 Clear 15 1016 28 10000 5.1 80 21:39 20.04.2020
5402 Clear 16 1016 29 10000 5.1 80 21:20 20.04.2020
5403 Clear 16 1016 29 10000 5.1 80 20:59 20.04.2020
5404 Clear 17 1016 27 10000 6.2 80 20:40 20.04.2020
5405 Clear 17 1016 27 10000 6.2 80 20:19 20.04.2020
5406 Clear 18 1015 25 10000 6.7 70 19:59 20.04.2020
5407 Clear 18 1015 25 10000 6.7 70 19:59 20.04.2020
5408 Clear 19 1015 25 10000 5.7 90 19:39 20.04.2020
5409 Clear 19 1015 25 10000 5.7 90 19:39 20.04.2020
5410 Clear 18 1015 25 10000 5.7 90 19:19 20.04.2020
5411 Clear 19 1015 22 10000 7.7 80 18:54 20.04.2020
5412 Clear 19 1015 22 10000 6.2 90 18:36 20.04.2020
5413 Clear 19 1015 22 10000 6.2 90 18:18 20.04.2020
5414 Clear 19 1015 20 10000 6.7 100 17:43 20.04.2020
5415 Clear 19 1015 20 10000 6.7 100 17:22 20.04.2020
5416 Clear 20 1015 20 10000 6.7 100 16:59 20.04.2020
5417 Clear 20 1015 19 10000 6.7 100 16:40 20.04.2020
5418 Clear 20 1015 19 10000 6.7 100 16:19 20.04.2020
5419 Clear 19 1016 19 10000 6.7 100 15:55 20.04.2020
5420 Clear 19 1016 18 10000 7.7 80 15:36 20.04.2020
5421 Clear 19 1016 18 10000 7.7 80 15:36 20.04.2020
5422 Clear 19 1016 19 10000 6.2 80 15:18 20.04.2020
5423 Clear 19 1016 19 10000 6.2 80 15:18 20.04.2020
5424 Clear 19 1017 22 10000 7.2 80 14:41 20.04.2020
5425 Clear 18 1017 22 10000 6.7 90 14:19 20.04.2020
5426 Clear 18 1017 22 10000 6.7 90 13:57 20.04.2020
5427 Clear 18 1018 27 10000 6.2 80 13:38 20.04.2020
5428 Clear 18 1018 27 10000 6.2 80 13:20 20.04.2020
5429 Clear 18 1018 29 10000 6.2 100 12:44 20.04.2020
5430 Clear 17 1018 29 10000 6.7 80 12:22 20.04.2020
5431 Clear 17 1018 29 10000 6.7 80 11:57 20.04.2020
5432 Clear 16 1018 33 10000 7.2 120 11:38 20.04.2020
5433 Clear 16 1018 33 10000 7.2 120 11:18 20.04.2020
5434 Clear 15 1024 25 0 3.58 122 10:54 20.04.2020
5435 Clear 14 1019 37 10000 6.2 70 10:36 20.04.2020
5436 Clear 14 1019 40 10000 7.2 70 10:18 20.04.2020
5437 Clear 12 1019 40 10000 6.7 80 09:43 20.04.2020
5438 Clear 11 1019 43 10000 5.7 80 09:25 20.04.2020
5439 Clear 11 1019 43 10000 5.7 80 08:58 20.04.2020
5440 Clear 10 1018 45 10000 6.2 80 08:39 20.04.2020
5441 Clear 10 1018 45 10000 5.7 70 08:18 20.04.2020
5442 Clear 9 1018 49 10000 5.1 80 07:51 20.04.2020
5443 Clear 9 1018 49 10000 5.1 80 07:28 20.04.2020
5444 Clear 8 1018 49 10000 4.1 80 06:38 20.04.2020
5445 Clear 8 1018 49 10000 4.1 80 06:38 20.04.2020
5446 Clear 8 1018 49 10000 4.1 80 06:20 20.04.2020
5447 Clear 9 1018 45 10000 4.1 70 05:22 20.04.2020
5448 Clear 9 1018 43 10000 2.6 90 03:30 20.04.2020
5449 Clear 10 1019 43 10000 3.1 80 02:38 20.04.2020
5450 Clear 11 1019 40 10000 4.1 70 01:31 20.04.2020
5451 Clear 11 1018 43 10000 4.6 70 00:57 20.04.2020
5452 Clear 12 1018 43 10000 4.1 80 00:33 20.04.2020
5453 Clear 13 1018 40 10000 4.6 70 23:55 19.04.2020
5454 Clear 13 1018 40 10000 3.6 70 23:37 19.04.2020
5455 Clear 13 1018 53 10000 3.1 70 23:18 19.04.2020
5456 Clear 14 1018 53 10000 3.6 90 22:39 19.04.2020
5457 Clear 14 1018 53 10000 3.6 90 22:39 19.04.2020
5458 Clear 14 1018 53 10000 3.6 90 22:21 19.04.2020
5459 Clear 15 1018 44 10000 4.1 80 21:57 19.04.2020
5460 Clear 15 1017 44 10000 3.6 80 21:38 19.04.2020
5461 Clouds 16 1017 48 10000 3.6 70 21:20 19.04.2020
5462 Clouds 17 1017 44 10000 4.1 80 20:41 19.04.2020
5463 Clouds 17 1017 44 10000 4.1 80 20:21 19.04.2020
5464 Clouds 17 1016 45 10000 4.1 90 19:59 19.04.2020
5465 Clouds 18 1016 39 10000 3.6 120 19:41 19.04.2020
5466 Clouds 18 1016 39 10000 3.6 120 19:22 19.04.2020
5467 Clouds 18 1016 45 10000 3.6 120 18:58 19.04.2020
5468 Clouds 18 1016 42 10000 3.6 110 18:39 19.04.2020
5469 Clouds 18 1016 42 10000 3.6 110 18:20 19.04.2020
5470 Clouds 18 1016 42 10000 5.1 90 17:58 19.04.2020
5471 Clouds 19 1016 48 10000 5.1 80 17:40 19.04.2020
5472 Clouds 19 1016 48 10000 5.1 80 17:21 19.04.2020
5473 Clouds 18 1016 48 10000 4.1 120 16:58 19.04.2020
5474 Clouds 19 1017 48 10000 3.6 100 16:38 19.04.2020
5475 Clouds 19 1017 48 10000 3.6 100 16:20 19.04.2020
5476 Clouds 17 1017 67 8000 2.1 50 15:43 19.04.2020
5477 Clouds 16 1017 67 8000 2.1 50 15:23 19.04.2020
5478 Clouds 15 1017 77 8000 1.5 0 14:56 19.04.2020
5479 Clouds 14 1018 82 6000 2.6 340 14:38 19.04.2020
5480 Clouds 14 1018 82 6000 2.6 340 14:19 19.04.2020
5481 Rain 13 1018 87 4200 2.1 320 13:41 19.04.2020
5482 Rain 13 1018 87 4200 2.1 320 13:22 19.04.2020
5483 Rain 13 1018 82 4000 2.6 320 12:59 19.04.2020
5484 Mist 13 1018 82 5000 2.1 310 12:41 19.04.2020
5485 Mist 13 1018 82 5000 2.1 310 12:23 19.04.2020
5486 Mist 13 1018 82 5000 2.1 310 12:23 19.04.2020
5487 Mist 13 1017 82 4500 2.6 310 11:39 19.04.2020
5488 Mist 12 1017 87 4500 3.1 320 11:20 19.04.2020
5489 Mist 12 1017 87 4500 3.1 320 10:58 19.04.2020
5490 Mist 12 1017 87 4000 2.1 330 10:40 19.04.2020
5491 Mist 12 1017 87 4000 2.1 330 10:20 19.04.2020
5492 Mist 12 1017 87 4200 2.6 340 09:47 19.04.2020
5493 Mist 12 1017 87 4200 2.6 340 09:28 19.04.2020
5494 Mist 12 1017 87 4200 2.6 330 08:59 19.04.2020
5495 Mist 12 1017 93 3800 2.1 360 08:38 19.04.2020
5496 Mist 12 1017 93 3800 2.1 10 08:18 19.04.2020
5497 Mist 11 1017 93 3800 1.5 10 07:44 19.04.2020
5498 Mist 11 1017 93 3800 1.5 10 07:25 19.04.2020
5499 Mist 11 1017 93 3800 1.5 10 07:25 19.04.2020
5500 Clouds 11 1017 93 7000 1.49 301 06:37 19.04.2020
5501 Clouds 11 1017 93 9000 1 0 06:18 19.04.2020
5502 Clouds 12 1017 93 10000 0.5 0 04:56 19.04.2020
5503 Clouds 11 1016 100 10000 1 0 03:24 19.04.2020
5504 Clouds 12 1016 93 10000 1 10 02:22 19.04.2020
5505 Clouds 12 1016 93 10000 1.5 40 01:39 19.04.2020
5506 Clouds 12 1016 93 10000 1.5 40 01:21 19.04.2020
5507 Clouds 12 1016 93 10000 0.5 0 00:40 19.04.2020
5508 Clouds 13 1016 93 10000 0.5 0 00:19 19.04.2020
5509 Clouds 13 1016 87 10000 1 60 23:41 18.04.2020
5510 Clouds 14 1016 87 10000 1 60 23:19 18.04.2020
5511 Clouds 15 1016 82 10000 1.39 305 22:43 18.04.2020
5512 Clouds 15 1016 82 10000 1.39 305 22:43 18.04.2020
5513 Clouds 15 1016 82 10000 1.39 305 22:24 18.04.2020
5514 Clouds 15 1016 77 10000 0.5 0 21:59 18.04.2020
5515 Clouds 15 1016 77 10000 1.5 360 21:41 18.04.2020
5516 Clouds 16 1016 77 10000 1.5 360 21:22 18.04.2020
5517 Clouds 16 1016 72 10000 2.6 360 20:59 18.04.2020
5518 Clouds 16 1016 67 10000 3.6 330 20:40 18.04.2020
5519 Clouds 16 1016 67 10000 3.6 330 20:21 18.04.2020
5520 Rain 17 1015 63 10000 3.6 330 19:43 18.04.2020
5521 Rain 17 1015 63 10000 3.6 330 19:25 18.04.2020
5522 Rain 17 1015 63 10000 3.6 330 19:25 18.04.2020
5523 Clouds 17 1015 67 10000 4.6 310 18:58 18.04.2020
5524 Clouds 17 1015 59 10000 5.7 300 18:36 18.04.2020
5525 Rain 17 1015 59 10000 4.6 300 18:18 18.04.2020
5526 Rain 17 1015 59 10000 4.6 310 17:41 18.04.2020
5527 Rain 17 1015 59 10000 4.6 310 17:21 18.04.2020
5528 Rain 17 1015 59 10000 4.6 320 16:56 18.04.2020
5529 Rain 17 1015 59 10000 5.1 300 16:36 18.04.2020
5530 Rain 18 1015 59 10000 5.1 300 16:18 18.04.2020
5531 Rain 18 1015 55 10000 4.1 310 15:38 18.04.2020
5532 Rain 20 1015 52 10000 6.2 300 15:20 18.04.2020
5533 Rain 19 1015 55 10000 4.1 270 14:45 18.04.2020
5534 Rain 18 1015 55 10000 4.1 270 14:26 18.04.2020
5535 Rain 20 1015 52 10000 3.6 290 13:56 18.04.2020
5536 Rain 20 1015 49 10000 3.6 280 13:38 18.04.2020
5537 Rain 20 1015 49 10000 3.6 280 13:18 18.04.2020
5538 Rain 20 1014 46 10000 2.1 170 12:41 18.04.2020
5539 Rain 19 1014 48 10000 2.1 150 12:22 18.04.2020
5540 Rain 19 1014 45 10000 2.6 180 11:43 18.04.2020
5541 Rain 19 1014 45 10000 2.6 180 11:24 18.04.2020
5542 Rain 19 1014 48 10000 2.6 150 10:58 18.04.2020
5543 Rain 18 1014 48 10000 3.1 140 10:39 18.04.2020
5544 Rain 17 1014 48 10000 3.1 140 10:19 18.04.2020
5545 Rain 15 1014 55 10000 2.1 120 09:55 18.04.2020
5546 Rain 13 1014 58 10000 1.5 120 09:37 18.04.2020
5547 Clouds 12 1014 62 10000 1 0 09:18 18.04.2020
5548 Clouds 12 1014 66 10000 1 0 08:39 18.04.2020
5549 Clouds 11 1014 66 10000 1 0 08:20 18.04.2020
5550 Clouds 11 1014 87 10000 1 0 07:38 18.04.2020
5551 Clouds 10 1014 87 10000 1.5 160 07:19 18.04.2020
5552 Clouds 10 1014 87 10000 0.5 0 06:30 18.04.2020
5553 Clouds 10 1014 76 10000 1.5 110 05:43 18.04.2020
5554 Clouds 11 1014 76 10000 2.6 150 04:47 18.04.2020
5555 Clouds 11 1014 76 10000 2.6 150 04:47 18.04.2020
5556 Clouds 11 1014 87 10000 1.5 170 04:28 18.04.2020
5557 Clouds 12 1014 76 10000 2.6 60 02:58 18.04.2020
5558 Clouds 12 1014 71 10000 1.5 50 02:40 18.04.2020
5559 Clouds 13 1014 71 10000 1.5 50 02:19 18.04.2020
5560 Clouds 13 1014 66 10000 0.5 0 01:36 18.04.2020
5561 Clouds 14 1014 66 10000 1 160 00:51 18.04.2020
5562 Clouds 14 1014 62 10000 0.5 0 00:24 18.04.2020
5563 Clouds 15 1014 62 10000 0.5 0 23:57 17.04.2020
5564 Clouds 15 1014 54 10000 1 0 23:39 17.04.2020
5565 Clouds 16 1014 54 10000 1 0 23:19 17.04.2020
5566 Clouds 16 1014 51 10000 3.1 60 22:56 17.04.2020
5567 Clouds 16 1014 48 10000 4.1 60 22:38 17.04.2020
5568 Clouds 16 1014 48 10000 4.1 60 22:19 17.04.2020
5569 Clouds 17 1014 48 10000 3.6 40 21:56 17.04.2020
5570 Clouds 18 1013 45 10000 3.1 30 21:37 17.04.2020
5571 Clouds 18 1013 45 10000 3.1 30 21:18 17.04.2020
5572 Clouds 19 1013 42 10000 3.1 20 20:54 17.04.2020
5573 Clouds 20 1013 42 10000 4.6 20 20:36 17.04.2020
5574 Clouds 20 1013 42 10000 4.6 20 20:18 17.04.2020
5575 Clouds 21 1014 37 10000 4.6 20 19:42 17.04.2020
5576 Clouds 22 1014 37 10000 4.6 20 19:23 17.04.2020
5577 Clouds 23 1013 35 10000 5.1 40 18:45 17.04.2020
5578 Clear 23 1013 35 10000 5.1 40 18:24 17.04.2020
5579 Clear 23 1013 35 10000 4.1 330 17:58 17.04.2020
5580 Clear 23 1014 31 10000 2.6 290 17:37 17.04.2020
5581 Clear 23 1014 31 10000 2.6 290 17:18 17.04.2020
5582 Clear 24 1014 31 10000 2.6 0 16:44 17.04.2020
5583 Clear 23 1014 33 10000 2.6 250 16:23 17.04.2020
5584 Clear 23 1014 31 10000 2.6 0 16:23 17.04.2020
5585 Clear 23 1014 33 10000 2.6 250 15:58 17.04.2020
5586 Clear 23 1014 35 10000 2.6 300 15:37 17.04.2020
5587 Clear 23 1015 33 10000 3.1 290 15:19 17.04.2020
5588 Clear 22 1015 35 10000 2.1 0 14:40 17.04.2020
5589 Clear 22 1015 40 10000 2.1 0 14:22 17.04.2020
5590 Clear 21 1015 40 10000 2.1 0 13:56 17.04.2020
5591 Clear 20 1015 40 10000 1.5 0 13:37 17.04.2020
5592 Clear 19 1016 45 10000 1.5 240 13:18 17.04.2020
5593 Clear 19 1016 42 10000 2.1 250 12:46 17.04.2020
5594 Clear 18 1016 42 10000 2.1 250 12:26 17.04.2020
5595 Clear 17 1016 48 10000 1.5 180 11:42 17.04.2020
5596 Clear 16 1016 48 10000 1.5 180 11:20 17.04.2020
5597 Clear 16 1016 48 10000 1.5 180 11:20 17.04.2020
5598 Clear 15 1016 54 10000 0.5 0 10:59 17.04.2020
5599 Clear 14 1016 54 10000 1 0 10:39 17.04.2020
5600 Clear 14 1016 58 10000 2.1 170 10:19 17.04.2020
5601 Clear 13 1016 58 10000 2.1 170 09:54 17.04.2020
5602 Clear 11 1017 71 10000 1 0 09:36 17.04.2020
5603 Clear 11 1016 81 10000 1.5 60 09:18 17.04.2020
5604 Clear 10 1016 81 10000 1.5 60 08:45 17.04.2020
5605 Clear 9 1016 81 10000 1 0 08:25 17.04.2020
5606 Clear 9 1016 87 10000 0.5 0 07:54 17.04.2020
5607 Clear 8 1016 81 10000 1 0 07:36 17.04.2020
5608 Clear 8 1016 81 10000 1 0 07:18 17.04.2020
5609 Clear 8 1016 81 10000 1.5 40 06:28 17.04.2020
5610 Clear 9 1016 75 10000 1 0 05:42 17.04.2020
5611 Clouds 11 1016 70 10000 2.1 60 03:22 17.04.2020
5612 Clouds 11 1016 66 10000 1.5 50 02:49 17.04.2020
5613 Clouds 13 1015 58 10000 2.1 60 01:30 17.04.2020
5614 Clouds 13 1015 62 10000 3.6 60 00:59 17.04.2020
5615 Clouds 13 1015 58 10000 3.6 50 00:20 17.04.2020
5616 Clouds 13 1015 54 10000 1.5 70 23:46 16.04.2020
5617 Clouds 15 1015 50 10000 2.6 50 23:24 16.04.2020
5618 Clouds 15 1015 47 10000 1 0 22:59 16.04.2020
5619 Clouds 15 1015 47 10000 1 0 22:59 16.04.2020
5620 Clouds 15 1015 47 10000 1 0 22:39 16.04.2020
5621 Clouds 16 1015 58 10000 1.5 190 22:21 16.04.2020
5622 Clouds 17 1014 47 10000 2.1 50 21:57 16.04.2020
5623 Clouds 18 1014 42 10000 1 50 21:39 16.04.2020
5624 Clouds 19 1014 42 10000 1 50 21:19 16.04.2020
5625 Clouds 19 1014 34 10000 2.1 360 20:42 16.04.2020
5626 Clouds 21 1014 34 10000 2.6 350 20:23 16.04.2020
5627 Clouds 21 1014 32 10000 3.6 340 19:59 16.04.2020
5628 Clouds 22 1014 32 10000 3.6 340 19:39 16.04.2020
5629 Clouds 22 1014 27 10000 3.6 340 19:20 16.04.2020
5630 Clouds 23 1014 27 10000 3.6 310 18:56 16.04.2020
5631 Clouds 23 1014 25 10000 4.1 300 18:38 16.04.2020
5632 Clouds 23 1014 25 10000 4.1 300 18:20 16.04.2020
5633 Clouds 23 1014 23 10000 3.6 300 17:45 16.04.2020
5634 Clouds 24 1014 25 10000 1 0 17:26 16.04.2020
5635 Clouds 23 1015 25 10000 1 0 17:00 16.04.2020
5636 Clouds 23 1015 25 10000 1 0 16:59 16.04.2020
5637 Clouds 23 1015 25 10000 1 0 16:41 16.04.2020
5638 Clouds 23 1015 25 10000 1.5 0 16:19 16.04.2020
5639 Clouds 23 1015 25 10000 3.1 280 15:44 16.04.2020
5640 Clouds 23 1015 25 10000 3.1 280 15:19 16.04.2020
5641 Clouds 22 1016 27 10000 2.1 250 14:58 16.04.2020
5642 Clouds 22 1016 27 10000 2.1 250 14:39 16.04.2020
5643 Clouds 22 1016 26 10000 1.5 0 14:19 16.04.2020
5644 Clouds 22 1016 26 10000 2.1 0 13:57 16.04.2020
5645 Clouds 21 1016 26 10000 2.1 0 13:37 16.04.2020
5646 Clouds 21 1016 36 10000 1 0 13:37 16.04.2020
5647 Clouds 21 1016 36 10000 1 0 13:19 16.04.2020
5648 Clouds 20 1016 28 10000 1.5 0 12:56 16.04.2020
5649 Clouds 20 1016 28 10000 1.5 0 12:56 16.04.2020
5650 Clouds 20 1016 28 10000 1.5 0 12:38 16.04.2020
5651 Clouds 18 1017 42 10000 1 0 12:19 16.04.2020
5652 Clouds 18 1017 42 10000 1 0 12:19 16.04.2020
5653 Clouds 18 1017 31 10000 1 0 11:55 16.04.2020
5654 Clouds 17 1017 36 10000 1.5 0 11:36 16.04.2020
5655 Clouds 17 1017 36 10000 1.5 0 11:18 16.04.2020
5656 Clouds 15 1017 38 10000 3.1 180 10:40 16.04.2020
5657 Clouds 15 1017 44 10000 2.6 140 10:19 16.04.2020
5658 Clouds 14 1017 43 10000 2.6 140 09:59 16.04.2020
5659 Clouds 11 1017 53 10000 2.1 140 09:38 16.04.2020
5660 Clouds 11 1017 53 10000 2.1 140 09:20 16.04.2020
5661 Clouds 9 1017 66 10000 2.6 150 08:45 16.04.2020
5662 Clouds 8 1017 75 10000 3.1 150 08:25 16.04.2020
5663 Clouds 8 1017 80 10000 2.6 130 07:58 16.04.2020
5664 Clouds 7 1017 56 10000 2.6 140 07:39 16.04.2020
5665 Clouds 7 1017 56 10000 2.6 140 07:20 16.04.2020
5666 Clouds 7 1018 56 10000 1 0 06:40 16.04.2020
5667 Clouds 7 1018 55 10000 1.5 80 06:22 16.04.2020
5668 Clouds 7 1019 65 10000 1.5 90 04:48 16.04.2020
5669 Clouds 8 1019 70 10000 1 0 03:25 16.04.2020
5670 Clouds 8 1019 57 10000 1.5 90 02:58 16.04.2020
5671 Clouds 8 1019 53 10000 2.1 0 02:34 16.04.2020
5672 Clouds 9 1020 57 10000 1.5 100 01:23 16.04.2020
5673 Clouds 9 1020 50 10000 2.6 90 00:53 16.04.2020
5674 Clouds 10 1020 50 10000 2.1 80 00:21 16.04.2020
5675 Clouds 10 1020 50 10000 0.5 0 23:54 15.04.2020
5676 Clouds 11 1020 53 10000 0.5 0 23:36 15.04.2020
5677 Clouds 11 1020 53 10000 0.5 0 23:18 15.04.2020
5678 Clouds 12 1020 47 10000 0.5 0 22:39 15.04.2020
5679 Clouds 12 1020 50 10000 1.5 70 22:20 15.04.2020
5680 Clouds 12 1020 57 10000 2.1 160 21:56 15.04.2020
5681 Clouds 13 1020 57 10000 2.1 160 21:38 15.04.2020
5682 Clouds 13 1020 57 10000 2.1 160 21:38 15.04.2020
5683 Clear 13 1020 41 10000 1.5 90 21:19 15.04.2020
5684 Clear 15 1020 44 10000 1.5 90 20:55 15.04.2020
5685 Clear 16 1020 44 10000 1.5 90 20:37 15.04.2020
5686 Clear 17 1020 31 10000 1.5 100 20:19 15.04.2020
5687 Clear 18 1020 44 10000 2.1 110 19:41 15.04.2020
5688 Clear 18 1021 27 10000 2.6 100 19:20 15.04.2020
5689 Clear 18 1021 27 10000 2.6 100 19:20 15.04.2020
5690 Clear 18 1021 27 10000 2.6 100 19:20 15.04.2020
5691 Clear 18 1021 44 10000 2.6 100 18:54 15.04.2020
5692 Clear 19 1021 29 10000 2.1 90 18:36 15.04.2020
5693 Clear 18 1021 29 10000 2.1 90 18:18 15.04.2020
5694 Clear 19 1022 29 10000 2.1 190 17:40 15.04.2020
5695 Clear 19 1021 29 10000 1 0 17:40 15.04.2020
5696 Clear 19 1022 29 10000 2.1 190 17:20 15.04.2020
5697 Clear 18 1022 27 10000 3.1 70 16:57 15.04.2020
5698 Clear 18 1022 27 10000 3.1 70 16:38 15.04.2020
5699 Clear 18 1022 27 10000 2.1 0 16:19 15.04.2020
5700 Clear 18 1022 27 10000 2.1 0 16:19 15.04.2020
5701 Clear 18 1022 29 10000 2.1 0 15:57 15.04.2020
5702 Clouds 17 1023 30 10000 2.1 220 15:39 15.04.2020
5703 Clouds 17 1023 30 10000 2.1 220 15:19 15.04.2020
5704 Clouds 17 1023 31 10000 2.6 120 14:58 15.04.2020
5705 Clouds 16 1023 31 10000 2.6 120 14:39 15.04.2020
5706 Clouds 16 1024 36 10000 2.6 0 14:39 15.04.2020
5707 Clouds 16 1024 36 10000 2.6 0 14:21 15.04.2020
5708 Clouds 15 1024 35 10000 2.1 160 13:58 15.04.2020
5709 Clouds 15 1024 35 10000 2.1 160 13:38 15.04.2020
5710 Clouds 14 1024 33 10000 3.1 120 13:20 15.04.2020
5711 Clouds 13 1025 35 10000 3.1 110 12:56 15.04.2020
5712 Clouds 13 1025 35 10000 3.1 110 12:38 15.04.2020
5713 Clouds 12 1025 37 10000 3.1 120 12:19 15.04.2020
5714 Clouds 11 1025 40 10000 3.1 150 11:42 15.04.2020
5715 Clouds 11 1025 43 10000 2.6 150 11:24 15.04.2020
5716 Clouds 10 1026 49 10000 3.1 140 10:58 15.04.2020
5717 Clouds 8 1026 56 10000 3.1 150 10:37 15.04.2020
5718 Clouds 8 1026 56 10000 3.1 150 10:19 15.04.2020
5719 Clouds 7 1026 65 10000 3.6 140 09:55 15.04.2020
5720 Clouds 5 1026 44 10000 2.1 150 09:37 15.04.2020
5721 Clouds 4 1026 65 10000 2.1 150 09:18 15.04.2020
5722 Clouds 3 1026 80 10000 0.5 0 08:41 15.04.2020
5723 Clouds 3 1026 80 10000 0.5 0 08:41 15.04.2020
5724 Clouds 3 1026 80 10000 1.5 60 08:21 15.04.2020
5725 Clouds 2 1025 65 10000 1.5 160 07:56 15.04.2020
5726 Clouds 1 1025 92 10000 1 0 07:36 15.04.2020
5727 Clouds 1 1025 86 10000 1.5 0 06:49 15.04.2020
5728 Clouds 1 1025 86 10000 0.5 0 06:20 15.04.2020
5729 Clouds 1 1025 86 10000 2.6 60 05:22 15.04.2020
5730 Clouds 2 1025 92 10000 1 0 04:46 15.04.2020
5731 Clouds 2 1026 70 10000 0.5 0 03:55 15.04.2020
5732 Clouds 2 1026 66 10000 2.1 140 03:20 15.04.2020
5733 Clouds 2 1026 66 10000 1 0 02:40 15.04.2020
5734 Clouds 2 1026 80 10000 1 0 01:50 15.04.2020
5735 Clouds 3 1026 74 10000 1 0 01:24 15.04.2020
5736 Clouds 3 1026 80 10000 1 130 00:46 15.04.2020
5737 Clear 3 1026 74 10000 0.5 0 00:23 15.04.2020
5738 Clear 4 1026 74 10000 0.5 0 23:55 14.04.2020
5739 Clear 4 1026 74 10000 0.5 0 23:37 14.04.2020
5740 Clear 4 1026 64 10000 1 0 23:19 14.04.2020
5741 Clear 5 1026 64 10000 0.5 0 22:56 14.04.2020
5742 Clear 5 1026 64 10000 0.5 0 22:38 14.04.2020
5743 Clear 5 1026 60 10000 1 0 22:20 14.04.2020
5744 Clear 6 1026 56 10000 1.5 10 21:56 14.04.2020
5745 Clear 6 1026 56 10000 1.5 10 21:37 14.04.2020
5746 Clear 7 1026 52 10000 1.5 20 21:19 14.04.2020
5747 Clear 8 1025 49 10000 1.5 360 20:55 14.04.2020
5748 Clear 8 1025 49 10000 1.5 360 20:36 14.04.2020
5749 Clouds 9 1026 45 10000 3.1 320 20:18 14.04.2020
5750 Clouds 9 1025 43 10000 2.6 10 19:41 14.04.2020
5751 Clouds 10 1025 43 10000 2.6 10 19:41 14.04.2020
5752 Clear 10 1025 43 10000 2.6 360 19:22 14.04.2020
5753 Clouds 10 1025 43 10000 3.6 350 18:58 14.04.2020
5754 Clear 10 1025 43 10000 3.6 350 18:39 14.04.2020
5755 Clouds 11 1025 43 10000 3.1 0 18:21 14.04.2020
5756 Clear 10 1025 40 10000 3.1 320 17:58 14.04.2020
5757 Clouds 10 1025 40 10000 3.1 320 17:38 14.04.2020
5758 Clear 10 1025 43 10000 4.1 350 17:19 14.04.2020
5759 Clouds 10 1026 39 10000 2.6 0 16:56 14.04.2020
5760 Clear 10 1026 39 10000 2.6 0 16:38 14.04.2020
5761 Clouds 10 1026 43 10000 3.6 290 16:19 14.04.2020
5762 Clear 10 1026 45 10000 5.1 340 15:55 14.04.2020
5763 Clouds 10 1026 45 10000 5.1 340 15:37 14.04.2020
5764 Clouds 10 1026 42 10000 5.1 340 15:18 14.04.2020
5765 Clouds 9 1026 45 10000 5.1 300 14:55 14.04.2020
5766 Clouds 9 1026 45 10000 5.1 300 14:37 14.04.2020
5767 Clouds 9 1026 42 10000 3.1 20 14:19 14.04.2020
5768 Clouds 8 1026 42 10000 2.6 340 13:43 14.04.2020
5769 Clouds 8 1026 49 10000 3.6 340 13:24 14.04.2020
5770 Clouds 8 1026 45 10000 3.1 350 12:56 14.04.2020
5771 Clouds 8 1026 49 10000 3.6 350 12:37 14.04.2020
5772 Clouds 8 1026 49 10000 3.6 350 12:18 14.04.2020
5773 Clouds 7 1026 52 10000 4.6 320 11:40 14.04.2020
5774 Clouds 7 1026 52 10000 4.1 350 11:22 14.04.2020
5775 Clouds 7 1026 52 10000 4.6 340 10:47 14.04.2020
5776 Clouds 7 1026 56 10000 4.1 340 10:29 14.04.2020
5777 Clouds 6 1026 65 10000 2.6 340 09:59 14.04.2020
5778 Clouds 6 1026 65 10000 2.6 340 09:41 14.04.2020
5779 Clouds 6 1026 65 10000 2.6 340 09:22 14.04.2020
5780 Clouds 5 1026 65 10000 1.5 340 08:55 14.04.2020
5781 Clouds 5 1026 65 10000 1.5 340 08:36 14.04.2020
5782 Clouds 4 1026 74 10000 1 0 08:18 14.04.2020
5783 Clouds 4 1025 74 10000 1 0 07:49 14.04.2020
5784 Clouds 4 1025 74 10000 2.1 330 07:25 14.04.2020
5785 Clouds 3 1025 74 10000 2.1 320 06:45 14.04.2020
5786 Clouds 3 1025 74 10000 2.6 330 05:40 14.04.2020
5787 Clear 2 1025 69 10000 1.5 330 03:28 14.04.2020
5788 Clear 2 1025 69 10000 2.1 320 02:33 14.04.2020
5789 Clear 3 1025 59 10000 3.6 360 01:27 14.04.2020
5790 Clear 3 1025 59 10000 3.6 360 00:50 14.04.2020
5791 Clear 4 1024 55 10000 2.1 360 00:24 14.04.2020
5792 Clear 4 1024 55 10000 2.1 360 23:59 13.04.2020
5793 Clear 4 1024 55 10000 2.1 360 23:37 13.04.2020
5794 Clear 5 1024 51 10000 2.1 360 23:19 13.04.2020
5795 Clear 5 1023 41 10000 2.6 10 22:54 13.04.2020
5796 Clear 6 1023 45 10000 3.1 10 22:36 13.04.2020
5797 Clear 6 1023 45 10000 3.1 10 22:18 13.04.2020
5798 Clear 6 1023 45 10000 3.6 10 21:41 13.04.2020
5799 Clouds 7 1022 48 10000 3.1 350 21:21 13.04.2020
5800 Clouds 7 1022 39 10000 3.6 350 20:58 13.04.2020
5801 Clouds 8 1022 39 10000 3.6 350 20:40 13.04.2020
5802 Clouds 9 1022 36 10000 4.6 20 20:19 13.04.2020
5803 Clouds 9 1021 39 10000 5.7 350 19:58 13.04.2020
5804 Clouds 10 1021 37 10000 6.7 10 19:37 13.04.2020
5805 Clouds 10 1021 37 10000 6.7 10 19:18 13.04.2020
5806 Clouds 10 1021 31 10000 7.7 20 18:57 13.04.2020
5807 Clouds 11 1021 34 10000 7.2 340 18:37 13.04.2020
5808 Clouds 11 1021 34 10000 7.2 340 18:18 13.04.2020
5809 Clouds 11 1021 34 10000 7.2 340 17:56 13.04.2020
5810 Clouds 11 1021 34 10000 7.2 340 17:37 13.04.2020
5811 Clouds 11 1021 37 10000 6.7 360 17:19 13.04.2020
5812 Clouds 11 1021 37 10000 6.7 360 17:19 13.04.2020
5813 Clouds 11 1021 37 10000 6.7 360 17:19 13.04.2020
5814 Clouds 11 1021 40 10000 6.2 340 16:57 13.04.2020
5815 Clouds 11 1021 40 10000 6.2 340 16:37 13.04.2020
5816 Clouds 11 1021 37 10000 6.7 340 16:19 13.04.2020
5817 Clouds 10 1021 39 10000 7.2 20 15:55 13.04.2020
5818 Clouds 10 1021 46 10000 4.6 350 15:37 13.04.2020
5819 Clouds 10 1021 46 10000 4.6 350 15:18 13.04.2020
5820 Clouds 10 1021 43 10000 6.2 10 14:41 13.04.2020
5821 Clouds 10 1021 46 10000 7.7 10 14:22 13.04.2020
5822 Clouds 9 1021 42 10000 5.1 360 13:56 13.04.2020
5823 Clouds 9 1021 42 10000 5.1 360 13:38 13.04.2020
5824 Clouds 9 1021 65 10000 7.2 20 13:20 13.04.2020
5825 Clouds 9 1021 65 10000 5.1 20 12:59 13.04.2020
5826 Clouds 9 1021 65 10000 5.1 20 12:40 13.04.2020
5827 Clouds 8 1020 70 10000 5.1 10 12:20 13.04.2020
5828 Clouds 8 1020 75 10000 6.2 360 11:58 13.04.2020
5829 Clouds 8 1020 75 10000 6.2 360 11:40 13.04.2020
5830 Rain 8 1019 81 10000 4.6 360 11:18 13.04.2020
5831 Rain 8 1019 81 10000 3.6 360 10:55 13.04.2020
5832 Rain 8 1019 70 10000 4.6 360 10:37 13.04.2020
5833 Rain 8 1019 70 10000 4.6 360 10:18 13.04.2020
5834 Rain 8 1018 70 10000 5.1 350 09:44 13.04.2020
5835 Rain 9 1018 70 10000 4.6 20 09:26 13.04.2020
5836 Rain 8 1018 70 10000 4.6 20 09:26 13.04.2020
5837 Rain 9 1017 70 10000 6.7 10 08:48 13.04.2020
5838 Rain 9 1017 71 10000 5.7 20 08:29 13.04.2020
5839 Clouds 9 1015 76 10000 3.6 10 07:58 13.04.2020
5840 Clouds 9 1015 76 10000 3.6 10 07:38 13.04.2020
5841 Clouds 9 1015 81 10000 1 0 07:20 13.04.2020
5842 Clouds 9 1014 87 10000 2.1 210 06:47 13.04.2020
5843 Clouds 11 1013 81 10000 0.5 80 05:56 13.04.2020
5844 Clouds 11 1013 76 10000 2.1 300 05:28 13.04.2020
5845 Clouds 11 1013 76 10000 2.1 300 04:52 13.04.2020
5846 Clouds 11 1013 81 10000 0.5 0 04:22 13.04.2020
5847 Clouds 11 1013 76 10000 3 353 03:46 13.04.2020
5848 Clouds 12 1013 76 10000 0.5 0 02:50 13.04.2020
5849 Clouds 12 1013 66 10000 0.5 0 01:54 13.04.2020
5850 Clouds 12 1013 66 10000 0.5 0 01:36 13.04.2020
5851 Clouds 13 1013 58 10000 0.5 0 00:58 13.04.2020
5852 Clouds 13 1013 58 10000 0.5 0 00:39 13.04.2020
5853 Clear 14 1013 58 10000 3.1 150 00:18 13.04.2020
5854 Clear 14 1013 58 10000 2.6 150 23:45 12.04.2020
5855 Clear 15 1013 51 10000 0.5 150 23:22 12.04.2020
5856 Clear 16 1013 51 10000 1.5 350 22:58 12.04.2020
5857 Clear 16 1013 51 10000 1.5 350 22:37 12.04.2020
5858 Clear 16 1013 47 10000 3.6 340 22:19 12.04.2020
5859 Clear 17 1013 47 10000 3.6 350 21:40 12.04.2020
5860 Clouds 18 1013 38 10000 0.5 0 21:21 12.04.2020
5861 Clouds 18 1012 29 10000 1.5 20 20:58 12.04.2020
5862 Clouds 19 1012 29 10000 1.5 20 20:39 12.04.2020
5863 Clouds 19 1012 29 10000 1.5 20 20:39 12.04.2020
5864 Clouds 20 1012 28 10000 1.5 340 20:21 12.04.2020
5865 Clouds 20 1012 28 10000 2.6 280 19:56 12.04.2020
5866 Clouds 21 1012 38 10000 2.6 320 19:37 12.04.2020
5867 Clouds 21 1012 38 10000 2.6 320 19:18 12.04.2020
5868 Clouds 22 1013 20 10000 2.1 350 18:41 12.04.2020
5869 Clouds 22 1013 20 10000 2.1 350 18:23 12.04.2020
5870 Clouds 22 1013 29 10000 3.6 290 17:57 12.04.2020
5871 Clouds 23 1013 29 10000 2.1 0 17:39 12.04.2020
5872 Clouds 23 1013 29 10000 2.1 0 17:20 12.04.2020
5873 Clouds 23 1013 23 10000 3.6 300 16:57 12.04.2020
5874 Clouds 23 1014 22 10000 4.1 280 16:39 12.04.2020
5875 Clouds 23 1014 22 10000 4.1 280 16:20 12.04.2020
5876 Clouds 22 1014 25 10000 1.5 0 15:47 12.04.2020
5877 Clear 22 1014 30 10000 2.1 0 15:29 12.04.2020
5878 Clear 22 1015 33 10000 3.1 340 14:54 12.04.2020
5879 Clear 22 1015 33 10000 2.1 0 14:36 12.04.2020
5880 Clear 22 1015 33 10000 2.1 0 14:18 12.04.2020
5881 Clear 22 1015 33 10000 2.1 0 14:18 12.04.2020
5882 Clear 22 1015 33 10000 2.1 210 13:41 12.04.2020
5883 Clear 21 1016 37 10000 2.1 0 13:23 12.04.2020
5884 Clear 21 1016 37 10000 2.1 0 12:55 12.04.2020
5885 Clear 21 1016 37 10000 2.1 0 12:37 12.04.2020
5886 Clear 20 1017 42 10000 2.6 0 12:18 12.04.2020
5887 Clear 19 1017 42 10000 0.5 0 11:55 12.04.2020
5888 Clear 19 1017 45 10000 1.5 0 11:36 12.04.2020
5889 Clear 18 1017 45 10000 1.5 0 11:18 12.04.2020
5890 Clear 18 1017 45 10000 1.5 240 10:54 12.04.2020
5891 Clear 17 1017 45 10000 1.5 240 10:36 12.04.2020
5892 Clear 17 1017 51 10000 1.5 190 10:18 12.04.2020
5893 Clear 15 1017 54 10000 2.1 150 09:40 12.04.2020
5894 Clear 15 1017 54 10000 2.1 150 09:40 12.04.2020
5895 Clear 13 1018 54 10000 1.5 0 09:21 12.04.2020
5896 Clear 12 1018 71 10000 1 0 08:55 12.04.2020
5897 Clear 11 1018 75 10000 2.1 60 08:37 12.04.2020
5898 Clear 11 1018 75 10000 2.1 60 08:19 12.04.2020
5899 Clear 10 1018 70 10000 0.5 0 07:42 12.04.2020
5900 Clear 10 1018 75 10000 1 0 07:18 12.04.2020
5901 Clear 10 1018 70 10000 2.1 60 06:35 12.04.2020
5902 Clouds 11 1018 61 10000 0.5 0 05:51 12.04.2020
5903 Clouds 11 1018 61 10000 0.5 0 05:29 12.04.2020
5904 Clouds 12 1018 50 10000 0.5 0 03:44 12.04.2020
5905 Clouds 12 1019 47 10000 1 0 03:22 12.04.2020
5906 Clouds 13 1019 50 10000 0.5 0 02:34 12.04.2020
5907 Clouds 13 1019 41 10000 2.1 110 01:51 12.04.2020
5908 Clouds 14 1020 38 10000 2.6 100 00:58 12.04.2020
5909 Clouds 14 1020 38 10000 2.6 100 00:39 12.04.2020
5910 Rain 14 1020 36 10000 1.5 100 00:20 12.04.2020
5911 Rain 14 1020 31 10000 3.6 120 23:46 11.04.2020
5912 Rain 14 1020 34 10000 3.1 120 23:26 11.04.2020
5913 Rain 15 1020 39 10000 2.6 120 22:55 11.04.2020
5914 Rain 15 1020 39 10000 2.6 120 22:36 11.04.2020
5915 Rain 16 1020 39 10000 0.5 0 22:18 11.04.2020
5916 Rain 16 1020 39 10000 1.5 100 21:54 11.04.2020
5917 Clouds 17 1020 45 10000 1.5 100 21:36 11.04.2020
5918 Clear 17 1020 45 10000 1.5 100 21:18 11.04.2020
5919 Clear 17 1020 45 10000 1.5 100 21:18 11.04.2020
5920 Clear 18 1020 39 10000 1.5 100 20:54 11.04.2020
5921 Clear 20 1020 33 10000 1.5 100 20:36 11.04.2020
5922 Clear 20 1020 33 10000 1.5 100 20:18 11.04.2020
5923 Clear 21 1020 28 10000 1.5 120 19:54 11.04.2020
5924 Clear 21 1020 28 10000 1.5 120 19:36 11.04.2020
5925 Clear 22 1020 28 10000 1 0 19:18 11.04.2020
5926 Clear 22 1020 28 10000 2.1 90 18:54 11.04.2020
5927 Clear 22 1020 28 10000 2.6 60 18:36 11.04.2020
5928 Clear 23 1020 28 10000 2.6 60 18:18 11.04.2020
5929 Clear 23 1021 31 10000 1.5 110 17:55 11.04.2020
5930 Clear 23 1021 28 10000 2.6 0 17:36 11.04.2020
5931 Clear 23 1021 28 10000 2.6 0 17:18 11.04.2020
5932 Clear 23 1021 28 10000 3.1 70 16:41 11.04.2020
5933 Clear 23 1021 28 10000 2.1 0 16:21 11.04.2020
5934 Clear 22 1022 28 10000 1.5 0 15:40 11.04.2020
5935 Clear 22 1022 27 10000 1.5 0 15:20 11.04.2020
5936 Clear 22 1022 28 10000 2.1 0 14:57 11.04.2020
5937 Clear 22 1022 28 10000 2.1 0 14:39 11.04.2020
5938 Clear 21 1023 28 10000 2.6 90 14:20 11.04.2020
5939 Clear 21 1023 26 10000 2.6 0 13:42 11.04.2020
5940 Clear 20 1024 29 10000 3.1 0 13:24 11.04.2020
5941 Clear 20 1024 26 10000 3.6 120 12:59 11.04.2020
5942 Clear 19 1024 26 10000 3.6 120 12:37 11.04.2020
5943 Clouds 18 1024 35 10000 2.6 0 12:18 11.04.2020
5944 Clouds 17 1025 31 10000 2.6 160 11:43 11.04.2020
5945 Clouds 16 1025 31 10000 2.6 120 11:21 11.04.2020
5946 Clouds 15 1025 35 10000 3.1 120 10:57 11.04.2020
5947 Clouds 14 1025 35 10000 3.1 120 10:39 11.04.2020
5948 Clouds 13 1025 40 10000 3.1 130 10:21 11.04.2020
5949 Clouds 12 1025 43 10000 2.6 140 09:57 11.04.2020
5950 Clouds 11 1025 43 10000 2.6 140 09:38 11.04.2020
5951 Clouds 10 1025 46 10000 2.6 110 09:20 11.04.2020
5952 Clouds 8 1025 49 10000 0.5 0 08:43 11.04.2020
5953 Clouds 8 1025 53 10000 1 0 08:25 11.04.2020
5954 Clouds 6 1025 56 10000 1 0 07:49 11.04.2020
5955 Clouds 6 1025 60 10000 1 0 07:28 11.04.2020
5956 Clouds 6 1025 65 10000 1 0 06:47 11.04.2020
5957 Clouds 7 1025 52 10000 2.1 90 05:59 11.04.2020
5958 Clouds 7 1025 56 10000 3.1 70 04:34 11.04.2020
5959 Clouds 8 1025 70 10000 2.6 50 03:40 11.04.2020
5960 Clouds 9 1025 65 10000 2.1 40 01:53 11.04.2020
5961 Clouds 10 1025 61 10000 1.5 50 01:20 11.04.2020
5962 Clouds 11 1025 57 10000 1 40 00:44 11.04.2020
5963 Clouds 11 1025 53 10000 0.5 30 00:19 11.04.2020
5964 Clouds 11 1025 53 10000 1 0 23:57 10.04.2020
5965 Clouds 12 1025 53 10000 1 0 23:38 10.04.2020
5966 Clouds 12 1025 50 10000 0.5 0 23:18 10.04.2020
5967 Clouds 13 1024 47 10000 3.6 40 22:43 10.04.2020
5968 Clouds 13 1024 47 10000 3.6 40 22:22 10.04.2020
5969 Clouds 14 1024 44 10000 3.1 40 21:58 10.04.2020
5970 Clouds 15 1024 44 10000 3.1 40 21:40 10.04.2020
5971 Clouds 15 1024 44 10000 3.1 20 21:20 10.04.2020
5972 Clouds 16 1024 45 10000 3.6 20 20:44 10.04.2020
5973 Clouds 17 1023 42 10000 3.6 30 20:24 10.04.2020
5974 Clouds 18 1023 37 10000 4.6 20 19:59 10.04.2020
5975 Clouds 19 1023 32 10000 4.6 40 19:41 10.04.2020
5976 Clouds 19 1023 32 10000 4.6 40 19:21 10.04.2020
5977 Clouds 19 1023 32 10000 4.6 40 19:21 10.04.2020
5978 Clouds 20 1023 34 10000 5.7 10 18:58 10.04.2020
5979 Clouds 20 1023 34 10000 5.7 10 18:58 10.04.2020
5980 Clouds 20 1023 32 10000 5.1 30 18:40 10.04.2020
5981 Clouds 20 1023 34 10000 5.7 10 18:40 10.04.2020
5982 Clouds 20 1023 32 10000 5.1 30 18:21 10.04.2020
5983 Clouds 20 1023 35 10000 4.6 50 17:59 10.04.2020
5984 Clouds 21 1023 35 10000 4.6 50 17:40 10.04.2020
5985 Clouds 21 1023 35 10000 4.1 20 17:21 10.04.2020
5986 Clouds 20 1023 37 10000 4.6 10 16:59 10.04.2020
5987 Clouds 20 1023 37 10000 4.6 10 16:41 10.04.2020
5988 Clouds 21 1024 35 10000 4.1 40 16:21 10.04.2020
5989 Clouds 21 1024 35 10000 5.7 310 15:58 10.04.2020
5990 Clouds 21 1024 35 10000 5.7 310 15:38 10.04.2020
5991 Clouds 21 1024 37 10000 4.1 270 15:20 10.04.2020
5992 Clouds 20 1024 37 10000 4.6 290 14:58 10.04.2020
5993 Clouds 20 1025 37 10000 3.1 0 14:39 10.04.2020
5994 Clouds 20 1025 37 10000 3.1 0 14:20 10.04.2020
5995 Clouds 20 1025 35 10000 2.1 0 13:45 10.04.2020
5996 Clouds 19 1025 37 10000 2.1 0 13:22 10.04.2020
5997 Clouds 19 1025 40 10000 2.1 70 12:55 10.04.2020
5998 Clear 19 1026 42 10000 1.5 0 12:37 10.04.2020
5999 Clear 18 1026 42 10000 1.5 0 12:19 10.04.2020
6000 Clear 17 1026 48 10000 1.5 300 11:42 10.04.2020
6001 Clear 17 1026 48 10000 1 0 11:24 10.04.2020
6002 Clear 16 1026 51 10000 1 0 10:57 10.04.2020
6003 Clear 15 1026 51 10000 1 0 10:38 10.04.2020
6004 Clear 14 1026 54 10000 1.5 90 10:19 10.04.2020
6005 Clear 12 1026 62 10000 0.5 0 09:43 10.04.2020
6006 Clear 13 1026 62 10000 0.5 0 09:43 10.04.2020
6007 Clouds 11 1026 76 10000 1 0 09:22 10.04.2020
6008 Clouds 10 1026 87 10000 1.5 140 08:50 10.04.2020
6009 Clouds 9 1026 81 10000 0.5 0 08:27 10.04.2020
6010 Clouds 9 1026 81 10000 0.5 0 08:27 10.04.2020
6011 Clouds 8 1026 93 10000 0.5 0 07:57 10.04.2020
6012 Clouds 8 1026 93 10000 1.5 150 07:39 10.04.2020
6013 Clouds 8 1026 93 10000 1.5 150 07:20 10.04.2020
6014 Clouds 8 1025 87 10000 2.1 50 06:39 10.04.2020
6015 Clouds 9 1025 87 10000 2.1 50 06:21 10.04.2020
6016 Clouds 9 1026 87 10000 1.5 60 05:33 10.04.2020
6017 Clouds 9 1026 81 10000 1.5 50 04:56 10.04.2020
6018 Clouds 11 1026 76 10000 3.6 40 03:36 10.04.2020
6019 Clouds 11 1025 76 10000 1 0 02:59 10.04.2020
6020 Clouds 11 1025 76 10000 1 0 02:36 10.04.2020
6021 Clouds 11 1025 76 10000 1.5 50 01:59 10.04.2020
6022 Clouds 12 1026 71 10000 2.1 130 01:29 10.04.2020
6023 Clouds 12 1025 66 10000 2.1 60 00:49 10.04.2020
6024 Clear 13 1025 58 10000 2.6 50 00:22 10.04.2020
6025 Clear 13 1025 58 10000 2.1 50 23:44 09.04.2020
6026 Clear 14 1025 54 10000 2.6 60 23:26 09.04.2020
6027 Clear 14 1025 51 10000 2.6 50 22:59 09.04.2020
6028 Clear 14 1025 51 10000 2.6 50 22:40 09.04.2020
6029 Clear 15 1025 48 10000 3.1 30 22:22 09.04.2020
6030 Clear 16 1025 45 10000 3.6 30 21:45 09.04.2020
6031 Clear 16 1024 48 10000 4.1 20 21:26 09.04.2020
6032 Clear 17 1024 45 10000 4.1 30 20:59 09.04.2020
6033 Clear 18 1024 45 10000 4.1 30 20:40 09.04.2020
6034 Clear 19 1024 40 10000 5.1 30 20:20 09.04.2020
6035 Clear 20 1023 40 10000 4.1 350 19:41 09.04.2020
6036 Clear 21 1023 40 10000 4.1 350 19:23 09.04.2020
6037 Clear 21 1023 35 10000 4.1 340 18:59 09.04.2020
6038 Clear 21 1023 35 10000 4.1 340 18:40 09.04.2020
6039 Clear 21 1023 35 10000 5.1 320 18:18 09.04.2020
6040 Clear 21 1023 35 10000 6.2 340 17:40 09.04.2020
6041 Clear 22 1023 33 10000 6.2 310 17:22 09.04.2020
6042 Clear 22 1023 33 10000 5.7 300 16:56 09.04.2020
6043 Clear 22 1023 33 10000 5.7 320 16:37 09.04.2020
6044 Clear 22 1023 33 10000 5.7 320 16:18 09.04.2020
6045 Clouds 22 1024 40 10000 4.1 340 15:54 09.04.2020
6046 Clear 22 1024 40 10000 4.1 0 15:36 09.04.2020
6047 Clouds 22 1023 38 10000 5.7 290 15:18 09.04.2020
6048 Clouds 21 1024 40 10000 3.6 290 14:39 09.04.2020
6049 Clouds 22 1024 40 10000 3.6 290 14:20 09.04.2020
6050 Clouds 21 1024 40 10000 3.6 270 13:43 09.04.2020
6051 Clouds 21 1024 42 10000 2.6 260 13:24 09.04.2020
6052 Clouds 20 1024 45 10000 2.6 280 12:59 09.04.2020
6053 Clouds 20 1024 45 10000 2.6 280 12:40 09.04.2020
6054 Clouds 19 1024 48 10000 2.1 300 12:21 09.04.2020
6055 Clouds 19 1024 51 10000 2.6 280 11:57 09.04.2020
6056 Clouds 19 1024 51 10000 2.6 280 11:38 09.04.2020
6057 Clouds 18 1024 45 10000 2.1 270 11:19 09.04.2020
6058 Clouds 17 1024 48 10000 1.5 150 10:55 09.04.2020
6059 Clouds 17 1024 48 10000 1.5 150 10:37 09.04.2020
6060 Clouds 15 1024 51 10000 1.5 0 10:18 09.04.2020
6061 Clouds 14 1024 66 10000 2.1 160 09:40 09.04.2020
6062 Clouds 12 1024 71 10000 1 0 09:21 09.04.2020
6063 Clouds 12 1024 71 10000 1 0 09:21 09.04.2020
6064 Clouds 12 1024 76 10000 2.6 260 08:59 09.04.2020
6065 Clouds 11 1024 87 10000 1 0 08:40 09.04.2020
6066 Clouds 11 1023 81 10000 1.5 260 08:22 09.04.2020
6067 Clouds 10 1023 87 10000 2.1 60 07:51 09.04.2020
6068 Clouds 10 1023 87 10000 1.5 10 07:23 09.04.2020
6069 Clouds 10 1022 81 10000 1.5 330 06:50 09.04.2020
6070 Clouds 10 1022 81 10000 1 100 05:49 09.04.2020
6071 Clouds 11 1022 81 10000 0.5 230 05:28 09.04.2020
6072 Clouds 12 1022 70 10000 1 0 02:37 09.04.2020
6073 Clouds 12 1023 71 10000 0.5 230 02:18 09.04.2020
6074 Clouds 13 1022 66 10000 1.5 20 01:39 09.04.2020
6075 Clouds 13 1022 66 10000 1.5 20 01:19 09.04.2020
6076 Clouds 13 1023 62 10000 1.5 0 00:39 09.04.2020
6077 Clear 13 1022 54 10000 1.5 120 00:19 09.04.2020
6078 Clear 13 1022 54 10000 1.5 120 00:19 09.04.2020
6079 Clear 13 1022 54 10000 1 0 23:56 08.04.2020
6080 Clear 14 1022 54 10000 1 0 23:37 08.04.2020
6081 Clear 14 1022 47 10000 3.1 60 23:19 08.04.2020
6082 Clear 16 1022 39 10000 1 60 22:42 08.04.2020
6083 Clear 16 1022 39 10000 1 60 22:23 08.04.2020
6084 Clear 17 1022 39 10000 1 50 21:56 08.04.2020
6085 Clear 18 1022 36 10000 0.5 0 21:37 08.04.2020
6086 Clear 18 1022 36 10000 0.5 0 21:37 08.04.2020
6087 Clear 18 1022 36 10000 0.5 0 21:19 08.04.2020
6088 Clear 19 1022 34 10000 1.5 360 20:56 08.04.2020
6089 Clear 20 1022 34 10000 2.6 340 20:38 08.04.2020
6090 Clear 21 1022 34 10000 2.6 340 20:19 08.04.2020
6091 Clear 22 1022 28 10000 2.1 320 19:42 08.04.2020
6092 Clear 23 1022 23 10000 3.1 280 19:22 08.04.2020
6093 Clear 23 1022 23 10000 3.1 280 18:58 08.04.2020
6094 Clear 23 1022 23 10000 1.5 0 18:40 08.04.2020
6095 Clear 24 1022 23 10000 2.6 260 18:20 08.04.2020
6096 Clear 24 1022 23 10000 2.6 260 17:43 08.04.2020
6097 Clear 24 1023 23 10000 3.1 290 17:22 08.04.2020
6098 Clear 24 1023 23 10000 3.1 290 17:22 08.04.2020
6099 Clear 24 1023 23 10000 3.1 290 16:59 08.04.2020
6100 Clear 24 1023 22 10000 2.1 220 16:41 08.04.2020
6101 Clear 24 1023 22 10000 2.1 220 16:22 08.04.2020
6102 Clear 24 1023 25 10000 3.6 290 15:55 08.04.2020
6103 Clear 24 1023 25 10000 3.6 290 15:36 08.04.2020
6104 Clear 24 1023 25 10000 1 0 15:18 08.04.2020
6105 Clear 23 1023 25 10000 1 0 14:41 08.04.2020
6106 Clouds 23 1024 29 10000 2.6 290 14:23 08.04.2020
6107 Clear 23 1024 29 0 1 0 13:45 08.04.2020
6108 Clear 23 1024 33 10000 1.5 0 13:22 08.04.2020
6109 Clear 22 1025 35 10000 1.5 160 12:59 08.04.2020
6110 Clear 22 1025 35 10000 1.5 160 12:41 08.04.2020
6111 Clear 20 1025 43 10000 2.1 160 12:18 08.04.2020
6112 Clear 21 1025 43 10000 2.1 160 12:18 08.04.2020
6113 Clear 20 1025 45 10000 2.6 160 11:55 08.04.2020
6114 Clear 19 1026 48 10000 3.6 160 11:37 08.04.2020
6115 Clear 19 1026 48 10000 3.6 160 11:19 08.04.2020
6116 Clear 18 1026 51 10000 4.6 150 10:55 08.04.2020
6117 Clear 17 1026 55 10000 3.1 140 10:37 08.04.2020
6118 Clear 16 1026 55 10000 3.1 140 10:18 08.04.2020
6119 Clear 13 1026 62 10000 1.5 110 09:42 08.04.2020
6120 Clear 13 1026 62 10000 1.5 110 09:20 08.04.2020
6121 Clear 12 1026 66 10000 2.1 90 08:59 08.04.2020
6122 Clear 12 1026 66 10000 2.1 90 08:59 08.04.2020
6123 Clear 12 1026 66 10000 2.1 90 08:40 08.04.2020
6124 Clear 11 1026 71 10000 2.1 70 08:21 08.04.2020
6125 Clear 11 1026 76 10000 1 0 07:43 08.04.2020
6126 Clear 10 1026 76 10000 1 0 07:22 08.04.2020
6127 Clear 10 1026 76 10000 2.1 90 06:48 08.04.2020
6128 Clear 10 1026 76 10000 1.5 100 05:49 08.04.2020
6129 Clear 12 1027 81 10000 1.5 130 03:34 08.04.2020
6130 Clear 12 1027 81 10000 2.1 150 02:49 08.04.2020
6131 Clear 12 1028 71 10000 1.5 120 02:19 08.04.2020
6132 Clear 13 1028 62 10000 2.6 100 01:30 08.04.2020
6133 Clear 13 1028 62 10000 2.6 100 00:59 08.04.2020
6134 Clear 13 1028 62 10000 2.6 100 00:41 08.04.2020
6135 Clear 13 1028 62 10000 1.5 110 00:21 08.04.2020
6136 Clear 14 1028 62 10000 3.1 80 23:39 07.04.2020
6137 Clear 15 1028 67 10000 4.1 70 23:20 07.04.2020
6138 Clear 15 1028 63 10000 4.1 60 22:57 07.04.2020
6139 Clear 15 1028 63 10000 4.1 60 22:57 07.04.2020
6140 Clear 15 1028 63 10000 4.1 60 22:39 07.04.2020
6141 Clear 15 1028 63 10000 4.1 50 22:19 07.04.2020
6142 Clear 16 1028 59 10000 4.1 60 21:56 07.04.2020
6143 Clear 16 1028 59 10000 4.1 60 21:56 07.04.2020
6144 Clear 16 1028 59 10000 4.1 60 21:38 07.04.2020
6145 Rain 17 1028 55 10000 3.6 60 21:19 07.04.2020
6146 Rain 17 1027 52 10000 3.1 30 20:55 07.04.2020
6147 Rain 18 1027 42 10000 1.5 60 20:37 07.04.2020
6148 Rain 19 1027 42 10000 1.5 60 20:19 07.04.2020
6149 Rain 20 1028 37 10000 1 0 19:56 07.04.2020
6150 Rain 19 1027 37 10000 1 40 19:56 07.04.2020
6151 Rain 20 1028 37 10000 1 0 19:36 07.04.2020
6152 Rain 20 1028 37 10000 1 0 19:18 07.04.2020
6153 Rain 21 1028 37 10000 2.1 60 18:54 07.04.2020
6154 Rain 20 1028 37 10000 0.5 0 18:36 07.04.2020
6155 Clouds 21 1028 40 10000 2.1 0 18:18 07.04.2020
6156 Clouds 21 1028 40 10000 2.1 0 17:44 07.04.2020
6157 Clouds 21 1028 40 10000 2.1 0 17:20 07.04.2020
6158 Clouds 21 1029 45 10000 3.1 100 16:46 07.04.2020
6159 Clouds 20 1029 45 10000 3.1 100 16:27 07.04.2020
6160 Clouds 20 1029 43 10000 1.5 0 15:57 07.04.2020
6161 Clouds 20 1029 43 10000 1.5 0 15:38 07.04.2020
6162 Clouds 20 1029 43 10000 1.5 0 15:20 07.04.2020
6163 Clouds 20 1030 45 10000 1.5 210 14:41 07.04.2020
6164 Clouds 20 1030 45 10000 2.6 0 14:22 07.04.2020
6165 Clouds 19 1030 45 10000 2.1 10 13:57 07.04.2020
6166 Clouds 19 1031 48 10000 2.1 360 13:38 07.04.2020
6167 Clouds 19 1031 48 10000 2.1 360 13:18 07.04.2020
6168 Clouds 19 1031 48 10000 2.1 360 13:18 07.04.2020
6169 Clouds 18 1031 48 10000 2.1 0 12:55 07.04.2020
6170 Clouds 17 1031 55 10000 1.5 0 12:36 07.04.2020
6171 Clouds 16 1031 55 10000 1.5 0 12:18 07.04.2020
6172 Clouds 16 1031 59 10000 1.5 0 11:44 07.04.2020
6173 Clouds 16 1031 63 10000 2.1 30 11:25 07.04.2020
6174 Clouds 15 1031 71 10000 0.5 0 10:59 07.04.2020
6175 Clouds 14 1031 71 10000 0.5 0 10:38 07.04.2020
6176 Clouds 14 1031 71 10000 0.5 0 10:19 07.04.2020
6177 Clouds 12 1031 71 10000 0.5 0 09:45 07.04.2020
6178 Clouds 12 1031 81 10000 0.5 0 09:19 07.04.2020
6179 Clouds 11 1030 87 10000 0.5 0 08:56 07.04.2020
6180 Clouds 10 1030 87 10000 0.5 0 08:38 07.04.2020
6181 Clouds 10 1030 93 10000 2.1 50 08:18 07.04.2020
6182 Clouds 9 1030 93 10000 1 0 07:43 07.04.2020
6183 Clouds 9 1029 93 10000 0.5 0 07:25 07.04.2020
6184 Clouds 9 1029 87 10000 1 60 06:51 07.04.2020
6185 Rain 9 1029 87 10000 0.5 0 06:25 07.04.2020
6186 Rain 10 1029 81 10000 0.5 0 05:46 07.04.2020
6187 Rain 11 1028 81 10000 1 0 05:22 07.04.2020
6188 Rain 13 1028 62 10000 0.5 60 03:32 07.04.2020
6189 Rain 13 1027 66 10000 1.66 304 02:59 07.04.2020
6190 Clouds 13 1027 66 10000 1.96 262 02:33 07.04.2020
6191 Clouds 14 1027 66 10000 1 0 01:33 07.04.2020
6192 Clouds 14 1026 62 10000 1 0 00:52 07.04.2020
6193 Clouds 14 1026 58 10000 2.6 310 00:25 07.04.2020
6194 Clouds 15 1025 50 10000 1.5 340 23:40 06.04.2020
6195 Clouds 15 1025 47 10000 3.1 330 23:21 06.04.2020
6196 Clouds 15 1024 43 10000 1.5 310 22:54 06.04.2020
6197 Clouds 16 1024 43 10000 1.5 310 22:36 06.04.2020
6198 Clouds 16 1024 66 10000 1.5 140 22:18 06.04.2020
6199 Clouds 17 1023 66 10000 2.1 170 21:42 06.04.2020
6200 Clear 17 1023 52 10000 2.6 170 21:20 06.04.2020
6201 Clear 18 1022 31 10000 2.6 190 20:57 06.04.2020
6202 Clear 19 1022 31 10000 2.6 190 20:39 06.04.2020
6203 Clear 19 1022 52 10000 2.6 200 20:21 06.04.2020
6204 Clear 20 1021 52 10000 3.6 210 19:57 06.04.2020
6205 Clear 21 1021 52 10000 3.6 210 19:38 06.04.2020
6206 Clear 21 1021 52 10000 5.7 220 19:20 06.04.2020
6207 Clear 22 1021 52 10000 5.1 220 18:43 06.04.2020
6208 Clear 22 1021 31 10000 5.1 220 18:24 06.04.2020
6209 Clear 22 1021 22 10000 4.6 220 17:58 06.04.2020
6210 Clear 23 1021 22 10000 4.6 220 17:39 06.04.2020
6211 Clear 23 1021 23 10000 5.1 230 17:18 06.04.2020
6212 Clear 23 1020 31 10000 5.7 200 16:49 06.04.2020
6213 Clear 22 1020 31 10000 6.7 220 16:30 06.04.2020
6214 Clear 22 1020 30 10000 6.7 200 15:00 06.04.2020
6215 Clear 21 1020 30 10000 5.7 180 13:45 06.04.2020
6216 Clear 21 1020 26 10000 5.7 180 13:23 06.04.2020
6217 Clear 20 1020 30 10000 6.2 160 12:50 06.04.2020
6218 Clear 20 1020 30 10000 6.2 160 12:50 06.04.2020
6219 Clear 20 1020 30 10000 6.2 160 12:50 06.04.2020
6220 Clear 20 1020 30 10000 6.2 160 12:50 06.04.2020
6221 Clear 20 1020 30 10000 6.2 160 12:49 06.04.2020
6222 Clear 19 1020 30 10000 7.2 180 12:21 06.04.2020
6223 Clear 18 1020 29 10000 6.7 180 11:54 06.04.2020
6224 Clear 18 1020 29 10000 6.7 180 11:54 06.04.2020
6225 Clear 18 1020 29 10000 6.7 180 11:54 06.04.2020
6226 Clear 18 1020 29 10000 6.7 180 11:53 06.04.2020
6227 Clear 18 1020 29 10000 6.7 180 11:53 06.04.2020
6228 Clear 18 1020 29 10000 6.7 180 11:28 06.04.2020
6229 Clear 18 1020 29 10000 6.7 180 11:28 06.04.2020
6230 Clear 18 1020 29 10000 6.7 180 11:28 06.04.2020
6231 Clear 18 1020 29 10000 6.7 180 11:28 06.04.2020
6232 Clear 18 1020 29 10000 6.7 180 11:28 06.04.2020
6233 Clear 17 1019 33 10000 6.7 170 10:49 06.04.2020
6234 Clear 16 1019 33 10000 6.7 170 10:49 06.04.2020
6235 Clear 16 1019 33 10000 6.7 170 10:49 06.04.2020
6236 Clear 16 1019 33 10000 6.7 170 10:49 06.04.2020
6237 Clear 16 1019 33 10000 6.7 170 10:49 06.04.2020
6238 Clear 15 1019 36 10000 4.1 130 10:21 06.04.2020
6239 Clear 15 1019 36 10000 4.1 130 10:21 06.04.2020
6240 Clear 14 1019 41 10000 4.1 130 09:42 06.04.2020
6241 Clear 14 1019 41 10000 4.1 130 09:42 06.04.2020
6242 Clear 14 1019 41 10000 4.1 130 09:42 06.04.2020
6243 Clear 14 1019 41 10000 4.1 130 09:42 06.04.2020
6244 Clear 12 1019 66 10000 4.1 130 09:20 06.04.2020
6245 Clear 11 1019 67 10000 4.1 130 08:51 06.04.2020
6246 Clear 11 1019 67 10000 4.1 130 08:30 06.04.2020
6247 Clear 10 1019 46 10000 3.1 120 07:26 06.04.2020
6248 Clear 10 1018 43 10000 2.6 110 06:39 06.04.2020
6249 Clear 10 1018 43 10000 2.6 110 06:39 06.04.2020
6250 Clear 9 1018 43 10000 3.1 110 06:18 06.04.2020
6251 Clear 10 1018 40 10000 2.6 110 04:18 06.04.2020
6252 Clear 10 1018 62 10000 3.6 130 02:56 06.04.2020
6253 Clear 10 1018 60 10000 3.6 120 02:18 06.04.2020
6254 Clear 11 1019 60 10000 4.1 130 01:23 06.04.2020
6255 Clear 12 1018 37 10000 4.1 120 00:41 06.04.2020
6256 Clear 12 1019 52 10000 3.6 120 00:21 06.04.2020
6257 Clear 12 1019 52 10000 3.6 120 00:21 06.04.2020
6258 Clear 12 1019 52 10000 3.6 120 00:21 06.04.2020
6259 Clear 12 1019 52 10000 3.6 120 00:21 06.04.2020
6260 Clear 12 1019 52 10000 3.1 100 23:43 05.04.2020
6261 Clear 12 1019 52 10000 3.1 100 23:23 05.04.2020
6262 Clear 13 1019 52 10000 2.6 100 23:23 05.04.2020
6263 Clear 12 1019 52 10000 3.1 100 23:23 05.04.2020
6264 Clear 13 1019 52 10000 2.1 100 22:55 05.04.2020
6265 Clear 13 1019 52 10000 2.1 100 22:37 05.04.2020
6266 Clear 14 1019 52 10000 2.6 110 22:18 05.04.2020
6267 Clear 14 1019 52 10000 3.1 110 21:44 05.04.2020
6268 Clear 15 1019 31 10000 4.1 120 21:23 05.04.2020
6269 Clear 16 1019 29 10000 4.6 130 20:26 05.04.2020
6270 Clear 17 1019 27 10000 6.7 130 19:45 05.04.2020
6271 Clear 18 1019 27 10000 6.7 130 19:26 05.04.2020
6272 Clear 19 1019 25 10000 5.7 120 18:59 05.04.2020
6273 Clear 19 1019 25 10000 5.7 120 18:39 05.04.2020
6274 Clear 19 1019 25 10000 5.7 120 18:39 05.04.2020
6275 Clear 19 1019 25 10000 5.7 120 18:39 05.04.2020
6276 Clear 19 1019 25 10000 5.7 120 18:39 05.04.2020
6277 Clear 19 1019 25 10000 5.7 120 18:32 05.04.2020
6278 Clear 20 1019 24 10000 7.2 140 17:51 05.04.2020
6279 Clear 20 1019 24 10000 7.2 140 17:51 05.04.2020
6280 Clear 20 1019 24 10000 7.2 140 17:51 05.04.2020
6281 Clear 20 1019 24 10000 7.2 140 17:51 05.04.2020
6282 Clear 20 1020 24 10000 7.2 140 17:23 05.04.2020
6283 Clear 20 1020 25 10000 6.7 130 16:47 05.04.2020
6284 Clear 19 1020 24 10000 6.7 140 16:20 05.04.2020
6285 Clear 19 1020 24 10000 6.7 140 16:20 05.04.2020
6286 Clear 19 1021 25 10000 6.2 110 15:48 05.04.2020
6287 Clear 19 1021 25 10000 6.2 110 15:30 05.04.2020
6288 Clear 18 1021 33 10000 6.7 140 14:48 05.04.2020
6289 Clear 18 1021 33 10000 6.7 140 14:48 05.04.2020
6290 Clear 18 1022 33 10000 7.7 140 14:24 05.04.2020
6291 Clear 18 1022 33 10000 8.2 140 13:41 05.04.2020
6292 Clear 17 1023 33 10000 8.2 130 12:48 05.04.2020
6293 Clear 15 1024 44 10000 8.2 130 11:41 05.04.2020
6294 Clear 14 1024 41 10000 6.7 140 11:20 05.04.2020
6295 Clear 14 1024 41 10000 6.7 140 11:20 05.04.2020
6296 Clear 13 1024 43 10000 5.1 130 10:48 05.04.2020
6297 Clear 12 1024 43 10000 5.1 130 10:24 05.04.2020
6298 Clear 12 1024 43 10000 5.1 130 10:24 05.04.2020
6299 Clear 11 1024 46 10000 5.1 130 09:57 05.04.2020
6300 Clear 10 1024 53 10000 2.6 160 09:31 05.04.2020
6301 Clear 8 1024 65 10000 2.6 150 09:02 05.04.2020
6302 Clear 8 1024 65 10000 2.6 150 09:02 05.04.2020
6303 Clear 8 1024 65 10000 2.6 150 09:02 05.04.2020
6304 Clear 5 1023 67 10000 3.1 140 07:31 05.04.2020
6305 Clear 5 1023 69 10000 1.5 110 04:36 05.04.2020
6306 Clear 6 1023 80 10000 2.6 140 03:31 05.04.2020
6307 Clear 6 1024 60 10000 2.1 120 02:51 05.04.2020
6308 Clear 7 1024 61 10000 2.6 90 01:48 05.04.2020
6309 Clear 7 1024 61 10000 2.6 90 01:28 05.04.2020
6310 Clear 7 1024 61 10000 2.6 90 01:28 05.04.2020
6311 Clear 7 1024 61 10000 1.5 110 00:44 05.04.2020
6312 Clear 7 1024 56 10000 2.6 100 00:21 05.04.2020
6313 Clear 7 1024 56 10000 2.6 100 23:55 04.04.2020
6314 Clear 8 1024 56 10000 2.6 90 23:37 04.04.2020
6315 Clear 8 1024 56 10000 2.1 90 23:19 04.04.2020
6316 Clear 9 1024 56 10000 2.6 90 22:40 04.04.2020
6317 Clear 9 1024 56 10000 2.6 90 22:22 04.04.2020
6318 Clear 9 1024 56 10000 2.1 100 21:59 04.04.2020
6319 Clear 9 1024 56 10000 2.1 100 21:59 04.04.2020
6320 Clear 10 1024 56 10000 2.1 110 21:40 04.04.2020
6321 -273 0 0 0 0 0 21:20 04.04.2020
6322 Clouds 11 1023 44 10000 1.5 110 20:59 04.04.2020
6323 Clear 11 1023 40 10000 2.1 130 20:41 04.04.2020
6324 Clear 12 1023 45 10000 3.6 150 20:22 04.04.2020
6325 Clear 13 1023 45 10000 4.1 150 19:57 04.04.2020
6326 Clear 14 1023 45 10000 4.1 150 19:37 04.04.2020
6327 Clear 14 1023 45 10000 3.1 150 19:19 04.04.2020
6328 Clear 14 1023 45 10000 3.1 110 18:57 04.04.2020
6329 Clear 14 1023 45 10000 3.1 110 18:57 04.04.2020
6330 Clear 14 1023 45 10000 3.1 110 18:38 04.04.2020
6331 Clouds 14 1023 44 10000 3.1 110 18:38 04.04.2020
6332 Clear 15 1023 34 10000 3.1 110 18:19 04.04.2020
6333 Clear 15 1023 33 10000 3.1 130 17:56 04.04.2020
6334 Clear 15 1023 33 10000 3.1 130 17:38 04.04.2020
6335 Clear 15 1023 34 10000 2.6 210 17:18 04.04.2020
6336 Clear 15 1023 33 10000 2.6 130 16:42 04.04.2020
6337 Clear 14 1023 33 10000 2.6 0 16:23 04.04.2020
6338 Clear 14 1024 30 10000 3.1 150 15:57 04.04.2020
6339 Clear 14 1024 30 10000 3.1 150 15:38 04.04.2020
6340 Clear 14 1024 30 10000 3.6 130 15:19 04.04.2020
6341 Clear 13 1024 28 10000 3.6 120 14:44 04.04.2020
6342 Clouds 13 1024 28 10000 3.6 120 14:23 04.04.2020
6343 Clouds 13 1024 32 10000 3.1 0 13:58 04.04.2020
6344 Clouds 13 1025 30 10000 3.1 150 13:40 04.04.2020
6345 Clouds 12 1025 34 10000 2.6 100 13:20 04.04.2020
6346 Clouds 12 1025 34 10000 2.6 0 12:57 04.04.2020
6347 Clouds 12 1025 34 10000 2.6 0 12:39 04.04.2020
6348 Clouds 11 1025 37 10000 1.5 0 12:19 04.04.2020
6349 Clouds 10 1025 46 10000 2.1 0 11:41 04.04.2020
6350 Clouds 9 1025 49 10000 2.1 110 11:23 04.04.2020
6351 Clouds 8 1025 49 10000 2.6 150 10:58 04.04.2020
6352 Clouds 8 1025 49 10000 2.6 150 10:40 04.04.2020
6353 Clouds 7 1025 60 10000 2.1 150 10:22 04.04.2020
6354 Clouds 6 1025 60 10000 2.1 150 09:56 04.04.2020
6355 Clouds 5 1025 49 10000 2.1 140 09:38 04.04.2020
6356 Clouds 3 1025 74 10000 1.5 100 09:20 04.04.2020
6357 Clouds 3 1025 80 10000 0.5 0 08:43 04.04.2020
6358 Clouds 2 1025 80 10000 0.5 0 08:23 04.04.2020
6359 Clouds 1 1024 92 10000 0.5 0 07:57 04.04.2020
6360 Clouds 0 1024 92 10000 0.5 0 07:38 04.04.2020
6361 Clouds 0 1023 92 10000 0.5 0 07:20 04.04.2020
6362 Clouds 0 1023 92 10000 1.5 70 06:38 04.04.2020
6363 Clouds 0 1023 86 10000 0.5 260 05:52 04.04.2020
6364 Clouds 0 1023 86 10000 0.5 260 05:52 04.04.2020
6365 Clouds 1 1023 92 10000 1 60 05:33 04.04.2020
6366 Clouds 1 1023 75 10000 1 50 04:34 04.04.2020
6367 Clouds 1 1022 92 10000 0.5 0 03:57 04.04.2020
6368 Clouds 1 1022 75 10000 1 0 03:37 04.04.2020
6369 Clouds 2 1022 86 10000 0.5 0 02:48 04.04.2020
6370 Clouds 2 1022 86 10000 0.5 0 02:29 04.04.2020
6371 Clouds 3 1022 74 10000 0.55 277 01:48 04.04.2020
6372 Clouds 3 1022 74 10000 0.55 277 01:21 04.04.2020
6373 Clouds 3 1021 74 10000 0.5 150 00:45 04.04.2020
6374 Clouds 4 1021 74 10000 0.5 150 00:26 04.04.2020
6375 Clouds 4 1021 69 10000 2.1 340 23:39 03.04.2020
6376 Clouds 5 1020 60 10000 2.1 340 23:20 03.04.2020
6377 Clouds 5 1020 60 10000 2.1 340 22:56 03.04.2020
6378 Clouds 5 1020 60 10000 3.1 320 22:37 03.04.2020
6379 Clouds 6 1020 56 10000 3.6 310 22:18 03.04.2020
6380 Clouds 7 1019 49 10000 4.1 290 21:43 03.04.2020
6381 Clouds 8 1019 49 10000 5.1 280 21:22 03.04.2020
6382 Clouds 8 1019 49 10000 4.1 280 20:56 03.04.2020
6383 Clouds 8 1019 49 10000 4.1 280 20:56 03.04.2020
6384 Clouds 8 1019 49 10000 4.1 280 20:37 03.04.2020
6385 Clouds 9 1018 49 10000 5.7 280 20:19 03.04.2020
6386 Clouds 9 1018 49 10000 5.7 280 19:56 03.04.2020
6387 Clouds 10 1018 49 10000 6.2 300 19:38 03.04.2020
6388 Clouds 10 1018 56 10000 6.2 280 19:20 03.04.2020
6389 Clouds 10 1018 46 10000 6.7 290 18:58 03.04.2020
6390 Clouds 10 1018 46 10000 6.7 290 18:40 03.04.2020
6391 Clouds 11 1017 51 10000 7.2 280 18:22 03.04.2020
6392 Clouds 11 1017 51 10000 7.2 280 17:55 03.04.2020
6393 Clouds 10 1017 51 10000 7.2 280 17:36 03.04.2020
6394 Clouds 11 1017 50 10000 7.2 290 17:18 03.04.2020
6395 Clouds 11 1017 53 10000 6.2 280 16:43 03.04.2020
6396 Clouds 11 1017 53 10000 5.1 300 16:21 03.04.2020
6397 Clouds 11 1017 53 10000 5.1 300 15:58 03.04.2020
6398 Clouds 11 1017 57 10000 6.2 290 15:39 03.04.2020
6399 Clouds 11 1016 50 10000 6.7 280 15:20 03.04.2020
6400 Clouds 10 1016 50 10000 6.2 280 14:56 03.04.2020
6401 Clouds 11 1016 50 10000 6.2 280 14:37 03.04.2020
6402 Clouds 10 1016 50 10000 6.2 280 14:19 03.04.2020
6403 Clouds 10 1016 50 10000 6.2 280 13:43 03.04.2020
6404 Clouds 10 1016 53 10000 6.7 270 13:25 03.04.2020
6405 Clouds 10 1016 61 10000 5.7 270 12:56 03.04.2020
6406 Clouds 10 1016 61 10000 5.7 270 12:37 03.04.2020
6407 Clouds 10 1016 61 10000 6.2 280 12:18 03.04.2020
6408 Clouds 10 1015 61 10000 6.7 260 11:54 03.04.2020
6409 Clouds 10 1015 61 10000 6.7 260 11:36 03.04.2020
6410 Clouds 10 1015 66 10000 4.6 260 11:18 03.04.2020
6411 Clouds 9 1015 70 10000 5.1 270 10:54 03.04.2020
6412 Clouds 9 1015 70 10000 5.1 270 10:36 03.04.2020
6413 Clouds 9 1015 70 10000 5.7 270 10:18 03.04.2020
6414 Clouds 8 1014 75 10000 4.6 270 09:40 03.04.2020
6415 Clouds 8 1014 75 10000 4.6 270 09:40 03.04.2020
6416 Clouds 8 1014 75 10000 4.6 270 09:22 03.04.2020
6417 Clouds 7 1014 75 10000 4.6 270 08:58 03.04.2020
6418 Clouds 7 1014 75 10000 3.1 270 08:40 03.04.2020
6419 Clouds 7 1014 75 10000 3.1 270 08:40 03.04.2020
6420 Clouds 7 1014 75 10000 3.6 280 08:22 03.04.2020
6421 Clouds 7 1013 75 10000 4.6 270 07:50 03.04.2020
6422 Clouds 7 1013 75 10000 4.6 270 07:32 03.04.2020
6423 Clouds 7 1012 75 10000 4.6 270 06:50 03.04.2020
6424 Clouds 7 1012 81 10000 3.1 260 06:25 03.04.2020
6425 Rain 7 1012 81 10000 4.1 270 05:40 03.04.2020
6426 Clouds 7 1012 65 10000 3.1 250 03:47 03.04.2020
6427 Clouds 7 1012 65 10000 3.1 250 03:29 03.04.2020
6428 Clouds 7 1012 65 10000 2.1 220 02:29 03.04.2020
6429 Clouds 7 1012 65 10000 2.6 210 01:24 03.04.2020
6430 Clouds 7 1012 65 10000 2.6 220 00:43 03.04.2020
6431 Clouds 7 1012 63 10000 2.6 230 00:23 03.04.2020
6432 Clouds 7 1012 63 10000 3.1 250 23:43 02.04.2020
6433 Clouds 7 1012 63 10000 4.6 250 23:24 02.04.2020
6434 Clouds 7 1012 63 10000 4.6 250 22:59 02.04.2020
6435 Clouds 7 1012 61 10000 6.2 270 22:41 02.04.2020
6436 Clouds 8 1012 63 10000 5.7 270 22:21 02.04.2020
6437 Clouds 8 1012 63 10000 5.7 270 21:57 02.04.2020
6438 Clouds 8 1013 69 10000 6.2 280 21:37 02.04.2020
6439 Clouds 8 1012 59 10000 7.2 310 21:18 02.04.2020
6440 Clouds 8 1012 59 10000 7.2 300 20:44 02.04.2020
6441 Clouds 9 1012 49 10000 7.2 290 20:24 02.04.2020
6442 Clouds 9 1012 49 10000 7.2 290 19:57 02.04.2020
6443 Clouds 9 1012 49 10000 6.7 300 19:38 02.04.2020
6444 Clouds 10 1012 46 10000 5.7 300 19:20 02.04.2020
6445 Clouds 10 1011 43 10000 6.2 300 18:54 02.04.2020
6446 Clouds 10 1012 43 10000 5.7 300 18:36 02.04.2020
6447 Clouds 10 1012 43 10000 5.7 300 18:18 02.04.2020
6448 Clouds 10 1012 43 10000 5.7 310 17:42 02.04.2020
6449 Clouds 11 1012 46 10000 6.2 290 17:24 02.04.2020
6450 Clouds 11 1012 46 10000 6.2 290 16:58 02.04.2020
6451 Clouds 10 1012 46 10000 6.2 290 16:40 02.04.2020
6452 Clouds 11 1012 46 10000 6.2 280 16:22 02.04.2020
6453 Clouds 11 1012 46 10000 6.2 280 15:57 02.04.2020
6454 Clouds 11 1012 46 10000 5.7 290 15:39 02.04.2020
6455 Clouds 10 1013 47 10000 4.6 320 15:19 02.04.2020
6456 Clouds 10 1013 47 10000 4.6 320 14:57 02.04.2020
6457 Clouds 10 1013 47 10000 5.1 300 14:38 02.04.2020
6458 Clouds 10 1014 43 10000 4.6 280 14:18 02.04.2020
6459 Clouds 9 1014 43 10000 4.1 260 13:55 02.04.2020
6460 Clouds 9 1014 43 10000 4.1 260 13:37 02.04.2020
6461 Clouds 9 1014 46 10000 2.1 0 13:18 02.04.2020
6462 Clouds 9 1014 49 10000 2.6 260 12:45 02.04.2020
6463 Clouds 9 1014 49 10000 2.6 260 12:45 02.04.2020
6464 Clouds 8 1015 52 10000 1.5 250 12:20 02.04.2020
6465 Clear 7 1015 56 10000 2.1 290 11:58 02.04.2020
6466 Clear 7 1015 56 10000 2.1 290 11:58 02.04.2020
6467 Clear 7 1015 56 10000 2.1 290 11:39 02.04.2020
6468 Clear 7 1015 56 10000 1 0 11:20 02.04.2020
6469 Clear 7 1015 56 10000 2.1 290 11:20 02.04.2020
6470 Clear 6 1015 60 10000 1 0 10:57 02.04.2020
6471 Clear 6 1015 56 10000 1 0 10:57 02.04.2020
6472 Clear 6 1015 60 10000 1 0 10:38 02.04.2020
6473 Clear 5 1015 64 10000 1.5 140 10:20 02.04.2020
6474 Clear 4 1015 74 10000 2.6 150 09:59 02.04.2020
6475 Clouds 3 1015 74 10000 2.6 150 09:41 02.04.2020
6476 Clouds 2 1016 86 10000 1 150 09:21 02.04.2020
6477 Clouds 2 1016 86 10000 0.5 160 08:48 02.04.2020
6478 Clouds 1 1015 86 10000 1 0 08:28 02.04.2020
6479 Clouds 0 1015 86 10000 1 0 07:59 02.04.2020
6480 Clouds 0 1015 86 10000 1 0 07:41 02.04.2020
6481 Clouds 0 1015 86 10000 1 0 07:19 02.04.2020
6482 Clouds 0 1015 86 10000 2.1 150 06:25 02.04.2020
6483 Clear 0 1016 86 10000 1.5 60 05:59 02.04.2020
6484 Clear 0 1016 86 10000 1.5 60 05:41 02.04.2020
6485 Clear 1 1016 73 10000 2.1 150 02:46 02.04.2020
6486 Clear 2 1017 74 10000 0.5 210 01:28 02.04.2020
6487 Clear 3 1017 64 10000 2.1 40 00:42 02.04.2020
6488 Clear 4 1017 64 10000 3.1 50 00:24 02.04.2020
6489 Clear 4 1017 60 10000 2.6 40 23:41 01.04.2020
6490 Clear 4 1017 52 10000 2.6 30 23:20 01.04.2020
6491 Clear 5 1017 51 10000 2.1 10 22:58 01.04.2020
6492 Clear 5 1017 51 10000 2.1 10 22:58 01.04.2020
6493 Clear 5 1017 51 10000 2.1 10 22:39 01.04.2020
6494 Clear 5 1017 51 10000 2.1 10 22:21 01.04.2020
6495 Clear 6 1017 45 10000 2.1 350 21:42 01.04.2020
6496 Clear 6 1017 45 10000 2.1 350 21:42 01.04.2020
6497 -273 0 0 0 0 0 21:22 01.04.2020
6498 Clear 6 1017 45 10000 1.5 350 21:21 01.04.2020
6499 Clear 6 1017 45 10000 1.5 350 21:21 01.04.2020
6500 Clear 6 1017 45 10000 1.5 350 21:21 01.04.2020
6501 Clear 6 1017 45 10000 1.5 350 21:20 01.04.2020
6502 Clear 6 1017 45 10000 1.5 350 20:57 01.04.2020
6503 Clear 7 1017 42 10000 2.1 340 20:39 01.04.2020
6504 Clear 8 1017 39 10000 2.6 330 20:20 01.04.2020
6505 Clear 8 1017 39 10000 2.6 330 20:20 01.04.2020
6506 Clear 9 1017 39 10000 2.6 330 19:59 01.04.2020
6507 Clear 9 1017 34 10000 3.1 310 19:41 01.04.2020
6508 -273 0 0 0 0 0 19:20 01.04.2020
6509 Clear 10 1018 32 10000 3.1 310 18:44 01.04.2020
6510 Clear 11 1018 29 10000 4.1 280 18:25 01.04.2020
6511 Clear 11 1018 29 10000 3.6 300 17:58 01.04.2020
6512 Clear 11 1018 29 10000 3.6 300 17:38 01.04.2020
6513 Clear 11 1018 29 10000 3.1 280 17:20 01.04.2020
6514 Clear 11 1018 29 10000 3.1 280 16:59 01.04.2020
6515 Clear 11 1019 29 10000 2.6 270 16:40 01.04.2020
6516 Clear 11 1019 29 10000 2.1 250 16:22 01.04.2020
6517 Clear 11 1019 32 10000 2.1 270 15:58 01.04.2020
6518 Clear 11 1019 32 10000 2.1 270 15:38 01.04.2020
6519 Clear 11 1020 32 10000 2.1 0 15:20 01.04.2020
6520 Clear 10 1020 32 10000 2.1 0 14:57 01.04.2020
6521 Clear 10 1020 34 10000 2.6 280 14:38 01.04.2020
6522 Clear 10 1021 34 10000 3.1 330 14:19 01.04.2020
6523 Clear 10 1021 34 10000 3.1 330 13:57 01.04.2020
6524 Clear 9 1021 34 10000 2.6 300 13:37 01.04.2020
6525 Clear 9 1022 36 10000 2.1 0 13:18 01.04.2020
6526 Clear 9 1022 36 10000 2.1 0 12:54 01.04.2020
6527 Clear 8 1022 36 10000 1.5 0 12:36 01.04.2020
6528 Clear 8 1023 33 10000 1.5 0 12:18 01.04.2020
6529 Clear 7 1023 39 10000 1.5 0 11:42 01.04.2020
6530 Clear 7 1023 39 10000 1.5 0 11:23 01.04.2020
6531 Clear 6 1023 41 10000 1.5 0 10:58 01.04.2020
6532 Clear 5 1024 48 10000 1.5 150 10:38 01.04.2020
6533 Clear 5 1024 51 10000 2.1 160 10:19 01.04.2020
6534 Clear 4 1024 51 10000 2.1 160 09:57 01.04.2020
6535 Clear 3 1024 59 10000 1.5 150 09:39 01.04.2020
6536 Clouds 1 1024 64 10000 1.5 150 09:18 01.04.2020
6537 Clouds 0 1024 74 10000 0.5 120 08:42 01.04.2020
6538 Clouds -1 1024 79 10000 1.5 120 08:18 01.04.2020
6539 Clouds -2 1024 79 10000 0.5 0 07:46 01.04.2020
6540 Clouds -2 1024 79 10000 1.5 140 07:21 01.04.2020
6541 Clouds -2 1024 79 10000 1.5 140 06:58 01.04.2020
6542 Clouds -1 1024 79 10000 0.5 0 06:27 01.04.2020
6543 Clouds -1 1024 79 10000 0.5 0 05:59 01.04.2020
6544 Clouds -1 1025 74 10000 0.5 0 04:36 01.04.2020
6545 Clouds -1 1025 74 10000 1 0 03:35 01.04.2020
6546 Clear 0 1025 59 0 2.1 70 02:57 01.04.2020
6547 Clear 0 1026 68 10000 2.1 60 02:23 01.04.2020
6548 Clear 1 1026 59 10000 0.5 0 01:43 01.04.2020
6549 Clear 1 1026 59 10000 0.5 0 01:23 01.04.2020
6550 Clear 1 1026 76 10000 1.5 90 00:47 01.04.2020
6551 Clear 2 1026 64 10000 2.1 40 00:21 01.04.2020
6552 Clear 2 1027 59 10000 1.5 120 23:54 31.03.2020
6553 Clear 3 1027 59 10000 1.5 120 23:36 31.03.2020
6554 Clear 3 1027 55 10000 1 30 23:18 31.03.2020
6555 Clear 3 1027 51 10000 2.1 40 22:40 31.03.2020
6556 Clear 4 1027 44 10000 3.1 40 22:21 31.03.2020
6557 Clear 4 1027 44 10000 3.1 30 21:58 31.03.2020
6558 Clear 4 1027 44 10000 3.1 30 21:58 31.03.2020
6559 Clear 5 1027 44 10000 3.1 30 21:39 31.03.2020
6560 Clear 5 1027 41 10000 4.1 20 21:21 31.03.2020
6561 Clear 6 1027 41 10000 4.1 20 20:57 31.03.2020
6562 Clear 7 1027 39 10000 5.1 20 20:37 31.03.2020
6563 Clear 7 1027 39 10000 5.1 20 20:19 31.03.2020
6564 Clear 8 1027 39 10000 5.1 10 19:56 31.03.2020
6565 Clear 8 1027 39 10000 5.1 10 19:37 31.03.2020
6566 Clear 9 1027 36 10000 4.6 20 19:19 31.03.2020
6567 Clear 9 1026 34 10000 4.1 20 18:44 31.03.2020
6568 Clear 10 1027 34 10000 4.6 360 18:20 31.03.2020
6569 Clear 10 1027 31 10000 4.1 30 17:57 31.03.2020
6570 Clear 10 1027 31 10000 4.1 30 17:57 31.03.2020
6571 Clear 10 1027 31 10000 4.1 30 17:39 31.03.2020
6572 Clear 10 1027 29 10000 1.5 0 17:21 31.03.2020
6573 Clear 10 1027 29 10000 4.1 20 16:56 31.03.2020
6574 Clear 10 1027 29 10000 4.1 20 16:37 31.03.2020
6575 Clear 10 1028 29 10000 2.1 0 16:18 31.03.2020
6576 Clear 10 1028 29 10000 2.1 0 15:56 31.03.2020
6577 Clear 9 1028 29 10000 2.6 0 15:37 31.03.2020
6578 Clear 9 1028 29 10000 2.6 0 15:37 31.03.2020
6579 Clear 9 1028 34 10000 3.1 0 15:18 31.03.2020
6580 Clear 9 1028 36 10000 3.6 0 14:43 31.03.2020
6581 Clear 9 1029 36 10000 3.6 30 14:24 31.03.2020
6582 Clear 9 1029 36 10000 3.6 30 13:59 31.03.2020
6583 Clear 8 1029 39 10000 3.1 100 13:41 31.03.2020
6584 Clear 8 1029 39 10000 2.6 0 13:19 31.03.2020
6585 Clear 8 1029 39 10000 2.1 0 12:54 31.03.2020
6586 Clear 7 1029 39 10000 2.1 0 12:36 31.03.2020
6587 Clear 7 1029 42 10000 4.1 90 12:18 31.03.2020
6588 Clouds 6 1030 42 10000 4.6 60 11:38 31.03.2020
6589 Clouds 6 1030 52 10000 3.6 90 11:19 31.03.2020
6590 Clouds 5 1029 56 10000 4.1 70 10:57 31.03.2020
6591 Clouds 5 1029 56 10000 4.1 70 10:39 31.03.2020
6592 Clouds 4 1029 58 10000 3.6 50 10:21 31.03.2020
6593 Clouds 4 1029 58 10000 3.6 50 10:21 31.03.2020
6594 Clear 4 1029 58 10000 3.1 70 09:56 31.03.2020
6595 Clear 3 1029 58 10000 3.1 70 09:37 31.03.2020
6596 Clouds 2 1029 83 10000 0.5 0 09:19 31.03.2020
6597 Clouds 2 1029 83 10000 1.5 40 08:55 31.03.2020
6598 Clouds 2 1029 83 10000 1.5 40 08:37 31.03.2020
6599 Clouds 1 1029 83 10000 2.6 50 08:18 31.03.2020
6600 Clouds 1 1028 83 10000 3.1 50 07:44 31.03.2020
6601 Clouds 1 1028 83 10000 3.1 50 07:25 31.03.2020
6602 Clouds 1 1028 83 10000 2.6 60 06:59 31.03.2020
6603 Clouds 1 1028 83 10000 2.1 50 06:41 31.03.2020
6604 Clouds 2 1027 81 10000 1.5 40 05:44 31.03.2020
6605 Clouds 2 1027 100 10000 1.5 10 05:24 31.03.2020
6606 Clouds 3 1027 93 10000 2.6 20 02:57 31.03.2020
6607 -273 0 0 0 0 0 01:47 31.03.2020
6608 Rain 4 1026 100 10000 2.1 350 01:27 31.03.2020
6609 Clouds 4 1026 93 10000 0.5 0 00:43 31.03.2020
6610 Clouds 5 1027 93 10000 1 30 00:23 31.03.2020
6611 Clouds 5 1027 93 10000 1.5 340 23:41 30.03.2020
6612 Clouds 5 1026 93 10000 0.5 0 23:20 30.03.2020
6613 Clouds 5 1026 93 10000 0.5 0 22:58 30.03.2020
6614 Clouds 5 1026 93 10000 0.5 0 22:58 30.03.2020
6615 Rain 5 1026 80 10000 2.1 350 22:39 30.03.2020
6616 Rain 5 1026 80 10000 1 0 22:19 30.03.2020
6617 Rain 6 1026 80 10000 1 0 21:58 30.03.2020
6618 Rain 6 1026 75 10000 1.5 30 21:38 30.03.2020
6619 Rain 6 1026 70 10000 4.1 340 21:20 30.03.2020
6620 Rain 6 1026 56 10000 2.6 330 20:58 30.03.2020
6621 Rain 6 1026 56 10000 2.6 330 20:39 30.03.2020
6622 Rain 7 1026 56 10000 2.6 320 20:20 30.03.2020
6623 Clouds 7 1026 52 10000 3.6 310 19:56 30.03.2020
6624 Clouds 7 1026 52 10000 3.6 310 19:38 30.03.2020
6625 Clouds 7 1026 52 10000 3.6 340 19:20 30.03.2020
6626 Clouds 7 1026 52 10000 4.1 310 18:43 30.03.2020
6627 Clouds 7 1026 52 10000 4.1 310 18:25 30.03.2020
6628 Clouds 8 1026 48 10000 3.6 330 17:58 30.03.2020
6629 Clouds 8 1026 48 10000 3.6 330 17:39 30.03.2020
6630 Clouds 8 1027 45 10000 5.7 320 17:20 30.03.2020
6631 Clouds 8 1027 45 10000 5.7 320 16:58 30.03.2020
6632 Clouds 8 1027 48 10000 3.6 330 16:39 30.03.2020
6633 Clouds 8 1028 45 10000 5.1 320 16:20 30.03.2020
6634 Clouds 8 1028 45 10000 5.1 320 16:20 30.03.2020
6635 Clouds 8 1028 45 10000 5.1 320 16:20 30.03.2020
6636 Clouds 8 1028 45 10000 5.1 320 15:56 30.03.2020
6637 Clouds 7 1028 45 10000 4.1 330 15:38 30.03.2020
6638 Clear 7 1028 42 10000 5.7 310 15:20 30.03.2020
6639 Clear 7 1028 39 10000 4.1 0 14:56 30.03.2020
6640 Clear 7 1028 39 10000 4.1 0 14:37 30.03.2020
6641 Clear 7 1028 36 10000 4.1 300 14:18 30.03.2020
6642 Clear 7 1029 35 10000 2.6 220 13:56 30.03.2020
6643 Clear 6 1029 35 10000 2.6 220 13:37 30.03.2020
6644 Clear 6 1029 38 10000 4.1 300 13:19 30.03.2020
6645 Clear 5 1030 38 10000 2.6 270 12:44 30.03.2020
6646 Clear 5 1030 32 10000 3.1 300 12:21 30.03.2020
6647 Clear 5 1030 32 10000 3.1 300 12:21 30.03.2020
6648 Clear 4 1031 38 10000 1.5 0 11:57 30.03.2020
6649 Clear 4 1031 38 10000 1.5 0 11:39 30.03.2020
6650 Clear 3 1031 37 10000 1 0 11:21 30.03.2020
6651 Clear 3 1031 44 10000 1.5 290 10:55 30.03.2020
6652 Clear 2 1031 44 10000 1.5 290 10:36 30.03.2020
6653 Clear 2 1031 47 10000 1 0 10:18 30.03.2020
6654 Clear 0 1032 60 10000 0.5 0 09:40 30.03.2020
6655 Clear -1 1031 82 10000 0.5 120 09:19 30.03.2020
6656 Clear -2 1031 82 10000 0.5 120 08:56 30.03.2020
6657 Clear -2 1031 68 10000 1 70 08:36 30.03.2020
6658 Clear -3 1031 63 10000 1 0 08:18 30.03.2020
6659 Clear -4 1032 63 10000 1.5 60 07:42 30.03.2020
6660 Clear -4 1032 58 10000 1.5 360 07:21 30.03.2020
6661 Clear -4 1032 58 10000 2.1 20 06:43 30.03.2020
6662 Clear -4 1032 58 10000 2.1 20 06:25 30.03.2020
6663 Clear -3 1032 58 10000 1.5 30 05:44 30.03.2020
6664 Clear -2 1032 54 10000 3.6 360 04:31 30.03.2020
6665 Clear -2 1032 54 10000 2.6 30 03:57 30.03.2020
6666 Clear -1 1032 54 10000 3.1 20 02:45 30.03.2020
6667 Clear 0 1032 82 10000 3.6 10 01:57 30.03.2020
6668 Clear 0 1032 47 10000 4.1 20 01:18 30.03.2020
6669 Clear 1 1032 47 10000 3.6 20 00:29 30.03.2020
6670 Clouds 2 1032 47 10000 4.1 20 23:56 29.03.2020
6671 Clouds 2 1032 51 10000 4.6 20 23:37 29.03.2020
6672 Clouds 2 1032 55 10000 4.1 20 23:19 29.03.2020
6673 Clouds 3 1032 55 10000 4.1 20 22:55 29.03.2020
6674 Clouds 3 1032 59 10000 4.6 20 22:37 29.03.2020
6675 Clouds 3 1032 59 10000 4.6 20 22:37 29.03.2020
6676 Clouds 3 1031 59 10000 6.2 30 22:18 29.03.2020
6677 Clouds 3 1031 55 10000 6.7 30 21:38 29.03.2020
6678 Clouds 3 1031 60 10000 6.7 20 21:20 29.03.2020
6679 Clouds 3 1030 64 10000 6.7 10 20:56 29.03.2020
6680 Clouds 3 1030 64 10000 6.7 10 20:37 29.03.2020
6681 Clouds 4 1030 69 10000 6.7 30 20:19 29.03.2020
6682 Snow 3 1029 74 10000 5.7 20 19:58 29.03.2020
6683 Snow 3 1029 74 10000 5.7 20 19:40 29.03.2020
6684 Clouds 4 1029 69 10000 8.2 20 19:22 29.03.2020
6685 Snow 3 1028 72 10000 7.2 20 18:57 29.03.2020
6686 Snow 3 1028 72 10000 7.2 20 18:38 29.03.2020
6687 Snow 3 1028 69 10000 6.2 30 18:20 29.03.2020
6688 Snow 3 1028 69 10000 5.7 20 17:56 29.03.2020
6689 Snow 3 1028 69 10000 5.7 20 17:38 29.03.2020
6690 Clouds 3 1027 69 10000 6.2 10 17:19 29.03.2020
6691 Clouds 3 1027 74 10000 6.7 10 16:57 29.03.2020
6692 Clouds 3 1027 74 10000 6.7 10 16:38 29.03.2020
6693 Clouds 3 1027 74 10000 6.7 10 16:38 29.03.2020
6694 Clouds 3 1027 73 10000 7.2 360 16:19 29.03.2020
6695 Clouds 3 1027 73 10000 8.7 10 15:43 29.03.2020
6696 Clouds 3 1027 73 10000 8.7 10 15:25 29.03.2020
6697 Rain 4 1026